<?xml version="1.0" encoding="UTF-8" standalone="no" ?>
<gpx xmlns="http://www.topografix.com/GPX/1/1" xmlns:xsi="http://www.w3.org/2001/XMLSchema-instance" xsi:schemaLocation="http://www.topografix.com/GPX/1/1 http://www.topografix.com/GPX/1/1/gpx.xsd" version="1.1" creator="VisuGPX - https://www.visugpx.com">
  <metadata>
    <name>Saint-Laurent-du-Verdon 19 novembre 2025</name>
    <desc><![CDATA[Boucle de 12 km, dénivelé cumulé 275 m au départ de St Laurent du Verdon]]></desc>
  </metadata>
  <trk>
    <name><![CDATA[Saint-Laurent-du-Verdon 19 novembre 2025]]></name>
    <trkseg>
      <trkpt lat="43.72503" lon="6.06816">
        <ele>470.7</ele>
        <time>2025-11-19T09:39:32.614Z</time>
      </trkpt>
      <trkpt lat="43.72501" lon="6.06814">
        <ele>470.7</ele>
        <time>2025-11-19T09:39:36.615Z</time>
      </trkpt>
      <trkpt lat="43.72498" lon="6.06812">
        <ele>470.5</ele>
        <time>2025-11-19T09:39:40.614Z</time>
      </trkpt>
      <trkpt lat="43.72496" lon="6.0681">
        <ele>470.4</ele>
        <time>2025-11-19T09:39:42.614Z</time>
      </trkpt>
      <trkpt lat="43.72494" lon="6.06808">
        <ele>470.2</ele>
        <time>2025-11-19T09:39:44.614Z</time>
      </trkpt>
      <trkpt lat="43.72491" lon="6.06806">
        <ele>470</ele>
        <time>2025-11-19T09:39:49.614Z</time>
      </trkpt>
      <trkpt lat="43.72489" lon="6.06803">
        <ele>469.9</ele>
        <time>2025-11-19T09:39:53.614Z</time>
      </trkpt>
      <trkpt lat="43.72487" lon="6.06801">
        <ele>470</ele>
        <time>2025-11-19T09:39:56.614Z</time>
      </trkpt>
      <trkpt lat="43.72486" lon="6.06798">
        <ele>470.1</ele>
        <time>2025-11-19T09:39:59.615Z</time>
      </trkpt>
      <trkpt lat="43.72485" lon="6.06795">
        <ele>470.2</ele>
        <time>2025-11-19T09:40:01.614Z</time>
      </trkpt>
      <trkpt lat="43.72484" lon="6.06792">
        <ele>470.3</ele>
        <time>2025-11-19T09:40:04.614Z</time>
      </trkpt>
      <trkpt lat="43.72482" lon="6.06789">
        <ele>470.4</ele>
        <time>2025-11-19T09:40:07.615Z</time>
      </trkpt>
      <trkpt lat="43.72479" lon="6.06788">
        <ele>470.3</ele>
        <time>2025-11-19T09:40:18.614Z</time>
      </trkpt>
      <trkpt lat="43.72481" lon="6.0679">
        <ele>470.3</ele>
        <time>2025-11-19T09:46:21.615Z</time>
      </trkpt>
      <trkpt lat="43.72484" lon="6.06792">
        <ele>470.3</ele>
        <time>2025-11-19T09:46:32.614Z</time>
      </trkpt>
      <trkpt lat="43.72485" lon="6.06795">
        <ele>470.2</ele>
        <time>2025-11-19T09:46:36.615Z</time>
      </trkpt>
      <trkpt lat="43.72487" lon="6.06797">
        <ele>470.2</ele>
        <time>2025-11-19T09:46:39.614Z</time>
      </trkpt>
      <trkpt lat="43.72489" lon="6.06801">
        <ele>470.1</ele>
        <time>2025-11-19T09:46:42.614Z</time>
      </trkpt>
      <trkpt lat="43.72491" lon="6.06804">
        <ele>470.1</ele>
        <time>2025-11-19T09:46:45.614Z</time>
      </trkpt>
      <trkpt lat="43.72492" lon="6.06807">
        <ele>470.1</ele>
        <time>2025-11-19T09:46:49.615Z</time>
      </trkpt>
      <trkpt lat="43.72495" lon="6.0681">
        <ele>470.3</ele>
        <time>2025-11-19T09:46:52.615Z</time>
      </trkpt>
      <trkpt lat="43.72496" lon="6.06813">
        <ele>470.4</ele>
        <time>2025-11-19T09:46:55.615Z</time>
      </trkpt>
      <trkpt lat="43.72499" lon="6.06815">
        <ele>470.5</ele>
        <time>2025-11-19T09:46:58.614Z</time>
      </trkpt>
      <trkpt lat="43.72501" lon="6.06818">
        <ele>470.6</ele>
        <time>2025-11-19T09:47:01.615Z</time>
      </trkpt>
      <trkpt lat="43.72504" lon="6.0682">
        <ele>470.5</ele>
        <time>2025-11-19T09:47:04.615Z</time>
      </trkpt>
      <trkpt lat="43.72506" lon="6.06822">
        <ele>470.5</ele>
        <time>2025-11-19T09:47:06.615Z</time>
      </trkpt>
      <trkpt lat="43.72508" lon="6.06825">
        <ele>470.4</ele>
        <time>2025-11-19T09:47:09.615Z</time>
      </trkpt>
      <trkpt lat="43.72509" lon="6.06828">
        <ele>470.3</ele>
        <time>2025-11-19T09:47:11.614Z</time>
      </trkpt>
      <trkpt lat="43.7251" lon="6.06831">
        <ele>470.1</ele>
        <time>2025-11-19T09:47:14.614Z</time>
      </trkpt>
      <trkpt lat="43.72511" lon="6.06835">
        <ele>470</ele>
        <time>2025-11-19T09:47:17.615Z</time>
      </trkpt>
      <trkpt lat="43.72511" lon="6.06838">
        <ele>469.9</ele>
        <time>2025-11-19T09:47:21.614Z</time>
      </trkpt>
      <trkpt lat="43.72511" lon="6.06842">
        <ele>469.8</ele>
        <time>2025-11-19T09:47:25.615Z</time>
      </trkpt>
      <trkpt lat="43.7251" lon="6.06845">
        <ele>469.7</ele>
        <time>2025-11-19T09:47:29.615Z</time>
      </trkpt>
      <trkpt lat="43.7251" lon="6.06849">
        <ele>469.6</ele>
        <time>2025-11-19T09:47:32.615Z</time>
      </trkpt>
      <trkpt lat="43.72508" lon="6.06853">
        <ele>469.5</ele>
        <time>2025-11-19T09:47:36.615Z</time>
      </trkpt>
      <trkpt lat="43.72507" lon="6.06858">
        <ele>469.4</ele>
        <time>2025-11-19T09:47:39.614Z</time>
      </trkpt>
      <trkpt lat="43.72508" lon="6.06862">
        <ele>469.3</ele>
        <time>2025-11-19T09:47:41.614Z</time>
      </trkpt>
      <trkpt lat="43.72509" lon="6.06865">
        <ele>469.2</ele>
        <time>2025-11-19T09:47:44.614Z</time>
      </trkpt>
      <trkpt lat="43.7251" lon="6.06869">
        <ele>469.2</ele>
        <time>2025-11-19T09:47:47.615Z</time>
      </trkpt>
      <trkpt lat="43.72512" lon="6.06872">
        <ele>469.2</ele>
        <time>2025-11-19T09:47:50.615Z</time>
      </trkpt>
      <trkpt lat="43.72513" lon="6.06874">
        <ele>469.2</ele>
        <time>2025-11-19T09:47:53.615Z</time>
      </trkpt>
      <trkpt lat="43.72515" lon="6.06876">
        <ele>469.3</ele>
        <time>2025-11-19T09:47:55.614Z</time>
      </trkpt>
      <trkpt lat="43.72517" lon="6.06879">
        <ele>469.3</ele>
        <time>2025-11-19T09:47:59.615Z</time>
      </trkpt>
      <trkpt lat="43.72518" lon="6.06883">
        <ele>469.4</ele>
        <time>2025-11-19T09:48:03.615Z</time>
      </trkpt>
      <trkpt lat="43.72519" lon="6.06886">
        <ele>469.4</ele>
        <time>2025-11-19T09:48:06.615Z</time>
      </trkpt>
      <trkpt lat="43.72521" lon="6.06889">
        <ele>469.5</ele>
        <time>2025-11-19T09:48:09.615Z</time>
      </trkpt>
      <trkpt lat="43.72523" lon="6.06891">
        <ele>469.6</ele>
        <time>2025-11-19T09:48:12.614Z</time>
      </trkpt>
      <trkpt lat="43.72524" lon="6.06894">
        <ele>469.6</ele>
        <time>2025-11-19T09:48:15.615Z</time>
      </trkpt>
      <trkpt lat="43.72526" lon="6.06897">
        <ele>469.6</ele>
        <time>2025-11-19T09:48:19.615Z</time>
      </trkpt>
      <trkpt lat="43.72526" lon="6.069">
        <ele>469.5</ele>
        <time>2025-11-19T09:48:22.614Z</time>
      </trkpt>
      <trkpt lat="43.72528" lon="6.06903">
        <ele>469.5</ele>
        <time>2025-11-19T09:48:25.615Z</time>
      </trkpt>
      <trkpt lat="43.72529" lon="6.06906">
        <ele>469.4</ele>
        <time>2025-11-19T09:48:28.615Z</time>
      </trkpt>
      <trkpt lat="43.72531" lon="6.06909">
        <ele>469.4</ele>
        <time>2025-11-19T09:48:31.614Z</time>
      </trkpt>
      <trkpt lat="43.72533" lon="6.06912">
        <ele>469.3</ele>
        <time>2025-11-19T09:48:34.614Z</time>
      </trkpt>
      <trkpt lat="43.72534" lon="6.06915">
        <ele>469.3</ele>
        <time>2025-11-19T09:48:37.615Z</time>
      </trkpt>
      <trkpt lat="43.72535" lon="6.06918">
        <ele>469.3</ele>
        <time>2025-11-19T09:48:40.615Z</time>
      </trkpt>
      <trkpt lat="43.72537" lon="6.0692">
        <ele>469.3</ele>
        <time>2025-11-19T09:48:43.615Z</time>
      </trkpt>
      <trkpt lat="43.72539" lon="6.06922">
        <ele>469.4</ele>
        <time>2025-11-19T09:48:46.615Z</time>
      </trkpt>
      <trkpt lat="43.72541" lon="6.06925">
        <ele>469.5</ele>
        <time>2025-11-19T09:48:49.615Z</time>
      </trkpt>
      <trkpt lat="43.72542" lon="6.06929">
        <ele>469.5</ele>
        <time>2025-11-19T09:48:52.615Z</time>
      </trkpt>
      <trkpt lat="43.72543" lon="6.06932">
        <ele>469.6</ele>
        <time>2025-11-19T09:48:55.615Z</time>
      </trkpt>
      <trkpt lat="43.72545" lon="6.06935">
        <ele>469.6</ele>
        <time>2025-11-19T09:48:58.615Z</time>
      </trkpt>
      <trkpt lat="43.72546" lon="6.06939">
        <ele>469.6</ele>
        <time>2025-11-19T09:49:01.615Z</time>
      </trkpt>
      <trkpt lat="43.72548" lon="6.06941">
        <ele>469.7</ele>
        <time>2025-11-19T09:49:04.615Z</time>
      </trkpt>
      <trkpt lat="43.7255" lon="6.06944">
        <ele>469.8</ele>
        <time>2025-11-19T09:49:07.615Z</time>
      </trkpt>
      <trkpt lat="43.72552" lon="6.06946">
        <ele>469.8</ele>
        <time>2025-11-19T09:49:10.615Z</time>
      </trkpt>
      <trkpt lat="43.72554" lon="6.0695">
        <ele>469.8</ele>
        <time>2025-11-19T09:49:13.614Z</time>
      </trkpt>
      <trkpt lat="43.72556" lon="6.06951">
        <ele>469.8</ele>
        <time>2025-11-19T09:49:15.615Z</time>
      </trkpt>
      <trkpt lat="43.72558" lon="6.06954">
        <ele>469.7</ele>
        <time>2025-11-19T09:49:17.614Z</time>
      </trkpt>
      <trkpt lat="43.7256" lon="6.06956">
        <ele>469.7</ele>
        <time>2025-11-19T09:49:19.614Z</time>
      </trkpt>
      <trkpt lat="43.72561" lon="6.06958">
        <ele>469.7</ele>
        <time>2025-11-19T09:49:22.615Z</time>
      </trkpt>
      <trkpt lat="43.72563" lon="6.06961">
        <ele>469.7</ele>
        <time>2025-11-19T09:49:24.615Z</time>
      </trkpt>
      <trkpt lat="43.72565" lon="6.06963">
        <ele>469.6</ele>
        <time>2025-11-19T09:49:27.615Z</time>
      </trkpt>
      <trkpt lat="43.72567" lon="6.06966">
        <ele>469.6</ele>
        <time>2025-11-19T09:49:29.615Z</time>
      </trkpt>
      <trkpt lat="43.72569" lon="6.06969">
        <ele>469.6</ele>
        <time>2025-11-19T09:49:33.615Z</time>
      </trkpt>
      <trkpt lat="43.72571" lon="6.06971">
        <ele>469.6</ele>
        <time>2025-11-19T09:49:36.615Z</time>
      </trkpt>
      <trkpt lat="43.72573" lon="6.06975">
        <ele>469.5</ele>
        <time>2025-11-19T09:49:39.615Z</time>
      </trkpt>
      <trkpt lat="43.72575" lon="6.06977">
        <ele>469.5</ele>
        <time>2025-11-19T09:49:41.615Z</time>
      </trkpt>
      <trkpt lat="43.72577" lon="6.0698">
        <ele>469.5</ele>
        <time>2025-11-19T09:49:44.615Z</time>
      </trkpt>
      <trkpt lat="43.7258" lon="6.06983">
        <ele>469.5</ele>
        <time>2025-11-19T09:49:47.615Z</time>
      </trkpt>
      <trkpt lat="43.72582" lon="6.06986">
        <ele>469.4</ele>
        <time>2025-11-19T09:49:51.615Z</time>
      </trkpt>
      <trkpt lat="43.72584" lon="6.06988">
        <ele>469.4</ele>
        <time>2025-11-19T09:49:55.615Z</time>
      </trkpt>
      <trkpt lat="43.72585" lon="6.0699">
        <ele>469.4</ele>
        <time>2025-11-19T09:49:58.615Z</time>
      </trkpt>
      <trkpt lat="43.72588" lon="6.06992">
        <ele>469.4</ele>
        <time>2025-11-19T09:50:01.615Z</time>
      </trkpt>
      <trkpt lat="43.72589" lon="6.06994">
        <ele>469.4</ele>
        <time>2025-11-19T09:50:03.615Z</time>
      </trkpt>
      <trkpt lat="43.72591" lon="6.06996">
        <ele>469.4</ele>
        <time>2025-11-19T09:50:05.615Z</time>
      </trkpt>
      <trkpt lat="43.72593" lon="6.06998">
        <ele>469.4</ele>
        <time>2025-11-19T09:50:07.615Z</time>
      </trkpt>
      <trkpt lat="43.72596" lon="6.07">
        <ele>469.5</ele>
        <time>2025-11-19T09:50:10.614Z</time>
      </trkpt>
      <trkpt lat="43.72598" lon="6.07002">
        <ele>469.4</ele>
        <time>2025-11-19T09:50:14.615Z</time>
      </trkpt>
      <trkpt lat="43.72601" lon="6.07003">
        <ele>469.5</ele>
        <time>2025-11-19T09:50:18.615Z</time>
      </trkpt>
      <trkpt lat="43.72604" lon="6.07003">
        <ele>469.5</ele>
        <time>2025-11-19T09:50:20.614Z</time>
      </trkpt>
      <trkpt lat="43.72606" lon="6.07002">
        <ele>469.7</ele>
        <time>2025-11-19T09:50:22.614Z</time>
      </trkpt>
      <trkpt lat="43.72608" lon="6.07002">
        <ele>469.8</ele>
        <time>2025-11-19T09:50:24.614Z</time>
      </trkpt>
      <trkpt lat="43.72611" lon="6.07001">
        <ele>469.9</ele>
        <time>2025-11-19T09:50:26.615Z</time>
      </trkpt>
      <trkpt lat="43.72613" lon="6.07">
        <ele>470</ele>
        <time>2025-11-19T09:50:28.615Z</time>
      </trkpt>
      <trkpt lat="43.72616" lon="6.06998">
        <ele>470.1</ele>
        <time>2025-11-19T09:50:31.615Z</time>
      </trkpt>
      <trkpt lat="43.72618" lon="6.06996">
        <ele>470.1</ele>
        <time>2025-11-19T09:50:34.615Z</time>
      </trkpt>
      <trkpt lat="43.72621" lon="6.06994">
        <ele>470.2</ele>
        <time>2025-11-19T09:50:37.615Z</time>
      </trkpt>
      <trkpt lat="43.72623" lon="6.06993">
        <ele>470.3</ele>
        <time>2025-11-19T09:50:40.614Z</time>
      </trkpt>
      <trkpt lat="43.72626" lon="6.0699">
        <ele>470.4</ele>
        <time>2025-11-19T09:50:46.615Z</time>
      </trkpt>
      <trkpt lat="43.72628" lon="6.06988">
        <ele>470.4</ele>
        <time>2025-11-19T09:50:49.615Z</time>
      </trkpt>
      <trkpt lat="43.72631" lon="6.06988">
        <ele>470.4</ele>
        <time>2025-11-19T09:50:52.615Z</time>
      </trkpt>
      <trkpt lat="43.72633" lon="6.06986">
        <ele>470.5</ele>
        <time>2025-11-19T09:50:54.615Z</time>
      </trkpt>
      <trkpt lat="43.72635" lon="6.06984">
        <ele>470.6</ele>
        <time>2025-11-19T09:50:57.615Z</time>
      </trkpt>
      <trkpt lat="43.72637" lon="6.06981">
        <ele>470.7</ele>
        <time>2025-11-19T09:51:00.615Z</time>
      </trkpt>
      <trkpt lat="43.7264" lon="6.0698">
        <ele>470.7</ele>
        <time>2025-11-19T09:51:03.614Z</time>
      </trkpt>
      <trkpt lat="43.72642" lon="6.06979">
        <ele>470.8</ele>
        <time>2025-11-19T09:51:06.615Z</time>
      </trkpt>
      <trkpt lat="43.72644" lon="6.06976">
        <ele>470.9</ele>
        <time>2025-11-19T09:51:10.615Z</time>
      </trkpt>
      <trkpt lat="43.72646" lon="6.06973">
        <ele>471</ele>
        <time>2025-11-19T09:51:12.615Z</time>
      </trkpt>
      <trkpt lat="43.72648" lon="6.06971">
        <ele>471.1</ele>
        <time>2025-11-19T09:51:15.615Z</time>
      </trkpt>
      <trkpt lat="43.7265" lon="6.06969">
        <ele>471.1</ele>
        <time>2025-11-19T09:51:18.615Z</time>
      </trkpt>
      <trkpt lat="43.72653" lon="6.06967">
        <ele>471.2</ele>
        <time>2025-11-19T09:51:21.615Z</time>
      </trkpt>
      <trkpt lat="43.72655" lon="6.06964">
        <ele>471.3</ele>
        <time>2025-11-19T09:51:24.615Z</time>
      </trkpt>
      <trkpt lat="43.72658" lon="6.06962">
        <ele>471.4</ele>
        <time>2025-11-19T09:51:27.614Z</time>
      </trkpt>
      <trkpt lat="43.7266" lon="6.0696">
        <ele>471.5</ele>
        <time>2025-11-19T09:51:30.615Z</time>
      </trkpt>
      <trkpt lat="43.72663" lon="6.06957">
        <ele>471.5</ele>
        <time>2025-11-19T09:51:33.615Z</time>
      </trkpt>
      <trkpt lat="43.72665" lon="6.06956">
        <ele>471.6</ele>
        <time>2025-11-19T09:51:35.615Z</time>
      </trkpt>
      <trkpt lat="43.72667" lon="6.06954">
        <ele>471.6</ele>
        <time>2025-11-19T09:51:37.614Z</time>
      </trkpt>
      <trkpt lat="43.72669" lon="6.06952">
        <ele>471.7</ele>
        <time>2025-11-19T09:51:40.614Z</time>
      </trkpt>
      <trkpt lat="43.72672" lon="6.06949">
        <ele>471.8</ele>
        <time>2025-11-19T09:51:43.615Z</time>
      </trkpt>
      <trkpt lat="43.72674" lon="6.06947">
        <ele>471.9</ele>
        <time>2025-11-19T09:51:45.614Z</time>
      </trkpt>
      <trkpt lat="43.72676" lon="6.06944">
        <ele>472</ele>
        <time>2025-11-19T09:51:47.615Z</time>
      </trkpt>
      <trkpt lat="43.72678" lon="6.06943">
        <ele>472.1</ele>
        <time>2025-11-19T09:51:50.615Z</time>
      </trkpt>
      <trkpt lat="43.72681" lon="6.06941">
        <ele>472.3</ele>
        <time>2025-11-19T09:51:53.614Z</time>
      </trkpt>
      <trkpt lat="43.72683" lon="6.06939">
        <ele>472.5</ele>
        <time>2025-11-19T09:51:55.615Z</time>
      </trkpt>
      <trkpt lat="43.72686" lon="6.06938">
        <ele>472.6</ele>
        <time>2025-11-19T09:51:58.614Z</time>
      </trkpt>
      <trkpt lat="43.72689" lon="6.06936">
        <ele>472.8</ele>
        <time>2025-11-19T09:52:01.615Z</time>
      </trkpt>
      <trkpt lat="43.72691" lon="6.06936">
        <ele>472.9</ele>
        <time>2025-11-19T09:52:04.615Z</time>
      </trkpt>
      <trkpt lat="43.72694" lon="6.06934">
        <ele>473.1</ele>
        <time>2025-11-19T09:52:07.615Z</time>
      </trkpt>
      <trkpt lat="43.72697" lon="6.06933">
        <ele>473.3</ele>
        <time>2025-11-19T09:52:10.615Z</time>
      </trkpt>
      <trkpt lat="43.72699" lon="6.06931">
        <ele>473.5</ele>
        <time>2025-11-19T09:52:12.615Z</time>
      </trkpt>
      <trkpt lat="43.72702" lon="6.06931">
        <ele>473.6</ele>
        <time>2025-11-19T09:52:14.614Z</time>
      </trkpt>
      <trkpt lat="43.72704" lon="6.0693">
        <ele>473.7</ele>
        <time>2025-11-19T09:52:16.615Z</time>
      </trkpt>
      <trkpt lat="43.72707" lon="6.06929">
        <ele>473.9</ele>
        <time>2025-11-19T09:52:18.615Z</time>
      </trkpt>
      <trkpt lat="43.7271" lon="6.06928">
        <ele>474</ele>
        <time>2025-11-19T09:52:21.614Z</time>
      </trkpt>
      <trkpt lat="43.72712" lon="6.06927">
        <ele>474.1</ele>
        <time>2025-11-19T09:52:24.615Z</time>
      </trkpt>
      <trkpt lat="43.72715" lon="6.06926">
        <ele>474.3</ele>
        <time>2025-11-19T09:52:26.614Z</time>
      </trkpt>
      <trkpt lat="43.72717" lon="6.06925">
        <ele>474.3</ele>
        <time>2025-11-19T09:52:28.614Z</time>
      </trkpt>
      <trkpt lat="43.7272" lon="6.06925">
        <ele>474.4</ele>
        <time>2025-11-19T09:52:30.615Z</time>
      </trkpt>
      <trkpt lat="43.72723" lon="6.06925">
        <ele>474.4</ele>
        <time>2025-11-19T09:52:33.615Z</time>
      </trkpt>
      <trkpt lat="43.72726" lon="6.06924">
        <ele>474.6</ele>
        <time>2025-11-19T09:52:36.615Z</time>
      </trkpt>
      <trkpt lat="43.72728" lon="6.06924">
        <ele>474.6</ele>
        <time>2025-11-19T09:52:38.615Z</time>
      </trkpt>
      <trkpt lat="43.72731" lon="6.06923">
        <ele>474.8</ele>
        <time>2025-11-19T09:52:41.615Z</time>
      </trkpt>
      <trkpt lat="43.72734" lon="6.06923">
        <ele>474.9</ele>
        <time>2025-11-19T09:52:44.615Z</time>
      </trkpt>
      <trkpt lat="43.72738" lon="6.06923">
        <ele>475</ele>
        <time>2025-11-19T09:52:47.615Z</time>
      </trkpt>
      <trkpt lat="43.72741" lon="6.06923">
        <ele>475.1</ele>
        <time>2025-11-19T09:52:50.615Z</time>
      </trkpt>
      <trkpt lat="43.72743" lon="6.06922">
        <ele>475.2</ele>
        <time>2025-11-19T09:52:52.614Z</time>
      </trkpt>
      <trkpt lat="43.72746" lon="6.06922">
        <ele>475.3</ele>
        <time>2025-11-19T09:52:55.615Z</time>
      </trkpt>
      <trkpt lat="43.72749" lon="6.06923">
        <ele>475.3</ele>
        <time>2025-11-19T09:52:58.615Z</time>
      </trkpt>
      <trkpt lat="43.72752" lon="6.06923">
        <ele>475.4</ele>
        <time>2025-11-19T09:53:00.615Z</time>
      </trkpt>
      <trkpt lat="43.72755" lon="6.06923">
        <ele>475.3</ele>
        <time>2025-11-19T09:53:02.615Z</time>
      </trkpt>
      <trkpt lat="43.72757" lon="6.06923">
        <ele>475.4</ele>
        <time>2025-11-19T09:53:04.615Z</time>
      </trkpt>
      <trkpt lat="43.7276" lon="6.06922">
        <ele>475.5</ele>
        <time>2025-11-19T09:53:06.615Z</time>
      </trkpt>
      <trkpt lat="43.72763" lon="6.06922">
        <ele>475.5</ele>
        <time>2025-11-19T09:53:09.615Z</time>
      </trkpt>
      <trkpt lat="43.72767" lon="6.06921">
        <ele>475.6</ele>
        <time>2025-11-19T09:53:12.615Z</time>
      </trkpt>
      <trkpt lat="43.7277" lon="6.06921">
        <ele>475.6</ele>
        <time>2025-11-19T09:53:14.615Z</time>
      </trkpt>
      <trkpt lat="43.72773" lon="6.06921">
        <ele>475.7</ele>
        <time>2025-11-19T09:53:17.615Z</time>
      </trkpt>
      <trkpt lat="43.72776" lon="6.0692">
        <ele>475.7</ele>
        <time>2025-11-19T09:53:19.615Z</time>
      </trkpt>
      <trkpt lat="43.72779" lon="6.06919">
        <ele>475.9</ele>
        <time>2025-11-19T09:53:22.615Z</time>
      </trkpt>
      <trkpt lat="43.72781" lon="6.06919">
        <ele>476.1</ele>
        <time>2025-11-19T09:53:24.614Z</time>
      </trkpt>
      <trkpt lat="43.72784" lon="6.06919">
        <ele>476.3</ele>
        <time>2025-11-19T09:53:26.615Z</time>
      </trkpt>
      <trkpt lat="43.72786" lon="6.06918">
        <ele>476.5</ele>
        <time>2025-11-19T09:53:28.615Z</time>
      </trkpt>
      <trkpt lat="43.72789" lon="6.06918">
        <ele>476.7</ele>
        <time>2025-11-19T09:53:30.614Z</time>
      </trkpt>
      <trkpt lat="43.72791" lon="6.06917">
        <ele>476.9</ele>
        <time>2025-11-19T09:53:33.615Z</time>
      </trkpt>
      <trkpt lat="43.72795" lon="6.06917">
        <ele>477.2</ele>
        <time>2025-11-19T09:53:36.614Z</time>
      </trkpt>
      <trkpt lat="43.72798" lon="6.06917">
        <ele>477.4</ele>
        <time>2025-11-19T09:53:39.614Z</time>
      </trkpt>
      <trkpt lat="43.72801" lon="6.06918">
        <ele>477.6</ele>
        <time>2025-11-19T09:53:42.615Z</time>
      </trkpt>
      <trkpt lat="43.72804" lon="6.06918">
        <ele>477.7</ele>
        <time>2025-11-19T09:53:44.615Z</time>
      </trkpt>
      <trkpt lat="43.72807" lon="6.06917">
        <ele>477.9</ele>
        <time>2025-11-19T09:53:47.615Z</time>
      </trkpt>
      <trkpt lat="43.72809" lon="6.06917">
        <ele>478</ele>
        <time>2025-11-19T09:53:49.615Z</time>
      </trkpt>
      <trkpt lat="43.72812" lon="6.06916">
        <ele>478</ele>
        <time>2025-11-19T09:53:51.615Z</time>
      </trkpt>
      <trkpt lat="43.72815" lon="6.06916">
        <ele>478</ele>
        <time>2025-11-19T09:53:54.615Z</time>
      </trkpt>
      <trkpt lat="43.72818" lon="6.06915">
        <ele>478</ele>
        <time>2025-11-19T09:53:57.615Z</time>
      </trkpt>
      <trkpt lat="43.7282" lon="6.06913">
        <ele>478.1</ele>
        <time>2025-11-19T09:53:59.615Z</time>
      </trkpt>
      <trkpt lat="43.72823" lon="6.06913">
        <ele>478.1</ele>
        <time>2025-11-19T09:54:01.615Z</time>
      </trkpt>
      <trkpt lat="43.72825" lon="6.06914">
        <ele>478.1</ele>
        <time>2025-11-19T09:54:04.614Z</time>
      </trkpt>
      <trkpt lat="43.72828" lon="6.06914">
        <ele>478.1</ele>
        <time>2025-11-19T09:54:06.615Z</time>
      </trkpt>
      <trkpt lat="43.7283" lon="6.06913">
        <ele>478.1</ele>
        <time>2025-11-19T09:54:09.615Z</time>
      </trkpt>
      <trkpt lat="43.72833" lon="6.06912">
        <ele>478.2</ele>
        <time>2025-11-19T09:54:11.614Z</time>
      </trkpt>
      <trkpt lat="43.72835" lon="6.06911">
        <ele>478.3</ele>
        <time>2025-11-19T09:54:13.615Z</time>
      </trkpt>
      <trkpt lat="43.72838" lon="6.06911">
        <ele>478.3</ele>
        <time>2025-11-19T09:54:16.614Z</time>
      </trkpt>
      <trkpt lat="43.7284" lon="6.06911">
        <ele>478.4</ele>
        <time>2025-11-19T09:54:18.615Z</time>
      </trkpt>
      <trkpt lat="43.72842" lon="6.06912">
        <ele>478.5</ele>
        <time>2025-11-19T09:54:21.615Z</time>
      </trkpt>
      <trkpt lat="43.72846" lon="6.06912">
        <ele>478.6</ele>
        <time>2025-11-19T09:54:24.615Z</time>
      </trkpt>
      <trkpt lat="43.72848" lon="6.06912">
        <ele>478.7</ele>
        <time>2025-11-19T09:54:26.615Z</time>
      </trkpt>
      <trkpt lat="43.7285" lon="6.06911">
        <ele>478.8</ele>
        <time>2025-11-19T09:54:28.615Z</time>
      </trkpt>
      <trkpt lat="43.72853" lon="6.06911">
        <ele>478.9</ele>
        <time>2025-11-19T09:54:30.615Z</time>
      </trkpt>
      <trkpt lat="43.72855" lon="6.06912">
        <ele>479</ele>
        <time>2025-11-19T09:54:32.615Z</time>
      </trkpt>
      <trkpt lat="43.72858" lon="6.06912">
        <ele>479.1</ele>
        <time>2025-11-19T09:54:35.615Z</time>
      </trkpt>
      <trkpt lat="43.7286" lon="6.06911">
        <ele>479.2</ele>
        <time>2025-11-19T09:54:38.615Z</time>
      </trkpt>
      <trkpt lat="43.72863" lon="6.06912">
        <ele>479.2</ele>
        <time>2025-11-19T09:54:41.615Z</time>
      </trkpt>
      <trkpt lat="43.72865" lon="6.06912">
        <ele>479.3</ele>
        <time>2025-11-19T09:54:43.615Z</time>
      </trkpt>
      <trkpt lat="43.72868" lon="6.06912">
        <ele>479.4</ele>
        <time>2025-11-19T09:54:45.615Z</time>
      </trkpt>
      <trkpt lat="43.7287" lon="6.06912">
        <ele>479.5</ele>
        <time>2025-11-19T09:54:48.615Z</time>
      </trkpt>
      <trkpt lat="43.72873" lon="6.06912">
        <ele>479.6</ele>
        <time>2025-11-19T09:54:52.615Z</time>
      </trkpt>
      <trkpt lat="43.72875" lon="6.0691">
        <ele>479.7</ele>
        <time>2025-11-19T09:54:54.615Z</time>
      </trkpt>
      <trkpt lat="43.72878" lon="6.06909">
        <ele>479.9</ele>
        <time>2025-11-19T09:54:56.615Z</time>
      </trkpt>
      <trkpt lat="43.7288" lon="6.06909">
        <ele>480</ele>
        <time>2025-11-19T09:54:59.615Z</time>
      </trkpt>
      <trkpt lat="43.72883" lon="6.06909">
        <ele>480.1</ele>
        <time>2025-11-19T09:55:02.615Z</time>
      </trkpt>
      <trkpt lat="43.72886" lon="6.06909">
        <ele>480.2</ele>
        <time>2025-11-19T09:55:04.615Z</time>
      </trkpt>
      <trkpt lat="43.72888" lon="6.06909">
        <ele>480.2</ele>
        <time>2025-11-19T09:55:06.615Z</time>
      </trkpt>
      <trkpt lat="43.72891" lon="6.06909">
        <ele>480.4</ele>
        <time>2025-11-19T09:55:08.615Z</time>
      </trkpt>
      <trkpt lat="43.72893" lon="6.06908">
        <ele>480.6</ele>
        <time>2025-11-19T09:55:10.615Z</time>
      </trkpt>
      <trkpt lat="43.72895" lon="6.06906">
        <ele>480.8</ele>
        <time>2025-11-19T09:55:13.614Z</time>
      </trkpt>
      <trkpt lat="43.72898" lon="6.06906">
        <ele>480.9</ele>
        <time>2025-11-19T09:55:15.615Z</time>
      </trkpt>
      <trkpt lat="43.729" lon="6.06906">
        <ele>481</ele>
        <time>2025-11-19T09:55:17.615Z</time>
      </trkpt>
      <trkpt lat="43.72904" lon="6.06905">
        <ele>481.2</ele>
        <time>2025-11-19T09:55:22.615Z</time>
      </trkpt>
      <trkpt lat="43.72907" lon="6.06904">
        <ele>481.4</ele>
        <time>2025-11-19T09:55:25.615Z</time>
      </trkpt>
      <trkpt lat="43.72909" lon="6.06903">
        <ele>481.6</ele>
        <time>2025-11-19T09:55:27.615Z</time>
      </trkpt>
      <trkpt lat="43.72911" lon="6.06901">
        <ele>481.7</ele>
        <time>2025-11-19T09:55:29.615Z</time>
      </trkpt>
      <trkpt lat="43.72914" lon="6.069">
        <ele>481.9</ele>
        <time>2025-11-19T09:55:33.615Z</time>
      </trkpt>
      <trkpt lat="43.72917" lon="6.06899">
        <ele>482</ele>
        <time>2025-11-19T09:55:35.615Z</time>
      </trkpt>
      <trkpt lat="43.72919" lon="6.06898">
        <ele>482.2</ele>
        <time>2025-11-19T09:55:37.615Z</time>
      </trkpt>
      <trkpt lat="43.72921" lon="6.06898">
        <ele>482.4</ele>
        <time>2025-11-19T09:55:39.615Z</time>
      </trkpt>
      <trkpt lat="43.72924" lon="6.06897">
        <ele>482.7</ele>
        <time>2025-11-19T09:55:42.615Z</time>
      </trkpt>
      <trkpt lat="43.72926" lon="6.06895">
        <ele>482.9</ele>
        <time>2025-11-19T09:55:44.614Z</time>
      </trkpt>
      <trkpt lat="43.72929" lon="6.06893">
        <ele>483.2</ele>
        <time>2025-11-19T09:55:46.615Z</time>
      </trkpt>
      <trkpt lat="43.72931" lon="6.06892">
        <ele>483.5</ele>
        <time>2025-11-19T09:55:48.615Z</time>
      </trkpt>
      <trkpt lat="43.72934" lon="6.0689">
        <ele>483.8</ele>
        <time>2025-11-19T09:55:51.615Z</time>
      </trkpt>
      <trkpt lat="43.72937" lon="6.06889">
        <ele>484.1</ele>
        <time>2025-11-19T09:55:54.615Z</time>
      </trkpt>
      <trkpt lat="43.7294" lon="6.06888">
        <ele>484.4</ele>
        <time>2025-11-19T09:55:57.615Z</time>
      </trkpt>
      <trkpt lat="43.72942" lon="6.06887">
        <ele>484.6</ele>
        <time>2025-11-19T09:55:59.615Z</time>
      </trkpt>
      <trkpt lat="43.72944" lon="6.06885">
        <ele>484.9</ele>
        <time>2025-11-19T09:56:03.615Z</time>
      </trkpt>
      <trkpt lat="43.72947" lon="6.06885">
        <ele>485</ele>
        <time>2025-11-19T09:56:05.615Z</time>
      </trkpt>
      <trkpt lat="43.72949" lon="6.06884">
        <ele>485.2</ele>
        <time>2025-11-19T09:56:08.614Z</time>
      </trkpt>
      <trkpt lat="43.72953" lon="6.06883">
        <ele>485.4</ele>
        <time>2025-11-19T09:56:12.615Z</time>
      </trkpt>
      <trkpt lat="43.72955" lon="6.06882">
        <ele>485.6</ele>
        <time>2025-11-19T09:56:15.615Z</time>
      </trkpt>
      <trkpt lat="43.72958" lon="6.06881">
        <ele>485.8</ele>
        <time>2025-11-19T09:56:18.615Z</time>
      </trkpt>
      <trkpt lat="43.72961" lon="6.0688">
        <ele>486</ele>
        <time>2025-11-19T09:56:21.615Z</time>
      </trkpt>
      <trkpt lat="43.72963" lon="6.06879">
        <ele>486.2</ele>
        <time>2025-11-19T09:56:23.615Z</time>
      </trkpt>
      <trkpt lat="43.72967" lon="6.06878">
        <ele>486.5</ele>
        <time>2025-11-19T09:56:26.615Z</time>
      </trkpt>
      <trkpt lat="43.72969" lon="6.06877">
        <ele>486.7</ele>
        <time>2025-11-19T09:56:29.615Z</time>
      </trkpt>
      <trkpt lat="43.72972" lon="6.06876">
        <ele>487</ele>
        <time>2025-11-19T09:56:32.615Z</time>
      </trkpt>
      <trkpt lat="43.72974" lon="6.06875">
        <ele>487.2</ele>
        <time>2025-11-19T09:56:34.614Z</time>
      </trkpt>
      <trkpt lat="43.72977" lon="6.06874">
        <ele>487.3</ele>
        <time>2025-11-19T09:56:36.615Z</time>
      </trkpt>
      <trkpt lat="43.7298" lon="6.06874">
        <ele>487.6</ele>
        <time>2025-11-19T09:56:38.615Z</time>
      </trkpt>
      <trkpt lat="43.72983" lon="6.06873">
        <ele>487.8</ele>
        <time>2025-11-19T09:56:41.615Z</time>
      </trkpt>
      <trkpt lat="43.72985" lon="6.06873">
        <ele>487.9</ele>
        <time>2025-11-19T09:56:43.615Z</time>
      </trkpt>
      <trkpt lat="43.72988" lon="6.06872">
        <ele>488.1</ele>
        <time>2025-11-19T09:56:46.615Z</time>
      </trkpt>
      <trkpt lat="43.72991" lon="6.06872">
        <ele>488.4</ele>
        <time>2025-11-19T09:56:49.615Z</time>
      </trkpt>
      <trkpt lat="43.72994" lon="6.06871">
        <ele>488.5</ele>
        <time>2025-11-19T09:56:52.615Z</time>
      </trkpt>
      <trkpt lat="43.72996" lon="6.0687">
        <ele>488.7</ele>
        <time>2025-11-19T09:56:55.615Z</time>
      </trkpt>
      <trkpt lat="43.73" lon="6.0687">
        <ele>489</ele>
        <time>2025-11-19T09:56:58.615Z</time>
      </trkpt>
      <trkpt lat="43.73002" lon="6.0687">
        <ele>489.1</ele>
        <time>2025-11-19T09:57:00.615Z</time>
      </trkpt>
      <trkpt lat="43.73004" lon="6.06869">
        <ele>489.3</ele>
        <time>2025-11-19T09:57:02.615Z</time>
      </trkpt>
      <trkpt lat="43.73007" lon="6.06868">
        <ele>489.4</ele>
        <time>2025-11-19T09:57:05.615Z</time>
      </trkpt>
      <trkpt lat="43.7301" lon="6.06867">
        <ele>489.6</ele>
        <time>2025-11-19T09:57:08.615Z</time>
      </trkpt>
      <trkpt lat="43.73013" lon="6.06866">
        <ele>489.8</ele>
        <time>2025-11-19T09:57:11.615Z</time>
      </trkpt>
      <trkpt lat="43.73016" lon="6.06866">
        <ele>490</ele>
        <time>2025-11-19T09:57:14.615Z</time>
      </trkpt>
      <trkpt lat="43.73019" lon="6.06865">
        <ele>490.3</ele>
        <time>2025-11-19T09:57:17.615Z</time>
      </trkpt>
      <trkpt lat="43.73021" lon="6.06865">
        <ele>490.4</ele>
        <time>2025-11-19T09:57:19.615Z</time>
      </trkpt>
      <trkpt lat="43.73024" lon="6.06865">
        <ele>490.6</ele>
        <time>2025-11-19T09:57:23.615Z</time>
      </trkpt>
      <trkpt lat="43.73027" lon="6.06864">
        <ele>490.9</ele>
        <time>2025-11-19T09:57:26.615Z</time>
      </trkpt>
      <trkpt lat="43.7303" lon="6.06863">
        <ele>491</ele>
        <time>2025-11-19T09:57:29.615Z</time>
      </trkpt>
      <trkpt lat="43.73032" lon="6.06863">
        <ele>491.1</ele>
        <time>2025-11-19T09:57:31.615Z</time>
      </trkpt>
      <trkpt lat="43.73034" lon="6.06862">
        <ele>491.2</ele>
        <time>2025-11-19T09:57:33.615Z</time>
      </trkpt>
      <trkpt lat="43.73037" lon="6.06862">
        <ele>491.3</ele>
        <time>2025-11-19T09:57:35.615Z</time>
      </trkpt>
      <trkpt lat="43.7304" lon="6.06861">
        <ele>491.4</ele>
        <time>2025-11-19T09:57:39.615Z</time>
      </trkpt>
      <trkpt lat="43.73043" lon="6.06861">
        <ele>491.5</ele>
        <time>2025-11-19T09:57:42.615Z</time>
      </trkpt>
      <trkpt lat="43.73045" lon="6.06861">
        <ele>491.6</ele>
        <time>2025-11-19T09:57:45.615Z</time>
      </trkpt>
      <trkpt lat="43.73048" lon="6.06861">
        <ele>491.7</ele>
        <time>2025-11-19T09:57:49.615Z</time>
      </trkpt>
      <trkpt lat="43.7305" lon="6.0686">
        <ele>491.9</ele>
        <time>2025-11-19T09:57:53.615Z</time>
      </trkpt>
      <trkpt lat="43.73053" lon="6.06859">
        <ele>492</ele>
        <time>2025-11-19T09:57:55.615Z</time>
      </trkpt>
      <trkpt lat="43.73055" lon="6.06859">
        <ele>492.1</ele>
        <time>2025-11-19T09:57:57.615Z</time>
      </trkpt>
      <trkpt lat="43.73058" lon="6.06859">
        <ele>492.2</ele>
        <time>2025-11-19T09:58:00.615Z</time>
      </trkpt>
      <trkpt lat="43.73062" lon="6.06858">
        <ele>492.4</ele>
        <time>2025-11-19T09:58:03.615Z</time>
      </trkpt>
      <trkpt lat="43.73064" lon="6.06857">
        <ele>492.5</ele>
        <time>2025-11-19T09:58:05.615Z</time>
      </trkpt>
      <trkpt lat="43.73066" lon="6.06856">
        <ele>492.6</ele>
        <time>2025-11-19T09:58:07.615Z</time>
      </trkpt>
      <trkpt lat="43.73069" lon="6.06855">
        <ele>492.8</ele>
        <time>2025-11-19T09:58:10.616Z</time>
      </trkpt>
      <trkpt lat="43.73072" lon="6.06854">
        <ele>493</ele>
        <time>2025-11-19T09:58:13.615Z</time>
      </trkpt>
      <trkpt lat="43.73074" lon="6.06855">
        <ele>493</ele>
        <time>2025-11-19T09:58:16.615Z</time>
      </trkpt>
      <trkpt lat="43.73076" lon="6.06855">
        <ele>493.1</ele>
        <time>2025-11-19T09:58:19.615Z</time>
      </trkpt>
      <trkpt lat="43.7308" lon="6.06854">
        <ele>493.4</ele>
        <time>2025-11-19T09:58:22.615Z</time>
      </trkpt>
      <trkpt lat="43.73082" lon="6.06854">
        <ele>493.4</ele>
        <time>2025-11-19T09:58:24.615Z</time>
      </trkpt>
      <trkpt lat="43.73085" lon="6.06854">
        <ele>493.4</ele>
        <time>2025-11-19T09:58:27.615Z</time>
      </trkpt>
      <trkpt lat="43.73088" lon="6.06853">
        <ele>493.3</ele>
        <time>2025-11-19T09:58:30.615Z</time>
      </trkpt>
      <trkpt lat="43.73091" lon="6.06853">
        <ele>493</ele>
        <time>2025-11-19T09:58:34.615Z</time>
      </trkpt>
      <trkpt lat="43.73094" lon="6.06852">
        <ele>492.9</ele>
        <time>2025-11-19T09:58:37.615Z</time>
      </trkpt>
      <trkpt lat="43.73097" lon="6.06852">
        <ele>492.6</ele>
        <time>2025-11-19T09:58:40.615Z</time>
      </trkpt>
      <trkpt lat="43.731" lon="6.06851">
        <ele>492.6</ele>
        <time>2025-11-19T09:58:43.615Z</time>
      </trkpt>
      <trkpt lat="43.73103" lon="6.06851">
        <ele>492.4</ele>
        <time>2025-11-19T09:58:46.615Z</time>
      </trkpt>
      <trkpt lat="43.73106" lon="6.0685">
        <ele>492.3</ele>
        <time>2025-11-19T09:58:49.615Z</time>
      </trkpt>
      <trkpt lat="43.73108" lon="6.0685">
        <ele>492.2</ele>
        <time>2025-11-19T09:58:53.615Z</time>
      </trkpt>
      <trkpt lat="43.73111" lon="6.0685">
        <ele>492</ele>
        <time>2025-11-19T09:58:56.616Z</time>
      </trkpt>
      <trkpt lat="43.73113" lon="6.0685">
        <ele>492</ele>
        <time>2025-11-19T09:58:59.615Z</time>
      </trkpt>
      <trkpt lat="43.73116" lon="6.06851">
        <ele>492.1</ele>
        <time>2025-11-19T09:59:01.615Z</time>
      </trkpt>
      <trkpt lat="43.73119" lon="6.0685">
        <ele>492.3</ele>
        <time>2025-11-19T09:59:04.615Z</time>
      </trkpt>
      <trkpt lat="43.73122" lon="6.06852">
        <ele>492.2</ele>
        <time>2025-11-19T09:59:08.615Z</time>
      </trkpt>
      <trkpt lat="43.73125" lon="6.06852">
        <ele>492.4</ele>
        <time>2025-11-19T09:59:11.615Z</time>
      </trkpt>
      <trkpt lat="43.73128" lon="6.06851">
        <ele>492.5</ele>
        <time>2025-11-19T09:59:14.615Z</time>
      </trkpt>
      <trkpt lat="43.73131" lon="6.06851">
        <ele>492.6</ele>
        <time>2025-11-19T09:59:17.616Z</time>
      </trkpt>
      <trkpt lat="43.73133" lon="6.06852">
        <ele>492.7</ele>
        <time>2025-11-19T09:59:20.615Z</time>
      </trkpt>
      <trkpt lat="43.73135" lon="6.06852">
        <ele>492.8</ele>
        <time>2025-11-19T09:59:23.615Z</time>
      </trkpt>
      <trkpt lat="43.73138" lon="6.06853">
        <ele>492.9</ele>
        <time>2025-11-19T09:59:25.615Z</time>
      </trkpt>
      <trkpt lat="43.73141" lon="6.06853">
        <ele>493.2</ele>
        <time>2025-11-19T09:59:28.615Z</time>
      </trkpt>
      <trkpt lat="43.73143" lon="6.06852">
        <ele>493.6</ele>
        <time>2025-11-19T09:59:31.616Z</time>
      </trkpt>
      <trkpt lat="43.73146" lon="6.06851">
        <ele>494</ele>
        <time>2025-11-19T09:59:35.615Z</time>
      </trkpt>
      <trkpt lat="43.73149" lon="6.06851">
        <ele>494.4</ele>
        <time>2025-11-19T09:59:38.615Z</time>
      </trkpt>
      <trkpt lat="43.73152" lon="6.0685">
        <ele>494.7</ele>
        <time>2025-11-19T09:59:41.615Z</time>
      </trkpt>
      <trkpt lat="43.73154" lon="6.06849">
        <ele>495</ele>
        <time>2025-11-19T09:59:44.615Z</time>
      </trkpt>
      <trkpt lat="43.73157" lon="6.06847">
        <ele>495.3</ele>
        <time>2025-11-19T09:59:48.615Z</time>
      </trkpt>
      <trkpt lat="43.7316" lon="6.06846">
        <ele>495.6</ele>
        <time>2025-11-19T09:59:51.615Z</time>
      </trkpt>
      <trkpt lat="43.73163" lon="6.06846">
        <ele>495.9</ele>
        <time>2025-11-19T09:59:54.615Z</time>
      </trkpt>
      <trkpt lat="43.73166" lon="6.06847">
        <ele>496.3</ele>
        <time>2025-11-19T09:59:58.616Z</time>
      </trkpt>
      <trkpt lat="43.73169" lon="6.06846">
        <ele>496.7</ele>
        <time>2025-11-19T10:00:01.616Z</time>
      </trkpt>
      <trkpt lat="43.73171" lon="6.06844">
        <ele>497</ele>
        <time>2025-11-19T10:00:06.616Z</time>
      </trkpt>
      <trkpt lat="43.73176" lon="6.06844">
        <ele>497.7</ele>
        <time>2025-11-19T10:00:13.615Z</time>
      </trkpt>
      <trkpt lat="43.73179" lon="6.06843">
        <ele>498.2</ele>
        <time>2025-11-19T10:00:16.615Z</time>
      </trkpt>
      <trkpt lat="43.73181" lon="6.06843">
        <ele>498.6</ele>
        <time>2025-11-19T10:00:18.616Z</time>
      </trkpt>
      <trkpt lat="43.73184" lon="6.06842">
        <ele>499.1</ele>
        <time>2025-11-19T10:00:21.615Z</time>
      </trkpt>
      <trkpt lat="43.73186" lon="6.06842">
        <ele>499.5</ele>
        <time>2025-11-19T10:00:24.615Z</time>
      </trkpt>
      <trkpt lat="43.73189" lon="6.06842">
        <ele>499.9</ele>
        <time>2025-11-19T10:00:27.615Z</time>
      </trkpt>
      <trkpt lat="43.73192" lon="6.06841">
        <ele>500.5</ele>
        <time>2025-11-19T10:00:30.615Z</time>
      </trkpt>
      <trkpt lat="43.73195" lon="6.0684">
        <ele>501</ele>
        <time>2025-11-19T10:00:33.615Z</time>
      </trkpt>
      <trkpt lat="43.73197" lon="6.06839">
        <ele>501.3</ele>
        <time>2025-11-19T10:00:37.615Z</time>
      </trkpt>
      <trkpt lat="43.73201" lon="6.06839">
        <ele>501.8</ele>
        <time>2025-11-19T10:00:47.616Z</time>
      </trkpt>
      <trkpt lat="43.73203" lon="6.06839">
        <ele>502.1</ele>
        <time>2025-11-19T10:00:50.616Z</time>
      </trkpt>
      <trkpt lat="43.73205" lon="6.06839">
        <ele>502.4</ele>
        <time>2025-11-19T10:00:53.616Z</time>
      </trkpt>
      <trkpt lat="43.73208" lon="6.06839">
        <ele>502.7</ele>
        <time>2025-11-19T10:00:56.616Z</time>
      </trkpt>
      <trkpt lat="43.7321" lon="6.06839">
        <ele>503</ele>
        <time>2025-11-19T10:00:59.615Z</time>
      </trkpt>
      <trkpt lat="43.73213" lon="6.06838">
        <ele>503.4</ele>
        <time>2025-11-19T10:01:02.615Z</time>
      </trkpt>
      <trkpt lat="43.73215" lon="6.06838">
        <ele>503.8</ele>
        <time>2025-11-19T10:01:07.615Z</time>
      </trkpt>
      <trkpt lat="43.73217" lon="6.06836">
        <ele>504.1</ele>
        <time>2025-11-19T10:01:12.615Z</time>
      </trkpt>
      <trkpt lat="43.73221" lon="6.06835">
        <ele>504.7</ele>
        <time>2025-11-19T10:01:15.615Z</time>
      </trkpt>
      <trkpt lat="43.73224" lon="6.06834">
        <ele>505.1</ele>
        <time>2025-11-19T10:01:21.616Z</time>
      </trkpt>
      <trkpt lat="43.73227" lon="6.06834">
        <ele>505.3</ele>
        <time>2025-11-19T10:01:24.616Z</time>
      </trkpt>
      <trkpt lat="43.73229" lon="6.06835">
        <ele>505.4</ele>
        <time>2025-11-19T10:01:27.616Z</time>
      </trkpt>
      <trkpt lat="43.73232" lon="6.06836">
        <ele>505.6</ele>
        <time>2025-11-19T10:01:31.615Z</time>
      </trkpt>
      <trkpt lat="43.73235" lon="6.06835">
        <ele>505.8</ele>
        <time>2025-11-19T10:01:34.616Z</time>
      </trkpt>
      <trkpt lat="43.73238" lon="6.06835">
        <ele>506</ele>
        <time>2025-11-19T10:01:37.616Z</time>
      </trkpt>
      <trkpt lat="43.73241" lon="6.06835">
        <ele>506.2</ele>
        <time>2025-11-19T10:01:40.615Z</time>
      </trkpt>
      <trkpt lat="43.73243" lon="6.06835">
        <ele>506.4</ele>
        <time>2025-11-19T10:01:43.616Z</time>
      </trkpt>
      <trkpt lat="43.73246" lon="6.06836">
        <ele>506.5</ele>
        <time>2025-11-19T10:01:46.615Z</time>
      </trkpt>
      <trkpt lat="43.73248" lon="6.06836">
        <ele>506.6</ele>
        <time>2025-11-19T10:01:49.615Z</time>
      </trkpt>
      <trkpt lat="43.73251" lon="6.06836">
        <ele>506.9</ele>
        <time>2025-11-19T10:01:53.615Z</time>
      </trkpt>
      <trkpt lat="43.73254" lon="6.06835">
        <ele>507.4</ele>
        <time>2025-11-19T10:01:58.615Z</time>
      </trkpt>
      <trkpt lat="43.73257" lon="6.06834">
        <ele>507.7</ele>
        <time>2025-11-19T10:02:01.616Z</time>
      </trkpt>
      <trkpt lat="43.7326" lon="6.06833">
        <ele>508.1</ele>
        <time>2025-11-19T10:02:05.615Z</time>
      </trkpt>
      <trkpt lat="43.73262" lon="6.06833">
        <ele>508.3</ele>
        <time>2025-11-19T10:02:09.615Z</time>
      </trkpt>
      <trkpt lat="43.73266" lon="6.06832">
        <ele>508.8</ele>
        <time>2025-11-19T10:02:16.615Z</time>
      </trkpt>
      <trkpt lat="43.73269" lon="6.0683">
        <ele>509.2</ele>
        <time>2025-11-19T10:02:19.615Z</time>
      </trkpt>
      <trkpt lat="43.73271" lon="6.06829">
        <ele>509.6</ele>
        <time>2025-11-19T10:02:23.615Z</time>
      </trkpt>
      <trkpt lat="43.73274" lon="6.06828">
        <ele>510</ele>
        <time>2025-11-19T10:02:26.615Z</time>
      </trkpt>
      <trkpt lat="43.73276" lon="6.06827">
        <ele>510.3</ele>
        <time>2025-11-19T10:02:29.616Z</time>
      </trkpt>
      <trkpt lat="43.7328" lon="6.06829">
        <ele>510.6</ele>
        <time>2025-11-19T10:02:34.615Z</time>
      </trkpt>
      <trkpt lat="43.73283" lon="6.06828">
        <ele>510.9</ele>
        <time>2025-11-19T10:02:38.615Z</time>
      </trkpt>
      <trkpt lat="43.73284" lon="6.06826">
        <ele>511.2</ele>
        <time>2025-11-19T10:02:41.615Z</time>
      </trkpt>
      <trkpt lat="43.73287" lon="6.06825">
        <ele>511.5</ele>
        <time>2025-11-19T10:02:44.615Z</time>
      </trkpt>
      <trkpt lat="43.73289" lon="6.06823">
        <ele>511.9</ele>
        <time>2025-11-19T10:02:47.615Z</time>
      </trkpt>
      <trkpt lat="43.73292" lon="6.06822">
        <ele>512.3</ele>
        <time>2025-11-19T10:02:50.616Z</time>
      </trkpt>
      <trkpt lat="43.73295" lon="6.0682">
        <ele>512.8</ele>
        <time>2025-11-19T10:02:53.615Z</time>
      </trkpt>
      <trkpt lat="43.73297" lon="6.06819">
        <ele>513.2</ele>
        <time>2025-11-19T10:02:56.616Z</time>
      </trkpt>
      <trkpt lat="43.733" lon="6.06818">
        <ele>513.5</ele>
        <time>2025-11-19T10:02:59.615Z</time>
      </trkpt>
      <trkpt lat="43.73302" lon="6.06817">
        <ele>513.8</ele>
        <time>2025-11-19T10:03:02.615Z</time>
      </trkpt>
      <trkpt lat="43.73305" lon="6.06815">
        <ele>514.3</ele>
        <time>2025-11-19T10:03:07.615Z</time>
      </trkpt>
      <trkpt lat="43.73307" lon="6.06814">
        <ele>514.6</ele>
        <time>2025-11-19T10:03:09.615Z</time>
      </trkpt>
      <trkpt lat="43.7331" lon="6.06814">
        <ele>514.9</ele>
        <time>2025-11-19T10:03:12.615Z</time>
      </trkpt>
      <trkpt lat="43.73312" lon="6.06812">
        <ele>515.3</ele>
        <time>2025-11-19T10:03:15.615Z</time>
      </trkpt>
      <trkpt lat="43.73315" lon="6.06811">
        <ele>515.6</ele>
        <time>2025-11-19T10:03:18.616Z</time>
      </trkpt>
      <trkpt lat="43.73317" lon="6.06809">
        <ele>516</ele>
        <time>2025-11-19T10:03:24.615Z</time>
      </trkpt>
      <trkpt lat="43.73318" lon="6.06806">
        <ele>516.3</ele>
        <time>2025-11-19T10:07:33.616Z</time>
      </trkpt>
      <trkpt lat="43.73321" lon="6.06805">
        <ele>516.6</ele>
        <time>2025-11-19T10:07:36.616Z</time>
      </trkpt>
      <trkpt lat="43.73323" lon="6.06803">
        <ele>516.9</ele>
        <time>2025-11-19T10:07:39.616Z</time>
      </trkpt>
      <trkpt lat="43.73326" lon="6.06802">
        <ele>517.3</ele>
        <time>2025-11-19T10:07:42.616Z</time>
      </trkpt>
      <trkpt lat="43.73328" lon="6.06801">
        <ele>517.6</ele>
        <time>2025-11-19T10:07:45.616Z</time>
      </trkpt>
      <trkpt lat="43.73332" lon="6.068">
        <ele>518</ele>
        <time>2025-11-19T10:07:48.616Z</time>
      </trkpt>
      <trkpt lat="43.73334" lon="6.06798">
        <ele>518.3</ele>
        <time>2025-11-19T10:07:50.616Z</time>
      </trkpt>
      <trkpt lat="43.73336" lon="6.06798">
        <ele>518.7</ele>
        <time>2025-11-19T10:07:54.616Z</time>
      </trkpt>
      <trkpt lat="43.73339" lon="6.06797">
        <ele>519</ele>
        <time>2025-11-19T10:07:57.616Z</time>
      </trkpt>
      <trkpt lat="43.73341" lon="6.06796">
        <ele>519.4</ele>
        <time>2025-11-19T10:08:01.616Z</time>
      </trkpt>
      <trkpt lat="43.73344" lon="6.06796">
        <ele>519.8</ele>
        <time>2025-11-19T10:08:04.616Z</time>
      </trkpt>
      <trkpt lat="43.73347" lon="6.06794">
        <ele>520.3</ele>
        <time>2025-11-19T10:08:07.616Z</time>
      </trkpt>
      <trkpt lat="43.7335" lon="6.06793">
        <ele>520.8</ele>
        <time>2025-11-19T10:08:11.616Z</time>
      </trkpt>
      <trkpt lat="43.73352" lon="6.06792">
        <ele>521.2</ele>
        <time>2025-11-19T10:08:14.616Z</time>
      </trkpt>
      <trkpt lat="43.73355" lon="6.06791">
        <ele>521.7</ele>
        <time>2025-11-19T10:08:18.616Z</time>
      </trkpt>
      <trkpt lat="43.73358" lon="6.0679">
        <ele>522.2</ele>
        <time>2025-11-19T10:08:25.616Z</time>
      </trkpt>
      <trkpt lat="43.7336" lon="6.06789">
        <ele>522.6</ele>
        <time>2025-11-19T10:08:29.616Z</time>
      </trkpt>
      <trkpt lat="43.73363" lon="6.06787">
        <ele>523.1</ele>
        <time>2025-11-19T10:08:32.616Z</time>
      </trkpt>
      <trkpt lat="43.73366" lon="6.06787">
        <ele>523.4</ele>
        <time>2025-11-19T10:08:37.616Z</time>
      </trkpt>
      <trkpt lat="43.73368" lon="6.06786">
        <ele>523.9</ele>
        <time>2025-11-19T10:08:40.616Z</time>
      </trkpt>
      <trkpt lat="43.7337" lon="6.06784">
        <ele>524.3</ele>
        <time>2025-11-19T10:08:43.615Z</time>
      </trkpt>
      <trkpt lat="43.73372" lon="6.06782">
        <ele>524.8</ele>
        <time>2025-11-19T10:08:48.616Z</time>
      </trkpt>
      <trkpt lat="43.73375" lon="6.06779">
        <ele>525.3</ele>
        <time>2025-11-19T10:08:52.616Z</time>
      </trkpt>
      <trkpt lat="43.73377" lon="6.06778">
        <ele>525.7</ele>
        <time>2025-11-19T10:08:55.616Z</time>
      </trkpt>
      <trkpt lat="43.7338" lon="6.06777">
        <ele>526.1</ele>
        <time>2025-11-19T10:08:59.616Z</time>
      </trkpt>
      <trkpt lat="43.73382" lon="6.06776">
        <ele>526.4</ele>
        <time>2025-11-19T10:09:03.615Z</time>
      </trkpt>
      <trkpt lat="43.73384" lon="6.06774">
        <ele>526.9</ele>
        <time>2025-11-19T10:09:07.616Z</time>
      </trkpt>
      <trkpt lat="43.73389" lon="6.06771">
        <ele>527.7</ele>
        <time>2025-11-19T10:09:15.616Z</time>
      </trkpt>
      <trkpt lat="43.73391" lon="6.0677">
        <ele>528.1</ele>
        <time>2025-11-19T10:09:18.616Z</time>
      </trkpt>
      <trkpt lat="43.73394" lon="6.06769">
        <ele>528.7</ele>
        <time>2025-11-19T10:09:23.616Z</time>
      </trkpt>
      <trkpt lat="43.73397" lon="6.06768">
        <ele>529.1</ele>
        <time>2025-11-19T10:09:26.615Z</time>
      </trkpt>
      <trkpt lat="43.734" lon="6.06768">
        <ele>529.6</ele>
        <time>2025-11-19T10:09:32.615Z</time>
      </trkpt>
      <trkpt lat="43.73402" lon="6.06765">
        <ele>530.2</ele>
        <time>2025-11-19T10:09:34.616Z</time>
      </trkpt>
      <trkpt lat="43.73404" lon="6.06764">
        <ele>530.7</ele>
        <time>2025-11-19T10:09:38.616Z</time>
      </trkpt>
      <trkpt lat="43.73408" lon="6.06763">
        <ele>531.4</ele>
        <time>2025-11-19T10:09:42.615Z</time>
      </trkpt>
      <trkpt lat="43.7341" lon="6.06761">
        <ele>532</ele>
        <time>2025-11-19T10:09:45.615Z</time>
      </trkpt>
      <trkpt lat="43.73412" lon="6.0676">
        <ele>532.5</ele>
        <time>2025-11-19T10:09:52.616Z</time>
      </trkpt>
      <trkpt lat="43.73416" lon="6.06759">
        <ele>533.2</ele>
        <time>2025-11-19T10:09:58.615Z</time>
      </trkpt>
      <trkpt lat="43.73419" lon="6.06757">
        <ele>534</ele>
        <time>2025-11-19T10:10:04.616Z</time>
      </trkpt>
      <trkpt lat="43.73422" lon="6.06756">
        <ele>534.5</ele>
        <time>2025-11-19T10:10:09.616Z</time>
      </trkpt>
      <trkpt lat="43.73425" lon="6.06755">
        <ele>535</ele>
        <time>2025-11-19T10:10:12.616Z</time>
      </trkpt>
      <trkpt lat="43.73427" lon="6.06753">
        <ele>535.5</ele>
        <time>2025-11-19T10:10:18.616Z</time>
      </trkpt>
      <trkpt lat="43.7343" lon="6.06753">
        <ele>535.9</ele>
        <time>2025-11-19T10:10:21.615Z</time>
      </trkpt>
      <trkpt lat="43.73433" lon="6.06752">
        <ele>536.4</ele>
        <time>2025-11-19T10:10:25.615Z</time>
      </trkpt>
      <trkpt lat="43.73436" lon="6.06751">
        <ele>536.9</ele>
        <time>2025-11-19T10:10:29.616Z</time>
      </trkpt>
      <trkpt lat="43.73438" lon="6.0675">
        <ele>537.3</ele>
        <time>2025-11-19T10:10:32.616Z</time>
      </trkpt>
      <trkpt lat="43.7344" lon="6.06749">
        <ele>537.7</ele>
        <time>2025-11-19T10:10:37.616Z</time>
      </trkpt>
      <trkpt lat="43.73443" lon="6.06747">
        <ele>538.1</ele>
        <time>2025-11-19T10:10:41.616Z</time>
      </trkpt>
      <trkpt lat="43.73446" lon="6.06746">
        <ele>538.4</ele>
        <time>2025-11-19T10:10:44.616Z</time>
      </trkpt>
      <trkpt lat="43.73449" lon="6.06745">
        <ele>538.7</ele>
        <time>2025-11-19T10:10:49.616Z</time>
      </trkpt>
      <trkpt lat="43.73451" lon="6.06744">
        <ele>538.9</ele>
        <time>2025-11-19T10:10:53.615Z</time>
      </trkpt>
      <trkpt lat="43.73454" lon="6.06742">
        <ele>539.2</ele>
        <time>2025-11-19T10:10:57.616Z</time>
      </trkpt>
      <trkpt lat="43.73456" lon="6.06741">
        <ele>539.5</ele>
        <time>2025-11-19T10:10:59.616Z</time>
      </trkpt>
      <trkpt lat="43.73459" lon="6.06739">
        <ele>539.9</ele>
        <time>2025-11-19T10:11:02.616Z</time>
      </trkpt>
      <trkpt lat="43.73461" lon="6.06738">
        <ele>540.1</ele>
        <time>2025-11-19T10:11:05.616Z</time>
      </trkpt>
      <trkpt lat="43.73464" lon="6.06737">
        <ele>540.4</ele>
        <time>2025-11-19T10:11:09.616Z</time>
      </trkpt>
      <trkpt lat="43.73467" lon="6.06736">
        <ele>540.7</ele>
        <time>2025-11-19T10:11:13.616Z</time>
      </trkpt>
      <trkpt lat="43.73469" lon="6.06735">
        <ele>541</ele>
        <time>2025-11-19T10:11:16.616Z</time>
      </trkpt>
      <trkpt lat="43.73471" lon="6.06734">
        <ele>541.3</ele>
        <time>2025-11-19T10:11:19.615Z</time>
      </trkpt>
      <trkpt lat="43.73475" lon="6.06731">
        <ele>541.9</ele>
        <time>2025-11-19T10:11:25.616Z</time>
      </trkpt>
      <trkpt lat="43.73477" lon="6.0673">
        <ele>542.3</ele>
        <time>2025-11-19T10:11:32.616Z</time>
      </trkpt>
      <trkpt lat="43.7348" lon="6.06728">
        <ele>542.7</ele>
        <time>2025-11-19T10:11:36.616Z</time>
      </trkpt>
      <trkpt lat="43.73483" lon="6.06726">
        <ele>543.3</ele>
        <time>2025-11-19T10:11:42.616Z</time>
      </trkpt>
      <trkpt lat="43.73485" lon="6.06724">
        <ele>543.7</ele>
        <time>2025-11-19T10:11:44.616Z</time>
      </trkpt>
      <trkpt lat="43.73487" lon="6.06722">
        <ele>544.1</ele>
        <time>2025-11-19T10:11:48.616Z</time>
      </trkpt>
      <trkpt lat="43.7349" lon="6.06721">
        <ele>544.4</ele>
        <time>2025-11-19T10:11:54.616Z</time>
      </trkpt>
      <trkpt lat="43.73492" lon="6.06721">
        <ele>544.5</ele>
        <time>2025-11-19T10:11:57.616Z</time>
      </trkpt>
      <trkpt lat="43.73495" lon="6.06719">
        <ele>544.9</ele>
        <time>2025-11-19T10:12:00.616Z</time>
      </trkpt>
      <trkpt lat="43.73497" lon="6.06718">
        <ele>545.1</ele>
        <time>2025-11-19T10:12:03.616Z</time>
      </trkpt>
      <trkpt lat="43.73499" lon="6.06715">
        <ele>545.4</ele>
        <time>2025-11-19T10:12:06.616Z</time>
      </trkpt>
      <trkpt lat="43.73502" lon="6.06714">
        <ele>545.8</ele>
        <time>2025-11-19T10:12:12.616Z</time>
      </trkpt>
      <trkpt lat="43.73504" lon="6.06713">
        <ele>546.1</ele>
        <time>2025-11-19T10:12:16.616Z</time>
      </trkpt>
      <trkpt lat="43.73507" lon="6.0671">
        <ele>546.6</ele>
        <time>2025-11-19T10:12:20.617Z</time>
      </trkpt>
      <trkpt lat="43.73509" lon="6.06708">
        <ele>547</ele>
        <time>2025-11-19T10:12:23.616Z</time>
      </trkpt>
      <trkpt lat="43.73511" lon="6.06706">
        <ele>547.5</ele>
        <time>2025-11-19T10:12:26.616Z</time>
      </trkpt>
      <trkpt lat="43.73513" lon="6.06704">
        <ele>547.9</ele>
        <time>2025-11-19T10:12:29.616Z</time>
      </trkpt>
      <trkpt lat="43.73515" lon="6.06701">
        <ele>548.3</ele>
        <time>2025-11-19T10:12:32.616Z</time>
      </trkpt>
      <trkpt lat="43.73516" lon="6.06698">
        <ele>548.9</ele>
        <time>2025-11-19T10:12:35.616Z</time>
      </trkpt>
      <trkpt lat="43.73518" lon="6.06696">
        <ele>549.5</ele>
        <time>2025-11-19T10:12:39.616Z</time>
      </trkpt>
      <trkpt lat="43.73521" lon="6.06694">
        <ele>550</ele>
        <time>2025-11-19T10:12:43.616Z</time>
      </trkpt>
      <trkpt lat="43.73523" lon="6.06692">
        <ele>550.4</ele>
        <time>2025-11-19T10:12:46.616Z</time>
      </trkpt>
      <trkpt lat="43.73526" lon="6.06691">
        <ele>550.8</ele>
        <time>2025-11-19T10:12:50.616Z</time>
      </trkpt>
      <trkpt lat="43.73528" lon="6.06689">
        <ele>551.2</ele>
        <time>2025-11-19T10:12:54.616Z</time>
      </trkpt>
      <trkpt lat="43.73531" lon="6.06686">
        <ele>551.7</ele>
        <time>2025-11-19T10:13:00.616Z</time>
      </trkpt>
      <trkpt lat="43.73534" lon="6.06685">
        <ele>552.1</ele>
        <time>2025-11-19T10:13:05.616Z</time>
      </trkpt>
      <trkpt lat="43.73536" lon="6.06683">
        <ele>552.5</ele>
        <time>2025-11-19T10:13:12.616Z</time>
      </trkpt>
      <trkpt lat="43.73539" lon="6.06681">
        <ele>553.1</ele>
        <time>2025-11-19T10:13:16.616Z</time>
      </trkpt>
      <trkpt lat="43.73542" lon="6.06679">
        <ele>553.7</ele>
        <time>2025-11-19T10:13:22.616Z</time>
      </trkpt>
      <trkpt lat="43.73544" lon="6.06678">
        <ele>554.2</ele>
        <time>2025-11-19T10:13:28.616Z</time>
      </trkpt>
      <trkpt lat="43.73546" lon="6.06675">
        <ele>554.8</ele>
        <time>2025-11-19T10:13:31.616Z</time>
      </trkpt>
      <trkpt lat="43.73549" lon="6.06674">
        <ele>555.5</ele>
        <time>2025-11-19T10:13:35.616Z</time>
      </trkpt>
      <trkpt lat="43.7355" lon="6.06672">
        <ele>556.1</ele>
        <time>2025-11-19T10:13:39.616Z</time>
      </trkpt>
      <trkpt lat="43.73552" lon="6.06669">
        <ele>556.8</ele>
        <time>2025-11-19T10:13:43.616Z</time>
      </trkpt>
      <trkpt lat="43.73552" lon="6.06665">
        <ele>557.2</ele>
        <time>2025-11-19T10:13:46.616Z</time>
      </trkpt>
      <trkpt lat="43.73552" lon="6.06662">
        <ele>557.8</ele>
        <time>2025-11-19T10:13:49.616Z</time>
      </trkpt>
      <trkpt lat="43.73553" lon="6.06659">
        <ele>558.3</ele>
        <time>2025-11-19T10:13:52.616Z</time>
      </trkpt>
      <trkpt lat="43.73553" lon="6.06655">
        <ele>558.7</ele>
        <time>2025-11-19T10:13:57.617Z</time>
      </trkpt>
      <trkpt lat="43.73556" lon="6.06651">
        <ele>559.8</ele>
        <time>2025-11-19T10:14:04.616Z</time>
      </trkpt>
      <trkpt lat="43.73557" lon="6.06647">
        <ele>560.3</ele>
        <time>2025-11-19T10:14:07.616Z</time>
      </trkpt>
      <trkpt lat="43.73557" lon="6.06644">
        <ele>560.7</ele>
        <time>2025-11-19T10:14:10.616Z</time>
      </trkpt>
      <trkpt lat="43.73558" lon="6.06641">
        <ele>561.3</ele>
        <time>2025-11-19T10:14:13.616Z</time>
      </trkpt>
      <trkpt lat="43.73557" lon="6.06638">
        <ele>561.5</ele>
        <time>2025-11-19T10:14:18.616Z</time>
      </trkpt>
      <trkpt lat="43.73559" lon="6.06634">
        <ele>562.1</ele>
        <time>2025-11-19T10:14:23.616Z</time>
      </trkpt>
      <trkpt lat="43.7356" lon="6.06631">
        <ele>562.6</ele>
        <time>2025-11-19T10:14:28.616Z</time>
      </trkpt>
      <trkpt lat="43.73561" lon="6.06627">
        <ele>563</ele>
        <time>2025-11-19T10:14:31.616Z</time>
      </trkpt>
      <trkpt lat="43.73563" lon="6.06623">
        <ele>563.7</ele>
        <time>2025-11-19T10:14:38.616Z</time>
      </trkpt>
      <trkpt lat="43.73565" lon="6.06621">
        <ele>564.4</ele>
        <time>2025-11-19T10:14:42.616Z</time>
      </trkpt>
      <trkpt lat="43.73565" lon="6.06617">
        <ele>564.6</ele>
        <time>2025-11-19T10:14:45.616Z</time>
      </trkpt>
      <trkpt lat="43.73565" lon="6.06614">
        <ele>564.9</ele>
        <time>2025-11-19T10:14:48.616Z</time>
      </trkpt>
      <trkpt lat="43.73565" lon="6.0661">
        <ele>565.1</ele>
        <time>2025-11-19T10:14:51.616Z</time>
      </trkpt>
      <trkpt lat="43.73566" lon="6.06607">
        <ele>565.2</ele>
        <time>2025-11-19T10:14:55.617Z</time>
      </trkpt>
      <trkpt lat="43.73567" lon="6.06604">
        <ele>565.3</ele>
        <time>2025-11-19T10:15:00.617Z</time>
      </trkpt>
      <trkpt lat="43.73568" lon="6.06601">
        <ele>565.6</ele>
        <time>2025-11-19T10:15:03.616Z</time>
      </trkpt>
      <trkpt lat="43.73569" lon="6.06598">
        <ele>566</ele>
        <time>2025-11-19T10:15:07.616Z</time>
      </trkpt>
      <trkpt lat="43.7357" lon="6.06595">
        <ele>566.2</ele>
        <time>2025-11-19T10:15:11.616Z</time>
      </trkpt>
      <trkpt lat="43.73572" lon="6.06593">
        <ele>566.7</ele>
        <time>2025-11-19T10:15:14.617Z</time>
      </trkpt>
      <trkpt lat="43.73573" lon="6.0659">
        <ele>567</ele>
        <time>2025-11-19T10:15:17.616Z</time>
      </trkpt>
      <trkpt lat="43.73574" lon="6.06587">
        <ele>567.2</ele>
        <time>2025-11-19T10:15:21.616Z</time>
      </trkpt>
      <trkpt lat="43.73576" lon="6.06583">
        <ele>567.7</ele>
        <time>2025-11-19T10:15:25.617Z</time>
      </trkpt>
      <trkpt lat="43.73578" lon="6.06581">
        <ele>567.9</ele>
        <time>2025-11-19T10:15:28.617Z</time>
      </trkpt>
      <trkpt lat="43.7358" lon="6.06577">
        <ele>568.1</ele>
        <time>2025-11-19T10:15:33.616Z</time>
      </trkpt>
      <trkpt lat="43.73582" lon="6.06575">
        <ele>568.6</ele>
        <time>2025-11-19T10:15:38.617Z</time>
      </trkpt>
      <trkpt lat="43.73584" lon="6.06573">
        <ele>569</ele>
        <time>2025-11-19T10:15:42.616Z</time>
      </trkpt>
      <trkpt lat="43.73587" lon="6.06571">
        <ele>569.4</ele>
        <time>2025-11-19T10:15:48.616Z</time>
      </trkpt>
      <trkpt lat="43.7359" lon="6.06571">
        <ele>569.8</ele>
        <time>2025-11-19T10:15:51.616Z</time>
      </trkpt>
      <trkpt lat="43.73593" lon="6.06569">
        <ele>570.1</ele>
        <time>2025-11-19T10:15:55.616Z</time>
      </trkpt>
      <trkpt lat="43.73595" lon="6.06568">
        <ele>570.5</ele>
        <time>2025-11-19T10:15:59.616Z</time>
      </trkpt>
      <trkpt lat="43.73597" lon="6.06567">
        <ele>570.7</ele>
        <time>2025-11-19T10:16:02.617Z</time>
      </trkpt>
      <trkpt lat="43.73601" lon="6.06566">
        <ele>571.3</ele>
        <time>2025-11-19T10:16:10.616Z</time>
      </trkpt>
      <trkpt lat="43.73603" lon="6.06564">
        <ele>571.4</ele>
        <time>2025-11-19T10:16:12.616Z</time>
      </trkpt>
      <trkpt lat="43.73606" lon="6.06565">
        <ele>572</ele>
        <time>2025-11-19T10:16:17.617Z</time>
      </trkpt>
      <trkpt lat="43.73608" lon="6.06566">
        <ele>572.6</ele>
        <time>2025-11-19T10:16:20.617Z</time>
      </trkpt>
      <trkpt lat="43.73611" lon="6.06565">
        <ele>573</ele>
        <time>2025-11-19T10:16:23.616Z</time>
      </trkpt>
      <trkpt lat="43.73614" lon="6.06564">
        <ele>573.1</ele>
        <time>2025-11-19T10:16:26.616Z</time>
      </trkpt>
      <trkpt lat="43.73616" lon="6.06563">
        <ele>573.2</ele>
        <time>2025-11-19T10:16:28.617Z</time>
      </trkpt>
      <trkpt lat="43.73618" lon="6.06562">
        <ele>573.3</ele>
        <time>2025-11-19T10:16:36.616Z</time>
      </trkpt>
      <trkpt lat="43.73621" lon="6.0656">
        <ele>573.4</ele>
        <time>2025-11-19T10:18:06.616Z</time>
      </trkpt>
      <trkpt lat="43.73624" lon="6.06558">
        <ele>573.5</ele>
        <time>2025-11-19T10:18:09.617Z</time>
      </trkpt>
      <trkpt lat="43.73626" lon="6.06556">
        <ele>573.6</ele>
        <time>2025-11-19T10:18:11.617Z</time>
      </trkpt>
      <trkpt lat="43.73628" lon="6.06553">
        <ele>573.6</ele>
        <time>2025-11-19T10:18:14.616Z</time>
      </trkpt>
      <trkpt lat="43.7363" lon="6.06551">
        <ele>573.6</ele>
        <time>2025-11-19T10:18:17.617Z</time>
      </trkpt>
      <trkpt lat="43.73632" lon="6.06549">
        <ele>573.6</ele>
        <time>2025-11-19T10:18:19.616Z</time>
      </trkpt>
      <trkpt lat="43.73634" lon="6.06547">
        <ele>573.7</ele>
        <time>2025-11-19T10:18:22.617Z</time>
      </trkpt>
      <trkpt lat="43.73636" lon="6.06544">
        <ele>573.8</ele>
        <time>2025-11-19T10:18:27.617Z</time>
      </trkpt>
      <trkpt lat="43.73638" lon="6.06541">
        <ele>573.8</ele>
        <time>2025-11-19T10:18:30.616Z</time>
      </trkpt>
      <trkpt lat="43.73638" lon="6.06537">
        <ele>573.6</ele>
        <time>2025-11-19T10:18:35.617Z</time>
      </trkpt>
      <trkpt lat="43.7364" lon="6.06535">
        <ele>573.6</ele>
        <time>2025-11-19T10:18:38.617Z</time>
      </trkpt>
      <trkpt lat="43.73642" lon="6.06532">
        <ele>573.5</ele>
        <time>2025-11-19T10:18:41.616Z</time>
      </trkpt>
      <trkpt lat="43.73644" lon="6.06529">
        <ele>573.5</ele>
        <time>2025-11-19T10:18:45.617Z</time>
      </trkpt>
      <trkpt lat="43.73646" lon="6.06527">
        <ele>573.3</ele>
        <time>2025-11-19T10:18:48.617Z</time>
      </trkpt>
      <trkpt lat="43.73648" lon="6.06524">
        <ele>573.3</ele>
        <time>2025-11-19T10:18:51.616Z</time>
      </trkpt>
      <trkpt lat="43.7365" lon="6.06522">
        <ele>573.2</ele>
        <time>2025-11-19T10:18:54.616Z</time>
      </trkpt>
      <trkpt lat="43.73652" lon="6.06518">
        <ele>573.1</ele>
        <time>2025-11-19T10:18:57.616Z</time>
      </trkpt>
      <trkpt lat="43.73653" lon="6.06515">
        <ele>573</ele>
        <time>2025-11-19T10:19:00.616Z</time>
      </trkpt>
      <trkpt lat="43.73656" lon="6.06513">
        <ele>573</ele>
        <time>2025-11-19T10:19:03.617Z</time>
      </trkpt>
      <trkpt lat="43.73658" lon="6.06511">
        <ele>573.2</ele>
        <time>2025-11-19T10:19:06.617Z</time>
      </trkpt>
      <trkpt lat="43.7366" lon="6.06509">
        <ele>573.3</ele>
        <time>2025-11-19T10:19:09.617Z</time>
      </trkpt>
      <trkpt lat="43.73661" lon="6.06506">
        <ele>573.4</ele>
        <time>2025-11-19T10:19:12.616Z</time>
      </trkpt>
      <trkpt lat="43.73663" lon="6.06504">
        <ele>573.5</ele>
        <time>2025-11-19T10:19:14.616Z</time>
      </trkpt>
      <trkpt lat="43.73664" lon="6.06501">
        <ele>573.7</ele>
        <time>2025-11-19T10:19:16.616Z</time>
      </trkpt>
      <trkpt lat="43.73666" lon="6.06499">
        <ele>573.8</ele>
        <time>2025-11-19T10:19:19.617Z</time>
      </trkpt>
      <trkpt lat="43.73668" lon="6.06496">
        <ele>573.5</ele>
        <time>2025-11-19T10:19:21.617Z</time>
      </trkpt>
      <trkpt lat="43.7367" lon="6.06494">
        <ele>573.2</ele>
        <time>2025-11-19T10:19:24.616Z</time>
      </trkpt>
      <trkpt lat="43.73672" lon="6.06491">
        <ele>572.8</ele>
        <time>2025-11-19T10:19:28.616Z</time>
      </trkpt>
      <trkpt lat="43.73674" lon="6.06489">
        <ele>572.4</ele>
        <time>2025-11-19T10:19:31.616Z</time>
      </trkpt>
      <trkpt lat="43.73677" lon="6.06488">
        <ele>572.1</ele>
        <time>2025-11-19T10:19:35.617Z</time>
      </trkpt>
      <trkpt lat="43.73679" lon="6.06487">
        <ele>571.9</ele>
        <time>2025-11-19T10:19:38.616Z</time>
      </trkpt>
      <trkpt lat="43.73682" lon="6.06487">
        <ele>571.9</ele>
        <time>2025-11-19T10:19:41.617Z</time>
      </trkpt>
      <trkpt lat="43.73684" lon="6.06487">
        <ele>572</ele>
        <time>2025-11-19T10:19:43.616Z</time>
      </trkpt>
      <trkpt lat="43.73687" lon="6.06489">
        <ele>572.2</ele>
        <time>2025-11-19T10:19:46.617Z</time>
      </trkpt>
      <trkpt lat="43.7369" lon="6.0649">
        <ele>572.6</ele>
        <time>2025-11-19T10:19:49.616Z</time>
      </trkpt>
      <trkpt lat="43.73692" lon="6.06491">
        <ele>572.7</ele>
        <time>2025-11-19T10:19:52.617Z</time>
      </trkpt>
      <trkpt lat="43.73695" lon="6.06492">
        <ele>572.9</ele>
        <time>2025-11-19T10:19:55.617Z</time>
      </trkpt>
      <trkpt lat="43.73697" lon="6.06493">
        <ele>573.1</ele>
        <time>2025-11-19T10:19:57.616Z</time>
      </trkpt>
      <trkpt lat="43.737" lon="6.06494">
        <ele>573.4</ele>
        <time>2025-11-19T10:20:00.617Z</time>
      </trkpt>
      <trkpt lat="43.73703" lon="6.06495">
        <ele>573.7</ele>
        <time>2025-11-19T10:20:03.617Z</time>
      </trkpt>
      <trkpt lat="43.73705" lon="6.06497">
        <ele>574.1</ele>
        <time>2025-11-19T10:20:05.616Z</time>
      </trkpt>
      <trkpt lat="43.73707" lon="6.06498">
        <ele>574.5</ele>
        <time>2025-11-19T10:20:07.617Z</time>
      </trkpt>
      <trkpt lat="43.7371" lon="6.06499">
        <ele>574.6</ele>
        <time>2025-11-19T10:20:10.617Z</time>
      </trkpt>
      <trkpt lat="43.73713" lon="6.065">
        <ele>575</ele>
        <time>2025-11-19T10:20:13.616Z</time>
      </trkpt>
      <trkpt lat="43.73716" lon="6.06501">
        <ele>575.1</ele>
        <time>2025-11-19T10:20:16.617Z</time>
      </trkpt>
      <trkpt lat="43.73718" lon="6.06503">
        <ele>575.1</ele>
        <time>2025-11-19T10:20:18.617Z</time>
      </trkpt>
      <trkpt lat="43.7372" lon="6.06504">
        <ele>575.2</ele>
        <time>2025-11-19T10:20:21.617Z</time>
      </trkpt>
      <trkpt lat="43.73723" lon="6.06505">
        <ele>575.1</ele>
        <time>2025-11-19T10:20:24.617Z</time>
      </trkpt>
      <trkpt lat="43.73726" lon="6.06507">
        <ele>574.8</ele>
        <time>2025-11-19T10:20:28.617Z</time>
      </trkpt>
      <trkpt lat="43.73728" lon="6.06508">
        <ele>574.7</ele>
        <time>2025-11-19T10:20:30.617Z</time>
      </trkpt>
      <trkpt lat="43.73731" lon="6.06509">
        <ele>574.5</ele>
        <time>2025-11-19T10:20:33.617Z</time>
      </trkpt>
      <trkpt lat="43.73733" lon="6.0651">
        <ele>574.3</ele>
        <time>2025-11-19T10:20:36.617Z</time>
      </trkpt>
      <trkpt lat="43.73736" lon="6.06512">
        <ele>574.3</ele>
        <time>2025-11-19T10:20:39.616Z</time>
      </trkpt>
      <trkpt lat="43.73739" lon="6.06513">
        <ele>574.1</ele>
        <time>2025-11-19T10:20:42.617Z</time>
      </trkpt>
      <trkpt lat="43.73742" lon="6.06514">
        <ele>574.1</ele>
        <time>2025-11-19T10:20:45.617Z</time>
      </trkpt>
      <trkpt lat="43.73745" lon="6.06515">
        <ele>574</ele>
        <time>2025-11-19T10:20:48.617Z</time>
      </trkpt>
      <trkpt lat="43.73748" lon="6.06515">
        <ele>573.9</ele>
        <time>2025-11-19T10:20:52.617Z</time>
      </trkpt>
      <trkpt lat="43.73751" lon="6.06516">
        <ele>573.9</ele>
        <time>2025-11-19T10:20:55.617Z</time>
      </trkpt>
      <trkpt lat="43.73754" lon="6.06516">
        <ele>574.2</ele>
        <time>2025-11-19T10:20:58.616Z</time>
      </trkpt>
      <trkpt lat="43.73758" lon="6.06517">
        <ele>574.4</ele>
        <time>2025-11-19T10:21:01.616Z</time>
      </trkpt>
      <trkpt lat="43.73761" lon="6.06516">
        <ele>574.5</ele>
        <time>2025-11-19T10:21:03.617Z</time>
      </trkpt>
      <trkpt lat="43.73764" lon="6.06517">
        <ele>574.8</ele>
        <time>2025-11-19T10:21:06.617Z</time>
      </trkpt>
      <trkpt lat="43.73767" lon="6.06517">
        <ele>575</ele>
        <time>2025-11-19T10:21:10.616Z</time>
      </trkpt>
      <trkpt lat="43.7377" lon="6.06517">
        <ele>575.2</ele>
        <time>2025-11-19T10:21:13.617Z</time>
      </trkpt>
      <trkpt lat="43.73772" lon="6.06518">
        <ele>575.4</ele>
        <time>2025-11-19T10:21:16.617Z</time>
      </trkpt>
      <trkpt lat="43.73774" lon="6.06518">
        <ele>575.5</ele>
        <time>2025-11-19T10:21:18.617Z</time>
      </trkpt>
      <trkpt lat="43.73777" lon="6.06519">
        <ele>575.6</ele>
        <time>2025-11-19T10:21:20.617Z</time>
      </trkpt>
      <trkpt lat="43.73779" lon="6.06519">
        <ele>575.7</ele>
        <time>2025-11-19T10:21:22.617Z</time>
      </trkpt>
      <trkpt lat="43.73782" lon="6.0652">
        <ele>575.9</ele>
        <time>2025-11-19T10:21:24.616Z</time>
      </trkpt>
      <trkpt lat="43.73784" lon="6.0652">
        <ele>576</ele>
        <time>2025-11-19T10:21:26.617Z</time>
      </trkpt>
      <trkpt lat="43.73786" lon="6.06521">
        <ele>576.1</ele>
        <time>2025-11-19T10:21:28.617Z</time>
      </trkpt>
      <trkpt lat="43.73789" lon="6.06521">
        <ele>576.3</ele>
        <time>2025-11-19T10:21:30.616Z</time>
      </trkpt>
      <trkpt lat="43.73792" lon="6.06522">
        <ele>576.4</ele>
        <time>2025-11-19T10:21:33.617Z</time>
      </trkpt>
      <trkpt lat="43.73795" lon="6.06523">
        <ele>576.5</ele>
        <time>2025-11-19T10:21:36.616Z</time>
      </trkpt>
      <trkpt lat="43.73798" lon="6.06525">
        <ele>576.7</ele>
        <time>2025-11-19T10:21:39.616Z</time>
      </trkpt>
      <trkpt lat="43.73801" lon="6.06526">
        <ele>576.8</ele>
        <time>2025-11-19T10:21:42.617Z</time>
      </trkpt>
      <trkpt lat="43.73803" lon="6.06527">
        <ele>576.9</ele>
        <time>2025-11-19T10:21:44.617Z</time>
      </trkpt>
      <trkpt lat="43.73805" lon="6.06528">
        <ele>577</ele>
        <time>2025-11-19T10:21:46.616Z</time>
      </trkpt>
      <trkpt lat="43.73807" lon="6.0653">
        <ele>577</ele>
        <time>2025-11-19T10:21:48.617Z</time>
      </trkpt>
      <trkpt lat="43.7381" lon="6.06531">
        <ele>577</ele>
        <time>2025-11-19T10:21:51.616Z</time>
      </trkpt>
      <trkpt lat="43.73813" lon="6.06532">
        <ele>577</ele>
        <time>2025-11-19T10:21:55.617Z</time>
      </trkpt>
      <trkpt lat="43.73815" lon="6.06533">
        <ele>577.1</ele>
        <time>2025-11-19T10:21:57.617Z</time>
      </trkpt>
      <trkpt lat="43.73818" lon="6.06533">
        <ele>577.1</ele>
        <time>2025-11-19T10:21:59.616Z</time>
      </trkpt>
      <trkpt lat="43.7382" lon="6.06533">
        <ele>577.1</ele>
        <time>2025-11-19T10:22:01.616Z</time>
      </trkpt>
      <trkpt lat="43.73823" lon="6.06534">
        <ele>577.1</ele>
        <time>2025-11-19T10:22:05.616Z</time>
      </trkpt>
      <trkpt lat="43.73826" lon="6.06534">
        <ele>577.2</ele>
        <time>2025-11-19T10:22:08.616Z</time>
      </trkpt>
      <trkpt lat="43.73829" lon="6.06534">
        <ele>577.2</ele>
        <time>2025-11-19T10:22:11.617Z</time>
      </trkpt>
      <trkpt lat="43.73832" lon="6.06534">
        <ele>577.2</ele>
        <time>2025-11-19T10:22:14.617Z</time>
      </trkpt>
      <trkpt lat="43.73835" lon="6.06535">
        <ele>577.3</ele>
        <time>2025-11-19T10:22:17.617Z</time>
      </trkpt>
      <trkpt lat="43.73838" lon="6.06535">
        <ele>577.4</ele>
        <time>2025-11-19T10:22:19.617Z</time>
      </trkpt>
      <trkpt lat="43.73841" lon="6.06534">
        <ele>577.4</ele>
        <time>2025-11-19T10:22:22.616Z</time>
      </trkpt>
      <trkpt lat="43.73843" lon="6.06535">
        <ele>577.5</ele>
        <time>2025-11-19T10:22:24.617Z</time>
      </trkpt>
      <trkpt lat="43.73846" lon="6.06535">
        <ele>577.6</ele>
        <time>2025-11-19T10:22:26.617Z</time>
      </trkpt>
      <trkpt lat="43.73849" lon="6.06534">
        <ele>577.7</ele>
        <time>2025-11-19T10:22:28.616Z</time>
      </trkpt>
      <trkpt lat="43.73852" lon="6.06534">
        <ele>577.7</ele>
        <time>2025-11-19T10:22:30.617Z</time>
      </trkpt>
      <trkpt lat="43.73854" lon="6.06533">
        <ele>577.8</ele>
        <time>2025-11-19T10:22:32.616Z</time>
      </trkpt>
      <trkpt lat="43.73856" lon="6.06533">
        <ele>577.9</ele>
        <time>2025-11-19T10:22:34.617Z</time>
      </trkpt>
      <trkpt lat="43.7386" lon="6.06533">
        <ele>578</ele>
        <time>2025-11-19T10:22:37.617Z</time>
      </trkpt>
      <trkpt lat="43.73863" lon="6.06533">
        <ele>578.1</ele>
        <time>2025-11-19T10:22:40.617Z</time>
      </trkpt>
      <trkpt lat="43.73865" lon="6.06533">
        <ele>578.2</ele>
        <time>2025-11-19T10:22:42.617Z</time>
      </trkpt>
      <trkpt lat="43.73868" lon="6.06533">
        <ele>578.2</ele>
        <time>2025-11-19T10:22:44.616Z</time>
      </trkpt>
      <trkpt lat="43.7387" lon="6.06533">
        <ele>578.3</ele>
        <time>2025-11-19T10:22:46.617Z</time>
      </trkpt>
      <trkpt lat="43.73873" lon="6.06532">
        <ele>578.4</ele>
        <time>2025-11-19T10:22:49.617Z</time>
      </trkpt>
      <trkpt lat="43.73876" lon="6.06532">
        <ele>578.6</ele>
        <time>2025-11-19T10:22:52.617Z</time>
      </trkpt>
      <trkpt lat="43.73879" lon="6.06531">
        <ele>578.7</ele>
        <time>2025-11-19T10:22:55.617Z</time>
      </trkpt>
      <trkpt lat="43.73882" lon="6.0653">
        <ele>578.7</ele>
        <time>2025-11-19T10:22:58.616Z</time>
      </trkpt>
      <trkpt lat="43.73885" lon="6.06529">
        <ele>578.8</ele>
        <time>2025-11-19T10:23:01.617Z</time>
      </trkpt>
      <trkpt lat="43.73888" lon="6.0653">
        <ele>579</ele>
        <time>2025-11-19T10:23:04.616Z</time>
      </trkpt>
      <trkpt lat="43.7389" lon="6.0653">
        <ele>579</ele>
        <time>2025-11-19T10:23:07.617Z</time>
      </trkpt>
      <trkpt lat="43.73893" lon="6.06529">
        <ele>579</ele>
        <time>2025-11-19T10:23:09.617Z</time>
      </trkpt>
      <trkpt lat="43.73896" lon="6.06528">
        <ele>579</ele>
        <time>2025-11-19T10:23:12.616Z</time>
      </trkpt>
      <trkpt lat="43.73899" lon="6.06528">
        <ele>579</ele>
        <time>2025-11-19T10:23:15.617Z</time>
      </trkpt>
      <trkpt lat="43.73902" lon="6.06527">
        <ele>579</ele>
        <time>2025-11-19T10:23:18.617Z</time>
      </trkpt>
      <trkpt lat="43.73905" lon="6.06527">
        <ele>579</ele>
        <time>2025-11-19T10:23:21.617Z</time>
      </trkpt>
      <trkpt lat="43.73908" lon="6.06526">
        <ele>579</ele>
        <time>2025-11-19T10:23:24.617Z</time>
      </trkpt>
      <trkpt lat="43.73912" lon="6.06526">
        <ele>579.1</ele>
        <time>2025-11-19T10:23:27.617Z</time>
      </trkpt>
      <trkpt lat="43.73914" lon="6.06525">
        <ele>579.1</ele>
        <time>2025-11-19T10:23:29.617Z</time>
      </trkpt>
      <trkpt lat="43.73917" lon="6.06525">
        <ele>579.1</ele>
        <time>2025-11-19T10:23:32.617Z</time>
      </trkpt>
      <trkpt lat="43.73919" lon="6.06524">
        <ele>579.2</ele>
        <time>2025-11-19T10:23:34.616Z</time>
      </trkpt>
      <trkpt lat="43.73921" lon="6.06523">
        <ele>579.3</ele>
        <time>2025-11-19T10:23:37.617Z</time>
      </trkpt>
      <trkpt lat="43.73924" lon="6.06522">
        <ele>579.4</ele>
        <time>2025-11-19T10:23:40.617Z</time>
      </trkpt>
      <trkpt lat="43.73927" lon="6.06521">
        <ele>579.5</ele>
        <time>2025-11-19T10:23:42.617Z</time>
      </trkpt>
      <trkpt lat="43.7393" lon="6.0652">
        <ele>579.6</ele>
        <time>2025-11-19T10:23:44.617Z</time>
      </trkpt>
      <trkpt lat="43.73932" lon="6.0652">
        <ele>579.7</ele>
        <time>2025-11-19T10:23:46.617Z</time>
      </trkpt>
      <trkpt lat="43.73935" lon="6.0652">
        <ele>579.8</ele>
        <time>2025-11-19T10:23:49.616Z</time>
      </trkpt>
      <trkpt lat="43.73938" lon="6.06519">
        <ele>579.8</ele>
        <time>2025-11-19T10:23:52.617Z</time>
      </trkpt>
      <trkpt lat="43.7394" lon="6.06518">
        <ele>579.9</ele>
        <time>2025-11-19T10:23:54.617Z</time>
      </trkpt>
      <trkpt lat="43.73943" lon="6.06517">
        <ele>580</ele>
        <time>2025-11-19T10:23:58.616Z</time>
      </trkpt>
      <trkpt lat="43.73946" lon="6.06516">
        <ele>580</ele>
        <time>2025-11-19T10:24:01.617Z</time>
      </trkpt>
      <trkpt lat="43.7395" lon="6.06515">
        <ele>580</ele>
        <time>2025-11-19T10:24:04.617Z</time>
      </trkpt>
      <trkpt lat="43.73952" lon="6.06515">
        <ele>580</ele>
        <time>2025-11-19T10:24:06.617Z</time>
      </trkpt>
      <trkpt lat="43.73954" lon="6.06514">
        <ele>580</ele>
        <time>2025-11-19T10:24:08.617Z</time>
      </trkpt>
      <trkpt lat="43.73958" lon="6.06513">
        <ele>580</ele>
        <time>2025-11-19T10:24:11.616Z</time>
      </trkpt>
      <trkpt lat="43.7396" lon="6.06512">
        <ele>580</ele>
        <time>2025-11-19T10:24:13.617Z</time>
      </trkpt>
      <trkpt lat="43.73964" lon="6.06511">
        <ele>580</ele>
        <time>2025-11-19T10:24:16.617Z</time>
      </trkpt>
      <trkpt lat="43.73966" lon="6.06509">
        <ele>580</ele>
        <time>2025-11-19T10:24:19.617Z</time>
      </trkpt>
      <trkpt lat="43.73968" lon="6.06507">
        <ele>580</ele>
        <time>2025-11-19T10:24:22.617Z</time>
      </trkpt>
      <trkpt lat="43.73971" lon="6.06507">
        <ele>580</ele>
        <time>2025-11-19T10:24:25.616Z</time>
      </trkpt>
      <trkpt lat="43.73974" lon="6.06505">
        <ele>580</ele>
        <time>2025-11-19T10:24:28.617Z</time>
      </trkpt>
      <trkpt lat="43.73977" lon="6.06505">
        <ele>580</ele>
        <time>2025-11-19T10:24:31.617Z</time>
      </trkpt>
      <trkpt lat="43.73981" lon="6.06503">
        <ele>580</ele>
        <time>2025-11-19T10:24:34.617Z</time>
      </trkpt>
      <trkpt lat="43.73983" lon="6.06501">
        <ele>580</ele>
        <time>2025-11-19T10:24:37.617Z</time>
      </trkpt>
      <trkpt lat="43.73986" lon="6.06501">
        <ele>580</ele>
        <time>2025-11-19T10:24:40.617Z</time>
      </trkpt>
      <trkpt lat="43.73988" lon="6.065">
        <ele>580</ele>
        <time>2025-11-19T10:24:42.617Z</time>
      </trkpt>
      <trkpt lat="43.73991" lon="6.065">
        <ele>580</ele>
        <time>2025-11-19T10:24:45.617Z</time>
      </trkpt>
      <trkpt lat="43.73994" lon="6.065">
        <ele>580</ele>
        <time>2025-11-19T10:24:47.617Z</time>
      </trkpt>
      <trkpt lat="43.73996" lon="6.06498">
        <ele>580</ele>
        <time>2025-11-19T10:24:50.616Z</time>
      </trkpt>
      <trkpt lat="43.73999" lon="6.06498">
        <ele>580</ele>
        <time>2025-11-19T10:24:53.617Z</time>
      </trkpt>
      <trkpt lat="43.74002" lon="6.06497">
        <ele>580</ele>
        <time>2025-11-19T10:24:56.617Z</time>
      </trkpt>
      <trkpt lat="43.74006" lon="6.06496">
        <ele>580</ele>
        <time>2025-11-19T10:24:59.617Z</time>
      </trkpt>
      <trkpt lat="43.74008" lon="6.06495">
        <ele>580</ele>
        <time>2025-11-19T10:25:01.617Z</time>
      </trkpt>
      <trkpt lat="43.74011" lon="6.06494">
        <ele>580</ele>
        <time>2025-11-19T10:25:04.617Z</time>
      </trkpt>
      <trkpt lat="43.74013" lon="6.06492">
        <ele>580</ele>
        <time>2025-11-19T10:25:07.617Z</time>
      </trkpt>
      <trkpt lat="43.74016" lon="6.06492">
        <ele>580</ele>
        <time>2025-11-19T10:25:09.617Z</time>
      </trkpt>
      <trkpt lat="43.74018" lon="6.06491">
        <ele>580</ele>
        <time>2025-11-19T10:25:11.617Z</time>
      </trkpt>
      <trkpt lat="43.7402" lon="6.06489">
        <ele>580</ele>
        <time>2025-11-19T10:25:13.617Z</time>
      </trkpt>
      <trkpt lat="43.74024" lon="6.06487">
        <ele>580</ele>
        <time>2025-11-19T10:25:16.617Z</time>
      </trkpt>
      <trkpt lat="43.74026" lon="6.06486">
        <ele>580</ele>
        <time>2025-11-19T10:25:18.617Z</time>
      </trkpt>
      <trkpt lat="43.74029" lon="6.06486">
        <ele>580</ele>
        <time>2025-11-19T10:25:21.617Z</time>
      </trkpt>
      <trkpt lat="43.74031" lon="6.06485">
        <ele>580</ele>
        <time>2025-11-19T10:25:23.617Z</time>
      </trkpt>
      <trkpt lat="43.74033" lon="6.06484">
        <ele>580</ele>
        <time>2025-11-19T10:25:26.617Z</time>
      </trkpt>
      <trkpt lat="43.74036" lon="6.06484">
        <ele>580</ele>
        <time>2025-11-19T10:25:28.617Z</time>
      </trkpt>
      <trkpt lat="43.74038" lon="6.06482">
        <ele>580</ele>
        <time>2025-11-19T10:25:31.617Z</time>
      </trkpt>
      <trkpt lat="43.74041" lon="6.06481">
        <ele>580</ele>
        <time>2025-11-19T10:25:34.617Z</time>
      </trkpt>
      <trkpt lat="43.74044" lon="6.06479">
        <ele>580</ele>
        <time>2025-11-19T10:25:37.617Z</time>
      </trkpt>
      <trkpt lat="43.74046" lon="6.06478">
        <ele>580</ele>
        <time>2025-11-19T10:25:39.617Z</time>
      </trkpt>
      <trkpt lat="43.74049" lon="6.06478">
        <ele>580</ele>
        <time>2025-11-19T10:25:42.617Z</time>
      </trkpt>
      <trkpt lat="43.74052" lon="6.06476">
        <ele>580</ele>
        <time>2025-11-19T10:25:45.617Z</time>
      </trkpt>
      <trkpt lat="43.74055" lon="6.06475">
        <ele>580</ele>
        <time>2025-11-19T10:25:48.617Z</time>
      </trkpt>
      <trkpt lat="43.74058" lon="6.06474">
        <ele>580</ele>
        <time>2025-11-19T10:25:51.617Z</time>
      </trkpt>
      <trkpt lat="43.7406" lon="6.06473">
        <ele>580</ele>
        <time>2025-11-19T10:25:53.617Z</time>
      </trkpt>
      <trkpt lat="43.74063" lon="6.06472">
        <ele>580</ele>
        <time>2025-11-19T10:25:56.617Z</time>
      </trkpt>
      <trkpt lat="43.74065" lon="6.0647">
        <ele>580</ele>
        <time>2025-11-19T10:25:58.617Z</time>
      </trkpt>
      <trkpt lat="43.74068" lon="6.06469">
        <ele>580</ele>
        <time>2025-11-19T10:26:01.617Z</time>
      </trkpt>
      <trkpt lat="43.7407" lon="6.06468">
        <ele>580</ele>
        <time>2025-11-19T10:26:03.617Z</time>
      </trkpt>
      <trkpt lat="43.74072" lon="6.06466">
        <ele>580</ele>
        <time>2025-11-19T10:26:05.617Z</time>
      </trkpt>
      <trkpt lat="43.74075" lon="6.06464">
        <ele>580</ele>
        <time>2025-11-19T10:26:08.617Z</time>
      </trkpt>
      <trkpt lat="43.74078" lon="6.06464">
        <ele>580</ele>
        <time>2025-11-19T10:26:10.617Z</time>
      </trkpt>
      <trkpt lat="43.7408" lon="6.06463">
        <ele>580</ele>
        <time>2025-11-19T10:26:12.617Z</time>
      </trkpt>
      <trkpt lat="43.74083" lon="6.06461">
        <ele>580</ele>
        <time>2025-11-19T10:26:15.617Z</time>
      </trkpt>
      <trkpt lat="43.74086" lon="6.0646">
        <ele>580</ele>
        <time>2025-11-19T10:26:18.617Z</time>
      </trkpt>
      <trkpt lat="43.74089" lon="6.06458">
        <ele>580</ele>
        <time>2025-11-19T10:26:21.617Z</time>
      </trkpt>
      <trkpt lat="43.74092" lon="6.06457">
        <ele>580</ele>
        <time>2025-11-19T10:26:24.617Z</time>
      </trkpt>
      <trkpt lat="43.74095" lon="6.06456">
        <ele>580</ele>
        <time>2025-11-19T10:26:27.617Z</time>
      </trkpt>
      <trkpt lat="43.74098" lon="6.06455">
        <ele>580</ele>
        <time>2025-11-19T10:26:29.617Z</time>
      </trkpt>
      <trkpt lat="43.741" lon="6.06454">
        <ele>580</ele>
        <time>2025-11-19T10:26:31.618Z</time>
      </trkpt>
      <trkpt lat="43.74102" lon="6.06453">
        <ele>580</ele>
        <time>2025-11-19T10:26:33.617Z</time>
      </trkpt>
      <trkpt lat="43.74105" lon="6.06452">
        <ele>580</ele>
        <time>2025-11-19T10:26:35.618Z</time>
      </trkpt>
      <trkpt lat="43.74107" lon="6.0645">
        <ele>580</ele>
        <time>2025-11-19T10:26:38.617Z</time>
      </trkpt>
      <trkpt lat="43.7411" lon="6.06449">
        <ele>580</ele>
        <time>2025-11-19T10:26:41.617Z</time>
      </trkpt>
      <trkpt lat="43.74112" lon="6.06447">
        <ele>580</ele>
        <time>2025-11-19T10:26:44.617Z</time>
      </trkpt>
      <trkpt lat="43.74114" lon="6.06446">
        <ele>580</ele>
        <time>2025-11-19T10:26:46.617Z</time>
      </trkpt>
      <trkpt lat="43.74116" lon="6.06445">
        <ele>580</ele>
        <time>2025-11-19T10:26:48.617Z</time>
      </trkpt>
      <trkpt lat="43.74118" lon="6.06444">
        <ele>580</ele>
        <time>2025-11-19T10:26:50.617Z</time>
      </trkpt>
      <trkpt lat="43.74121" lon="6.06443">
        <ele>580</ele>
        <time>2025-11-19T10:26:52.618Z</time>
      </trkpt>
      <trkpt lat="43.74123" lon="6.06441">
        <ele>580</ele>
        <time>2025-11-19T10:26:55.617Z</time>
      </trkpt>
      <trkpt lat="43.74126" lon="6.06439">
        <ele>580</ele>
        <time>2025-11-19T10:26:58.617Z</time>
      </trkpt>
      <trkpt lat="43.74129" lon="6.06437">
        <ele>580</ele>
        <time>2025-11-19T10:27:01.617Z</time>
      </trkpt>
      <trkpt lat="43.74131" lon="6.06434">
        <ele>580</ele>
        <time>2025-11-19T10:27:07.617Z</time>
      </trkpt>
      <trkpt lat="43.74132" lon="6.06432">
        <ele>580</ele>
        <time>2025-11-19T10:27:12.617Z</time>
      </trkpt>
      <trkpt lat="43.74134" lon="6.06429">
        <ele>580</ele>
        <time>2025-11-19T10:27:18.617Z</time>
      </trkpt>
      <trkpt lat="43.74136" lon="6.06427">
        <ele>580</ele>
        <time>2025-11-19T10:27:23.617Z</time>
      </trkpt>
      <trkpt lat="43.74137" lon="6.06424">
        <ele>580</ele>
        <time>2025-11-19T10:27:29.617Z</time>
      </trkpt>
      <trkpt lat="43.7414" lon="6.06425">
        <ele>580</ele>
        <time>2025-11-19T10:28:02.617Z</time>
      </trkpt>
      <trkpt lat="43.74141" lon="6.06428">
        <ele>580</ele>
        <time>2025-11-19T10:28:17.617Z</time>
      </trkpt>
      <trkpt lat="43.74141" lon="6.06432">
        <ele>580</ele>
        <time>2025-11-19T10:28:20.617Z</time>
      </trkpt>
      <trkpt lat="43.74141" lon="6.06435">
        <ele>580.1</ele>
        <time>2025-11-19T10:28:24.618Z</time>
      </trkpt>
      <trkpt lat="43.74143" lon="6.06437">
        <ele>580.1</ele>
        <time>2025-11-19T10:28:27.617Z</time>
      </trkpt>
      <trkpt lat="43.74146" lon="6.06439">
        <ele>580.2</ele>
        <time>2025-11-19T10:28:31.617Z</time>
      </trkpt>
      <trkpt lat="43.74148" lon="6.06441">
        <ele>580.3</ele>
        <time>2025-11-19T10:28:34.617Z</time>
      </trkpt>
      <trkpt lat="43.7415" lon="6.06443">
        <ele>580.4</ele>
        <time>2025-11-19T10:28:37.617Z</time>
      </trkpt>
      <trkpt lat="43.74149" lon="6.0644">
        <ele>580.3</ele>
        <time>2025-11-19T10:29:53.617Z</time>
      </trkpt>
      <trkpt lat="43.74147" lon="6.06438">
        <ele>580.2</ele>
        <time>2025-11-19T10:29:56.617Z</time>
      </trkpt>
      <trkpt lat="43.74145" lon="6.06436">
        <ele>580.1</ele>
        <time>2025-11-19T10:29:59.617Z</time>
      </trkpt>
      <trkpt lat="43.74142" lon="6.06434">
        <ele>580.1</ele>
        <time>2025-11-19T10:30:02.617Z</time>
      </trkpt>
      <trkpt lat="43.7414" lon="6.06433">
        <ele>580</ele>
        <time>2025-11-19T10:30:05.617Z</time>
      </trkpt>
      <trkpt lat="43.74137" lon="6.06434">
        <ele>580</ele>
        <time>2025-11-19T10:30:08.618Z</time>
      </trkpt>
      <trkpt lat="43.74135" lon="6.06436">
        <ele>580</ele>
        <time>2025-11-19T10:30:12.618Z</time>
      </trkpt>
      <trkpt lat="43.74132" lon="6.06437">
        <ele>580</ele>
        <time>2025-11-19T10:30:16.617Z</time>
      </trkpt>
      <trkpt lat="43.7413" lon="6.06438">
        <ele>580</ele>
        <time>2025-11-19T10:30:19.617Z</time>
      </trkpt>
      <trkpt lat="43.74128" lon="6.0644">
        <ele>580</ele>
        <time>2025-11-19T10:30:22.618Z</time>
      </trkpt>
      <trkpt lat="43.74125" lon="6.06442">
        <ele>580</ele>
        <time>2025-11-19T10:30:25.617Z</time>
      </trkpt>
      <trkpt lat="43.74122" lon="6.06444">
        <ele>580</ele>
        <time>2025-11-19T10:30:28.617Z</time>
      </trkpt>
      <trkpt lat="43.7412" lon="6.06444">
        <ele>580</ele>
        <time>2025-11-19T10:30:31.617Z</time>
      </trkpt>
      <trkpt lat="43.74117" lon="6.06445">
        <ele>580</ele>
        <time>2025-11-19T10:30:35.618Z</time>
      </trkpt>
      <trkpt lat="43.74115" lon="6.06447">
        <ele>580</ele>
        <time>2025-11-19T10:30:38.618Z</time>
      </trkpt>
      <trkpt lat="43.74112" lon="6.06448">
        <ele>580</ele>
        <time>2025-11-19T10:30:41.618Z</time>
      </trkpt>
      <trkpt lat="43.74109" lon="6.06449">
        <ele>580</ele>
        <time>2025-11-19T10:30:44.618Z</time>
      </trkpt>
      <trkpt lat="43.74107" lon="6.06451">
        <ele>580</ele>
        <time>2025-11-19T10:30:48.617Z</time>
      </trkpt>
      <trkpt lat="43.74104" lon="6.06453">
        <ele>580</ele>
        <time>2025-11-19T10:30:51.618Z</time>
      </trkpt>
      <trkpt lat="43.74102" lon="6.06454">
        <ele>580</ele>
        <time>2025-11-19T10:30:54.617Z</time>
      </trkpt>
      <trkpt lat="43.741" lon="6.06454">
        <ele>580</ele>
        <time>2025-11-19T10:30:57.618Z</time>
      </trkpt>
      <trkpt lat="43.74097" lon="6.06455">
        <ele>580</ele>
        <time>2025-11-19T10:31:02.618Z</time>
      </trkpt>
      <trkpt lat="43.74095" lon="6.06456">
        <ele>580</ele>
        <time>2025-11-19T10:31:05.618Z</time>
      </trkpt>
      <trkpt lat="43.74092" lon="6.06457">
        <ele>580</ele>
        <time>2025-11-19T10:31:10.617Z</time>
      </trkpt>
      <trkpt lat="43.74089" lon="6.06458">
        <ele>580</ele>
        <time>2025-11-19T10:31:13.618Z</time>
      </trkpt>
      <trkpt lat="43.74086" lon="6.0646">
        <ele>580</ele>
        <time>2025-11-19T10:31:16.618Z</time>
      </trkpt>
      <trkpt lat="43.74083" lon="6.06461">
        <ele>580</ele>
        <time>2025-11-19T10:31:19.617Z</time>
      </trkpt>
      <trkpt lat="43.74081" lon="6.06462">
        <ele>580</ele>
        <time>2025-11-19T10:31:22.617Z</time>
      </trkpt>
      <trkpt lat="43.74078" lon="6.06463">
        <ele>580</ele>
        <time>2025-11-19T10:31:24.618Z</time>
      </trkpt>
      <trkpt lat="43.74075" lon="6.06465">
        <ele>580</ele>
        <time>2025-11-19T10:31:27.617Z</time>
      </trkpt>
      <trkpt lat="43.74073" lon="6.06466">
        <ele>580</ele>
        <time>2025-11-19T10:31:30.617Z</time>
      </trkpt>
      <trkpt lat="43.7407" lon="6.06467">
        <ele>580</ele>
        <time>2025-11-19T10:31:33.618Z</time>
      </trkpt>
      <trkpt lat="43.74068" lon="6.06469">
        <ele>580</ele>
        <time>2025-11-19T10:31:36.618Z</time>
      </trkpt>
      <trkpt lat="43.74065" lon="6.06469">
        <ele>580</ele>
        <time>2025-11-19T10:31:39.618Z</time>
      </trkpt>
      <trkpt lat="43.74062" lon="6.0647">
        <ele>580</ele>
        <time>2025-11-19T10:31:42.617Z</time>
      </trkpt>
      <trkpt lat="43.7406" lon="6.06472">
        <ele>580</ele>
        <time>2025-11-19T10:31:58.617Z</time>
      </trkpt>
      <trkpt lat="43.74057" lon="6.06473">
        <ele>580</ele>
        <time>2025-11-19T10:32:02.618Z</time>
      </trkpt>
      <trkpt lat="43.74054" lon="6.06475">
        <ele>580</ele>
        <time>2025-11-19T10:32:09.618Z</time>
      </trkpt>
      <trkpt lat="43.74051" lon="6.06476">
        <ele>580</ele>
        <time>2025-11-19T10:32:12.618Z</time>
      </trkpt>
      <trkpt lat="43.74049" lon="6.06476">
        <ele>580</ele>
        <time>2025-11-19T10:32:15.618Z</time>
      </trkpt>
      <trkpt lat="43.74046" lon="6.06477">
        <ele>580</ele>
        <time>2025-11-19T10:32:18.617Z</time>
      </trkpt>
      <trkpt lat="43.74043" lon="6.06479">
        <ele>580</ele>
        <time>2025-11-19T10:32:21.617Z</time>
      </trkpt>
      <trkpt lat="43.74041" lon="6.0648">
        <ele>580</ele>
        <time>2025-11-19T10:32:24.618Z</time>
      </trkpt>
      <trkpt lat="43.74038" lon="6.06482">
        <ele>580</ele>
        <time>2025-11-19T10:32:27.617Z</time>
      </trkpt>
      <trkpt lat="43.74035" lon="6.06482">
        <ele>580</ele>
        <time>2025-11-19T10:32:30.617Z</time>
      </trkpt>
      <trkpt lat="43.74033" lon="6.06483">
        <ele>580</ele>
        <time>2025-11-19T10:32:32.618Z</time>
      </trkpt>
      <trkpt lat="43.7403" lon="6.06483">
        <ele>580</ele>
        <time>2025-11-19T10:32:35.617Z</time>
      </trkpt>
      <trkpt lat="43.74027" lon="6.06484">
        <ele>580</ele>
        <time>2025-11-19T10:32:38.618Z</time>
      </trkpt>
      <trkpt lat="43.74024" lon="6.06485">
        <ele>580</ele>
        <time>2025-11-19T10:32:40.617Z</time>
      </trkpt>
      <trkpt lat="43.74022" lon="6.06487">
        <ele>580</ele>
        <time>2025-11-19T10:32:43.617Z</time>
      </trkpt>
      <trkpt lat="43.7402" lon="6.06488">
        <ele>580</ele>
        <time>2025-11-19T10:32:47.618Z</time>
      </trkpt>
      <trkpt lat="43.74019" lon="6.06492">
        <ele>580</ele>
        <time>2025-11-19T10:33:39.617Z</time>
      </trkpt>
      <trkpt lat="43.74019" lon="6.06495">
        <ele>580</ele>
        <time>2025-11-19T10:33:41.618Z</time>
      </trkpt>
      <trkpt lat="43.74018" lon="6.06498">
        <ele>580</ele>
        <time>2025-11-19T10:33:44.618Z</time>
      </trkpt>
      <trkpt lat="43.74018" lon="6.06501">
        <ele>580</ele>
        <time>2025-11-19T10:33:48.618Z</time>
      </trkpt>
      <trkpt lat="43.74018" lon="6.06505">
        <ele>580</ele>
        <time>2025-11-19T10:33:52.617Z</time>
      </trkpt>
      <trkpt lat="43.74018" lon="6.0651">
        <ele>580</ele>
        <time>2025-11-19T10:33:54.618Z</time>
      </trkpt>
      <trkpt lat="43.74018" lon="6.06514">
        <ele>580</ele>
        <time>2025-11-19T10:33:57.618Z</time>
      </trkpt>
      <trkpt lat="43.74018" lon="6.06518">
        <ele>580</ele>
        <time>2025-11-19T10:33:59.618Z</time>
      </trkpt>
      <trkpt lat="43.74019" lon="6.06522">
        <ele>580</ele>
        <time>2025-11-19T10:34:01.617Z</time>
      </trkpt>
      <trkpt lat="43.74019" lon="6.06525">
        <ele>580</ele>
        <time>2025-11-19T10:34:03.618Z</time>
      </trkpt>
      <trkpt lat="43.74019" lon="6.06528">
        <ele>580</ele>
        <time>2025-11-19T10:34:05.617Z</time>
      </trkpt>
      <trkpt lat="43.74019" lon="6.06532">
        <ele>579.9</ele>
        <time>2025-11-19T10:34:07.617Z</time>
      </trkpt>
      <trkpt lat="43.74018" lon="6.06535">
        <ele>579.8</ele>
        <time>2025-11-19T10:34:09.617Z</time>
      </trkpt>
      <trkpt lat="43.74018" lon="6.06539">
        <ele>579.7</ele>
        <time>2025-11-19T10:34:11.618Z</time>
      </trkpt>
      <trkpt lat="43.74018" lon="6.06543">
        <ele>579.6</ele>
        <time>2025-11-19T10:34:14.617Z</time>
      </trkpt>
      <trkpt lat="43.74018" lon="6.06546">
        <ele>579.6</ele>
        <time>2025-11-19T10:34:16.618Z</time>
      </trkpt>
      <trkpt lat="43.74018" lon="6.0655">
        <ele>579.5</ele>
        <time>2025-11-19T10:34:19.618Z</time>
      </trkpt>
      <trkpt lat="43.74018" lon="6.06554">
        <ele>579.4</ele>
        <time>2025-11-19T10:34:23.617Z</time>
      </trkpt>
      <trkpt lat="43.74017" lon="6.06558">
        <ele>579.2</ele>
        <time>2025-11-19T10:34:28.618Z</time>
      </trkpt>
      <trkpt lat="43.74016" lon="6.06561">
        <ele>578.8</ele>
        <time>2025-11-19T10:34:32.618Z</time>
      </trkpt>
      <trkpt lat="43.74014" lon="6.06564">
        <ele>578.6</ele>
        <time>2025-11-19T10:34:35.618Z</time>
      </trkpt>
      <trkpt lat="43.74011" lon="6.06566">
        <ele>578.6</ele>
        <time>2025-11-19T10:34:39.617Z</time>
      </trkpt>
      <trkpt lat="43.74008" lon="6.06567">
        <ele>578.6</ele>
        <time>2025-11-19T10:34:42.617Z</time>
      </trkpt>
      <trkpt lat="43.74005" lon="6.06568">
        <ele>578.8</ele>
        <time>2025-11-19T10:34:45.618Z</time>
      </trkpt>
      <trkpt lat="43.74003" lon="6.06569">
        <ele>578.9</ele>
        <time>2025-11-19T10:34:47.618Z</time>
      </trkpt>
      <trkpt lat="43.74" lon="6.0657">
        <ele>579</ele>
        <time>2025-11-19T10:34:50.618Z</time>
      </trkpt>
      <trkpt lat="43.73998" lon="6.06571">
        <ele>578.9</ele>
        <time>2025-11-19T10:34:52.618Z</time>
      </trkpt>
      <trkpt lat="43.73995" lon="6.06572">
        <ele>578.9</ele>
        <time>2025-11-19T10:34:54.618Z</time>
      </trkpt>
      <trkpt lat="43.73993" lon="6.06574">
        <ele>578.8</ele>
        <time>2025-11-19T10:34:57.617Z</time>
      </trkpt>
      <trkpt lat="43.7399" lon="6.06576">
        <ele>578.8</ele>
        <time>2025-11-19T10:35:00.618Z</time>
      </trkpt>
      <trkpt lat="43.73987" lon="6.06578">
        <ele>578.7</ele>
        <time>2025-11-19T10:35:03.617Z</time>
      </trkpt>
      <trkpt lat="43.73985" lon="6.0658">
        <ele>578.7</ele>
        <time>2025-11-19T10:35:05.618Z</time>
      </trkpt>
      <trkpt lat="43.73983" lon="6.06581">
        <ele>578.7</ele>
        <time>2025-11-19T10:35:08.617Z</time>
      </trkpt>
      <trkpt lat="43.73981" lon="6.06583">
        <ele>578.7</ele>
        <time>2025-11-19T10:35:10.617Z</time>
      </trkpt>
      <trkpt lat="43.73978" lon="6.06585">
        <ele>578.5</ele>
        <time>2025-11-19T10:35:13.618Z</time>
      </trkpt>
      <trkpt lat="43.73976" lon="6.06586">
        <ele>578.3</ele>
        <time>2025-11-19T10:35:16.617Z</time>
      </trkpt>
      <trkpt lat="43.73973" lon="6.06589">
        <ele>578</ele>
        <time>2025-11-19T10:35:19.618Z</time>
      </trkpt>
      <trkpt lat="43.73969" lon="6.0659">
        <ele>577.9</ele>
        <time>2025-11-19T10:35:22.618Z</time>
      </trkpt>
      <trkpt lat="43.73966" lon="6.06592">
        <ele>577.8</ele>
        <time>2025-11-19T10:35:25.617Z</time>
      </trkpt>
      <trkpt lat="43.73964" lon="6.06593">
        <ele>577.6</ele>
        <time>2025-11-19T10:35:27.618Z</time>
      </trkpt>
      <trkpt lat="43.73961" lon="6.06596">
        <ele>577.5</ele>
        <time>2025-11-19T10:35:30.618Z</time>
      </trkpt>
      <trkpt lat="43.73959" lon="6.06598">
        <ele>577.4</ele>
        <time>2025-11-19T10:35:33.618Z</time>
      </trkpt>
      <trkpt lat="43.73956" lon="6.066">
        <ele>577.5</ele>
        <time>2025-11-19T10:35:36.618Z</time>
      </trkpt>
      <trkpt lat="43.73953" lon="6.06602">
        <ele>577.5</ele>
        <time>2025-11-19T10:35:39.618Z</time>
      </trkpt>
      <trkpt lat="43.73951" lon="6.06604">
        <ele>577.6</ele>
        <time>2025-11-19T10:35:41.618Z</time>
      </trkpt>
      <trkpt lat="43.73948" lon="6.06606">
        <ele>577.7</ele>
        <time>2025-11-19T10:35:44.618Z</time>
      </trkpt>
      <trkpt lat="43.73946" lon="6.06608">
        <ele>577.9</ele>
        <time>2025-11-19T10:35:46.618Z</time>
      </trkpt>
      <trkpt lat="43.73943" lon="6.0661">
        <ele>578.1</ele>
        <time>2025-11-19T10:35:48.618Z</time>
      </trkpt>
      <trkpt lat="43.73941" lon="6.06611">
        <ele>578</ele>
        <time>2025-11-19T10:35:51.618Z</time>
      </trkpt>
      <trkpt lat="43.73939" lon="6.06613">
        <ele>577.7</ele>
        <time>2025-11-19T10:35:53.618Z</time>
      </trkpt>
      <trkpt lat="43.73937" lon="6.06615">
        <ele>577.4</ele>
        <time>2025-11-19T10:35:56.617Z</time>
      </trkpt>
      <trkpt lat="43.73935" lon="6.06617">
        <ele>577.2</ele>
        <time>2025-11-19T10:35:58.618Z</time>
      </trkpt>
      <trkpt lat="43.73933" lon="6.06619">
        <ele>577.1</ele>
        <time>2025-11-19T10:36:00.618Z</time>
      </trkpt>
      <trkpt lat="43.73931" lon="6.06621">
        <ele>576.9</ele>
        <time>2025-11-19T10:36:02.618Z</time>
      </trkpt>
      <trkpt lat="43.73928" lon="6.06623">
        <ele>576.9</ele>
        <time>2025-11-19T10:36:05.618Z</time>
      </trkpt>
      <trkpt lat="43.73925" lon="6.06624">
        <ele>577</ele>
        <time>2025-11-19T10:36:07.617Z</time>
      </trkpt>
      <trkpt lat="43.73923" lon="6.06626">
        <ele>577</ele>
        <time>2025-11-19T10:36:09.618Z</time>
      </trkpt>
      <trkpt lat="43.73921" lon="6.06627">
        <ele>577</ele>
        <time>2025-11-19T10:36:12.618Z</time>
      </trkpt>
      <trkpt lat="43.73919" lon="6.06629">
        <ele>577.2</ele>
        <time>2025-11-19T10:36:15.618Z</time>
      </trkpt>
      <trkpt lat="43.73915" lon="6.06631">
        <ele>577.3</ele>
        <time>2025-11-19T10:36:18.617Z</time>
      </trkpt>
      <trkpt lat="43.73913" lon="6.06633">
        <ele>577.3</ele>
        <time>2025-11-19T10:36:20.618Z</time>
      </trkpt>
      <trkpt lat="43.73911" lon="6.06636">
        <ele>577.3</ele>
        <time>2025-11-19T10:36:23.618Z</time>
      </trkpt>
      <trkpt lat="43.73908" lon="6.06637">
        <ele>577.3</ele>
        <time>2025-11-19T10:36:25.618Z</time>
      </trkpt>
      <trkpt lat="43.73906" lon="6.06639">
        <ele>577.4</ele>
        <time>2025-11-19T10:36:27.618Z</time>
      </trkpt>
      <trkpt lat="43.73904" lon="6.06642">
        <ele>577.1</ele>
        <time>2025-11-19T10:36:30.618Z</time>
      </trkpt>
      <trkpt lat="43.73902" lon="6.06644">
        <ele>577.1</ele>
        <time>2025-11-19T10:36:33.618Z</time>
      </trkpt>
      <trkpt lat="43.73899" lon="6.06646">
        <ele>577.1</ele>
        <time>2025-11-19T10:36:36.618Z</time>
      </trkpt>
      <trkpt lat="43.73897" lon="6.06647">
        <ele>577.2</ele>
        <time>2025-11-19T10:36:39.617Z</time>
      </trkpt>
      <trkpt lat="43.73896" lon="6.06651">
        <ele>577.2</ele>
        <time>2025-11-19T10:36:42.618Z</time>
      </trkpt>
      <trkpt lat="43.73894" lon="6.06653">
        <ele>577.3</ele>
        <time>2025-11-19T10:36:44.618Z</time>
      </trkpt>
      <trkpt lat="43.73893" lon="6.06657">
        <ele>577.4</ele>
        <time>2025-11-19T10:36:47.618Z</time>
      </trkpt>
      <trkpt lat="43.73891" lon="6.0666">
        <ele>577.6</ele>
        <time>2025-11-19T10:36:50.618Z</time>
      </trkpt>
      <trkpt lat="43.73889" lon="6.06662">
        <ele>578</ele>
        <time>2025-11-19T10:36:53.618Z</time>
      </trkpt>
      <trkpt lat="43.73886" lon="6.06665">
        <ele>578.1</ele>
        <time>2025-11-19T10:36:56.618Z</time>
      </trkpt>
      <trkpt lat="43.73885" lon="6.06668">
        <ele>578</ele>
        <time>2025-11-19T10:36:59.618Z</time>
      </trkpt>
      <trkpt lat="43.73884" lon="6.06671">
        <ele>577.8</ele>
        <time>2025-11-19T10:37:02.618Z</time>
      </trkpt>
      <trkpt lat="43.73882" lon="6.06674">
        <ele>577.7</ele>
        <time>2025-11-19T10:37:05.618Z</time>
      </trkpt>
      <trkpt lat="43.7388" lon="6.06677">
        <ele>577.6</ele>
        <time>2025-11-19T10:37:08.618Z</time>
      </trkpt>
      <trkpt lat="43.73878" lon="6.0668">
        <ele>577.5</ele>
        <time>2025-11-19T10:37:11.618Z</time>
      </trkpt>
      <trkpt lat="43.73876" lon="6.06683">
        <ele>577.5</ele>
        <time>2025-11-19T10:37:14.618Z</time>
      </trkpt>
      <trkpt lat="43.73874" lon="6.06686">
        <ele>577.5</ele>
        <time>2025-11-19T10:37:16.618Z</time>
      </trkpt>
      <trkpt lat="43.73872" lon="6.0669">
        <ele>577.6</ele>
        <time>2025-11-19T10:37:20.618Z</time>
      </trkpt>
      <trkpt lat="43.73871" lon="6.06693">
        <ele>577.6</ele>
        <time>2025-11-19T10:37:23.618Z</time>
      </trkpt>
      <trkpt lat="43.73869" lon="6.06696">
        <ele>577.7</ele>
        <time>2025-11-19T10:37:26.618Z</time>
      </trkpt>
      <trkpt lat="43.73868" lon="6.06699">
        <ele>577.8</ele>
        <time>2025-11-19T10:37:29.618Z</time>
      </trkpt>
      <trkpt lat="43.73866" lon="6.06702">
        <ele>577.8</ele>
        <time>2025-11-19T10:37:32.618Z</time>
      </trkpt>
      <trkpt lat="43.73865" lon="6.06706">
        <ele>577.9</ele>
        <time>2025-11-19T10:37:35.618Z</time>
      </trkpt>
      <trkpt lat="43.73863" lon="6.06709">
        <ele>578</ele>
        <time>2025-11-19T10:37:39.618Z</time>
      </trkpt>
      <trkpt lat="43.73862" lon="6.06712">
        <ele>578.2</ele>
        <time>2025-11-19T10:37:42.618Z</time>
      </trkpt>
      <trkpt lat="43.7386" lon="6.06716">
        <ele>578.3</ele>
        <time>2025-11-19T10:37:45.618Z</time>
      </trkpt>
      <trkpt lat="43.73859" lon="6.06719">
        <ele>578.2</ele>
        <time>2025-11-19T10:37:48.618Z</time>
      </trkpt>
      <trkpt lat="43.73856" lon="6.06722">
        <ele>578.2</ele>
        <time>2025-11-19T10:37:51.618Z</time>
      </trkpt>
      <trkpt lat="43.73855" lon="6.06725">
        <ele>578.1</ele>
        <time>2025-11-19T10:37:53.618Z</time>
      </trkpt>
      <trkpt lat="43.73853" lon="6.06728">
        <ele>577.9</ele>
        <time>2025-11-19T10:37:56.618Z</time>
      </trkpt>
      <trkpt lat="43.73852" lon="6.06732">
        <ele>577.7</ele>
        <time>2025-11-19T10:37:59.618Z</time>
      </trkpt>
      <trkpt lat="43.7385" lon="6.06736">
        <ele>577.6</ele>
        <time>2025-11-19T10:38:02.618Z</time>
      </trkpt>
      <trkpt lat="43.73849" lon="6.06739">
        <ele>577.5</ele>
        <time>2025-11-19T10:38:05.618Z</time>
      </trkpt>
      <trkpt lat="43.73847" lon="6.06742">
        <ele>577.5</ele>
        <time>2025-11-19T10:38:08.618Z</time>
      </trkpt>
      <trkpt lat="43.73845" lon="6.06745">
        <ele>577.4</ele>
        <time>2025-11-19T10:38:11.618Z</time>
      </trkpt>
      <trkpt lat="43.73844" lon="6.06749">
        <ele>577.3</ele>
        <time>2025-11-19T10:38:14.618Z</time>
      </trkpt>
      <trkpt lat="43.73843" lon="6.06752">
        <ele>577.1</ele>
        <time>2025-11-19T10:38:17.618Z</time>
      </trkpt>
      <trkpt lat="43.73842" lon="6.06755">
        <ele>576.8</ele>
        <time>2025-11-19T10:38:21.618Z</time>
      </trkpt>
      <trkpt lat="43.73841" lon="6.06758">
        <ele>576.5</ele>
        <time>2025-11-19T10:38:25.618Z</time>
      </trkpt>
      <trkpt lat="43.73843" lon="6.06761">
        <ele>576</ele>
        <time>2025-11-19T10:38:29.618Z</time>
      </trkpt>
      <trkpt lat="43.73844" lon="6.06764">
        <ele>575.6</ele>
        <time>2025-11-19T10:38:35.618Z</time>
      </trkpt>
      <trkpt lat="43.73845" lon="6.06767">
        <ele>575.1</ele>
        <time>2025-11-19T10:38:42.618Z</time>
      </trkpt>
      <trkpt lat="43.73847" lon="6.0677">
        <ele>574.6</ele>
        <time>2025-11-19T10:38:47.618Z</time>
      </trkpt>
      <trkpt lat="43.73849" lon="6.06771">
        <ele>574.2</ele>
        <time>2025-11-19T10:38:52.618Z</time>
      </trkpt>
      <trkpt lat="43.73852" lon="6.06774">
        <ele>573.5</ele>
        <time>2025-11-19T10:39:08.618Z</time>
      </trkpt>
      <trkpt lat="43.73852" lon="6.0678">
        <ele>572.6</ele>
        <time>2025-11-19T10:39:15.618Z</time>
      </trkpt>
      <trkpt lat="43.73853" lon="6.06784">
        <ele>571.6</ele>
        <time>2025-11-19T10:39:22.618Z</time>
      </trkpt>
      <trkpt lat="43.73855" lon="6.06788">
        <ele>570.8</ele>
        <time>2025-11-19T10:39:28.618Z</time>
      </trkpt>
      <trkpt lat="43.73855" lon="6.06791">
        <ele>570.1</ele>
        <time>2025-11-19T10:39:32.618Z</time>
      </trkpt>
      <trkpt lat="43.73855" lon="6.06795">
        <ele>569.3</ele>
        <time>2025-11-19T10:39:43.618Z</time>
      </trkpt>
      <trkpt lat="43.73857" lon="6.06797">
        <ele>568.8</ele>
        <time>2025-11-19T10:39:51.619Z</time>
      </trkpt>
      <trkpt lat="43.73859" lon="6.068">
        <ele>568.2</ele>
        <time>2025-11-19T10:39:55.618Z</time>
      </trkpt>
      <trkpt lat="43.73859" lon="6.06803">
        <ele>567.5</ele>
        <time>2025-11-19T10:40:01.618Z</time>
      </trkpt>
      <trkpt lat="43.7386" lon="6.06808">
        <ele>566.6</ele>
        <time>2025-11-19T10:40:07.618Z</time>
      </trkpt>
      <trkpt lat="43.73861" lon="6.06811">
        <ele>565.8</ele>
        <time>2025-11-19T10:40:10.618Z</time>
      </trkpt>
      <trkpt lat="43.73862" lon="6.06815">
        <ele>564.8</ele>
        <time>2025-11-19T10:40:19.618Z</time>
      </trkpt>
      <trkpt lat="43.73864" lon="6.06818">
        <ele>563.8</ele>
        <time>2025-11-19T10:40:23.619Z</time>
      </trkpt>
      <trkpt lat="43.73863" lon="6.06821">
        <ele>563.1</ele>
        <time>2025-11-19T10:40:27.618Z</time>
      </trkpt>
      <trkpt lat="43.73864" lon="6.06825">
        <ele>562.2</ele>
        <time>2025-11-19T10:40:30.619Z</time>
      </trkpt>
      <trkpt lat="43.73866" lon="6.06828">
        <ele>561.1</ele>
        <time>2025-11-19T10:40:38.619Z</time>
      </trkpt>
      <trkpt lat="43.73865" lon="6.06832">
        <ele>560.6</ele>
        <time>2025-11-19T10:40:41.618Z</time>
      </trkpt>
      <trkpt lat="43.73865" lon="6.06835">
        <ele>559.7</ele>
        <time>2025-11-19T10:40:44.618Z</time>
      </trkpt>
      <trkpt lat="43.73866" lon="6.06839">
        <ele>558.6</ele>
        <time>2025-11-19T10:40:50.618Z</time>
      </trkpt>
      <trkpt lat="43.73866" lon="6.06843">
        <ele>557.6</ele>
        <time>2025-11-19T10:40:54.618Z</time>
      </trkpt>
      <trkpt lat="43.73868" lon="6.06845">
        <ele>556.7</ele>
        <time>2025-11-19T10:40:59.618Z</time>
      </trkpt>
      <trkpt lat="43.7387" lon="6.06849">
        <ele>555.7</ele>
        <time>2025-11-19T10:41:03.618Z</time>
      </trkpt>
      <trkpt lat="43.73871" lon="6.06852">
        <ele>554.7</ele>
        <time>2025-11-19T10:41:09.618Z</time>
      </trkpt>
      <trkpt lat="43.7387" lon="6.06857">
        <ele>553.7</ele>
        <time>2025-11-19T10:41:15.618Z</time>
      </trkpt>
      <trkpt lat="43.73869" lon="6.0686">
        <ele>553.3</ele>
        <time>2025-11-19T10:41:18.618Z</time>
      </trkpt>
      <trkpt lat="43.73867" lon="6.06863">
        <ele>552.8</ele>
        <time>2025-11-19T10:41:24.618Z</time>
      </trkpt>
      <trkpt lat="43.73868" lon="6.06866">
        <ele>552.2</ele>
        <time>2025-11-19T10:41:27.619Z</time>
      </trkpt>
      <trkpt lat="43.73867" lon="6.06869">
        <ele>551.6</ele>
        <time>2025-11-19T10:41:31.619Z</time>
      </trkpt>
      <trkpt lat="43.73867" lon="6.06872">
        <ele>550.9</ele>
        <time>2025-11-19T10:41:36.619Z</time>
      </trkpt>
      <trkpt lat="43.73866" lon="6.06875">
        <ele>550.5</ele>
        <time>2025-11-19T10:41:40.619Z</time>
      </trkpt>
      <trkpt lat="43.73865" lon="6.06879">
        <ele>549.8</ele>
        <time>2025-11-19T10:41:45.619Z</time>
      </trkpt>
      <trkpt lat="43.73865" lon="6.06882">
        <ele>549.1</ele>
        <time>2025-11-19T10:41:48.619Z</time>
      </trkpt>
      <trkpt lat="43.73864" lon="6.06885">
        <ele>548.6</ele>
        <time>2025-11-19T10:41:56.618Z</time>
      </trkpt>
      <trkpt lat="43.73864" lon="6.06889">
        <ele>547.9</ele>
        <time>2025-11-19T10:41:59.618Z</time>
      </trkpt>
      <trkpt lat="43.73864" lon="6.06892">
        <ele>547.3</ele>
        <time>2025-11-19T10:42:04.619Z</time>
      </trkpt>
      <trkpt lat="43.73864" lon="6.06895">
        <ele>546.8</ele>
        <time>2025-11-19T10:42:08.618Z</time>
      </trkpt>
      <trkpt lat="43.73865" lon="6.06899">
        <ele>546.3</ele>
        <time>2025-11-19T10:42:12.618Z</time>
      </trkpt>
      <trkpt lat="43.73865" lon="6.06903">
        <ele>545.7</ele>
        <time>2025-11-19T10:42:16.618Z</time>
      </trkpt>
      <trkpt lat="43.73866" lon="6.06909">
        <ele>544.8</ele>
        <time>2025-11-19T10:42:23.618Z</time>
      </trkpt>
      <trkpt lat="43.73867" lon="6.06913">
        <ele>544.2</ele>
        <time>2025-11-19T10:42:26.619Z</time>
      </trkpt>
      <trkpt lat="43.73867" lon="6.06916">
        <ele>543.7</ele>
        <time>2025-11-19T10:42:30.618Z</time>
      </trkpt>
      <trkpt lat="43.73868" lon="6.06919">
        <ele>543.1</ele>
        <time>2025-11-19T10:42:33.618Z</time>
      </trkpt>
      <trkpt lat="43.73869" lon="6.06923">
        <ele>542.6</ele>
        <time>2025-11-19T10:42:39.619Z</time>
      </trkpt>
      <trkpt lat="43.73869" lon="6.06927">
        <ele>541.9</ele>
        <time>2025-11-19T10:42:44.619Z</time>
      </trkpt>
      <trkpt lat="43.7387" lon="6.06931">
        <ele>541.4</ele>
        <time>2025-11-19T10:42:47.618Z</time>
      </trkpt>
      <trkpt lat="43.73869" lon="6.06935">
        <ele>540.8</ele>
        <time>2025-11-19T10:42:51.618Z</time>
      </trkpt>
      <trkpt lat="43.73869" lon="6.06938">
        <ele>540.3</ele>
        <time>2025-11-19T10:42:55.618Z</time>
      </trkpt>
      <trkpt lat="43.73868" lon="6.06942">
        <ele>539.9</ele>
        <time>2025-11-19T10:42:59.618Z</time>
      </trkpt>
      <trkpt lat="43.73866" lon="6.06945">
        <ele>539.6</ele>
        <time>2025-11-19T10:43:15.618Z</time>
      </trkpt>
      <trkpt lat="43.73865" lon="6.06941">
        <ele>540.1</ele>
        <time>2025-11-19T10:45:59.619Z</time>
      </trkpt>
      <trkpt lat="43.73865" lon="6.06946">
        <ele>539.4</ele>
        <time>2025-11-19T10:46:49.619Z</time>
      </trkpt>
      <trkpt lat="43.73864" lon="6.06948">
        <ele>539.2</ele>
        <time>2025-11-19T10:47:11.619Z</time>
      </trkpt>
      <trkpt lat="43.73862" lon="6.06953">
        <ele>538.5</ele>
        <time>2025-11-19T10:47:19.619Z</time>
      </trkpt>
      <trkpt lat="43.73861" lon="6.06956">
        <ele>537.9</ele>
        <time>2025-11-19T10:47:23.618Z</time>
      </trkpt>
      <trkpt lat="43.73861" lon="6.0696">
        <ele>537.2</ele>
        <time>2025-11-19T10:47:29.618Z</time>
      </trkpt>
      <trkpt lat="43.7386" lon="6.06963">
        <ele>536.5</ele>
        <time>2025-11-19T10:47:49.619Z</time>
      </trkpt>
      <trkpt lat="43.73861" lon="6.06967">
        <ele>535.8</ele>
        <time>2025-11-19T10:47:54.619Z</time>
      </trkpt>
      <trkpt lat="43.73859" lon="6.06971">
        <ele>534.9</ele>
        <time>2025-11-19T10:48:00.619Z</time>
      </trkpt>
      <trkpt lat="43.73858" lon="6.06974">
        <ele>534.1</ele>
        <time>2025-11-19T10:48:07.618Z</time>
      </trkpt>
      <trkpt lat="43.73858" lon="6.06978">
        <ele>533.4</ele>
        <time>2025-11-19T10:48:13.619Z</time>
      </trkpt>
      <trkpt lat="43.73858" lon="6.06983">
        <ele>532.3</ele>
        <time>2025-11-19T10:48:20.619Z</time>
      </trkpt>
      <trkpt lat="43.73858" lon="6.06987">
        <ele>531.4</ele>
        <time>2025-11-19T10:48:26.619Z</time>
      </trkpt>
      <trkpt lat="43.73857" lon="6.06991">
        <ele>530.5</ele>
        <time>2025-11-19T10:48:30.619Z</time>
      </trkpt>
      <trkpt lat="43.73857" lon="6.06995">
        <ele>529.7</ele>
        <time>2025-11-19T10:48:34.619Z</time>
      </trkpt>
      <trkpt lat="43.73856" lon="6.07">
        <ele>528.8</ele>
        <time>2025-11-19T10:48:37.618Z</time>
      </trkpt>
      <trkpt lat="43.73857" lon="6.07003">
        <ele>528.3</ele>
        <time>2025-11-19T10:48:41.619Z</time>
      </trkpt>
      <trkpt lat="43.73856" lon="6.07006">
        <ele>527.8</ele>
        <time>2025-11-19T10:48:45.619Z</time>
      </trkpt>
      <trkpt lat="43.73854" lon="6.07009">
        <ele>527.3</ele>
        <time>2025-11-19T10:48:50.619Z</time>
      </trkpt>
      <trkpt lat="43.73851" lon="6.0701">
        <ele>527</ele>
        <time>2025-11-19T10:48:55.619Z</time>
      </trkpt>
      <trkpt lat="43.73848" lon="6.07011">
        <ele>526.6</ele>
        <time>2025-11-19T10:48:59.619Z</time>
      </trkpt>
      <trkpt lat="43.73846" lon="6.07014">
        <ele>526.2</ele>
        <time>2025-11-19T10:49:02.619Z</time>
      </trkpt>
      <trkpt lat="43.73844" lon="6.07017">
        <ele>525.7</ele>
        <time>2025-11-19T10:49:08.619Z</time>
      </trkpt>
      <trkpt lat="43.73842" lon="6.0702">
        <ele>525.2</ele>
        <time>2025-11-19T10:49:13.618Z</time>
      </trkpt>
      <trkpt lat="43.73842" lon="6.07023">
        <ele>524.8</ele>
        <time>2025-11-19T10:49:16.618Z</time>
      </trkpt>
      <trkpt lat="43.73841" lon="6.07026">
        <ele>524.4</ele>
        <time>2025-11-19T10:49:20.619Z</time>
      </trkpt>
      <trkpt lat="43.73839" lon="6.07031">
        <ele>523.9</ele>
        <time>2025-11-19T10:49:25.619Z</time>
      </trkpt>
      <trkpt lat="43.73837" lon="6.07033">
        <ele>523.5</ele>
        <time>2025-11-19T10:49:28.619Z</time>
      </trkpt>
      <trkpt lat="43.73836" lon="6.07037">
        <ele>523.1</ele>
        <time>2025-11-19T10:49:31.619Z</time>
      </trkpt>
      <trkpt lat="43.73834" lon="6.0704">
        <ele>522.7</ele>
        <time>2025-11-19T10:49:35.619Z</time>
      </trkpt>
      <trkpt lat="43.73832" lon="6.07043">
        <ele>522.3</ele>
        <time>2025-11-19T10:49:38.619Z</time>
      </trkpt>
      <trkpt lat="43.73831" lon="6.07046">
        <ele>521.9</ele>
        <time>2025-11-19T10:49:40.618Z</time>
      </trkpt>
      <trkpt lat="43.73829" lon="6.07048">
        <ele>521.5</ele>
        <time>2025-11-19T10:49:44.619Z</time>
      </trkpt>
      <trkpt lat="43.73828" lon="6.07051">
        <ele>521.1</ele>
        <time>2025-11-19T10:49:47.619Z</time>
      </trkpt>
      <trkpt lat="43.73826" lon="6.07053">
        <ele>520.7</ele>
        <time>2025-11-19T10:49:50.619Z</time>
      </trkpt>
      <trkpt lat="43.73825" lon="6.07056">
        <ele>520.2</ele>
        <time>2025-11-19T10:49:53.619Z</time>
      </trkpt>
      <trkpt lat="43.73822" lon="6.07059">
        <ele>519.6</ele>
        <time>2025-11-19T10:49:59.619Z</time>
      </trkpt>
      <trkpt lat="43.73821" lon="6.07063">
        <ele>519</ele>
        <time>2025-11-19T10:50:03.618Z</time>
      </trkpt>
      <trkpt lat="43.7382" lon="6.07065">
        <ele>518.4</ele>
        <time>2025-11-19T10:50:06.619Z</time>
      </trkpt>
      <trkpt lat="43.7382" lon="6.07069">
        <ele>517.8</ele>
        <time>2025-11-19T10:50:09.619Z</time>
      </trkpt>
      <trkpt lat="43.73819" lon="6.07072">
        <ele>517.3</ele>
        <time>2025-11-19T10:50:13.619Z</time>
      </trkpt>
      <trkpt lat="43.73818" lon="6.07076">
        <ele>516.8</ele>
        <time>2025-11-19T10:50:16.619Z</time>
      </trkpt>
      <trkpt lat="43.73817" lon="6.07079">
        <ele>516.2</ele>
        <time>2025-11-19T10:50:19.619Z</time>
      </trkpt>
      <trkpt lat="43.73815" lon="6.07081">
        <ele>516</ele>
        <time>2025-11-19T10:50:23.619Z</time>
      </trkpt>
      <trkpt lat="43.73812" lon="6.07084">
        <ele>515.7</ele>
        <time>2025-11-19T10:50:26.619Z</time>
      </trkpt>
      <trkpt lat="43.7381" lon="6.07085">
        <ele>515.7</ele>
        <time>2025-11-19T10:50:28.619Z</time>
      </trkpt>
      <trkpt lat="43.73807" lon="6.07085">
        <ele>515.7</ele>
        <time>2025-11-19T10:50:31.619Z</time>
      </trkpt>
      <trkpt lat="43.73804" lon="6.07085">
        <ele>515.6</ele>
        <time>2025-11-19T10:50:34.619Z</time>
      </trkpt>
      <trkpt lat="43.73801" lon="6.07086">
        <ele>515.2</ele>
        <time>2025-11-19T10:50:37.619Z</time>
      </trkpt>
      <trkpt lat="43.73798" lon="6.07087">
        <ele>514.9</ele>
        <time>2025-11-19T10:50:40.619Z</time>
      </trkpt>
      <trkpt lat="43.73795" lon="6.07088">
        <ele>514.5</ele>
        <time>2025-11-19T10:50:43.619Z</time>
      </trkpt>
      <trkpt lat="43.73793" lon="6.0709">
        <ele>514.3</ele>
        <time>2025-11-19T10:50:47.619Z</time>
      </trkpt>
      <trkpt lat="43.73792" lon="6.07093">
        <ele>514</ele>
        <time>2025-11-19T10:50:49.619Z</time>
      </trkpt>
      <trkpt lat="43.7379" lon="6.07096">
        <ele>513.7</ele>
        <time>2025-11-19T10:50:52.619Z</time>
      </trkpt>
      <trkpt lat="43.73788" lon="6.07099">
        <ele>513.4</ele>
        <time>2025-11-19T10:50:55.619Z</time>
      </trkpt>
      <trkpt lat="43.73786" lon="6.07103">
        <ele>513.3</ele>
        <time>2025-11-19T10:50:58.619Z</time>
      </trkpt>
      <trkpt lat="43.73785" lon="6.07107">
        <ele>513.1</ele>
        <time>2025-11-19T10:51:01.619Z</time>
      </trkpt>
      <trkpt lat="43.73784" lon="6.0711">
        <ele>513</ele>
        <time>2025-11-19T10:51:04.618Z</time>
      </trkpt>
      <trkpt lat="43.73783" lon="6.07113">
        <ele>512.8</ele>
        <time>2025-11-19T10:51:07.619Z</time>
      </trkpt>
      <trkpt lat="43.73782" lon="6.07117">
        <ele>512.6</ele>
        <time>2025-11-19T10:51:11.619Z</time>
      </trkpt>
      <trkpt lat="43.73782" lon="6.0712">
        <ele>512.3</ele>
        <time>2025-11-19T10:51:16.619Z</time>
      </trkpt>
      <trkpt lat="43.73782" lon="6.07124">
        <ele>512</ele>
        <time>2025-11-19T10:51:19.619Z</time>
      </trkpt>
      <trkpt lat="43.73781" lon="6.07128">
        <ele>511.8</ele>
        <time>2025-11-19T10:51:22.619Z</time>
      </trkpt>
      <trkpt lat="43.7378" lon="6.07131">
        <ele>511.5</ele>
        <time>2025-11-19T10:51:25.619Z</time>
      </trkpt>
      <trkpt lat="43.73779" lon="6.07134">
        <ele>511.3</ele>
        <time>2025-11-19T10:51:27.619Z</time>
      </trkpt>
      <trkpt lat="43.73778" lon="6.07137">
        <ele>511.1</ele>
        <time>2025-11-19T10:51:30.619Z</time>
      </trkpt>
      <trkpt lat="43.73778" lon="6.07141">
        <ele>510.8</ele>
        <time>2025-11-19T10:51:34.619Z</time>
      </trkpt>
      <trkpt lat="43.7378" lon="6.07144">
        <ele>510.6</ele>
        <time>2025-11-19T10:51:38.619Z</time>
      </trkpt>
      <trkpt lat="43.73781" lon="6.07147">
        <ele>510.3</ele>
        <time>2025-11-19T10:51:41.619Z</time>
      </trkpt>
      <trkpt lat="43.73782" lon="6.07149">
        <ele>510</ele>
        <time>2025-11-19T10:51:43.619Z</time>
      </trkpt>
      <trkpt lat="43.73784" lon="6.07152">
        <ele>509.7</ele>
        <time>2025-11-19T10:51:45.619Z</time>
      </trkpt>
      <trkpt lat="43.73785" lon="6.07155">
        <ele>509.4</ele>
        <time>2025-11-19T10:51:48.619Z</time>
      </trkpt>
      <trkpt lat="43.73786" lon="6.07158">
        <ele>509.1</ele>
        <time>2025-11-19T10:51:51.619Z</time>
      </trkpt>
      <trkpt lat="43.73787" lon="6.07162">
        <ele>508.8</ele>
        <time>2025-11-19T10:51:54.619Z</time>
      </trkpt>
      <trkpt lat="43.73788" lon="6.07165">
        <ele>508.4</ele>
        <time>2025-11-19T10:51:57.619Z</time>
      </trkpt>
      <trkpt lat="43.73788" lon="6.07168">
        <ele>508</ele>
        <time>2025-11-19T10:52:01.619Z</time>
      </trkpt>
      <trkpt lat="43.73787" lon="6.07171">
        <ele>507.7</ele>
        <time>2025-11-19T10:52:04.619Z</time>
      </trkpt>
      <trkpt lat="43.73786" lon="6.07175">
        <ele>507.2</ele>
        <time>2025-11-19T10:52:08.619Z</time>
      </trkpt>
      <trkpt lat="43.73786" lon="6.07179">
        <ele>506.7</ele>
        <time>2025-11-19T10:52:11.619Z</time>
      </trkpt>
      <trkpt lat="43.73785" lon="6.07183">
        <ele>506.2</ele>
        <time>2025-11-19T10:52:14.619Z</time>
      </trkpt>
      <trkpt lat="43.73785" lon="6.07187">
        <ele>505.5</ele>
        <time>2025-11-19T10:52:19.619Z</time>
      </trkpt>
      <trkpt lat="43.73785" lon="6.07191">
        <ele>505.1</ele>
        <time>2025-11-19T10:52:22.619Z</time>
      </trkpt>
      <trkpt lat="43.73783" lon="6.07194">
        <ele>504.7</ele>
        <time>2025-11-19T10:52:26.619Z</time>
      </trkpt>
      <trkpt lat="43.73781" lon="6.07197">
        <ele>504.4</ele>
        <time>2025-11-19T10:52:31.619Z</time>
      </trkpt>
      <trkpt lat="43.7378" lon="6.072">
        <ele>504</ele>
        <time>2025-11-19T10:52:34.619Z</time>
      </trkpt>
      <trkpt lat="43.73779" lon="6.07204">
        <ele>503.6</ele>
        <time>2025-11-19T10:52:37.619Z</time>
      </trkpt>
      <trkpt lat="43.73778" lon="6.07207">
        <ele>503.2</ele>
        <time>2025-11-19T10:52:40.619Z</time>
      </trkpt>
      <trkpt lat="43.73777" lon="6.0721">
        <ele>502.9</ele>
        <time>2025-11-19T10:52:43.619Z</time>
      </trkpt>
      <trkpt lat="43.73775" lon="6.07213">
        <ele>502.5</ele>
        <time>2025-11-19T10:52:47.619Z</time>
      </trkpt>
      <trkpt lat="43.73773" lon="6.07217">
        <ele>502.1</ele>
        <time>2025-11-19T10:52:52.619Z</time>
      </trkpt>
      <trkpt lat="43.73772" lon="6.0722">
        <ele>501.8</ele>
        <time>2025-11-19T10:52:56.619Z</time>
      </trkpt>
      <trkpt lat="43.7377" lon="6.07225">
        <ele>501.1</ele>
        <time>2025-11-19T10:53:00.619Z</time>
      </trkpt>
      <trkpt lat="43.73769" lon="6.07229">
        <ele>500.5</ele>
        <time>2025-11-19T10:53:03.619Z</time>
      </trkpt>
      <trkpt lat="43.73768" lon="6.07232">
        <ele>499.9</ele>
        <time>2025-11-19T10:53:06.620Z</time>
      </trkpt>
      <trkpt lat="43.73767" lon="6.07236">
        <ele>499.3</ele>
        <time>2025-11-19T10:53:09.619Z</time>
      </trkpt>
      <trkpt lat="43.73767" lon="6.0724">
        <ele>498.7</ele>
        <time>2025-11-19T10:53:12.619Z</time>
      </trkpt>
      <trkpt lat="43.73767" lon="6.07243">
        <ele>498.1</ele>
        <time>2025-11-19T10:53:16.619Z</time>
      </trkpt>
      <trkpt lat="43.73766" lon="6.07246">
        <ele>497.5</ele>
        <time>2025-11-19T10:53:19.619Z</time>
      </trkpt>
      <trkpt lat="43.73767" lon="6.0725">
        <ele>496.7</ele>
        <time>2025-11-19T10:53:23.619Z</time>
      </trkpt>
      <trkpt lat="43.73767" lon="6.07255">
        <ele>495.8</ele>
        <time>2025-11-19T10:53:29.619Z</time>
      </trkpt>
      <trkpt lat="43.73767" lon="6.07258">
        <ele>495.1</ele>
        <time>2025-11-19T10:53:33.619Z</time>
      </trkpt>
      <trkpt lat="43.73766" lon="6.07262">
        <ele>494.4</ele>
        <time>2025-11-19T10:53:36.619Z</time>
      </trkpt>
      <trkpt lat="43.73767" lon="6.07266">
        <ele>493.7</ele>
        <time>2025-11-19T10:53:43.619Z</time>
      </trkpt>
      <trkpt lat="43.73767" lon="6.0727">
        <ele>492.8</ele>
        <time>2025-11-19T10:53:47.619Z</time>
      </trkpt>
      <trkpt lat="43.73767" lon="6.07273">
        <ele>492.2</ele>
        <time>2025-11-19T10:53:52.619Z</time>
      </trkpt>
      <trkpt lat="43.73768" lon="6.07278">
        <ele>491.1</ele>
        <time>2025-11-19T10:54:16.619Z</time>
      </trkpt>
      <trkpt lat="43.73769" lon="6.07281">
        <ele>490.4</ele>
        <time>2025-11-19T10:54:24.620Z</time>
      </trkpt>
      <trkpt lat="43.73768" lon="6.07284">
        <ele>489.8</ele>
        <time>2025-11-19T10:54:34.620Z</time>
      </trkpt>
      <trkpt lat="43.73769" lon="6.07287">
        <ele>489.1</ele>
        <time>2025-11-19T10:54:56.620Z</time>
      </trkpt>
      <trkpt lat="43.73769" lon="6.0729">
        <ele>488.4</ele>
        <time>2025-11-19T10:55:08.620Z</time>
      </trkpt>
      <trkpt lat="43.7377" lon="6.07293">
        <ele>487.7</ele>
        <time>2025-11-19T10:55:12.619Z</time>
      </trkpt>
      <trkpt lat="43.7377" lon="6.07297">
        <ele>486.9</ele>
        <time>2025-11-19T10:55:18.620Z</time>
      </trkpt>
      <trkpt lat="43.73768" lon="6.07301">
        <ele>486.3</ele>
        <time>2025-11-19T10:55:22.619Z</time>
      </trkpt>
      <trkpt lat="43.73768" lon="6.07305">
        <ele>485.5</ele>
        <time>2025-11-19T10:55:26.619Z</time>
      </trkpt>
      <trkpt lat="43.73768" lon="6.07309">
        <ele>484.9</ele>
        <time>2025-11-19T10:55:30.619Z</time>
      </trkpt>
      <trkpt lat="43.73768" lon="6.07313">
        <ele>484.2</ele>
        <time>2025-11-19T10:55:33.619Z</time>
      </trkpt>
      <trkpt lat="43.73769" lon="6.07316">
        <ele>483.5</ele>
        <time>2025-11-19T10:55:36.619Z</time>
      </trkpt>
      <trkpt lat="43.73769" lon="6.07321">
        <ele>482.8</ele>
        <time>2025-11-19T10:55:47.619Z</time>
      </trkpt>
      <trkpt lat="43.73769" lon="6.07325">
        <ele>482</ele>
        <time>2025-11-19T10:55:54.619Z</time>
      </trkpt>
      <trkpt lat="43.73768" lon="6.07328">
        <ele>481.7</ele>
        <time>2025-11-19T10:55:59.619Z</time>
      </trkpt>
      <trkpt lat="43.73768" lon="6.07331">
        <ele>481.2</ele>
        <time>2025-11-19T10:56:03.619Z</time>
      </trkpt>
      <trkpt lat="43.73767" lon="6.07335">
        <ele>480.8</ele>
        <time>2025-11-19T10:56:06.620Z</time>
      </trkpt>
      <trkpt lat="43.73766" lon="6.07339">
        <ele>480.4</ele>
        <time>2025-11-19T10:56:10.619Z</time>
      </trkpt>
      <trkpt lat="43.73764" lon="6.07342">
        <ele>480.3</ele>
        <time>2025-11-19T10:56:15.619Z</time>
      </trkpt>
      <trkpt lat="43.73763" lon="6.07345">
        <ele>479.9</ele>
        <time>2025-11-19T10:56:17.619Z</time>
      </trkpt>
      <trkpt lat="43.73761" lon="6.07349">
        <ele>479.7</ele>
        <time>2025-11-19T10:56:20.619Z</time>
      </trkpt>
      <trkpt lat="43.73759" lon="6.07351">
        <ele>479.8</ele>
        <time>2025-11-19T10:56:23.619Z</time>
      </trkpt>
      <trkpt lat="43.73757" lon="6.07355">
        <ele>479.6</ele>
        <time>2025-11-19T10:56:27.620Z</time>
      </trkpt>
      <trkpt lat="43.73755" lon="6.07357">
        <ele>479.7</ele>
        <time>2025-11-19T10:56:30.619Z</time>
      </trkpt>
      <trkpt lat="43.73753" lon="6.07358">
        <ele>480</ele>
        <time>2025-11-19T10:56:33.619Z</time>
      </trkpt>
      <trkpt lat="43.7375" lon="6.0736">
        <ele>480.3</ele>
        <time>2025-11-19T10:56:36.619Z</time>
      </trkpt>
      <trkpt lat="43.73747" lon="6.0736">
        <ele>480.5</ele>
        <time>2025-11-19T10:56:39.620Z</time>
      </trkpt>
      <trkpt lat="43.73745" lon="6.07361">
        <ele>480.6</ele>
        <time>2025-11-19T10:56:42.620Z</time>
      </trkpt>
      <trkpt lat="43.73742" lon="6.07362">
        <ele>480.7</ele>
        <time>2025-11-19T10:56:44.620Z</time>
      </trkpt>
      <trkpt lat="43.7374" lon="6.07363">
        <ele>480.9</ele>
        <time>2025-11-19T10:56:47.619Z</time>
      </trkpt>
      <trkpt lat="43.73737" lon="6.07365">
        <ele>481</ele>
        <time>2025-11-19T10:56:50.620Z</time>
      </trkpt>
      <trkpt lat="43.73735" lon="6.07365">
        <ele>481.2</ele>
        <time>2025-11-19T10:56:53.619Z</time>
      </trkpt>
      <trkpt lat="43.73732" lon="6.07366">
        <ele>481.4</ele>
        <time>2025-11-19T10:56:55.619Z</time>
      </trkpt>
      <trkpt lat="43.7373" lon="6.07367">
        <ele>481.7</ele>
        <time>2025-11-19T10:56:58.619Z</time>
      </trkpt>
      <trkpt lat="43.73728" lon="6.07368">
        <ele>481.8</ele>
        <time>2025-11-19T10:57:00.619Z</time>
      </trkpt>
      <trkpt lat="43.73725" lon="6.07371">
        <ele>481.9</ele>
        <time>2025-11-19T10:57:04.620Z</time>
      </trkpt>
      <trkpt lat="43.73724" lon="6.07373">
        <ele>481.9</ele>
        <time>2025-11-19T10:57:07.619Z</time>
      </trkpt>
      <trkpt lat="43.73722" lon="6.07376">
        <ele>481.9</ele>
        <time>2025-11-19T10:57:10.619Z</time>
      </trkpt>
      <trkpt lat="43.73721" lon="6.07379">
        <ele>481.6</ele>
        <time>2025-11-19T10:57:12.619Z</time>
      </trkpt>
      <trkpt lat="43.73719" lon="6.07382">
        <ele>481.3</ele>
        <time>2025-11-19T10:57:14.620Z</time>
      </trkpt>
      <trkpt lat="43.73717" lon="6.07385">
        <ele>481.1</ele>
        <time>2025-11-19T10:57:16.619Z</time>
      </trkpt>
      <trkpt lat="43.73716" lon="6.07387">
        <ele>480.9</ele>
        <time>2025-11-19T10:57:18.619Z</time>
      </trkpt>
      <trkpt lat="43.73714" lon="6.07391">
        <ele>480.6</ele>
        <time>2025-11-19T10:57:21.620Z</time>
      </trkpt>
      <trkpt lat="43.73712" lon="6.07394">
        <ele>480.3</ele>
        <time>2025-11-19T10:57:24.620Z</time>
      </trkpt>
      <trkpt lat="43.73712" lon="6.07398">
        <ele>480</ele>
        <time>2025-11-19T10:57:27.620Z</time>
      </trkpt>
      <trkpt lat="43.73712" lon="6.07402">
        <ele>479.8</ele>
        <time>2025-11-19T10:57:30.620Z</time>
      </trkpt>
      <trkpt lat="43.73712" lon="6.07405">
        <ele>479.5</ele>
        <time>2025-11-19T10:57:35.619Z</time>
      </trkpt>
      <trkpt lat="43.73714" lon="6.07408">
        <ele>479.3</ele>
        <time>2025-11-19T10:57:57.619Z</time>
      </trkpt>
      <trkpt lat="43.73716" lon="6.07413">
        <ele>478.7</ele>
        <time>2025-11-19T10:58:25.619Z</time>
      </trkpt>
      <trkpt lat="43.73716" lon="6.07418">
        <ele>478.2</ele>
        <time>2025-11-19T10:58:31.619Z</time>
      </trkpt>
      <trkpt lat="43.73718" lon="6.07421">
        <ele>477.6</ele>
        <time>2025-11-19T10:58:42.620Z</time>
      </trkpt>
      <trkpt lat="43.73719" lon="6.07425">
        <ele>476.8</ele>
        <time>2025-11-19T10:58:52.620Z</time>
      </trkpt>
      <trkpt lat="43.7372" lon="6.07429">
        <ele>476.1</ele>
        <time>2025-11-19T10:58:57.620Z</time>
      </trkpt>
      <trkpt lat="43.73721" lon="6.07432">
        <ele>475.4</ele>
        <time>2025-11-19T10:59:03.619Z</time>
      </trkpt>
      <trkpt lat="43.73722" lon="6.07434">
        <ele>474.8</ele>
        <time>2025-11-19T10:59:09.619Z</time>
      </trkpt>
      <trkpt lat="43.73725" lon="6.07438">
        <ele>473.5</ele>
        <time>2025-11-19T10:59:13.619Z</time>
      </trkpt>
      <trkpt lat="43.73727" lon="6.0744">
        <ele>472.3</ele>
        <time>2025-11-19T10:59:18.619Z</time>
      </trkpt>
      <trkpt lat="43.73728" lon="6.07443">
        <ele>471.5</ele>
        <time>2025-11-19T10:59:24.619Z</time>
      </trkpt>
      <trkpt lat="43.73731" lon="6.07446">
        <ele>470.2</ele>
        <time>2025-11-19T10:59:32.619Z</time>
      </trkpt>
      <trkpt lat="43.73733" lon="6.07448">
        <ele>469.4</ele>
        <time>2025-11-19T10:59:35.619Z</time>
      </trkpt>
      <trkpt lat="43.73733" lon="6.07454">
        <ele>468.4</ele>
        <time>2025-11-19T10:59:49.619Z</time>
      </trkpt>
      <trkpt lat="43.73734" lon="6.07458">
        <ele>467.5</ele>
        <time>2025-11-19T10:59:55.620Z</time>
      </trkpt>
      <trkpt lat="43.73734" lon="6.07462">
        <ele>466.7</ele>
        <time>2025-11-19T10:59:59.620Z</time>
      </trkpt>
      <trkpt lat="43.73735" lon="6.07466">
        <ele>465.8</ele>
        <time>2025-11-19T11:00:05.619Z</time>
      </trkpt>
      <trkpt lat="43.73736" lon="6.0747">
        <ele>465</ele>
        <time>2025-11-19T11:00:10.619Z</time>
      </trkpt>
      <trkpt lat="43.73737" lon="6.07473">
        <ele>464.2</ele>
        <time>2025-11-19T11:00:13.620Z</time>
      </trkpt>
      <trkpt lat="43.73737" lon="6.07476">
        <ele>463.6</ele>
        <time>2025-11-19T11:00:18.619Z</time>
      </trkpt>
      <trkpt lat="43.73738" lon="6.07479">
        <ele>462.9</ele>
        <time>2025-11-19T11:00:23.620Z</time>
      </trkpt>
      <trkpt lat="43.73739" lon="6.07483">
        <ele>462.2</ele>
        <time>2025-11-19T11:00:28.619Z</time>
      </trkpt>
      <trkpt lat="43.7374" lon="6.07485">
        <ele>461.5</ele>
        <time>2025-11-19T11:00:33.619Z</time>
      </trkpt>
      <trkpt lat="43.73741" lon="6.07488">
        <ele>460.8</ele>
        <time>2025-11-19T11:00:37.620Z</time>
      </trkpt>
      <trkpt lat="43.73742" lon="6.07492">
        <ele>460</ele>
        <time>2025-11-19T11:00:41.619Z</time>
      </trkpt>
      <trkpt lat="43.73743" lon="6.07494">
        <ele>459.3</ele>
        <time>2025-11-19T11:00:45.619Z</time>
      </trkpt>
      <trkpt lat="43.73744" lon="6.07498">
        <ele>458.7</ele>
        <time>2025-11-19T11:00:51.620Z</time>
      </trkpt>
      <trkpt lat="43.73745" lon="6.07501">
        <ele>458</ele>
        <time>2025-11-19T11:00:54.620Z</time>
      </trkpt>
      <trkpt lat="43.73746" lon="6.07504">
        <ele>457.4</ele>
        <time>2025-11-19T11:00:57.620Z</time>
      </trkpt>
      <trkpt lat="43.73747" lon="6.07507">
        <ele>457</ele>
        <time>2025-11-19T11:01:03.620Z</time>
      </trkpt>
      <trkpt lat="43.7375" lon="6.0751">
        <ele>456.4</ele>
        <time>2025-11-19T11:01:06.619Z</time>
      </trkpt>
      <trkpt lat="43.73751" lon="6.07514">
        <ele>455.8</ele>
        <time>2025-11-19T11:01:11.620Z</time>
      </trkpt>
      <trkpt lat="43.73751" lon="6.07517">
        <ele>455.5</ele>
        <time>2025-11-19T11:01:14.620Z</time>
      </trkpt>
      <trkpt lat="43.73752" lon="6.07521">
        <ele>455</ele>
        <time>2025-11-19T11:01:17.620Z</time>
      </trkpt>
      <trkpt lat="43.73752" lon="6.07525">
        <ele>454.7</ele>
        <time>2025-11-19T11:01:21.620Z</time>
      </trkpt>
      <trkpt lat="43.73752" lon="6.07528">
        <ele>454.2</ele>
        <time>2025-11-19T11:01:23.620Z</time>
      </trkpt>
      <trkpt lat="43.73753" lon="6.07532">
        <ele>453.8</ele>
        <time>2025-11-19T11:01:26.620Z</time>
      </trkpt>
      <trkpt lat="43.73753" lon="6.07536">
        <ele>453.2</ele>
        <time>2025-11-19T11:01:29.620Z</time>
      </trkpt>
      <trkpt lat="43.73754" lon="6.07539">
        <ele>452.9</ele>
        <time>2025-11-19T11:01:32.619Z</time>
      </trkpt>
      <trkpt lat="43.73753" lon="6.07542">
        <ele>452.7</ele>
        <time>2025-11-19T11:01:35.619Z</time>
      </trkpt>
      <trkpt lat="43.73753" lon="6.07546">
        <ele>452.4</ele>
        <time>2025-11-19T11:01:37.620Z</time>
      </trkpt>
      <trkpt lat="43.73753" lon="6.0755">
        <ele>452.3</ele>
        <time>2025-11-19T11:01:40.620Z</time>
      </trkpt>
      <trkpt lat="43.73751" lon="6.07552">
        <ele>452.9</ele>
        <time>2025-11-19T11:01:42.620Z</time>
      </trkpt>
      <trkpt lat="43.73748" lon="6.07553">
        <ele>453.3</ele>
        <time>2025-11-19T11:01:44.620Z</time>
      </trkpt>
      <trkpt lat="43.73745" lon="6.07554">
        <ele>453.5</ele>
        <time>2025-11-19T11:01:47.620Z</time>
      </trkpt>
      <trkpt lat="43.73742" lon="6.07555">
        <ele>453.6</ele>
        <time>2025-11-19T11:01:50.620Z</time>
      </trkpt>
      <trkpt lat="43.7374" lon="6.07556">
        <ele>453.7</ele>
        <time>2025-11-19T11:01:53.620Z</time>
      </trkpt>
      <trkpt lat="43.73737" lon="6.07557">
        <ele>453.8</ele>
        <time>2025-11-19T11:01:56.620Z</time>
      </trkpt>
      <trkpt lat="43.73734" lon="6.07558">
        <ele>453.9</ele>
        <time>2025-11-19T11:02:00.619Z</time>
      </trkpt>
      <trkpt lat="43.73732" lon="6.0756">
        <ele>453.9</ele>
        <time>2025-11-19T11:02:02.619Z</time>
      </trkpt>
      <trkpt lat="43.73729" lon="6.07561">
        <ele>453.9</ele>
        <time>2025-11-19T11:02:04.620Z</time>
      </trkpt>
      <trkpt lat="43.73728" lon="6.07564">
        <ele>453.7</ele>
        <time>2025-11-19T11:02:07.620Z</time>
      </trkpt>
      <trkpt lat="43.73726" lon="6.07567">
        <ele>453.5</ele>
        <time>2025-11-19T11:02:11.620Z</time>
      </trkpt>
      <trkpt lat="43.73725" lon="6.0757">
        <ele>453.2</ele>
        <time>2025-11-19T11:02:13.620Z</time>
      </trkpt>
      <trkpt lat="43.73724" lon="6.07574">
        <ele>452.9</ele>
        <time>2025-11-19T11:02:16.620Z</time>
      </trkpt>
      <trkpt lat="43.73724" lon="6.07577">
        <ele>452.6</ele>
        <time>2025-11-19T11:02:18.620Z</time>
      </trkpt>
      <trkpt lat="43.73722" lon="6.0758">
        <ele>452.3</ele>
        <time>2025-11-19T11:02:21.620Z</time>
      </trkpt>
      <trkpt lat="43.73721" lon="6.07583">
        <ele>452</ele>
        <time>2025-11-19T11:02:24.620Z</time>
      </trkpt>
      <trkpt lat="43.7372" lon="6.07587">
        <ele>451.5</ele>
        <time>2025-11-19T11:02:27.620Z</time>
      </trkpt>
      <trkpt lat="43.73719" lon="6.07591">
        <ele>451</ele>
        <time>2025-11-19T11:02:30.620Z</time>
      </trkpt>
      <trkpt lat="43.73718" lon="6.07594">
        <ele>450.6</ele>
        <time>2025-11-19T11:02:32.620Z</time>
      </trkpt>
      <trkpt lat="43.73717" lon="6.07597">
        <ele>450.2</ele>
        <time>2025-11-19T11:02:35.620Z</time>
      </trkpt>
      <trkpt lat="43.73716" lon="6.076">
        <ele>449.8</ele>
        <time>2025-11-19T11:02:37.620Z</time>
      </trkpt>
      <trkpt lat="43.73714" lon="6.07603">
        <ele>449.4</ele>
        <time>2025-11-19T11:02:40.620Z</time>
      </trkpt>
      <trkpt lat="43.73712" lon="6.07606">
        <ele>449</ele>
        <time>2025-11-19T11:02:44.620Z</time>
      </trkpt>
      <trkpt lat="43.7371" lon="6.07608">
        <ele>448.8</ele>
        <time>2025-11-19T11:02:47.619Z</time>
      </trkpt>
      <trkpt lat="43.73707" lon="6.07611">
        <ele>448.5</ele>
        <time>2025-11-19T11:02:50.620Z</time>
      </trkpt>
      <trkpt lat="43.73705" lon="6.07613">
        <ele>448.3</ele>
        <time>2025-11-19T11:02:53.620Z</time>
      </trkpt>
      <trkpt lat="43.73703" lon="6.07615">
        <ele>448</ele>
        <time>2025-11-19T11:02:56.620Z</time>
      </trkpt>
      <trkpt lat="43.73701" lon="6.07617">
        <ele>447.7</ele>
        <time>2025-11-19T11:02:58.620Z</time>
      </trkpt>
      <trkpt lat="43.73699" lon="6.0762">
        <ele>447.3</ele>
        <time>2025-11-19T11:03:02.620Z</time>
      </trkpt>
      <trkpt lat="43.73697" lon="6.07623">
        <ele>446.9</ele>
        <time>2025-11-19T11:03:05.620Z</time>
      </trkpt>
      <trkpt lat="43.73695" lon="6.07625">
        <ele>446.5</ele>
        <time>2025-11-19T11:03:09.620Z</time>
      </trkpt>
      <trkpt lat="43.73694" lon="6.07629">
        <ele>445.7</ele>
        <time>2025-11-19T11:03:12.620Z</time>
      </trkpt>
      <trkpt lat="43.73691" lon="6.07632">
        <ele>445.2</ele>
        <time>2025-11-19T11:03:15.620Z</time>
      </trkpt>
      <trkpt lat="43.7369" lon="6.07635">
        <ele>444.6</ele>
        <time>2025-11-19T11:03:19.620Z</time>
      </trkpt>
      <trkpt lat="43.73688" lon="6.07637">
        <ele>444.1</ele>
        <time>2025-11-19T11:03:22.620Z</time>
      </trkpt>
      <trkpt lat="43.73686" lon="6.07638">
        <ele>443.9</ele>
        <time>2025-11-19T11:03:29.620Z</time>
      </trkpt>
      <trkpt lat="43.73683" lon="6.07641">
        <ele>443.3</ele>
        <time>2025-11-19T11:03:35.620Z</time>
      </trkpt>
      <trkpt lat="43.7368" lon="6.07643">
        <ele>442.9</ele>
        <time>2025-11-19T11:03:38.620Z</time>
      </trkpt>
      <trkpt lat="43.73679" lon="6.07646">
        <ele>442.5</ele>
        <time>2025-11-19T11:03:40.619Z</time>
      </trkpt>
      <trkpt lat="43.73677" lon="6.07648">
        <ele>442.1</ele>
        <time>2025-11-19T11:03:42.620Z</time>
      </trkpt>
      <trkpt lat="43.73674" lon="6.0765">
        <ele>441.7</ele>
        <time>2025-11-19T11:03:45.620Z</time>
      </trkpt>
      <trkpt lat="43.73673" lon="6.07652">
        <ele>441.3</ele>
        <time>2025-11-19T11:03:48.620Z</time>
      </trkpt>
      <trkpt lat="43.73671" lon="6.07654">
        <ele>440.9</ele>
        <time>2025-11-19T11:03:51.620Z</time>
      </trkpt>
      <trkpt lat="43.73668" lon="6.07657">
        <ele>440.5</ele>
        <time>2025-11-19T11:03:54.620Z</time>
      </trkpt>
      <trkpt lat="43.73667" lon="6.07659">
        <ele>440.1</ele>
        <time>2025-11-19T11:03:56.620Z</time>
      </trkpt>
      <trkpt lat="43.73665" lon="6.07662">
        <ele>439.7</ele>
        <time>2025-11-19T11:03:59.620Z</time>
      </trkpt>
      <trkpt lat="43.73663" lon="6.07665">
        <ele>439.3</ele>
        <time>2025-11-19T11:04:02.620Z</time>
      </trkpt>
      <trkpt lat="43.73661" lon="6.07669">
        <ele>439</ele>
        <time>2025-11-19T11:04:05.620Z</time>
      </trkpt>
      <trkpt lat="43.7366" lon="6.07671">
        <ele>438.8</ele>
        <time>2025-11-19T11:04:08.620Z</time>
      </trkpt>
      <trkpt lat="43.73657" lon="6.07674">
        <ele>438.5</ele>
        <time>2025-11-19T11:04:11.619Z</time>
      </trkpt>
      <trkpt lat="43.73656" lon="6.07678">
        <ele>438.2</ele>
        <time>2025-11-19T11:04:15.620Z</time>
      </trkpt>
      <trkpt lat="43.73655" lon="6.07682">
        <ele>437.8</ele>
        <time>2025-11-19T11:04:19.619Z</time>
      </trkpt>
      <trkpt lat="43.73654" lon="6.07686">
        <ele>437.4</ele>
        <time>2025-11-19T11:04:22.620Z</time>
      </trkpt>
      <trkpt lat="43.73652" lon="6.0769">
        <ele>437</ele>
        <time>2025-11-19T11:04:27.620Z</time>
      </trkpt>
      <trkpt lat="43.73652" lon="6.07694">
        <ele>436.6</ele>
        <time>2025-11-19T11:04:30.620Z</time>
      </trkpt>
      <trkpt lat="43.73652" lon="6.07697">
        <ele>436.3</ele>
        <time>2025-11-19T11:04:33.620Z</time>
      </trkpt>
      <trkpt lat="43.73651" lon="6.07701">
        <ele>435.9</ele>
        <time>2025-11-19T11:04:36.620Z</time>
      </trkpt>
      <trkpt lat="43.73651" lon="6.07704">
        <ele>435.6</ele>
        <time>2025-11-19T11:04:38.620Z</time>
      </trkpt>
      <trkpt lat="43.7365" lon="6.07708">
        <ele>435.3</ele>
        <time>2025-11-19T11:04:41.620Z</time>
      </trkpt>
      <trkpt lat="43.73649" lon="6.07711">
        <ele>435</ele>
        <time>2025-11-19T11:04:43.620Z</time>
      </trkpt>
      <trkpt lat="43.73647" lon="6.07713">
        <ele>435.1</ele>
        <time>2025-11-19T11:04:46.620Z</time>
      </trkpt>
      <trkpt lat="43.73644" lon="6.07716">
        <ele>435</ele>
        <time>2025-11-19T11:04:49.620Z</time>
      </trkpt>
      <trkpt lat="43.73642" lon="6.07719">
        <ele>434.9</ele>
        <time>2025-11-19T11:04:53.620Z</time>
      </trkpt>
      <trkpt lat="43.73641" lon="6.07722">
        <ele>434.9</ele>
        <time>2025-11-19T11:04:56.620Z</time>
      </trkpt>
      <trkpt lat="43.7364" lon="6.07725">
        <ele>434.7</ele>
        <time>2025-11-19T11:04:59.620Z</time>
      </trkpt>
      <trkpt lat="43.73639" lon="6.0773">
        <ele>434.4</ele>
        <time>2025-11-19T11:05:05.620Z</time>
      </trkpt>
      <trkpt lat="43.73639" lon="6.07733">
        <ele>434.2</ele>
        <time>2025-11-19T11:05:08.620Z</time>
      </trkpt>
      <trkpt lat="43.73638" lon="6.07737">
        <ele>433.9</ele>
        <time>2025-11-19T11:05:12.619Z</time>
      </trkpt>
      <trkpt lat="43.73637" lon="6.07742">
        <ele>433.6</ele>
        <time>2025-11-19T11:05:24.620Z</time>
      </trkpt>
      <trkpt lat="43.73637" lon="6.07746">
        <ele>433.3</ele>
        <time>2025-11-19T11:05:33.620Z</time>
      </trkpt>
      <trkpt lat="43.73635" lon="6.07749">
        <ele>433.1</ele>
        <time>2025-11-19T11:07:01.620Z</time>
      </trkpt>
      <trkpt lat="43.73632" lon="6.07749">
        <ele>433.1</ele>
        <time>2025-11-19T11:07:10.620Z</time>
      </trkpt>
      <trkpt lat="43.7363" lon="6.07748">
        <ele>433.2</ele>
        <time>2025-11-19T11:07:14.620Z</time>
      </trkpt>
      <trkpt lat="43.73627" lon="6.07748">
        <ele>433.1</ele>
        <time>2025-11-19T11:07:17.620Z</time>
      </trkpt>
      <trkpt lat="43.73624" lon="6.07749">
        <ele>433.1</ele>
        <time>2025-11-19T11:07:21.620Z</time>
      </trkpt>
      <trkpt lat="43.73622" lon="6.07749">
        <ele>433.1</ele>
        <time>2025-11-19T11:07:24.620Z</time>
      </trkpt>
      <trkpt lat="43.73619" lon="6.07749">
        <ele>433.1</ele>
        <time>2025-11-19T11:07:27.620Z</time>
      </trkpt>
      <trkpt lat="43.73616" lon="6.07748">
        <ele>433.2</ele>
        <time>2025-11-19T11:07:31.620Z</time>
      </trkpt>
      <trkpt lat="43.73614" lon="6.07748">
        <ele>433.2</ele>
        <time>2025-11-19T11:07:34.620Z</time>
      </trkpt>
      <trkpt lat="43.73611" lon="6.07748">
        <ele>433.1</ele>
        <time>2025-11-19T11:07:37.620Z</time>
      </trkpt>
      <trkpt lat="43.73609" lon="6.07748">
        <ele>432.8</ele>
        <time>2025-11-19T11:07:40.620Z</time>
      </trkpt>
      <trkpt lat="43.73606" lon="6.0775">
        <ele>432.4</ele>
        <time>2025-11-19T11:07:44.620Z</time>
      </trkpt>
      <trkpt lat="43.73603" lon="6.07751">
        <ele>432.1</ele>
        <time>2025-11-19T11:07:47.621Z</time>
      </trkpt>
      <trkpt lat="43.736" lon="6.07752">
        <ele>431.7</ele>
        <time>2025-11-19T11:07:51.620Z</time>
      </trkpt>
      <trkpt lat="43.73597" lon="6.07754">
        <ele>431.5</ele>
        <time>2025-11-19T11:07:55.620Z</time>
      </trkpt>
      <trkpt lat="43.73597" lon="6.07756">
        <ele>431.3</ele>
        <time>2025-11-19T11:07:58.620Z</time>
      </trkpt>
      <trkpt lat="43.73595" lon="6.0776">
        <ele>431.1</ele>
        <time>2025-11-19T11:08:02.620Z</time>
      </trkpt>
      <trkpt lat="43.73594" lon="6.07764">
        <ele>430.9</ele>
        <time>2025-11-19T11:08:05.620Z</time>
      </trkpt>
      <trkpt lat="43.73594" lon="6.07768">
        <ele>430.9</ele>
        <time>2025-11-19T11:08:09.620Z</time>
      </trkpt>
      <trkpt lat="43.73593" lon="6.07773">
        <ele>430.7</ele>
        <time>2025-11-19T11:08:18.620Z</time>
      </trkpt>
      <trkpt lat="43.73592" lon="6.07776">
        <ele>430.7</ele>
        <time>2025-11-19T11:08:21.620Z</time>
      </trkpt>
      <trkpt lat="43.73592" lon="6.0778">
        <ele>430.5</ele>
        <time>2025-11-19T11:08:25.621Z</time>
      </trkpt>
      <trkpt lat="43.7359" lon="6.07783">
        <ele>430.3</ele>
        <time>2025-11-19T11:08:28.621Z</time>
      </trkpt>
      <trkpt lat="43.7359" lon="6.07787">
        <ele>430.1</ele>
        <time>2025-11-19T11:08:32.621Z</time>
      </trkpt>
      <trkpt lat="43.7359" lon="6.0779">
        <ele>429.9</ele>
        <time>2025-11-19T11:08:34.620Z</time>
      </trkpt>
      <trkpt lat="43.73589" lon="6.07795">
        <ele>429.7</ele>
        <time>2025-11-19T11:08:37.621Z</time>
      </trkpt>
      <trkpt lat="43.73589" lon="6.07798">
        <ele>429.5</ele>
        <time>2025-11-19T11:08:39.620Z</time>
      </trkpt>
      <trkpt lat="43.73589" lon="6.07802">
        <ele>429.4</ele>
        <time>2025-11-19T11:08:41.621Z</time>
      </trkpt>
      <trkpt lat="43.73588" lon="6.07806">
        <ele>429.1</ele>
        <time>2025-11-19T11:08:44.620Z</time>
      </trkpt>
      <trkpt lat="43.73588" lon="6.07811">
        <ele>428.8</ele>
        <time>2025-11-19T11:08:47.620Z</time>
      </trkpt>
      <trkpt lat="43.73588" lon="6.07815">
        <ele>428.5</ele>
        <time>2025-11-19T11:08:51.620Z</time>
      </trkpt>
      <trkpt lat="43.73588" lon="6.07819">
        <ele>428.2</ele>
        <time>2025-11-19T11:08:54.620Z</time>
      </trkpt>
      <trkpt lat="43.73588" lon="6.07823">
        <ele>427.9</ele>
        <time>2025-11-19T11:08:57.620Z</time>
      </trkpt>
      <trkpt lat="43.73588" lon="6.07827">
        <ele>427.6</ele>
        <time>2025-11-19T11:09:00.620Z</time>
      </trkpt>
      <trkpt lat="43.73588" lon="6.07831">
        <ele>427.3</ele>
        <time>2025-11-19T11:09:03.620Z</time>
      </trkpt>
      <trkpt lat="43.73589" lon="6.07835">
        <ele>427.1</ele>
        <time>2025-11-19T11:09:06.620Z</time>
      </trkpt>
      <trkpt lat="43.73589" lon="6.07838">
        <ele>426.9</ele>
        <time>2025-11-19T11:09:09.621Z</time>
      </trkpt>
      <trkpt lat="43.73589" lon="6.07842">
        <ele>426.6</ele>
        <time>2025-11-19T11:09:12.620Z</time>
      </trkpt>
      <trkpt lat="43.73589" lon="6.07845">
        <ele>426.3</ele>
        <time>2025-11-19T11:09:14.620Z</time>
      </trkpt>
      <trkpt lat="43.73589" lon="6.0785">
        <ele>426</ele>
        <time>2025-11-19T11:09:17.620Z</time>
      </trkpt>
      <trkpt lat="43.7359" lon="6.07854">
        <ele>425.8</ele>
        <time>2025-11-19T11:09:20.620Z</time>
      </trkpt>
      <trkpt lat="43.7359" lon="6.07857">
        <ele>425.5</ele>
        <time>2025-11-19T11:09:23.620Z</time>
      </trkpt>
      <trkpt lat="43.7359" lon="6.07861">
        <ele>425.3</ele>
        <time>2025-11-19T11:09:27.620Z</time>
      </trkpt>
      <trkpt lat="43.7359" lon="6.07864">
        <ele>425.1</ele>
        <time>2025-11-19T11:09:30.620Z</time>
      </trkpt>
      <trkpt lat="43.7359" lon="6.07868">
        <ele>425</ele>
        <time>2025-11-19T11:09:33.620Z</time>
      </trkpt>
      <trkpt lat="43.73591" lon="6.07871">
        <ele>424.8</ele>
        <time>2025-11-19T11:09:35.621Z</time>
      </trkpt>
      <trkpt lat="43.73591" lon="6.07875">
        <ele>424.7</ele>
        <time>2025-11-19T11:09:38.621Z</time>
      </trkpt>
      <trkpt lat="43.73592" lon="6.07878">
        <ele>424.5</ele>
        <time>2025-11-19T11:09:41.620Z</time>
      </trkpt>
      <trkpt lat="43.73592" lon="6.07882">
        <ele>424.3</ele>
        <time>2025-11-19T11:09:45.621Z</time>
      </trkpt>
      <trkpt lat="43.73592" lon="6.07885">
        <ele>424.2</ele>
        <time>2025-11-19T11:09:48.620Z</time>
      </trkpt>
      <trkpt lat="43.73592" lon="6.07889">
        <ele>424</ele>
        <time>2025-11-19T11:09:51.620Z</time>
      </trkpt>
      <trkpt lat="43.73592" lon="6.07893">
        <ele>423.7</ele>
        <time>2025-11-19T11:09:55.620Z</time>
      </trkpt>
      <trkpt lat="43.73592" lon="6.07896">
        <ele>423.5</ele>
        <time>2025-11-19T11:09:58.621Z</time>
      </trkpt>
      <trkpt lat="43.73593" lon="6.079">
        <ele>423.2</ele>
        <time>2025-11-19T11:10:02.621Z</time>
      </trkpt>
      <trkpt lat="43.73594" lon="6.07904">
        <ele>422.9</ele>
        <time>2025-11-19T11:10:05.620Z</time>
      </trkpt>
      <trkpt lat="43.73594" lon="6.07907">
        <ele>422.7</ele>
        <time>2025-11-19T11:10:08.620Z</time>
      </trkpt>
      <trkpt lat="43.73594" lon="6.07911">
        <ele>422.4</ele>
        <time>2025-11-19T11:10:11.620Z</time>
      </trkpt>
      <trkpt lat="43.73595" lon="6.07914">
        <ele>422.2</ele>
        <time>2025-11-19T11:10:13.620Z</time>
      </trkpt>
      <trkpt lat="43.73595" lon="6.07919">
        <ele>421.9</ele>
        <time>2025-11-19T11:10:18.620Z</time>
      </trkpt>
      <trkpt lat="43.73595" lon="6.07922">
        <ele>421.6</ele>
        <time>2025-11-19T11:10:21.621Z</time>
      </trkpt>
      <trkpt lat="43.73595" lon="6.07925">
        <ele>421.4</ele>
        <time>2025-11-19T11:10:23.620Z</time>
      </trkpt>
      <trkpt lat="43.73595" lon="6.0793">
        <ele>421.1</ele>
        <time>2025-11-19T11:10:27.620Z</time>
      </trkpt>
      <trkpt lat="43.73596" lon="6.07934">
        <ele>420.8</ele>
        <time>2025-11-19T11:10:30.620Z</time>
      </trkpt>
      <trkpt lat="43.73596" lon="6.07937">
        <ele>420.6</ele>
        <time>2025-11-19T11:10:33.621Z</time>
      </trkpt>
      <trkpt lat="43.73597" lon="6.0794">
        <ele>420.3</ele>
        <time>2025-11-19T11:10:36.621Z</time>
      </trkpt>
      <trkpt lat="43.73597" lon="6.07944">
        <ele>420</ele>
        <time>2025-11-19T11:10:39.621Z</time>
      </trkpt>
      <trkpt lat="43.73597" lon="6.07947">
        <ele>419.9</ele>
        <time>2025-11-19T11:10:44.620Z</time>
      </trkpt>
      <trkpt lat="43.73597" lon="6.07953">
        <ele>419.7</ele>
        <time>2025-11-19T11:10:49.620Z</time>
      </trkpt>
      <trkpt lat="43.73598" lon="6.07957">
        <ele>419.6</ele>
        <time>2025-11-19T11:10:51.620Z</time>
      </trkpt>
      <trkpt lat="43.73598" lon="6.0796">
        <ele>419.4</ele>
        <time>2025-11-19T11:10:54.620Z</time>
      </trkpt>
      <trkpt lat="43.73599" lon="6.07964">
        <ele>419.3</ele>
        <time>2025-11-19T11:10:57.621Z</time>
      </trkpt>
      <trkpt lat="43.736" lon="6.07968">
        <ele>419.2</ele>
        <time>2025-11-19T11:11:00.620Z</time>
      </trkpt>
      <trkpt lat="43.736" lon="6.07972">
        <ele>419</ele>
        <time>2025-11-19T11:11:03.621Z</time>
      </trkpt>
      <trkpt lat="43.73601" lon="6.07977">
        <ele>418.7</ele>
        <time>2025-11-19T11:11:06.620Z</time>
      </trkpt>
      <trkpt lat="43.73601" lon="6.0798">
        <ele>418.5</ele>
        <time>2025-11-19T11:11:09.621Z</time>
      </trkpt>
      <trkpt lat="43.73602" lon="6.07983">
        <ele>418.2</ele>
        <time>2025-11-19T11:11:12.620Z</time>
      </trkpt>
      <trkpt lat="43.73602" lon="6.07986">
        <ele>418</ele>
        <time>2025-11-19T11:11:16.620Z</time>
      </trkpt>
      <trkpt lat="43.73604" lon="6.0799">
        <ele>417.7</ele>
        <time>2025-11-19T11:11:20.621Z</time>
      </trkpt>
      <trkpt lat="43.73605" lon="6.07994">
        <ele>417.5</ele>
        <time>2025-11-19T11:11:23.620Z</time>
      </trkpt>
      <trkpt lat="43.73607" lon="6.07997">
        <ele>417.2</ele>
        <time>2025-11-19T11:11:27.620Z</time>
      </trkpt>
      <trkpt lat="43.73608" lon="6.08001">
        <ele>417</ele>
        <time>2025-11-19T11:11:30.620Z</time>
      </trkpt>
      <trkpt lat="43.73609" lon="6.08004">
        <ele>416.8</ele>
        <time>2025-11-19T11:11:33.621Z</time>
      </trkpt>
      <trkpt lat="43.7361" lon="6.08008">
        <ele>416.7</ele>
        <time>2025-11-19T11:11:37.621Z</time>
      </trkpt>
      <trkpt lat="43.73611" lon="6.08012">
        <ele>416.6</ele>
        <time>2025-11-19T11:11:40.621Z</time>
      </trkpt>
      <trkpt lat="43.73613" lon="6.08014">
        <ele>416.5</ele>
        <time>2025-11-19T11:11:43.620Z</time>
      </trkpt>
      <trkpt lat="43.73614" lon="6.08017">
        <ele>416.4</ele>
        <time>2025-11-19T11:11:45.620Z</time>
      </trkpt>
      <trkpt lat="43.73615" lon="6.0802">
        <ele>416.3</ele>
        <time>2025-11-19T11:11:48.621Z</time>
      </trkpt>
      <trkpt lat="43.73617" lon="6.08024">
        <ele>416.1</ele>
        <time>2025-11-19T11:11:51.620Z</time>
      </trkpt>
      <trkpt lat="43.73619" lon="6.08027">
        <ele>416</ele>
        <time>2025-11-19T11:11:54.621Z</time>
      </trkpt>
      <trkpt lat="43.7362" lon="6.0803">
        <ele>415.8</ele>
        <time>2025-11-19T11:11:57.621Z</time>
      </trkpt>
      <trkpt lat="43.73622" lon="6.08033">
        <ele>415.6</ele>
        <time>2025-11-19T11:12:00.621Z</time>
      </trkpt>
      <trkpt lat="43.73623" lon="6.08036">
        <ele>415.4</ele>
        <time>2025-11-19T11:12:03.620Z</time>
      </trkpt>
      <trkpt lat="43.73624" lon="6.0804">
        <ele>415.1</ele>
        <time>2025-11-19T11:12:06.621Z</time>
      </trkpt>
      <trkpt lat="43.73626" lon="6.08043">
        <ele>415</ele>
        <time>2025-11-19T11:12:08.621Z</time>
      </trkpt>
      <trkpt lat="43.73628" lon="6.08046">
        <ele>414.8</ele>
        <time>2025-11-19T11:12:11.620Z</time>
      </trkpt>
      <trkpt lat="43.73629" lon="6.08049">
        <ele>414.7</ele>
        <time>2025-11-19T11:12:13.621Z</time>
      </trkpt>
      <trkpt lat="43.73631" lon="6.08052">
        <ele>414.6</ele>
        <time>2025-11-19T11:12:16.621Z</time>
      </trkpt>
      <trkpt lat="43.73633" lon="6.08055">
        <ele>414.6</ele>
        <time>2025-11-19T11:12:19.621Z</time>
      </trkpt>
      <trkpt lat="43.73634" lon="6.08058">
        <ele>414.5</ele>
        <time>2025-11-19T11:12:22.620Z</time>
      </trkpt>
      <trkpt lat="43.73636" lon="6.08061">
        <ele>414.4</ele>
        <time>2025-11-19T11:12:25.621Z</time>
      </trkpt>
      <trkpt lat="43.73639" lon="6.08064">
        <ele>414.4</ele>
        <time>2025-11-19T11:12:28.621Z</time>
      </trkpt>
      <trkpt lat="43.7364" lon="6.08067">
        <ele>414.3</ele>
        <time>2025-11-19T11:12:31.620Z</time>
      </trkpt>
      <trkpt lat="43.73642" lon="6.0807">
        <ele>414.1</ele>
        <time>2025-11-19T11:12:34.620Z</time>
      </trkpt>
      <trkpt lat="43.73644" lon="6.08073">
        <ele>414</ele>
        <time>2025-11-19T11:12:37.621Z</time>
      </trkpt>
      <trkpt lat="43.73646" lon="6.08076">
        <ele>414</ele>
        <time>2025-11-19T11:12:40.620Z</time>
      </trkpt>
      <trkpt lat="43.73647" lon="6.08078">
        <ele>413.9</ele>
        <time>2025-11-19T11:12:43.620Z</time>
      </trkpt>
      <trkpt lat="43.73648" lon="6.08081">
        <ele>413.8</ele>
        <time>2025-11-19T11:12:47.620Z</time>
      </trkpt>
      <trkpt lat="43.7365" lon="6.08084">
        <ele>413.7</ele>
        <time>2025-11-19T11:12:50.621Z</time>
      </trkpt>
      <trkpt lat="43.73652" lon="6.08087">
        <ele>413.7</ele>
        <time>2025-11-19T11:12:53.621Z</time>
      </trkpt>
      <trkpt lat="43.73653" lon="6.0809">
        <ele>413.6</ele>
        <time>2025-11-19T11:12:58.620Z</time>
      </trkpt>
      <trkpt lat="43.73653" lon="6.08094">
        <ele>413.3</ele>
        <time>2025-11-19T11:13:04.620Z</time>
      </trkpt>
      <trkpt lat="43.73651" lon="6.08095">
        <ele>413</ele>
        <time>2025-11-19T11:13:13.620Z</time>
      </trkpt>
      <trkpt lat="43.73648" lon="6.08095">
        <ele>412.8</ele>
        <time>2025-11-19T11:13:21.620Z</time>
      </trkpt>
      <trkpt lat="43.73645" lon="6.08096">
        <ele>412.6</ele>
        <time>2025-11-19T11:13:24.621Z</time>
      </trkpt>
      <trkpt lat="43.73643" lon="6.08097">
        <ele>412.3</ele>
        <time>2025-11-19T11:13:27.621Z</time>
      </trkpt>
      <trkpt lat="43.7364" lon="6.08097">
        <ele>412.1</ele>
        <time>2025-11-19T11:13:30.621Z</time>
      </trkpt>
      <trkpt lat="43.73637" lon="6.08097">
        <ele>411.9</ele>
        <time>2025-11-19T11:13:34.621Z</time>
      </trkpt>
      <trkpt lat="43.73634" lon="6.08096">
        <ele>411.8</ele>
        <time>2025-11-19T11:13:38.620Z</time>
      </trkpt>
      <trkpt lat="43.73631" lon="6.08096">
        <ele>411.6</ele>
        <time>2025-11-19T11:13:41.620Z</time>
      </trkpt>
      <trkpt lat="43.73628" lon="6.08096">
        <ele>411.5</ele>
        <time>2025-11-19T11:13:44.620Z</time>
      </trkpt>
      <trkpt lat="43.73626" lon="6.08096">
        <ele>411.4</ele>
        <time>2025-11-19T11:13:47.620Z</time>
      </trkpt>
      <trkpt lat="43.73624" lon="6.08096">
        <ele>411.3</ele>
        <time>2025-11-19T11:13:50.621Z</time>
      </trkpt>
      <trkpt lat="43.7362" lon="6.08096">
        <ele>411.1</ele>
        <time>2025-11-19T11:13:53.621Z</time>
      </trkpt>
      <trkpt lat="43.73617" lon="6.08095">
        <ele>410.9</ele>
        <time>2025-11-19T11:13:56.620Z</time>
      </trkpt>
      <trkpt lat="43.73614" lon="6.08095">
        <ele>410.7</ele>
        <time>2025-11-19T11:13:59.620Z</time>
      </trkpt>
      <trkpt lat="43.73611" lon="6.08095">
        <ele>410.6</ele>
        <time>2025-11-19T11:14:06.621Z</time>
      </trkpt>
      <trkpt lat="43.73609" lon="6.08097">
        <ele>410.3</ele>
        <time>2025-11-19T11:14:15.621Z</time>
      </trkpt>
      <trkpt lat="43.73607" lon="6.08099">
        <ele>410.1</ele>
        <time>2025-11-19T11:14:20.620Z</time>
      </trkpt>
      <trkpt lat="43.73604" lon="6.081">
        <ele>409.8</ele>
        <time>2025-11-19T11:14:23.621Z</time>
      </trkpt>
      <trkpt lat="43.73602" lon="6.08102">
        <ele>409.5</ele>
        <time>2025-11-19T11:14:26.621Z</time>
      </trkpt>
      <trkpt lat="43.736" lon="6.08103">
        <ele>409.2</ele>
        <time>2025-11-19T11:14:29.621Z</time>
      </trkpt>
      <trkpt lat="43.73598" lon="6.08104">
        <ele>408.9</ele>
        <time>2025-11-19T11:14:31.621Z</time>
      </trkpt>
      <trkpt lat="43.73595" lon="6.08104">
        <ele>408.7</ele>
        <time>2025-11-19T11:14:34.621Z</time>
      </trkpt>
      <trkpt lat="43.73592" lon="6.08104">
        <ele>408.4</ele>
        <time>2025-11-19T11:14:40.620Z</time>
      </trkpt>
      <trkpt lat="43.7359" lon="6.08107">
        <ele>408</ele>
        <time>2025-11-19T11:14:43.621Z</time>
      </trkpt>
      <trkpt lat="43.73588" lon="6.08109">
        <ele>407.6</ele>
        <time>2025-11-19T11:14:46.621Z</time>
      </trkpt>
      <trkpt lat="43.73587" lon="6.08112">
        <ele>407.3</ele>
        <time>2025-11-19T11:14:49.621Z</time>
      </trkpt>
      <trkpt lat="43.73586" lon="6.08115">
        <ele>407</ele>
        <time>2025-11-19T11:14:52.620Z</time>
      </trkpt>
      <trkpt lat="43.73586" lon="6.08119">
        <ele>406.7</ele>
        <time>2025-11-19T11:14:56.621Z</time>
      </trkpt>
      <trkpt lat="43.73584" lon="6.08122">
        <ele>406.3</ele>
        <time>2025-11-19T11:15:00.620Z</time>
      </trkpt>
      <trkpt lat="43.73583" lon="6.08125">
        <ele>406</ele>
        <time>2025-11-19T11:15:03.621Z</time>
      </trkpt>
      <trkpt lat="43.73584" lon="6.08128">
        <ele>405.8</ele>
        <time>2025-11-19T11:15:06.621Z</time>
      </trkpt>
      <trkpt lat="43.73585" lon="6.08131">
        <ele>405.7</ele>
        <time>2025-11-19T11:15:09.620Z</time>
      </trkpt>
      <trkpt lat="43.73586" lon="6.08136">
        <ele>405.5</ele>
        <time>2025-11-19T11:15:13.620Z</time>
      </trkpt>
      <trkpt lat="43.73587" lon="6.08139">
        <ele>405.3</ele>
        <time>2025-11-19T11:15:15.621Z</time>
      </trkpt>
      <trkpt lat="43.73587" lon="6.08142">
        <ele>405.1</ele>
        <time>2025-11-19T11:15:19.621Z</time>
      </trkpt>
      <trkpt lat="43.73586" lon="6.08146">
        <ele>404.9</ele>
        <time>2025-11-19T11:15:22.621Z</time>
      </trkpt>
      <trkpt lat="43.73585" lon="6.08149">
        <ele>404.7</ele>
        <time>2025-11-19T11:15:25.620Z</time>
      </trkpt>
      <trkpt lat="43.73583" lon="6.08151">
        <ele>404.5</ele>
        <time>2025-11-19T11:15:29.620Z</time>
      </trkpt>
      <trkpt lat="43.73581" lon="6.08153">
        <ele>404.5</ele>
        <time>2025-11-19T11:15:33.621Z</time>
      </trkpt>
      <trkpt lat="43.73578" lon="6.08153">
        <ele>404.4</ele>
        <time>2025-11-19T11:15:37.621Z</time>
      </trkpt>
      <trkpt lat="43.73576" lon="6.08155">
        <ele>404.3</ele>
        <time>2025-11-19T11:15:41.620Z</time>
      </trkpt>
      <trkpt lat="43.73573" lon="6.08157">
        <ele>404.2</ele>
        <time>2025-11-19T11:15:56.621Z</time>
      </trkpt>
      <trkpt lat="43.7357" lon="6.08157">
        <ele>404.2</ele>
        <time>2025-11-19T11:16:47.621Z</time>
      </trkpt>
      <trkpt lat="43.73568" lon="6.08155">
        <ele>404.2</ele>
        <time>2025-11-19T11:16:49.620Z</time>
      </trkpt>
      <trkpt lat="43.73567" lon="6.08152">
        <ele>404.2</ele>
        <time>2025-11-19T11:16:52.620Z</time>
      </trkpt>
      <trkpt lat="43.73565" lon="6.0815">
        <ele>404.2</ele>
        <time>2025-11-19T11:16:56.621Z</time>
      </trkpt>
      <trkpt lat="43.73563" lon="6.08147">
        <ele>404.2</ele>
        <time>2025-11-19T11:16:59.621Z</time>
      </trkpt>
      <trkpt lat="43.73564" lon="6.0815">
        <ele>404.2</ele>
        <time>2025-11-19T11:17:08.621Z</time>
      </trkpt>
      <trkpt lat="43.73566" lon="6.08152">
        <ele>404.2</ele>
        <time>2025-11-19T11:17:11.621Z</time>
      </trkpt>
      <trkpt lat="43.73568" lon="6.08155">
        <ele>404.2</ele>
        <time>2025-11-19T11:17:14.620Z</time>
      </trkpt>
      <trkpt lat="43.73569" lon="6.08158">
        <ele>404.2</ele>
        <time>2025-11-19T11:17:17.621Z</time>
      </trkpt>
      <trkpt lat="43.73572" lon="6.08157">
        <ele>404.2</ele>
        <time>2025-11-19T11:17:49.621Z</time>
      </trkpt>
      <trkpt lat="43.73574" lon="6.08156">
        <ele>404.3</ele>
        <time>2025-11-19T11:17:55.621Z</time>
      </trkpt>
      <trkpt lat="43.73577" lon="6.08154">
        <ele>404.3</ele>
        <time>2025-11-19T11:18:01.621Z</time>
      </trkpt>
      <trkpt lat="43.7358" lon="6.08154">
        <ele>404.4</ele>
        <time>2025-11-19T11:18:04.621Z</time>
      </trkpt>
      <trkpt lat="43.73582" lon="6.08152">
        <ele>404.5</ele>
        <time>2025-11-19T11:18:07.621Z</time>
      </trkpt>
      <trkpt lat="43.73583" lon="6.08149">
        <ele>404.6</ele>
        <time>2025-11-19T11:18:10.621Z</time>
      </trkpt>
      <trkpt lat="43.73584" lon="6.08146">
        <ele>404.8</ele>
        <time>2025-11-19T11:18:13.621Z</time>
      </trkpt>
      <trkpt lat="43.73585" lon="6.08142">
        <ele>405</ele>
        <time>2025-11-19T11:18:17.621Z</time>
      </trkpt>
      <trkpt lat="43.73584" lon="6.08139">
        <ele>405.1</ele>
        <time>2025-11-19T11:18:20.621Z</time>
      </trkpt>
      <trkpt lat="43.73583" lon="6.08135">
        <ele>405.2</ele>
        <time>2025-11-19T11:18:22.621Z</time>
      </trkpt>
      <trkpt lat="43.73581" lon="6.08132">
        <ele>405.4</ele>
        <time>2025-11-19T11:18:25.621Z</time>
      </trkpt>
      <trkpt lat="43.7358" lon="6.08129">
        <ele>405.6</ele>
        <time>2025-11-19T11:18:27.621Z</time>
      </trkpt>
      <trkpt lat="43.73579" lon="6.08125">
        <ele>405.7</ele>
        <time>2025-11-19T11:18:30.621Z</time>
      </trkpt>
      <trkpt lat="43.73577" lon="6.08122">
        <ele>405.7</ele>
        <time>2025-11-19T11:18:33.621Z</time>
      </trkpt>
      <trkpt lat="43.73576" lon="6.0812">
        <ele>405.7</ele>
        <time>2025-11-19T11:18:36.621Z</time>
      </trkpt>
      <trkpt lat="43.73574" lon="6.08118">
        <ele>405.7</ele>
        <time>2025-11-19T11:18:39.621Z</time>
      </trkpt>
      <trkpt lat="43.73573" lon="6.08115">
        <ele>405.7</ele>
        <time>2025-11-19T11:18:42.621Z</time>
      </trkpt>
      <trkpt lat="43.7357" lon="6.08113">
        <ele>405.5</ele>
        <time>2025-11-19T11:18:44.621Z</time>
      </trkpt>
      <trkpt lat="43.73569" lon="6.08111">
        <ele>405.5</ele>
        <time>2025-11-19T11:18:47.621Z</time>
      </trkpt>
      <trkpt lat="43.73567" lon="6.08109">
        <ele>405.4</ele>
        <time>2025-11-19T11:18:51.621Z</time>
      </trkpt>
      <trkpt lat="43.73564" lon="6.08106">
        <ele>405.3</ele>
        <time>2025-11-19T11:18:55.621Z</time>
      </trkpt>
      <trkpt lat="43.73562" lon="6.08102">
        <ele>405.3</ele>
        <time>2025-11-19T11:18:58.621Z</time>
      </trkpt>
      <trkpt lat="43.73561" lon="6.08099">
        <ele>405.4</ele>
        <time>2025-11-19T11:19:01.621Z</time>
      </trkpt>
      <trkpt lat="43.73559" lon="6.08096">
        <ele>405.4</ele>
        <time>2025-11-19T11:19:04.621Z</time>
      </trkpt>
      <trkpt lat="43.73557" lon="6.08093">
        <ele>405.5</ele>
        <time>2025-11-19T11:19:06.621Z</time>
      </trkpt>
      <trkpt lat="43.73556" lon="6.08089">
        <ele>405.7</ele>
        <time>2025-11-19T11:19:11.621Z</time>
      </trkpt>
      <trkpt lat="43.73554" lon="6.08085">
        <ele>405.9</ele>
        <time>2025-11-19T11:19:18.621Z</time>
      </trkpt>
      <trkpt lat="43.73552" lon="6.08084">
        <ele>406</ele>
        <time>2025-11-19T11:19:21.621Z</time>
      </trkpt>
      <trkpt lat="43.7355" lon="6.08082">
        <ele>406.1</ele>
        <time>2025-11-19T11:19:24.621Z</time>
      </trkpt>
      <trkpt lat="43.73546" lon="6.08082">
        <ele>406.1</ele>
        <time>2025-11-19T11:19:28.621Z</time>
      </trkpt>
      <trkpt lat="43.73544" lon="6.08083">
        <ele>406</ele>
        <time>2025-11-19T11:19:31.621Z</time>
      </trkpt>
      <trkpt lat="43.73542" lon="6.08085">
        <ele>405.9</ele>
        <time>2025-11-19T11:19:34.621Z</time>
      </trkpt>
      <trkpt lat="43.73539" lon="6.08087">
        <ele>405.8</ele>
        <time>2025-11-19T11:19:37.621Z</time>
      </trkpt>
      <trkpt lat="43.73538" lon="6.08084">
        <ele>406</ele>
        <time>2025-11-19T11:19:40.621Z</time>
      </trkpt>
      <trkpt lat="43.73536" lon="6.08088">
        <ele>405.8</ele>
        <time>2025-11-19T11:19:43.621Z</time>
      </trkpt>
      <trkpt lat="43.73535" lon="6.08092">
        <ele>405.6</ele>
        <time>2025-11-19T11:19:48.621Z</time>
      </trkpt>
      <trkpt lat="43.73534" lon="6.08095">
        <ele>405.5</ele>
        <time>2025-11-19T11:19:51.621Z</time>
      </trkpt>
      <trkpt lat="43.73533" lon="6.08099">
        <ele>405.3</ele>
        <time>2025-11-19T11:19:54.621Z</time>
      </trkpt>
      <trkpt lat="43.73532" lon="6.08103">
        <ele>405.2</ele>
        <time>2025-11-19T11:19:57.621Z</time>
      </trkpt>
      <trkpt lat="43.73531" lon="6.08106">
        <ele>405.1</ele>
        <time>2025-11-19T11:20:00.621Z</time>
      </trkpt>
      <trkpt lat="43.7353" lon="6.0811">
        <ele>405</ele>
        <time>2025-11-19T11:20:02.621Z</time>
      </trkpt>
      <trkpt lat="43.73529" lon="6.08113">
        <ele>404.9</ele>
        <time>2025-11-19T11:20:04.621Z</time>
      </trkpt>
      <trkpt lat="43.73528" lon="6.08116">
        <ele>404.8</ele>
        <time>2025-11-19T11:20:07.621Z</time>
      </trkpt>
      <trkpt lat="43.73528" lon="6.08119">
        <ele>404.8</ele>
        <time>2025-11-19T11:20:09.621Z</time>
      </trkpt>
      <trkpt lat="43.73526" lon="6.08122">
        <ele>404.9</ele>
        <time>2025-11-19T11:20:12.621Z</time>
      </trkpt>
      <trkpt lat="43.73525" lon="6.08125">
        <ele>405.1</ele>
        <time>2025-11-19T11:20:15.621Z</time>
      </trkpt>
      <trkpt lat="43.73523" lon="6.08128">
        <ele>405.2</ele>
        <time>2025-11-19T11:20:18.621Z</time>
      </trkpt>
      <trkpt lat="43.73521" lon="6.08129">
        <ele>405.5</ele>
        <time>2025-11-19T11:20:22.621Z</time>
      </trkpt>
      <trkpt lat="43.73518" lon="6.08132">
        <ele>405.8</ele>
        <time>2025-11-19T11:20:26.621Z</time>
      </trkpt>
      <trkpt lat="43.73516" lon="6.08133">
        <ele>406.1</ele>
        <time>2025-11-19T11:20:29.621Z</time>
      </trkpt>
      <trkpt lat="43.73514" lon="6.08133">
        <ele>406.4</ele>
        <time>2025-11-19T11:20:32.621Z</time>
      </trkpt>
      <trkpt lat="43.73512" lon="6.08136">
        <ele>406.6</ele>
        <time>2025-11-19T11:20:35.621Z</time>
      </trkpt>
      <trkpt lat="43.7351" lon="6.08139">
        <ele>406.6</ele>
        <time>2025-11-19T11:20:38.622Z</time>
      </trkpt>
      <trkpt lat="43.73508" lon="6.08141">
        <ele>406.7</ele>
        <time>2025-11-19T11:20:40.621Z</time>
      </trkpt>
      <trkpt lat="43.73506" lon="6.08143">
        <ele>406.7</ele>
        <time>2025-11-19T11:20:43.621Z</time>
      </trkpt>
      <trkpt lat="43.73504" lon="6.08146">
        <ele>406.6</ele>
        <time>2025-11-19T11:20:46.622Z</time>
      </trkpt>
      <trkpt lat="43.73502" lon="6.08148">
        <ele>406.5</ele>
        <time>2025-11-19T11:20:49.621Z</time>
      </trkpt>
      <trkpt lat="43.735" lon="6.08149">
        <ele>406.5</ele>
        <time>2025-11-19T11:20:52.621Z</time>
      </trkpt>
      <trkpt lat="43.73498" lon="6.08152">
        <ele>406.5</ele>
        <time>2025-11-19T11:20:55.621Z</time>
      </trkpt>
      <trkpt lat="43.73495" lon="6.08153">
        <ele>406.6</ele>
        <time>2025-11-19T11:20:58.621Z</time>
      </trkpt>
      <trkpt lat="43.73493" lon="6.08155">
        <ele>406.6</ele>
        <time>2025-11-19T11:21:01.621Z</time>
      </trkpt>
      <trkpt lat="43.73491" lon="6.08156">
        <ele>406.7</ele>
        <time>2025-11-19T11:21:04.621Z</time>
      </trkpt>
      <trkpt lat="43.73489" lon="6.08159">
        <ele>406.6</ele>
        <time>2025-11-19T11:21:07.621Z</time>
      </trkpt>
      <trkpt lat="43.73487" lon="6.08162">
        <ele>406.5</ele>
        <time>2025-11-19T11:21:11.621Z</time>
      </trkpt>
      <trkpt lat="43.73485" lon="6.08164">
        <ele>406.4</ele>
        <time>2025-11-19T11:21:13.621Z</time>
      </trkpt>
      <trkpt lat="43.73482" lon="6.08168">
        <ele>406.4</ele>
        <time>2025-11-19T11:21:16.621Z</time>
      </trkpt>
      <trkpt lat="43.73481" lon="6.0817">
        <ele>406.4</ele>
        <time>2025-11-19T11:21:18.621Z</time>
      </trkpt>
      <trkpt lat="43.73479" lon="6.08174">
        <ele>406.3</ele>
        <time>2025-11-19T11:21:21.621Z</time>
      </trkpt>
      <trkpt lat="43.73476" lon="6.08176">
        <ele>406.2</ele>
        <time>2025-11-19T11:21:24.621Z</time>
      </trkpt>
      <trkpt lat="43.73475" lon="6.08179">
        <ele>406</ele>
        <time>2025-11-19T11:21:26.621Z</time>
      </trkpt>
      <trkpt lat="43.73474" lon="6.08183">
        <ele>405.6</ele>
        <time>2025-11-19T11:21:28.621Z</time>
      </trkpt>
      <trkpt lat="43.73472" lon="6.08186">
        <ele>405.3</ele>
        <time>2025-11-19T11:21:30.621Z</time>
      </trkpt>
      <trkpt lat="43.7347" lon="6.08187">
        <ele>405.2</ele>
        <time>2025-11-19T11:21:32.621Z</time>
      </trkpt>
      <trkpt lat="43.73468" lon="6.08188">
        <ele>405.3</ele>
        <time>2025-11-19T11:21:35.621Z</time>
      </trkpt>
      <trkpt lat="43.73465" lon="6.0819">
        <ele>405.4</ele>
        <time>2025-11-19T11:21:38.621Z</time>
      </trkpt>
      <trkpt lat="43.73463" lon="6.08193">
        <ele>405.2</ele>
        <time>2025-11-19T11:21:41.622Z</time>
      </trkpt>
      <trkpt lat="43.73461" lon="6.08195">
        <ele>405.2</ele>
        <time>2025-11-19T11:21:43.621Z</time>
      </trkpt>
      <trkpt lat="43.73458" lon="6.08196">
        <ele>405.4</ele>
        <time>2025-11-19T11:21:46.621Z</time>
      </trkpt>
      <trkpt lat="43.73456" lon="6.08199">
        <ele>405.5</ele>
        <time>2025-11-19T11:21:49.622Z</time>
      </trkpt>
      <trkpt lat="43.73454" lon="6.082">
        <ele>405.6</ele>
        <time>2025-11-19T11:21:52.621Z</time>
      </trkpt>
      <trkpt lat="43.73452" lon="6.08202">
        <ele>405.6</ele>
        <time>2025-11-19T11:21:54.621Z</time>
      </trkpt>
      <trkpt lat="43.7345" lon="6.08204">
        <ele>405.5</ele>
        <time>2025-11-19T11:21:56.621Z</time>
      </trkpt>
      <trkpt lat="43.73448" lon="6.08207">
        <ele>405.5</ele>
        <time>2025-11-19T11:21:58.621Z</time>
      </trkpt>
      <trkpt lat="43.73445" lon="6.08209">
        <ele>405.4</ele>
        <time>2025-11-19T11:22:01.621Z</time>
      </trkpt>
      <trkpt lat="43.73443" lon="6.0821">
        <ele>405.4</ele>
        <time>2025-11-19T11:22:04.621Z</time>
      </trkpt>
      <trkpt lat="43.7344" lon="6.08209">
        <ele>405.6</ele>
        <time>2025-11-19T11:22:07.621Z</time>
      </trkpt>
      <trkpt lat="43.73438" lon="6.0821">
        <ele>405.7</ele>
        <time>2025-11-19T11:22:10.621Z</time>
      </trkpt>
      <trkpt lat="43.73435" lon="6.0821">
        <ele>405.8</ele>
        <time>2025-11-19T11:22:12.621Z</time>
      </trkpt>
      <trkpt lat="43.73433" lon="6.0821">
        <ele>405.9</ele>
        <time>2025-11-19T11:22:15.621Z</time>
      </trkpt>
      <trkpt lat="43.7343" lon="6.0821">
        <ele>406.1</ele>
        <time>2025-11-19T11:22:18.621Z</time>
      </trkpt>
      <trkpt lat="43.73427" lon="6.08211">
        <ele>406.1</ele>
        <time>2025-11-19T11:22:22.621Z</time>
      </trkpt>
      <trkpt lat="43.73425" lon="6.08212">
        <ele>406</ele>
        <time>2025-11-19T11:22:24.621Z</time>
      </trkpt>
      <trkpt lat="43.73422" lon="6.08213">
        <ele>406</ele>
        <time>2025-11-19T11:22:26.621Z</time>
      </trkpt>
      <trkpt lat="43.73419" lon="6.08214">
        <ele>406</ele>
        <time>2025-11-19T11:22:29.621Z</time>
      </trkpt>
      <trkpt lat="43.73416" lon="6.08215">
        <ele>406</ele>
        <time>2025-11-19T11:22:31.621Z</time>
      </trkpt>
      <trkpt lat="43.73413" lon="6.08216">
        <ele>405.8</ele>
        <time>2025-11-19T11:22:33.621Z</time>
      </trkpt>
      <trkpt lat="43.73411" lon="6.08216">
        <ele>405.8</ele>
        <time>2025-11-19T11:22:35.622Z</time>
      </trkpt>
      <trkpt lat="43.73407" lon="6.08218">
        <ele>405.5</ele>
        <time>2025-11-19T11:22:38.621Z</time>
      </trkpt>
      <trkpt lat="43.73404" lon="6.08219">
        <ele>405.4</ele>
        <time>2025-11-19T11:22:41.621Z</time>
      </trkpt>
      <trkpt lat="43.734" lon="6.0822">
        <ele>405.3</ele>
        <time>2025-11-19T11:22:44.621Z</time>
      </trkpt>
      <trkpt lat="43.73397" lon="6.0822">
        <ele>405.2</ele>
        <time>2025-11-19T11:22:47.621Z</time>
      </trkpt>
      <trkpt lat="43.73394" lon="6.08219">
        <ele>405.3</ele>
        <time>2025-11-19T11:22:50.621Z</time>
      </trkpt>
      <trkpt lat="43.73391" lon="6.08217">
        <ele>405.4</ele>
        <time>2025-11-19T11:22:53.621Z</time>
      </trkpt>
      <trkpt lat="43.73388" lon="6.08217">
        <ele>405.4</ele>
        <time>2025-11-19T11:22:56.622Z</time>
      </trkpt>
      <trkpt lat="43.73385" lon="6.08217">
        <ele>405.4</ele>
        <time>2025-11-19T11:22:58.622Z</time>
      </trkpt>
      <trkpt lat="43.73383" lon="6.08217">
        <ele>405.4</ele>
        <time>2025-11-19T11:23:01.621Z</time>
      </trkpt>
      <trkpt lat="43.73379" lon="6.08216">
        <ele>405.4</ele>
        <time>2025-11-19T11:23:04.621Z</time>
      </trkpt>
      <trkpt lat="43.73377" lon="6.08216">
        <ele>405.4</ele>
        <time>2025-11-19T11:23:07.621Z</time>
      </trkpt>
      <trkpt lat="43.73373" lon="6.08216">
        <ele>405.4</ele>
        <time>2025-11-19T11:23:10.622Z</time>
      </trkpt>
      <trkpt lat="43.7337" lon="6.08217">
        <ele>405.4</ele>
        <time>2025-11-19T11:23:13.621Z</time>
      </trkpt>
      <trkpt lat="43.73368" lon="6.08216">
        <ele>405.4</ele>
        <time>2025-11-19T11:23:15.622Z</time>
      </trkpt>
      <trkpt lat="43.73365" lon="6.08217">
        <ele>405.4</ele>
        <time>2025-11-19T11:23:17.621Z</time>
      </trkpt>
      <trkpt lat="43.73362" lon="6.08217">
        <ele>405.4</ele>
        <time>2025-11-19T11:23:21.621Z</time>
      </trkpt>
      <trkpt lat="43.73359" lon="6.08217">
        <ele>405.4</ele>
        <time>2025-11-19T11:23:25.622Z</time>
      </trkpt>
      <trkpt lat="43.73356" lon="6.08216">
        <ele>405.5</ele>
        <time>2025-11-19T11:23:28.621Z</time>
      </trkpt>
      <trkpt lat="43.73354" lon="6.08215">
        <ele>405.5</ele>
        <time>2025-11-19T11:23:30.621Z</time>
      </trkpt>
      <trkpt lat="43.73351" lon="6.08215">
        <ele>405.5</ele>
        <time>2025-11-19T11:23:33.622Z</time>
      </trkpt>
      <trkpt lat="43.73348" lon="6.08215">
        <ele>405.5</ele>
        <time>2025-11-19T11:23:36.622Z</time>
      </trkpt>
      <trkpt lat="43.73346" lon="6.08216">
        <ele>405.5</ele>
        <time>2025-11-19T11:23:39.621Z</time>
      </trkpt>
      <trkpt lat="43.73343" lon="6.08216">
        <ele>405.4</ele>
        <time>2025-11-19T11:23:42.622Z</time>
      </trkpt>
      <trkpt lat="43.73341" lon="6.08218">
        <ele>405.3</ele>
        <time>2025-11-19T11:23:44.621Z</time>
      </trkpt>
      <trkpt lat="43.73338" lon="6.08219">
        <ele>405.2</ele>
        <time>2025-11-19T11:23:47.621Z</time>
      </trkpt>
      <trkpt lat="43.73336" lon="6.08219">
        <ele>405.2</ele>
        <time>2025-11-19T11:23:50.621Z</time>
      </trkpt>
      <trkpt lat="43.73333" lon="6.08221">
        <ele>405.1</ele>
        <time>2025-11-19T11:23:53.622Z</time>
      </trkpt>
      <trkpt lat="43.7333" lon="6.08222">
        <ele>405.2</ele>
        <time>2025-11-19T11:23:57.622Z</time>
      </trkpt>
      <trkpt lat="43.73327" lon="6.08224">
        <ele>405.2</ele>
        <time>2025-11-19T11:24:00.621Z</time>
      </trkpt>
      <trkpt lat="43.73325" lon="6.08226">
        <ele>405.3</ele>
        <time>2025-11-19T11:24:02.621Z</time>
      </trkpt>
      <trkpt lat="43.73323" lon="6.08228">
        <ele>405.4</ele>
        <time>2025-11-19T11:24:05.621Z</time>
      </trkpt>
      <trkpt lat="43.73321" lon="6.08231">
        <ele>405.5</ele>
        <time>2025-11-19T11:24:09.622Z</time>
      </trkpt>
      <trkpt lat="43.73319" lon="6.08234">
        <ele>405.5</ele>
        <time>2025-11-19T11:24:12.621Z</time>
      </trkpt>
      <trkpt lat="43.73318" lon="6.08238">
        <ele>405.6</ele>
        <time>2025-11-19T11:24:15.621Z</time>
      </trkpt>
      <trkpt lat="43.73317" lon="6.08242">
        <ele>405.6</ele>
        <time>2025-11-19T11:24:17.621Z</time>
      </trkpt>
      <trkpt lat="43.73317" lon="6.08245">
        <ele>405.6</ele>
        <time>2025-11-19T11:24:20.621Z</time>
      </trkpt>
      <trkpt lat="43.73317" lon="6.08249">
        <ele>405.6</ele>
        <time>2025-11-19T11:24:22.622Z</time>
      </trkpt>
      <trkpt lat="43.73317" lon="6.08252">
        <ele>405.6</ele>
        <time>2025-11-19T11:24:24.622Z</time>
      </trkpt>
      <trkpt lat="43.73318" lon="6.08256">
        <ele>405.5</ele>
        <time>2025-11-19T11:24:26.621Z</time>
      </trkpt>
      <trkpt lat="43.73319" lon="6.0826">
        <ele>405.4</ele>
        <time>2025-11-19T11:24:29.621Z</time>
      </trkpt>
      <trkpt lat="43.7332" lon="6.08264">
        <ele>405.2</ele>
        <time>2025-11-19T11:24:32.621Z</time>
      </trkpt>
      <trkpt lat="43.7332" lon="6.08268">
        <ele>405.2</ele>
        <time>2025-11-19T11:24:34.621Z</time>
      </trkpt>
      <trkpt lat="43.73321" lon="6.08271">
        <ele>405</ele>
        <time>2025-11-19T11:24:37.621Z</time>
      </trkpt>
      <trkpt lat="43.73322" lon="6.08275">
        <ele>404.9</ele>
        <time>2025-11-19T11:24:39.621Z</time>
      </trkpt>
      <trkpt lat="43.73323" lon="6.08279">
        <ele>404.8</ele>
        <time>2025-11-19T11:24:42.621Z</time>
      </trkpt>
      <trkpt lat="43.73324" lon="6.08283">
        <ele>404.8</ele>
        <time>2025-11-19T11:24:45.621Z</time>
      </trkpt>
      <trkpt lat="43.73325" lon="6.08287">
        <ele>404.9</ele>
        <time>2025-11-19T11:24:47.621Z</time>
      </trkpt>
      <trkpt lat="43.73326" lon="6.08291">
        <ele>405</ele>
        <time>2025-11-19T11:24:50.621Z</time>
      </trkpt>
      <trkpt lat="43.73327" lon="6.08294">
        <ele>405</ele>
        <time>2025-11-19T11:24:52.621Z</time>
      </trkpt>
      <trkpt lat="43.73329" lon="6.08297">
        <ele>405</ele>
        <time>2025-11-19T11:24:54.621Z</time>
      </trkpt>
      <trkpt lat="43.7333" lon="6.083">
        <ele>405</ele>
        <time>2025-11-19T11:24:58.622Z</time>
      </trkpt>
      <trkpt lat="43.73332" lon="6.08302">
        <ele>405</ele>
        <time>2025-11-19T11:25:01.621Z</time>
      </trkpt>
      <trkpt lat="43.73334" lon="6.08306">
        <ele>405</ele>
        <time>2025-11-19T11:25:05.621Z</time>
      </trkpt>
      <trkpt lat="43.73337" lon="6.08307">
        <ele>405</ele>
        <time>2025-11-19T11:25:08.622Z</time>
      </trkpt>
      <trkpt lat="43.73339" lon="6.08309">
        <ele>405.1</ele>
        <time>2025-11-19T11:25:10.621Z</time>
      </trkpt>
      <trkpt lat="43.73341" lon="6.08312">
        <ele>405.2</ele>
        <time>2025-11-19T11:25:13.621Z</time>
      </trkpt>
      <trkpt lat="43.73343" lon="6.08314">
        <ele>405.3</ele>
        <time>2025-11-19T11:25:15.621Z</time>
      </trkpt>
      <trkpt lat="43.73346" lon="6.08317">
        <ele>405.3</ele>
        <time>2025-11-19T11:25:17.621Z</time>
      </trkpt>
      <trkpt lat="43.73349" lon="6.08317">
        <ele>405.3</ele>
        <time>2025-11-19T11:25:20.621Z</time>
      </trkpt>
      <trkpt lat="43.73351" lon="6.08319">
        <ele>405.3</ele>
        <time>2025-11-19T11:25:24.621Z</time>
      </trkpt>
      <trkpt lat="43.73354" lon="6.0832">
        <ele>405.3</ele>
        <time>2025-11-19T11:25:27.621Z</time>
      </trkpt>
      <trkpt lat="43.73357" lon="6.08321">
        <ele>405.2</ele>
        <time>2025-11-19T11:25:31.622Z</time>
      </trkpt>
      <trkpt lat="43.73359" lon="6.08322">
        <ele>405.3</ele>
        <time>2025-11-19T11:25:34.621Z</time>
      </trkpt>
      <trkpt lat="43.73361" lon="6.08324">
        <ele>405.3</ele>
        <time>2025-11-19T11:25:37.622Z</time>
      </trkpt>
      <trkpt lat="43.73363" lon="6.08326">
        <ele>405.4</ele>
        <time>2025-11-19T11:25:45.621Z</time>
      </trkpt>
      <trkpt lat="43.73365" lon="6.08327">
        <ele>405.3</ele>
        <time>2025-11-19T11:25:48.621Z</time>
      </trkpt>
      <trkpt lat="43.73367" lon="6.08328">
        <ele>405.3</ele>
        <time>2025-11-19T11:25:52.622Z</time>
      </trkpt>
      <trkpt lat="43.73369" lon="6.08331">
        <ele>405.3</ele>
        <time>2025-11-19T11:25:56.621Z</time>
      </trkpt>
      <trkpt lat="43.73372" lon="6.08331">
        <ele>405.1</ele>
        <time>2025-11-19T11:26:01.622Z</time>
      </trkpt>
      <trkpt lat="43.73375" lon="6.08333">
        <ele>405</ele>
        <time>2025-11-19T11:26:06.621Z</time>
      </trkpt>
      <trkpt lat="43.73377" lon="6.08335">
        <ele>405</ele>
        <time>2025-11-19T11:26:09.621Z</time>
      </trkpt>
      <trkpt lat="43.7338" lon="6.08336">
        <ele>405</ele>
        <time>2025-11-19T11:26:12.622Z</time>
      </trkpt>
      <trkpt lat="43.73382" lon="6.08337">
        <ele>405</ele>
        <time>2025-11-19T11:26:14.622Z</time>
      </trkpt>
      <trkpt lat="43.73384" lon="6.0834">
        <ele>405.2</ele>
        <time>2025-11-19T11:26:17.621Z</time>
      </trkpt>
      <trkpt lat="43.73387" lon="6.08342">
        <ele>405.3</ele>
        <time>2025-11-19T11:26:19.621Z</time>
      </trkpt>
      <trkpt lat="43.73389" lon="6.08343">
        <ele>405.4</ele>
        <time>2025-11-19T11:26:22.621Z</time>
      </trkpt>
      <trkpt lat="43.73391" lon="6.08344">
        <ele>405.5</ele>
        <time>2025-11-19T11:26:25.622Z</time>
      </trkpt>
      <trkpt lat="43.73395" lon="6.08346">
        <ele>405.7</ele>
        <time>2025-11-19T11:26:28.621Z</time>
      </trkpt>
      <trkpt lat="43.73397" lon="6.08347">
        <ele>405.6</ele>
        <time>2025-11-19T11:26:30.622Z</time>
      </trkpt>
      <trkpt lat="43.734" lon="6.08348">
        <ele>405.7</ele>
        <time>2025-11-19T11:26:33.621Z</time>
      </trkpt>
      <trkpt lat="43.73402" lon="6.08349">
        <ele>405.7</ele>
        <time>2025-11-19T11:26:37.621Z</time>
      </trkpt>
      <trkpt lat="43.73405" lon="6.08351">
        <ele>405.8</ele>
        <time>2025-11-19T11:26:42.621Z</time>
      </trkpt>
      <trkpt lat="43.73408" lon="6.08351">
        <ele>405.6</ele>
        <time>2025-11-19T11:26:45.621Z</time>
      </trkpt>
      <trkpt lat="43.7341" lon="6.08351">
        <ele>405.6</ele>
        <time>2025-11-19T11:26:47.621Z</time>
      </trkpt>
      <trkpt lat="43.73413" lon="6.08351">
        <ele>405.5</ele>
        <time>2025-11-19T11:26:50.621Z</time>
      </trkpt>
      <trkpt lat="43.73416" lon="6.08352">
        <ele>405.4</ele>
        <time>2025-11-19T11:26:54.622Z</time>
      </trkpt>
      <trkpt lat="43.73418" lon="6.08352">
        <ele>405.4</ele>
        <time>2025-11-19T11:26:57.622Z</time>
      </trkpt>
      <trkpt lat="43.7342" lon="6.08352">
        <ele>405.3</ele>
        <time>2025-11-19T11:26:59.621Z</time>
      </trkpt>
      <trkpt lat="43.73423" lon="6.08352">
        <ele>405.4</ele>
        <time>2025-11-19T11:27:01.622Z</time>
      </trkpt>
      <trkpt lat="43.73426" lon="6.08352">
        <ele>405.4</ele>
        <time>2025-11-19T11:27:07.622Z</time>
      </trkpt>
      <trkpt lat="43.73429" lon="6.08351">
        <ele>405.3</ele>
        <time>2025-11-19T11:27:11.622Z</time>
      </trkpt>
      <trkpt lat="43.73431" lon="6.08351">
        <ele>405.3</ele>
        <time>2025-11-19T11:27:14.621Z</time>
      </trkpt>
      <trkpt lat="43.73433" lon="6.0835">
        <ele>405.2</ele>
        <time>2025-11-19T11:27:18.622Z</time>
      </trkpt>
      <trkpt lat="43.73437" lon="6.08349">
        <ele>405.1</ele>
        <time>2025-11-19T11:27:21.621Z</time>
      </trkpt>
      <trkpt lat="43.7344" lon="6.08348">
        <ele>405</ele>
        <time>2025-11-19T11:27:25.621Z</time>
      </trkpt>
      <trkpt lat="43.73442" lon="6.08347">
        <ele>405</ele>
        <time>2025-11-19T11:27:27.622Z</time>
      </trkpt>
      <trkpt lat="43.73445" lon="6.08348">
        <ele>405</ele>
        <time>2025-11-19T11:27:30.622Z</time>
      </trkpt>
      <trkpt lat="43.73448" lon="6.08349">
        <ele>405</ele>
        <time>2025-11-19T11:27:34.622Z</time>
      </trkpt>
      <trkpt lat="43.73451" lon="6.08351">
        <ele>405.1</ele>
        <time>2025-11-19T11:27:37.621Z</time>
      </trkpt>
      <trkpt lat="43.73454" lon="6.08353">
        <ele>405.2</ele>
        <time>2025-11-19T11:27:40.622Z</time>
      </trkpt>
      <trkpt lat="43.73457" lon="6.08355">
        <ele>405.2</ele>
        <time>2025-11-19T11:27:43.621Z</time>
      </trkpt>
      <trkpt lat="43.7346" lon="6.08355">
        <ele>405.1</ele>
        <time>2025-11-19T11:27:46.621Z</time>
      </trkpt>
      <trkpt lat="43.73462" lon="6.08356">
        <ele>405.1</ele>
        <time>2025-11-19T11:27:48.622Z</time>
      </trkpt>
      <trkpt lat="43.73465" lon="6.08359">
        <ele>405.2</ele>
        <time>2025-11-19T11:27:51.622Z</time>
      </trkpt>
      <trkpt lat="43.73467" lon="6.08361">
        <ele>405.2</ele>
        <time>2025-11-19T11:27:53.622Z</time>
      </trkpt>
      <trkpt lat="43.7347" lon="6.08362">
        <ele>405.2</ele>
        <time>2025-11-19T11:27:56.621Z</time>
      </trkpt>
      <trkpt lat="43.73472" lon="6.08364">
        <ele>405.2</ele>
        <time>2025-11-19T11:27:58.622Z</time>
      </trkpt>
      <trkpt lat="43.73474" lon="6.08366">
        <ele>405.3</ele>
        <time>2025-11-19T11:28:01.621Z</time>
      </trkpt>
      <trkpt lat="43.73477" lon="6.08368">
        <ele>405.2</ele>
        <time>2025-11-19T11:28:04.622Z</time>
      </trkpt>
      <trkpt lat="43.7348" lon="6.08369">
        <ele>405.2</ele>
        <time>2025-11-19T11:28:07.622Z</time>
      </trkpt>
      <trkpt lat="43.73482" lon="6.08371">
        <ele>405.1</ele>
        <time>2025-11-19T11:28:11.622Z</time>
      </trkpt>
      <trkpt lat="43.73484" lon="6.08373">
        <ele>405</ele>
        <time>2025-11-19T11:28:13.621Z</time>
      </trkpt>
      <trkpt lat="43.73487" lon="6.08374">
        <ele>404.9</ele>
        <time>2025-11-19T11:28:16.621Z</time>
      </trkpt>
      <trkpt lat="43.73488" lon="6.08377">
        <ele>404.9</ele>
        <time>2025-11-19T11:28:18.621Z</time>
      </trkpt>
      <trkpt lat="43.7349" lon="6.0838">
        <ele>404.9</ele>
        <time>2025-11-19T11:28:22.622Z</time>
      </trkpt>
      <trkpt lat="43.73492" lon="6.08384">
        <ele>404.8</ele>
        <time>2025-11-19T11:28:25.622Z</time>
      </trkpt>
      <trkpt lat="43.73494" lon="6.08386">
        <ele>404.6</ele>
        <time>2025-11-19T11:28:27.621Z</time>
      </trkpt>
      <trkpt lat="43.73496" lon="6.08388">
        <ele>404.4</ele>
        <time>2025-11-19T11:28:30.621Z</time>
      </trkpt>
      <trkpt lat="43.73498" lon="6.0839">
        <ele>404.3</ele>
        <time>2025-11-19T11:28:33.621Z</time>
      </trkpt>
      <trkpt lat="43.735" lon="6.08394">
        <ele>404.4</ele>
        <time>2025-11-19T11:28:36.622Z</time>
      </trkpt>
      <trkpt lat="43.73501" lon="6.08398">
        <ele>404.6</ele>
        <time>2025-11-19T11:28:39.621Z</time>
      </trkpt>
      <trkpt lat="43.73502" lon="6.08401">
        <ele>404.8</ele>
        <time>2025-11-19T11:28:41.622Z</time>
      </trkpt>
      <trkpt lat="43.73502" lon="6.08404">
        <ele>405</ele>
        <time>2025-11-19T11:28:44.622Z</time>
      </trkpt>
      <trkpt lat="43.73503" lon="6.08407">
        <ele>405.2</ele>
        <time>2025-11-19T11:28:49.621Z</time>
      </trkpt>
      <trkpt lat="43.73506" lon="6.08406">
        <ele>405</ele>
        <time>2025-11-19T11:28:54.622Z</time>
      </trkpt>
      <trkpt lat="43.73503" lon="6.08408">
        <ele>405.2</ele>
        <time>2025-11-19T11:29:04.622Z</time>
      </trkpt>
      <trkpt lat="43.73504" lon="6.08411">
        <ele>405.4</ele>
        <time>2025-11-19T11:29:11.622Z</time>
      </trkpt>
      <trkpt lat="43.73502" lon="6.08413">
        <ele>405.6</ele>
        <time>2025-11-19T11:29:23.622Z</time>
      </trkpt>
      <trkpt lat="43.73504" lon="6.08416">
        <ele>405.7</ele>
        <time>2025-11-19T11:30:31.621Z</time>
      </trkpt>
      <trkpt lat="43.73505" lon="6.08413">
        <ele>405.4</ele>
        <time>2025-11-19T11:30:53.622Z</time>
      </trkpt>
      <trkpt lat="43.73503" lon="6.08414">
        <ele>405.6</ele>
        <time>2025-11-19T11:47:12.623Z</time>
      </trkpt>
      <trkpt lat="43.73501" lon="6.08415">
        <ele>405.8</ele>
        <time>2025-11-19T12:01:10.623Z</time>
      </trkpt>
      <trkpt lat="43.73502" lon="6.08413">
        <ele>405.6</ele>
        <time>2025-11-19T12:02:58.624Z</time>
      </trkpt>
      <trkpt lat="43.73504" lon="6.08414">
        <ele>405.5</ele>
        <time>2025-11-19T12:06:01.624Z</time>
      </trkpt>
      <trkpt lat="43.73502" lon="6.08414">
        <ele>405.7</ele>
        <time>2025-11-19T12:06:27.624Z</time>
      </trkpt>
      <trkpt lat="43.73499" lon="6.08415">
        <ele>405.9</ele>
        <time>2025-11-19T12:07:26.624Z</time>
      </trkpt>
      <trkpt lat="43.73497" lon="6.08417">
        <ele>406.1</ele>
        <time>2025-11-19T12:11:20.625Z</time>
      </trkpt>
      <trkpt lat="43.73494" lon="6.08418">
        <ele>406.1</ele>
        <time>2025-11-19T12:11:35.624Z</time>
      </trkpt>
      <trkpt lat="43.73494" lon="6.08421">
        <ele>405.9</ele>
        <time>2025-11-19T12:11:59.625Z</time>
      </trkpt>
      <trkpt lat="43.73494" lon="6.08425">
        <ele>405.7</ele>
        <time>2025-11-19T12:12:05.625Z</time>
      </trkpt>
      <trkpt lat="43.73491" lon="6.08424">
        <ele>405.9</ele>
        <time>2025-11-19T12:13:58.625Z</time>
      </trkpt>
      <trkpt lat="43.7349" lon="6.08428">
        <ele>405.7</ele>
        <time>2025-11-19T12:14:34.625Z</time>
      </trkpt>
      <trkpt lat="43.73489" lon="6.0843">
        <ele>405.6</ele>
        <time>2025-11-19T12:15:10.624Z</time>
      </trkpt>
      <trkpt lat="43.73489" lon="6.08433">
        <ele>405.5</ele>
        <time>2025-11-19T12:15:12.624Z</time>
      </trkpt>
      <trkpt lat="43.73489" lon="6.08437">
        <ele>405.3</ele>
        <time>2025-11-19T12:15:16.625Z</time>
      </trkpt>
      <trkpt lat="43.73487" lon="6.0844">
        <ele>405.2</ele>
        <time>2025-11-19T12:15:20.625Z</time>
      </trkpt>
      <trkpt lat="43.73484" lon="6.08442">
        <ele>405.2</ele>
        <time>2025-11-19T12:15:24.625Z</time>
      </trkpt>
      <trkpt lat="43.73482" lon="6.08442">
        <ele>405.4</ele>
        <time>2025-11-19T12:15:29.625Z</time>
      </trkpt>
      <trkpt lat="43.7348" lon="6.08441">
        <ele>405.6</ele>
        <time>2025-11-19T12:15:34.625Z</time>
      </trkpt>
      <trkpt lat="43.73478" lon="6.08442">
        <ele>405.7</ele>
        <time>2025-11-19T12:15:36.625Z</time>
      </trkpt>
      <trkpt lat="43.73475" lon="6.08443">
        <ele>405.8</ele>
        <time>2025-11-19T12:15:39.624Z</time>
      </trkpt>
      <trkpt lat="43.73474" lon="6.08445">
        <ele>405.8</ele>
        <time>2025-11-19T12:15:43.624Z</time>
      </trkpt>
      <trkpt lat="43.73471" lon="6.08448">
        <ele>405.8</ele>
        <time>2025-11-19T12:15:46.625Z</time>
      </trkpt>
      <trkpt lat="43.73469" lon="6.0845">
        <ele>405.8</ele>
        <time>2025-11-19T12:15:49.625Z</time>
      </trkpt>
      <trkpt lat="43.73466" lon="6.08451">
        <ele>406</ele>
        <time>2025-11-19T12:15:53.624Z</time>
      </trkpt>
      <trkpt lat="43.73463" lon="6.08451">
        <ele>406.1</ele>
        <time>2025-11-19T12:15:56.625Z</time>
      </trkpt>
      <trkpt lat="43.73461" lon="6.08453">
        <ele>406.1</ele>
        <time>2025-11-19T12:15:59.625Z</time>
      </trkpt>
      <trkpt lat="43.73458" lon="6.08452">
        <ele>406.3</ele>
        <time>2025-11-19T12:16:03.624Z</time>
      </trkpt>
      <trkpt lat="43.73456" lon="6.08452">
        <ele>406.5</ele>
        <time>2025-11-19T12:16:06.624Z</time>
      </trkpt>
      <trkpt lat="43.73453" lon="6.08452">
        <ele>406.7</ele>
        <time>2025-11-19T12:16:09.625Z</time>
      </trkpt>
      <trkpt lat="43.7345" lon="6.08452">
        <ele>406.9</ele>
        <time>2025-11-19T12:16:12.625Z</time>
      </trkpt>
      <trkpt lat="43.73447" lon="6.08452">
        <ele>407</ele>
        <time>2025-11-19T12:16:15.625Z</time>
      </trkpt>
      <trkpt lat="43.73445" lon="6.08452">
        <ele>407.1</ele>
        <time>2025-11-19T12:16:18.625Z</time>
      </trkpt>
      <trkpt lat="43.73442" lon="6.08454">
        <ele>407.2</ele>
        <time>2025-11-19T12:16:21.625Z</time>
      </trkpt>
      <trkpt lat="43.7344" lon="6.08454">
        <ele>407.3</ele>
        <time>2025-11-19T12:16:25.625Z</time>
      </trkpt>
      <trkpt lat="43.73437" lon="6.08454">
        <ele>407.4</ele>
        <time>2025-11-19T12:16:29.625Z</time>
      </trkpt>
      <trkpt lat="43.73435" lon="6.08456">
        <ele>407.4</ele>
        <time>2025-11-19T12:16:32.625Z</time>
      </trkpt>
      <trkpt lat="43.73432" lon="6.08458">
        <ele>407.4</ele>
        <time>2025-11-19T12:16:36.625Z</time>
      </trkpt>
      <trkpt lat="43.7343" lon="6.08459">
        <ele>407.6</ele>
        <time>2025-11-19T12:16:39.624Z</time>
      </trkpt>
      <trkpt lat="43.73427" lon="6.08461">
        <ele>407.6</ele>
        <time>2025-11-19T12:16:43.625Z</time>
      </trkpt>
      <trkpt lat="43.73425" lon="6.08463">
        <ele>407.7</ele>
        <time>2025-11-19T12:16:46.625Z</time>
      </trkpt>
      <trkpt lat="43.73423" lon="6.08466">
        <ele>407.7</ele>
        <time>2025-11-19T12:16:51.624Z</time>
      </trkpt>
      <trkpt lat="43.73421" lon="6.08467">
        <ele>407.8</ele>
        <time>2025-11-19T12:16:54.625Z</time>
      </trkpt>
      <trkpt lat="43.73418" lon="6.08468">
        <ele>408</ele>
        <time>2025-11-19T12:16:56.625Z</time>
      </trkpt>
      <trkpt lat="43.73415" lon="6.08467">
        <ele>408.3</ele>
        <time>2025-11-19T12:17:00.625Z</time>
      </trkpt>
      <trkpt lat="43.73413" lon="6.08466">
        <ele>408.5</ele>
        <time>2025-11-19T12:17:03.625Z</time>
      </trkpt>
      <trkpt lat="43.7341" lon="6.08467">
        <ele>408.7</ele>
        <time>2025-11-19T12:17:05.625Z</time>
      </trkpt>
      <trkpt lat="43.73407" lon="6.08467">
        <ele>408.8</ele>
        <time>2025-11-19T12:17:08.625Z</time>
      </trkpt>
      <trkpt lat="43.73405" lon="6.08469">
        <ele>409</ele>
        <time>2025-11-19T12:17:11.625Z</time>
      </trkpt>
      <trkpt lat="43.73402" lon="6.0847">
        <ele>409.1</ele>
        <time>2025-11-19T12:17:14.625Z</time>
      </trkpt>
      <trkpt lat="43.734" lon="6.08471">
        <ele>409.3</ele>
        <time>2025-11-19T12:17:17.625Z</time>
      </trkpt>
      <trkpt lat="43.73398" lon="6.08473">
        <ele>409.3</ele>
        <time>2025-11-19T12:17:20.624Z</time>
      </trkpt>
      <trkpt lat="43.73395" lon="6.08473">
        <ele>409.4</ele>
        <time>2025-11-19T12:17:23.625Z</time>
      </trkpt>
      <trkpt lat="43.73392" lon="6.08475">
        <ele>409.5</ele>
        <time>2025-11-19T12:17:26.625Z</time>
      </trkpt>
      <trkpt lat="43.7339" lon="6.08477">
        <ele>409.4</ele>
        <time>2025-11-19T12:17:29.625Z</time>
      </trkpt>
      <trkpt lat="43.73388" lon="6.08478">
        <ele>409.6</ele>
        <time>2025-11-19T12:17:32.625Z</time>
      </trkpt>
      <trkpt lat="43.73386" lon="6.08481">
        <ele>409.5</ele>
        <time>2025-11-19T12:17:36.625Z</time>
      </trkpt>
      <trkpt lat="43.73384" lon="6.08483">
        <ele>409.6</ele>
        <time>2025-11-19T12:17:41.625Z</time>
      </trkpt>
      <trkpt lat="43.73382" lon="6.08486">
        <ele>409.8</ele>
        <time>2025-11-19T12:17:45.625Z</time>
      </trkpt>
      <trkpt lat="43.73379" lon="6.08488">
        <ele>410.1</ele>
        <time>2025-11-19T12:17:48.625Z</time>
      </trkpt>
      <trkpt lat="43.73377" lon="6.08491">
        <ele>410.1</ele>
        <time>2025-11-19T12:17:50.625Z</time>
      </trkpt>
      <trkpt lat="43.73376" lon="6.08494">
        <ele>410</ele>
        <time>2025-11-19T12:17:52.625Z</time>
      </trkpt>
      <trkpt lat="43.73375" lon="6.08497">
        <ele>410</ele>
        <time>2025-11-19T12:17:55.624Z</time>
      </trkpt>
      <trkpt lat="43.73372" lon="6.08498">
        <ele>410.3</ele>
        <time>2025-11-19T12:18:08.625Z</time>
      </trkpt>
      <trkpt lat="43.73371" lon="6.08502">
        <ele>410</ele>
        <time>2025-11-19T12:18:14.625Z</time>
      </trkpt>
      <trkpt lat="43.73369" lon="6.08505">
        <ele>409.7</ele>
        <time>2025-11-19T12:18:17.625Z</time>
      </trkpt>
      <trkpt lat="43.73368" lon="6.08508">
        <ele>409.6</ele>
        <time>2025-11-19T12:18:20.625Z</time>
      </trkpt>
      <trkpt lat="43.73366" lon="6.08511">
        <ele>409.3</ele>
        <time>2025-11-19T12:18:24.625Z</time>
      </trkpt>
      <trkpt lat="43.73364" lon="6.08513">
        <ele>409.2</ele>
        <time>2025-11-19T12:18:28.625Z</time>
      </trkpt>
      <trkpt lat="43.73363" lon="6.08516">
        <ele>409</ele>
        <time>2025-11-19T12:18:31.625Z</time>
      </trkpt>
      <trkpt lat="43.73359" lon="6.08518">
        <ele>409.4</ele>
        <time>2025-11-19T12:18:39.625Z</time>
      </trkpt>
      <trkpt lat="43.73357" lon="6.0852">
        <ele>410.2</ele>
        <time>2025-11-19T12:18:42.625Z</time>
      </trkpt>
      <trkpt lat="43.73354" lon="6.0852">
        <ele>411.1</ele>
        <time>2025-11-19T12:18:47.625Z</time>
      </trkpt>
      <trkpt lat="43.73352" lon="6.08522">
        <ele>411.5</ele>
        <time>2025-11-19T12:18:50.624Z</time>
      </trkpt>
      <trkpt lat="43.7335" lon="6.08525">
        <ele>411.4</ele>
        <time>2025-11-19T12:18:54.625Z</time>
      </trkpt>
      <trkpt lat="43.73349" lon="6.08529">
        <ele>411</ele>
        <time>2025-11-19T12:18:58.625Z</time>
      </trkpt>
      <trkpt lat="43.73348" lon="6.08532">
        <ele>410.9</ele>
        <time>2025-11-19T12:19:01.625Z</time>
      </trkpt>
      <trkpt lat="43.73347" lon="6.08536">
        <ele>410.9</ele>
        <time>2025-11-19T12:19:07.625Z</time>
      </trkpt>
      <trkpt lat="43.73344" lon="6.08538">
        <ele>411.4</ele>
        <time>2025-11-19T12:19:10.625Z</time>
      </trkpt>
      <trkpt lat="43.73344" lon="6.08541">
        <ele>410.9</ele>
        <time>2025-11-19T12:19:59.625Z</time>
      </trkpt>
      <trkpt lat="43.73342" lon="6.08541">
        <ele>411.5</ele>
        <time>2025-11-19T12:20:20.625Z</time>
      </trkpt>
      <trkpt lat="43.73344" lon="6.08539">
        <ele>411.4</ele>
        <time>2025-11-19T12:20:59.625Z</time>
      </trkpt>
      <trkpt lat="43.73346" lon="6.08538">
        <ele>410.7</ele>
        <time>2025-11-19T12:21:02.625Z</time>
      </trkpt>
      <trkpt lat="43.73346" lon="6.08535">
        <ele>411.2</ele>
        <time>2025-11-19T12:21:06.625Z</time>
      </trkpt>
      <trkpt lat="43.73347" lon="6.08532">
        <ele>411.4</ele>
        <time>2025-11-19T12:21:10.625Z</time>
      </trkpt>
      <trkpt lat="43.73348" lon="6.08529">
        <ele>411.5</ele>
        <time>2025-11-19T12:21:18.625Z</time>
      </trkpt>
      <trkpt lat="43.73351" lon="6.08528">
        <ele>410.7</ele>
        <time>2025-11-19T12:21:25.625Z</time>
      </trkpt>
      <trkpt lat="43.73353" lon="6.08528">
        <ele>409.9</ele>
        <time>2025-11-19T12:21:30.625Z</time>
      </trkpt>
      <trkpt lat="43.73356" lon="6.08526">
        <ele>409.3</ele>
        <time>2025-11-19T12:21:33.625Z</time>
      </trkpt>
      <trkpt lat="43.73357" lon="6.08523">
        <ele>409.7</ele>
        <time>2025-11-19T12:21:37.625Z</time>
      </trkpt>
      <trkpt lat="43.73359" lon="6.08519">
        <ele>409.5</ele>
        <time>2025-11-19T12:21:41.625Z</time>
      </trkpt>
      <trkpt lat="43.7336" lon="6.08516">
        <ele>409.4</ele>
        <time>2025-11-19T12:21:43.625Z</time>
      </trkpt>
      <trkpt lat="43.73363" lon="6.08514">
        <ele>409.4</ele>
        <time>2025-11-19T12:21:46.625Z</time>
      </trkpt>
      <trkpt lat="43.73365" lon="6.08511">
        <ele>409.4</ele>
        <time>2025-11-19T12:21:49.625Z</time>
      </trkpt>
      <trkpt lat="43.73367" lon="6.08508">
        <ele>409.7</ele>
        <time>2025-11-19T12:21:52.625Z</time>
      </trkpt>
      <trkpt lat="43.73368" lon="6.08505">
        <ele>410</ele>
        <time>2025-11-19T12:21:54.625Z</time>
      </trkpt>
      <trkpt lat="43.73369" lon="6.085">
        <ele>410.5</ele>
        <time>2025-11-19T12:21:57.626Z</time>
      </trkpt>
      <trkpt lat="43.73367" lon="6.08498">
        <ele>411.1</ele>
        <time>2025-11-19T12:22:02.625Z</time>
      </trkpt>
      <trkpt lat="43.73365" lon="6.08499">
        <ele>411.5</ele>
        <time>2025-11-19T12:22:20.625Z</time>
      </trkpt>
      <trkpt lat="43.73362" lon="6.085">
        <ele>411.9</ele>
        <time>2025-11-19T12:22:26.625Z</time>
      </trkpt>
      <trkpt lat="43.73359" lon="6.08501">
        <ele>412.5</ele>
        <time>2025-11-19T12:22:30.625Z</time>
      </trkpt>
      <trkpt lat="43.73357" lon="6.08503">
        <ele>413</ele>
        <time>2025-11-19T12:22:33.626Z</time>
      </trkpt>
      <trkpt lat="43.73354" lon="6.08503">
        <ele>414.3</ele>
        <time>2025-11-19T12:22:40.625Z</time>
      </trkpt>
      <trkpt lat="43.73352" lon="6.08506">
        <ele>414.6</ele>
        <time>2025-11-19T12:22:45.626Z</time>
      </trkpt>
      <trkpt lat="43.73351" lon="6.08509">
        <ele>414.5</ele>
        <time>2025-11-19T12:22:48.625Z</time>
      </trkpt>
      <trkpt lat="43.73349" lon="6.08512">
        <ele>414.6</ele>
        <time>2025-11-19T12:22:51.625Z</time>
      </trkpt>
      <trkpt lat="43.73348" lon="6.08514">
        <ele>414.9</ele>
        <time>2025-11-19T12:22:55.625Z</time>
      </trkpt>
      <trkpt lat="43.73346" lon="6.08516">
        <ele>415.2</ele>
        <time>2025-11-19T12:23:15.625Z</time>
      </trkpt>
      <trkpt lat="43.73343" lon="6.08518">
        <ele>415.6</ele>
        <time>2025-11-19T12:23:26.625Z</time>
      </trkpt>
      <trkpt lat="43.73341" lon="6.0852">
        <ele>416.1</ele>
        <time>2025-11-19T12:23:49.626Z</time>
      </trkpt>
      <trkpt lat="43.73339" lon="6.08522">
        <ele>416.5</ele>
        <time>2025-11-19T12:24:00.625Z</time>
      </trkpt>
      <trkpt lat="43.73336" lon="6.08522">
        <ele>417.3</ele>
        <time>2025-11-19T12:24:23.625Z</time>
      </trkpt>
      <trkpt lat="43.73335" lon="6.08525">
        <ele>417.2</ele>
        <time>2025-11-19T12:24:31.625Z</time>
      </trkpt>
      <trkpt lat="43.73332" lon="6.08527">
        <ele>417.6</ele>
        <time>2025-11-19T12:25:06.625Z</time>
      </trkpt>
      <trkpt lat="43.7333" lon="6.08528">
        <ele>418.2</ele>
        <time>2025-11-19T12:25:16.626Z</time>
      </trkpt>
      <trkpt lat="43.73329" lon="6.08532">
        <ele>418</ele>
        <time>2025-11-19T12:25:36.626Z</time>
      </trkpt>
      <trkpt lat="43.73327" lon="6.08534">
        <ele>418.5</ele>
        <time>2025-11-19T12:25:40.625Z</time>
      </trkpt>
      <trkpt lat="43.73325" lon="6.08537">
        <ele>418.6</ele>
        <time>2025-11-19T12:25:43.625Z</time>
      </trkpt>
      <trkpt lat="43.73323" lon="6.0854">
        <ele>419</ele>
        <time>2025-11-19T12:25:47.625Z</time>
      </trkpt>
      <trkpt lat="43.73321" lon="6.08541">
        <ele>419.9</ele>
        <time>2025-11-19T12:25:52.626Z</time>
      </trkpt>
      <trkpt lat="43.73318" lon="6.08541">
        <ele>421.1</ele>
        <time>2025-11-19T12:25:57.625Z</time>
      </trkpt>
      <trkpt lat="43.73317" lon="6.08544">
        <ele>421.5</ele>
        <time>2025-11-19T12:26:00.625Z</time>
      </trkpt>
      <trkpt lat="43.73315" lon="6.08549">
        <ele>421.6</ele>
        <time>2025-11-19T12:26:06.625Z</time>
      </trkpt>
      <trkpt lat="43.73313" lon="6.08551">
        <ele>422.5</ele>
        <time>2025-11-19T12:26:10.625Z</time>
      </trkpt>
      <trkpt lat="43.73311" lon="6.08551">
        <ele>423.8</ele>
        <time>2025-11-19T12:26:13.625Z</time>
      </trkpt>
      <trkpt lat="43.73308" lon="6.08551">
        <ele>425.1</ele>
        <time>2025-11-19T12:26:20.626Z</time>
      </trkpt>
      <trkpt lat="43.73308" lon="6.08556">
        <ele>424.9</ele>
        <time>2025-11-19T12:26:24.625Z</time>
      </trkpt>
      <trkpt lat="43.73305" lon="6.08558">
        <ele>425.7</ele>
        <time>2025-11-19T12:26:27.625Z</time>
      </trkpt>
      <trkpt lat="43.73304" lon="6.08561">
        <ele>425.3</ele>
        <time>2025-11-19T12:26:30.626Z</time>
      </trkpt>
      <trkpt lat="43.73303" lon="6.08564">
        <ele>425.1</ele>
        <time>2025-11-19T12:26:38.626Z</time>
      </trkpt>
      <trkpt lat="43.73302" lon="6.08568">
        <ele>424.8</ele>
        <time>2025-11-19T12:26:41.626Z</time>
      </trkpt>
      <trkpt lat="43.73301" lon="6.08571">
        <ele>424.6</ele>
        <time>2025-11-19T12:26:44.625Z</time>
      </trkpt>
      <trkpt lat="43.73299" lon="6.08573">
        <ele>424.9</ele>
        <time>2025-11-19T12:26:47.626Z</time>
      </trkpt>
      <trkpt lat="43.73297" lon="6.08577">
        <ele>425.1</ele>
        <time>2025-11-19T12:26:50.625Z</time>
      </trkpt>
      <trkpt lat="43.73295" lon="6.08577">
        <ele>425.9</ele>
        <time>2025-11-19T12:26:55.625Z</time>
      </trkpt>
      <trkpt lat="43.73292" lon="6.08577">
        <ele>426.8</ele>
        <time>2025-11-19T12:27:01.626Z</time>
      </trkpt>
      <trkpt lat="43.73291" lon="6.0858">
        <ele>427.2</ele>
        <time>2025-11-19T12:27:04.626Z</time>
      </trkpt>
      <trkpt lat="43.73291" lon="6.08583">
        <ele>426.9</ele>
        <time>2025-11-19T12:27:07.625Z</time>
      </trkpt>
      <trkpt lat="43.7329" lon="6.08587">
        <ele>426.2</ele>
        <time>2025-11-19T12:27:10.626Z</time>
      </trkpt>
      <trkpt lat="43.73288" lon="6.0859">
        <ele>426.1</ele>
        <time>2025-11-19T12:27:13.626Z</time>
      </trkpt>
      <trkpt lat="43.73286" lon="6.08594">
        <ele>426.2</ele>
        <time>2025-11-19T12:27:16.626Z</time>
      </trkpt>
      <trkpt lat="43.73285" lon="6.08597">
        <ele>426.2</ele>
        <time>2025-11-19T12:27:19.625Z</time>
      </trkpt>
      <trkpt lat="43.73284" lon="6.08602">
        <ele>426.4</ele>
        <time>2025-11-19T12:27:23.626Z</time>
      </trkpt>
      <trkpt lat="43.73283" lon="6.08605">
        <ele>426.6</ele>
        <time>2025-11-19T12:27:25.626Z</time>
      </trkpt>
      <trkpt lat="43.73281" lon="6.08608">
        <ele>427.8</ele>
        <time>2025-11-19T12:27:28.626Z</time>
      </trkpt>
      <trkpt lat="43.73279" lon="6.08611">
        <ele>428.6</ele>
        <time>2025-11-19T12:27:31.626Z</time>
      </trkpt>
      <trkpt lat="43.73278" lon="6.08615">
        <ele>429.2</ele>
        <time>2025-11-19T12:27:34.626Z</time>
      </trkpt>
      <trkpt lat="43.73276" lon="6.08619">
        <ele>429.1</ele>
        <time>2025-11-19T12:27:37.625Z</time>
      </trkpt>
      <trkpt lat="43.73274" lon="6.08621">
        <ele>429.5</ele>
        <time>2025-11-19T12:27:40.625Z</time>
      </trkpt>
      <trkpt lat="43.73272" lon="6.08624">
        <ele>430</ele>
        <time>2025-11-19T12:27:43.626Z</time>
      </trkpt>
      <trkpt lat="43.7327" lon="6.08626">
        <ele>430.4</ele>
        <time>2025-11-19T12:27:46.625Z</time>
      </trkpt>
      <trkpt lat="43.73269" lon="6.0863">
        <ele>430.7</ele>
        <time>2025-11-19T12:27:49.626Z</time>
      </trkpt>
      <trkpt lat="43.73268" lon="6.08634">
        <ele>430.4</ele>
        <time>2025-11-19T12:27:53.625Z</time>
      </trkpt>
      <trkpt lat="43.73267" lon="6.08637">
        <ele>430.2</ele>
        <time>2025-11-19T12:27:56.625Z</time>
      </trkpt>
      <trkpt lat="43.73268" lon="6.08642">
        <ele>429</ele>
        <time>2025-11-19T12:27:59.626Z</time>
      </trkpt>
      <trkpt lat="43.73268" lon="6.08646">
        <ele>427.8</ele>
        <time>2025-11-19T12:28:02.625Z</time>
      </trkpt>
      <trkpt lat="43.73268" lon="6.0865">
        <ele>426.7</ele>
        <time>2025-11-19T12:28:05.625Z</time>
      </trkpt>
      <trkpt lat="43.73268" lon="6.08654">
        <ele>425.8</ele>
        <time>2025-11-19T12:28:08.625Z</time>
      </trkpt>
      <trkpt lat="43.73267" lon="6.08657">
        <ele>425.6</ele>
        <time>2025-11-19T12:28:11.626Z</time>
      </trkpt>
      <trkpt lat="43.73266" lon="6.08661">
        <ele>425.4</ele>
        <time>2025-11-19T12:28:14.625Z</time>
      </trkpt>
      <trkpt lat="43.73265" lon="6.08664">
        <ele>425.3</ele>
        <time>2025-11-19T12:28:17.626Z</time>
      </trkpt>
      <trkpt lat="43.73265" lon="6.08667">
        <ele>424.7</ele>
        <time>2025-11-19T12:28:20.626Z</time>
      </trkpt>
      <trkpt lat="43.73264" lon="6.08671">
        <ele>425.5</ele>
        <time>2025-11-19T12:28:22.626Z</time>
      </trkpt>
      <trkpt lat="43.73263" lon="6.08675">
        <ele>426</ele>
        <time>2025-11-19T12:28:25.625Z</time>
      </trkpt>
      <trkpt lat="43.73263" lon="6.08678">
        <ele>426.3</ele>
        <time>2025-11-19T12:28:27.625Z</time>
      </trkpt>
      <trkpt lat="43.73262" lon="6.08682">
        <ele>426.3</ele>
        <time>2025-11-19T12:28:30.626Z</time>
      </trkpt>
      <trkpt lat="43.73262" lon="6.08686">
        <ele>426.4</ele>
        <time>2025-11-19T12:28:34.625Z</time>
      </trkpt>
      <trkpt lat="43.73261" lon="6.0869">
        <ele>427</ele>
        <time>2025-11-19T12:28:37.625Z</time>
      </trkpt>
      <trkpt lat="43.7326" lon="6.08693">
        <ele>428.1</ele>
        <time>2025-11-19T12:28:40.625Z</time>
      </trkpt>
      <trkpt lat="43.73259" lon="6.08697">
        <ele>429.3</ele>
        <time>2025-11-19T12:28:43.625Z</time>
      </trkpt>
      <trkpt lat="43.73257" lon="6.087">
        <ele>431</ele>
        <time>2025-11-19T12:28:46.626Z</time>
      </trkpt>
      <trkpt lat="43.73256" lon="6.08703">
        <ele>431.7</ele>
        <time>2025-11-19T12:28:49.625Z</time>
      </trkpt>
      <trkpt lat="43.73256" lon="6.08706">
        <ele>432.5</ele>
        <time>2025-11-19T12:28:51.626Z</time>
      </trkpt>
      <trkpt lat="43.73255" lon="6.0871">
        <ele>433.1</ele>
        <time>2025-11-19T12:28:54.625Z</time>
      </trkpt>
      <trkpt lat="43.73254" lon="6.08713">
        <ele>433.6</ele>
        <time>2025-11-19T12:28:57.625Z</time>
      </trkpt>
      <trkpt lat="43.73253" lon="6.08717">
        <ele>434.1</ele>
        <time>2025-11-19T12:29:00.626Z</time>
      </trkpt>
      <trkpt lat="43.73252" lon="6.08721">
        <ele>435.2</ele>
        <time>2025-11-19T12:29:04.625Z</time>
      </trkpt>
      <trkpt lat="43.73249" lon="6.08722">
        <ele>436.4</ele>
        <time>2025-11-19T12:29:06.625Z</time>
      </trkpt>
      <trkpt lat="43.73247" lon="6.08725">
        <ele>436.5</ele>
        <time>2025-11-19T12:29:09.625Z</time>
      </trkpt>
      <trkpt lat="43.73247" lon="6.0873">
        <ele>436.1</ele>
        <time>2025-11-19T12:29:12.626Z</time>
      </trkpt>
      <trkpt lat="43.73246" lon="6.08733">
        <ele>435.8</ele>
        <time>2025-11-19T12:29:15.625Z</time>
      </trkpt>
      <trkpt lat="43.73244" lon="6.08736">
        <ele>436</ele>
        <time>2025-11-19T12:29:18.626Z</time>
      </trkpt>
      <trkpt lat="43.73242" lon="6.08738">
        <ele>436.1</ele>
        <time>2025-11-19T12:29:22.625Z</time>
      </trkpt>
      <trkpt lat="43.7324" lon="6.08741">
        <ele>436.2</ele>
        <time>2025-11-19T12:29:26.626Z</time>
      </trkpt>
      <trkpt lat="43.73237" lon="6.08743">
        <ele>436.7</ele>
        <time>2025-11-19T12:29:29.625Z</time>
      </trkpt>
      <trkpt lat="43.73235" lon="6.08744">
        <ele>437</ele>
        <time>2025-11-19T12:29:31.626Z</time>
      </trkpt>
      <trkpt lat="43.73232" lon="6.08746">
        <ele>437.3</ele>
        <time>2025-11-19T12:29:34.626Z</time>
      </trkpt>
      <trkpt lat="43.73229" lon="6.08749">
        <ele>437.6</ele>
        <time>2025-11-19T12:29:37.626Z</time>
      </trkpt>
      <trkpt lat="43.73227" lon="6.08749">
        <ele>438.1</ele>
        <time>2025-11-19T12:29:40.625Z</time>
      </trkpt>
      <trkpt lat="43.73224" lon="6.0875">
        <ele>438.7</ele>
        <time>2025-11-19T12:29:43.625Z</time>
      </trkpt>
      <trkpt lat="43.73221" lon="6.08749">
        <ele>439.2</ele>
        <time>2025-11-19T12:29:46.626Z</time>
      </trkpt>
      <trkpt lat="43.73219" lon="6.0875">
        <ele>439</ele>
        <time>2025-11-19T12:29:49.625Z</time>
      </trkpt>
      <trkpt lat="43.73216" lon="6.0875">
        <ele>438.9</ele>
        <time>2025-11-19T12:29:52.626Z</time>
      </trkpt>
      <trkpt lat="43.73213" lon="6.0875">
        <ele>439</ele>
        <time>2025-11-19T12:29:55.626Z</time>
      </trkpt>
      <trkpt lat="43.7321" lon="6.08749">
        <ele>439.2</ele>
        <time>2025-11-19T12:29:59.625Z</time>
      </trkpt>
      <trkpt lat="43.73207" lon="6.08748">
        <ele>439.6</ele>
        <time>2025-11-19T12:30:02.625Z</time>
      </trkpt>
      <trkpt lat="43.73205" lon="6.08748">
        <ele>439.6</ele>
        <time>2025-11-19T12:30:04.626Z</time>
      </trkpt>
      <trkpt lat="43.73202" lon="6.08747">
        <ele>440</ele>
        <time>2025-11-19T12:30:07.626Z</time>
      </trkpt>
      <trkpt lat="43.73199" lon="6.08746">
        <ele>440.4</ele>
        <time>2025-11-19T12:30:10.626Z</time>
      </trkpt>
      <trkpt lat="43.73197" lon="6.08744">
        <ele>440.8</ele>
        <time>2025-11-19T12:30:13.626Z</time>
      </trkpt>
      <trkpt lat="43.73194" lon="6.08742">
        <ele>441.6</ele>
        <time>2025-11-19T12:30:17.625Z</time>
      </trkpt>
      <trkpt lat="43.73191" lon="6.08741">
        <ele>441.9</ele>
        <time>2025-11-19T12:30:20.625Z</time>
      </trkpt>
      <trkpt lat="43.73188" lon="6.08741">
        <ele>441.9</ele>
        <time>2025-11-19T12:30:23.625Z</time>
      </trkpt>
      <trkpt lat="43.73185" lon="6.08741">
        <ele>441.9</ele>
        <time>2025-11-19T12:30:27.625Z</time>
      </trkpt>
      <trkpt lat="43.73183" lon="6.0874">
        <ele>442</ele>
        <time>2025-11-19T12:30:31.626Z</time>
      </trkpt>
      <trkpt lat="43.7318" lon="6.08739">
        <ele>442.4</ele>
        <time>2025-11-19T12:30:34.626Z</time>
      </trkpt>
      <trkpt lat="43.73177" lon="6.08738">
        <ele>442.5</ele>
        <time>2025-11-19T12:30:38.626Z</time>
      </trkpt>
      <trkpt lat="43.73176" lon="6.08735">
        <ele>443.4</ele>
        <time>2025-11-19T12:30:47.625Z</time>
      </trkpt>
      <trkpt lat="43.73172" lon="6.08734">
        <ele>443.9</ele>
        <time>2025-11-19T12:30:53.626Z</time>
      </trkpt>
      <trkpt lat="43.7317" lon="6.08733">
        <ele>443.9</ele>
        <time>2025-11-19T12:30:56.625Z</time>
      </trkpt>
      <trkpt lat="43.73168" lon="6.08732">
        <ele>444.2</ele>
        <time>2025-11-19T12:30:59.626Z</time>
      </trkpt>
      <trkpt lat="43.73165" lon="6.08731">
        <ele>444.5</ele>
        <time>2025-11-19T12:31:03.625Z</time>
      </trkpt>
      <trkpt lat="43.73163" lon="6.0873">
        <ele>444.7</ele>
        <time>2025-11-19T12:31:06.626Z</time>
      </trkpt>
      <trkpt lat="43.7316" lon="6.08731">
        <ele>444.5</ele>
        <time>2025-11-19T12:31:09.626Z</time>
      </trkpt>
      <trkpt lat="43.73158" lon="6.08732">
        <ele>444.4</ele>
        <time>2025-11-19T12:31:11.626Z</time>
      </trkpt>
      <trkpt lat="43.73155" lon="6.08733">
        <ele>444.1</ele>
        <time>2025-11-19T12:31:14.625Z</time>
      </trkpt>
      <trkpt lat="43.73153" lon="6.08733">
        <ele>444</ele>
        <time>2025-11-19T12:31:18.625Z</time>
      </trkpt>
      <trkpt lat="43.7315" lon="6.08733">
        <ele>443.9</ele>
        <time>2025-11-19T12:31:21.626Z</time>
      </trkpt>
      <trkpt lat="43.73148" lon="6.08733">
        <ele>444</ele>
        <time>2025-11-19T12:31:24.626Z</time>
      </trkpt>
      <trkpt lat="43.73146" lon="6.08732">
        <ele>444.4</ele>
        <time>2025-11-19T12:31:27.625Z</time>
      </trkpt>
      <trkpt lat="43.73143" lon="6.08731">
        <ele>444.9</ele>
        <time>2025-11-19T12:31:30.625Z</time>
      </trkpt>
      <trkpt lat="43.7314" lon="6.08729">
        <ele>445.4</ele>
        <time>2025-11-19T12:31:33.625Z</time>
      </trkpt>
      <trkpt lat="43.73137" lon="6.08726">
        <ele>446.8</ele>
        <time>2025-11-19T12:31:40.626Z</time>
      </trkpt>
      <trkpt lat="43.73134" lon="6.08726">
        <ele>447.5</ele>
        <time>2025-11-19T12:31:44.625Z</time>
      </trkpt>
      <trkpt lat="43.73132" lon="6.08727">
        <ele>447.4</ele>
        <time>2025-11-19T12:31:47.625Z</time>
      </trkpt>
      <trkpt lat="43.7313" lon="6.08729">
        <ele>447.3</ele>
        <time>2025-11-19T12:31:50.626Z</time>
      </trkpt>
      <trkpt lat="43.73127" lon="6.0873">
        <ele>447.3</ele>
        <time>2025-11-19T12:31:54.626Z</time>
      </trkpt>
      <trkpt lat="43.73124" lon="6.08729">
        <ele>447.9</ele>
        <time>2025-11-19T12:31:57.626Z</time>
      </trkpt>
      <trkpt lat="43.73122" lon="6.08731">
        <ele>447.9</ele>
        <time>2025-11-19T12:32:01.626Z</time>
      </trkpt>
      <trkpt lat="43.73119" lon="6.0873">
        <ele>448.5</ele>
        <time>2025-11-19T12:32:04.625Z</time>
      </trkpt>
      <trkpt lat="43.73117" lon="6.08732">
        <ele>448.5</ele>
        <time>2025-11-19T12:32:07.626Z</time>
      </trkpt>
      <trkpt lat="43.73114" lon="6.08733">
        <ele>448.7</ele>
        <time>2025-11-19T12:32:10.626Z</time>
      </trkpt>
      <trkpt lat="43.73111" lon="6.08734">
        <ele>449.1</ele>
        <time>2025-11-19T12:32:13.626Z</time>
      </trkpt>
      <trkpt lat="43.73108" lon="6.08734">
        <ele>449.3</ele>
        <time>2025-11-19T12:32:16.626Z</time>
      </trkpt>
      <trkpt lat="43.73106" lon="6.08734">
        <ele>449.7</ele>
        <time>2025-11-19T12:32:19.626Z</time>
      </trkpt>
      <trkpt lat="43.73103" lon="6.08734">
        <ele>450</ele>
        <time>2025-11-19T12:32:22.626Z</time>
      </trkpt>
      <trkpt lat="43.731" lon="6.08735">
        <ele>450.3</ele>
        <time>2025-11-19T12:32:26.626Z</time>
      </trkpt>
      <trkpt lat="43.73098" lon="6.08735">
        <ele>450.5</ele>
        <time>2025-11-19T12:32:29.626Z</time>
      </trkpt>
      <trkpt lat="43.73095" lon="6.08736">
        <ele>450.6</ele>
        <time>2025-11-19T12:32:32.626Z</time>
      </trkpt>
      <trkpt lat="43.73093" lon="6.08736">
        <ele>450.8</ele>
        <time>2025-11-19T12:32:35.626Z</time>
      </trkpt>
      <trkpt lat="43.7309" lon="6.08736">
        <ele>451.3</ele>
        <time>2025-11-19T12:32:38.626Z</time>
      </trkpt>
      <trkpt lat="43.73087" lon="6.08736">
        <ele>451.7</ele>
        <time>2025-11-19T12:32:41.626Z</time>
      </trkpt>
      <trkpt lat="43.73084" lon="6.08737">
        <ele>451.9</ele>
        <time>2025-11-19T12:32:44.626Z</time>
      </trkpt>
      <trkpt lat="43.73081" lon="6.08737">
        <ele>452.1</ele>
        <time>2025-11-19T12:32:47.626Z</time>
      </trkpt>
      <trkpt lat="43.73078" lon="6.08739">
        <ele>451.9</ele>
        <time>2025-11-19T12:32:50.626Z</time>
      </trkpt>
      <trkpt lat="43.73075" lon="6.08739">
        <ele>452.2</ele>
        <time>2025-11-19T12:32:53.626Z</time>
      </trkpt>
      <trkpt lat="43.73072" lon="6.0874">
        <ele>452.2</ele>
        <time>2025-11-19T12:32:56.626Z</time>
      </trkpt>
      <trkpt lat="43.73069" lon="6.0874">
        <ele>452.6</ele>
        <time>2025-11-19T12:32:59.626Z</time>
      </trkpt>
      <trkpt lat="43.73066" lon="6.0874">
        <ele>452.9</ele>
        <time>2025-11-19T12:33:03.626Z</time>
      </trkpt>
      <trkpt lat="43.73064" lon="6.0874">
        <ele>453.1</ele>
        <time>2025-11-19T12:33:06.626Z</time>
      </trkpt>
      <trkpt lat="43.73062" lon="6.08739">
        <ele>453.7</ele>
        <time>2025-11-19T12:33:09.626Z</time>
      </trkpt>
      <trkpt lat="43.73059" lon="6.08738">
        <ele>454.2</ele>
        <time>2025-11-19T12:33:13.626Z</time>
      </trkpt>
      <trkpt lat="43.73057" lon="6.08737">
        <ele>454.6</ele>
        <time>2025-11-19T12:33:16.626Z</time>
      </trkpt>
      <trkpt lat="43.73055" lon="6.08738">
        <ele>454.8</ele>
        <time>2025-11-19T12:33:19.626Z</time>
      </trkpt>
      <trkpt lat="43.73052" lon="6.08738">
        <ele>455</ele>
        <time>2025-11-19T12:33:22.625Z</time>
      </trkpt>
      <trkpt lat="43.7305" lon="6.08738">
        <ele>455.4</ele>
        <time>2025-11-19T12:33:25.625Z</time>
      </trkpt>
      <trkpt lat="43.73047" lon="6.08739">
        <ele>455.6</ele>
        <time>2025-11-19T12:33:28.626Z</time>
      </trkpt>
      <trkpt lat="43.73045" lon="6.0874">
        <ele>455.6</ele>
        <time>2025-11-19T12:33:31.626Z</time>
      </trkpt>
      <trkpt lat="43.73043" lon="6.08743">
        <ele>455.2</ele>
        <time>2025-11-19T12:33:35.626Z</time>
      </trkpt>
      <trkpt lat="43.7304" lon="6.08746">
        <ele>455</ele>
        <time>2025-11-19T12:33:38.626Z</time>
      </trkpt>
      <trkpt lat="43.73038" lon="6.08748">
        <ele>454.9</ele>
        <time>2025-11-19T12:33:40.626Z</time>
      </trkpt>
      <trkpt lat="43.73036" lon="6.08749">
        <ele>454.9</ele>
        <time>2025-11-19T12:33:42.626Z</time>
      </trkpt>
      <trkpt lat="43.73033" lon="6.08751">
        <ele>454.9</ele>
        <time>2025-11-19T12:33:45.626Z</time>
      </trkpt>
      <trkpt lat="43.73031" lon="6.08753">
        <ele>454.8</ele>
        <time>2025-11-19T12:33:47.626Z</time>
      </trkpt>
      <trkpt lat="43.73029" lon="6.08754">
        <ele>454.9</ele>
        <time>2025-11-19T12:33:50.626Z</time>
      </trkpt>
      <trkpt lat="43.73026" lon="6.08756">
        <ele>454.9</ele>
        <time>2025-11-19T12:33:54.625Z</time>
      </trkpt>
      <trkpt lat="43.73023" lon="6.08758">
        <ele>454.7</ele>
        <time>2025-11-19T12:33:57.626Z</time>
      </trkpt>
      <trkpt lat="43.73021" lon="6.08758">
        <ele>454.8</ele>
        <time>2025-11-19T12:34:00.626Z</time>
      </trkpt>
      <trkpt lat="43.73019" lon="6.08756">
        <ele>455.5</ele>
        <time>2025-11-19T12:34:04.626Z</time>
      </trkpt>
      <trkpt lat="43.73016" lon="6.08756">
        <ele>455.8</ele>
        <time>2025-11-19T12:34:07.626Z</time>
      </trkpt>
      <trkpt lat="43.73014" lon="6.08758">
        <ele>455.4</ele>
        <time>2025-11-19T12:34:09.626Z</time>
      </trkpt>
      <trkpt lat="43.73011" lon="6.0876">
        <ele>455.3</ele>
        <time>2025-11-19T12:34:13.626Z</time>
      </trkpt>
      <trkpt lat="43.73008" lon="6.08761">
        <ele>455.3</ele>
        <time>2025-11-19T12:34:15.626Z</time>
      </trkpt>
      <trkpt lat="43.73005" lon="6.08762">
        <ele>455.1</ele>
        <time>2025-11-19T12:34:18.626Z</time>
      </trkpt>
      <trkpt lat="43.73002" lon="6.08762">
        <ele>455.3</ele>
        <time>2025-11-19T12:34:21.626Z</time>
      </trkpt>
      <trkpt lat="43.73" lon="6.08762">
        <ele>455.7</ele>
        <time>2025-11-19T12:34:23.626Z</time>
      </trkpt>
      <trkpt lat="43.72998" lon="6.08761">
        <ele>456</ele>
        <time>2025-11-19T12:34:26.626Z</time>
      </trkpt>
      <trkpt lat="43.72994" lon="6.08761">
        <ele>456.4</ele>
        <time>2025-11-19T12:34:29.626Z</time>
      </trkpt>
      <trkpt lat="43.72991" lon="6.0876">
        <ele>456.7</ele>
        <time>2025-11-19T12:34:32.626Z</time>
      </trkpt>
      <trkpt lat="43.72989" lon="6.0876">
        <ele>456.9</ele>
        <time>2025-11-19T12:34:35.626Z</time>
      </trkpt>
      <trkpt lat="43.72986" lon="6.0876">
        <ele>457.3</ele>
        <time>2025-11-19T12:34:39.626Z</time>
      </trkpt>
      <trkpt lat="43.72984" lon="6.08759">
        <ele>457.8</ele>
        <time>2025-11-19T12:34:42.626Z</time>
      </trkpt>
      <trkpt lat="43.72981" lon="6.08758">
        <ele>458.2</ele>
        <time>2025-11-19T12:34:45.625Z</time>
      </trkpt>
      <trkpt lat="43.72978" lon="6.08758">
        <ele>458.4</ele>
        <time>2025-11-19T12:34:50.626Z</time>
      </trkpt>
      <trkpt lat="43.72976" lon="6.0876">
        <ele>458.3</ele>
        <time>2025-11-19T12:34:53.626Z</time>
      </trkpt>
      <trkpt lat="43.72973" lon="6.08761">
        <ele>458.2</ele>
        <time>2025-11-19T12:34:56.626Z</time>
      </trkpt>
      <trkpt lat="43.72971" lon="6.08761">
        <ele>458.6</ele>
        <time>2025-11-19T12:34:59.626Z</time>
      </trkpt>
      <trkpt lat="43.72968" lon="6.08762">
        <ele>459</ele>
        <time>2025-11-19T12:35:02.626Z</time>
      </trkpt>
      <trkpt lat="43.72966" lon="6.08765">
        <ele>458.9</ele>
        <time>2025-11-19T12:35:05.626Z</time>
      </trkpt>
      <trkpt lat="43.72964" lon="6.08768">
        <ele>458.6</ele>
        <time>2025-11-19T12:35:08.626Z</time>
      </trkpt>
      <trkpt lat="43.72962" lon="6.08771">
        <ele>458.4</ele>
        <time>2025-11-19T12:35:11.626Z</time>
      </trkpt>
      <trkpt lat="43.7296" lon="6.08774">
        <ele>458.3</ele>
        <time>2025-11-19T12:35:14.625Z</time>
      </trkpt>
      <trkpt lat="43.72959" lon="6.08777">
        <ele>458</ele>
        <time>2025-11-19T12:35:17.626Z</time>
      </trkpt>
      <trkpt lat="43.72957" lon="6.08781">
        <ele>457.6</ele>
        <time>2025-11-19T12:35:22.626Z</time>
      </trkpt>
      <trkpt lat="43.72955" lon="6.08784">
        <ele>457.7</ele>
        <time>2025-11-19T12:35:24.626Z</time>
      </trkpt>
      <trkpt lat="43.72953" lon="6.08787">
        <ele>457.9</ele>
        <time>2025-11-19T12:35:27.626Z</time>
      </trkpt>
      <trkpt lat="43.72951" lon="6.0879">
        <ele>458.3</ele>
        <time>2025-11-19T12:35:31.626Z</time>
      </trkpt>
      <trkpt lat="43.72949" lon="6.08793">
        <ele>458.7</ele>
        <time>2025-11-19T12:35:34.626Z</time>
      </trkpt>
      <trkpt lat="43.72946" lon="6.08795">
        <ele>459.4</ele>
        <time>2025-11-19T12:35:37.626Z</time>
      </trkpt>
      <trkpt lat="43.72944" lon="6.08798">
        <ele>460</ele>
        <time>2025-11-19T12:35:41.626Z</time>
      </trkpt>
      <trkpt lat="43.72943" lon="6.08801">
        <ele>459.9</ele>
        <time>2025-11-19T12:35:44.626Z</time>
      </trkpt>
      <trkpt lat="43.72941" lon="6.08804">
        <ele>460.2</ele>
        <time>2025-11-19T12:35:47.626Z</time>
      </trkpt>
      <trkpt lat="43.7294" lon="6.08807">
        <ele>460.1</ele>
        <time>2025-11-19T12:35:50.626Z</time>
      </trkpt>
      <trkpt lat="43.72938" lon="6.0881">
        <ele>459.7</ele>
        <time>2025-11-19T12:35:53.626Z</time>
      </trkpt>
      <trkpt lat="43.72936" lon="6.08813">
        <ele>459.6</ele>
        <time>2025-11-19T12:35:56.626Z</time>
      </trkpt>
      <trkpt lat="43.72934" lon="6.08816">
        <ele>459.3</ele>
        <time>2025-11-19T12:35:59.626Z</time>
      </trkpt>
      <trkpt lat="43.72932" lon="6.08818">
        <ele>459.5</ele>
        <time>2025-11-19T12:36:02.626Z</time>
      </trkpt>
      <trkpt lat="43.7293" lon="6.08821">
        <ele>459.3</ele>
        <time>2025-11-19T12:36:07.626Z</time>
      </trkpt>
      <trkpt lat="43.7293" lon="6.08824">
        <ele>458.4</ele>
        <time>2025-11-19T12:36:11.626Z</time>
      </trkpt>
      <trkpt lat="43.7293" lon="6.08828">
        <ele>457.6</ele>
        <time>2025-11-19T12:36:14.626Z</time>
      </trkpt>
      <trkpt lat="43.72927" lon="6.0883">
        <ele>457.9</ele>
        <time>2025-11-19T12:36:17.626Z</time>
      </trkpt>
      <trkpt lat="43.72925" lon="6.0883">
        <ele>458.5</ele>
        <time>2025-11-19T12:36:19.626Z</time>
      </trkpt>
      <trkpt lat="43.72923" lon="6.08829">
        <ele>459.5</ele>
        <time>2025-11-19T12:36:23.626Z</time>
      </trkpt>
      <trkpt lat="43.7292" lon="6.08828">
        <ele>460.4</ele>
        <time>2025-11-19T12:36:27.626Z</time>
      </trkpt>
      <trkpt lat="43.72917" lon="6.08829">
        <ele>461.2</ele>
        <time>2025-11-19T12:36:30.626Z</time>
      </trkpt>
      <trkpt lat="43.72914" lon="6.08828">
        <ele>461.6</ele>
        <time>2025-11-19T12:36:33.626Z</time>
      </trkpt>
      <trkpt lat="43.72912" lon="6.0883">
        <ele>461.6</ele>
        <time>2025-11-19T12:36:36.627Z</time>
      </trkpt>
      <trkpt lat="43.72909" lon="6.08833">
        <ele>461.2</ele>
        <time>2025-11-19T12:36:40.626Z</time>
      </trkpt>
      <trkpt lat="43.72907" lon="6.08835">
        <ele>460.9</ele>
        <time>2025-11-19T12:36:43.626Z</time>
      </trkpt>
      <trkpt lat="43.72904" lon="6.08837">
        <ele>460.7</ele>
        <time>2025-11-19T12:36:45.627Z</time>
      </trkpt>
      <trkpt lat="43.72903" lon="6.08841">
        <ele>460</ele>
        <time>2025-11-19T12:36:48.626Z</time>
      </trkpt>
      <trkpt lat="43.72901" lon="6.08844">
        <ele>459.6</ele>
        <time>2025-11-19T12:36:51.627Z</time>
      </trkpt>
      <trkpt lat="43.72899" lon="6.08846">
        <ele>459.5</ele>
        <time>2025-11-19T12:36:53.626Z</time>
      </trkpt>
      <trkpt lat="43.72896" lon="6.08849">
        <ele>459.6</ele>
        <time>2025-11-19T12:36:56.626Z</time>
      </trkpt>
      <trkpt lat="43.72893" lon="6.0885">
        <ele>459.9</ele>
        <time>2025-11-19T12:36:59.627Z</time>
      </trkpt>
      <trkpt lat="43.72891" lon="6.08852">
        <ele>460</ele>
        <time>2025-11-19T12:37:01.626Z</time>
      </trkpt>
      <trkpt lat="43.72889" lon="6.08853">
        <ele>460.4</ele>
        <time>2025-11-19T12:37:03.626Z</time>
      </trkpt>
      <trkpt lat="43.72887" lon="6.08855">
        <ele>460.3</ele>
        <time>2025-11-19T12:37:05.626Z</time>
      </trkpt>
      <trkpt lat="43.72884" lon="6.08857">
        <ele>460.1</ele>
        <time>2025-11-19T12:37:08.626Z</time>
      </trkpt>
      <trkpt lat="43.72882" lon="6.08859">
        <ele>460.2</ele>
        <time>2025-11-19T12:37:11.626Z</time>
      </trkpt>
      <trkpt lat="43.72878" lon="6.08859">
        <ele>460.4</ele>
        <time>2025-11-19T12:37:15.626Z</time>
      </trkpt>
      <trkpt lat="43.72876" lon="6.08861">
        <ele>460.4</ele>
        <time>2025-11-19T12:37:17.626Z</time>
      </trkpt>
      <trkpt lat="43.72874" lon="6.08863">
        <ele>460.3</ele>
        <time>2025-11-19T12:37:19.627Z</time>
      </trkpt>
      <trkpt lat="43.72873" lon="6.08865">
        <ele>460</ele>
        <time>2025-11-19T12:37:21.626Z</time>
      </trkpt>
      <trkpt lat="43.7287" lon="6.08867">
        <ele>460</ele>
        <time>2025-11-19T12:37:24.626Z</time>
      </trkpt>
      <trkpt lat="43.72868" lon="6.08869">
        <ele>460.2</ele>
        <time>2025-11-19T12:37:28.626Z</time>
      </trkpt>
      <trkpt lat="43.72865" lon="6.08869">
        <ele>460.5</ele>
        <time>2025-11-19T12:37:31.626Z</time>
      </trkpt>
      <trkpt lat="43.72863" lon="6.08871">
        <ele>460.7</ele>
        <time>2025-11-19T12:37:35.626Z</time>
      </trkpt>
      <trkpt lat="43.72861" lon="6.08874">
        <ele>460.6</ele>
        <time>2025-11-19T12:37:39.626Z</time>
      </trkpt>
      <trkpt lat="43.7286" lon="6.08877">
        <ele>460.2</ele>
        <time>2025-11-19T12:37:42.626Z</time>
      </trkpt>
      <trkpt lat="43.72858" lon="6.0888">
        <ele>459.9</ele>
        <time>2025-11-19T12:37:45.626Z</time>
      </trkpt>
      <trkpt lat="43.72857" lon="6.08883">
        <ele>459.4</ele>
        <time>2025-11-19T12:37:49.626Z</time>
      </trkpt>
      <trkpt lat="43.72855" lon="6.08885">
        <ele>459.2</ele>
        <time>2025-11-19T12:37:51.626Z</time>
      </trkpt>
      <trkpt lat="43.72853" lon="6.08886">
        <ele>458.9</ele>
        <time>2025-11-19T12:37:54.627Z</time>
      </trkpt>
      <trkpt lat="43.72851" lon="6.08887">
        <ele>458.8</ele>
        <time>2025-11-19T12:37:56.626Z</time>
      </trkpt>
      <trkpt lat="43.72848" lon="6.08889">
        <ele>458.6</ele>
        <time>2025-11-19T12:37:59.626Z</time>
      </trkpt>
      <trkpt lat="43.72847" lon="6.08892">
        <ele>458.1</ele>
        <time>2025-11-19T12:38:02.626Z</time>
      </trkpt>
      <trkpt lat="43.72845" lon="6.08894">
        <ele>457.8</ele>
        <time>2025-11-19T12:38:06.626Z</time>
      </trkpt>
      <trkpt lat="43.72844" lon="6.08897">
        <ele>457.3</ele>
        <time>2025-11-19T12:38:13.627Z</time>
      </trkpt>
      <trkpt lat="43.72842" lon="6.08899">
        <ele>457</ele>
        <time>2025-11-19T12:38:16.626Z</time>
      </trkpt>
      <trkpt lat="43.7284" lon="6.08901">
        <ele>456.6</ele>
        <time>2025-11-19T12:38:20.627Z</time>
      </trkpt>
      <trkpt lat="43.72838" lon="6.08903">
        <ele>456.2</ele>
        <time>2025-11-19T12:38:24.626Z</time>
      </trkpt>
      <trkpt lat="43.7284" lon="6.08907">
        <ele>455.8</ele>
        <time>2025-11-19T12:38:28.626Z</time>
      </trkpt>
      <trkpt lat="43.72842" lon="6.08909">
        <ele>455.6</ele>
        <time>2025-11-19T12:38:31.627Z</time>
      </trkpt>
      <trkpt lat="43.72843" lon="6.08912">
        <ele>455.3</ele>
        <time>2025-11-19T12:38:35.627Z</time>
      </trkpt>
      <trkpt lat="43.72843" lon="6.08916">
        <ele>454.8</ele>
        <time>2025-11-19T12:38:40.627Z</time>
      </trkpt>
      <trkpt lat="43.72844" lon="6.0892">
        <ele>454.1</ele>
        <time>2025-11-19T12:38:50.627Z</time>
      </trkpt>
      <trkpt lat="43.72842" lon="6.08922">
        <ele>453.7</ele>
        <time>2025-11-19T12:39:16.626Z</time>
      </trkpt>
      <trkpt lat="43.7284" lon="6.08924">
        <ele>453.3</ele>
        <time>2025-11-19T12:39:27.626Z</time>
      </trkpt>
      <trkpt lat="43.7284" lon="6.08927">
        <ele>452.7</ele>
        <time>2025-11-19T12:39:36.626Z</time>
      </trkpt>
      <trkpt lat="43.72839" lon="6.0893">
        <ele>452.2</ele>
        <time>2025-11-19T12:39:52.626Z</time>
      </trkpt>
      <trkpt lat="43.72838" lon="6.08933">
        <ele>451.6</ele>
        <time>2025-11-19T12:40:21.627Z</time>
      </trkpt>
      <trkpt lat="43.72839" lon="6.08939">
        <ele>450.7</ele>
        <time>2025-11-19T12:40:57.627Z</time>
      </trkpt>
      <trkpt lat="43.72839" lon="6.08943">
        <ele>450</ele>
        <time>2025-11-19T12:41:01.627Z</time>
      </trkpt>
      <trkpt lat="43.7284" lon="6.08947">
        <ele>449.4</ele>
        <time>2025-11-19T12:41:06.626Z</time>
      </trkpt>
      <trkpt lat="43.72841" lon="6.08949">
        <ele>448.8</ele>
        <time>2025-11-19T12:41:09.627Z</time>
      </trkpt>
      <trkpt lat="43.72843" lon="6.08952">
        <ele>448.2</ele>
        <time>2025-11-19T12:41:16.626Z</time>
      </trkpt>
      <trkpt lat="43.72843" lon="6.08957">
        <ele>447.5</ele>
        <time>2025-11-19T12:41:20.626Z</time>
      </trkpt>
      <trkpt lat="43.72842" lon="6.0896">
        <ele>446.9</ele>
        <time>2025-11-19T12:41:27.626Z</time>
      </trkpt>
      <trkpt lat="43.72843" lon="6.08964">
        <ele>446.2</ele>
        <time>2025-11-19T12:41:41.626Z</time>
      </trkpt>
      <trkpt lat="43.72843" lon="6.08967">
        <ele>445.5</ele>
        <time>2025-11-19T12:42:08.627Z</time>
      </trkpt>
      <trkpt lat="43.7284" lon="6.08968">
        <ele>445.8</ele>
        <time>2025-11-19T12:42:29.626Z</time>
      </trkpt>
      <trkpt lat="43.72838" lon="6.08971">
        <ele>445.5</ele>
        <time>2025-11-19T12:42:43.626Z</time>
      </trkpt>
      <trkpt lat="43.72838" lon="6.08975">
        <ele>444.9</ele>
        <time>2025-11-19T12:42:59.627Z</time>
      </trkpt>
      <trkpt lat="43.72837" lon="6.08979">
        <ele>444.3</ele>
        <time>2025-11-19T12:43:03.627Z</time>
      </trkpt>
      <trkpt lat="43.72835" lon="6.08981">
        <ele>444.2</ele>
        <time>2025-11-19T12:43:18.627Z</time>
      </trkpt>
      <trkpt lat="43.72836" lon="6.08984">
        <ele>443.5</ele>
        <time>2025-11-19T12:43:25.626Z</time>
      </trkpt>
      <trkpt lat="43.72838" lon="6.08986">
        <ele>442.6</ele>
        <time>2025-11-19T12:43:31.627Z</time>
      </trkpt>
      <trkpt lat="43.72838" lon="6.08989">
        <ele>441.8</ele>
        <time>2025-11-19T12:43:36.626Z</time>
      </trkpt>
      <trkpt lat="43.72836" lon="6.0899">
        <ele>442.1</ele>
        <time>2025-11-19T12:43:39.627Z</time>
      </trkpt>
      <trkpt lat="43.72834" lon="6.0899">
        <ele>442.7</ele>
        <time>2025-11-19T12:43:41.626Z</time>
      </trkpt>
      <trkpt lat="43.72831" lon="6.08989">
        <ele>442.8</ele>
        <time>2025-11-19T12:43:45.627Z</time>
      </trkpt>
      <trkpt lat="43.72828" lon="6.08988">
        <ele>442.7</ele>
        <time>2025-11-19T12:43:50.627Z</time>
      </trkpt>
      <trkpt lat="43.72826" lon="6.08991">
        <ele>442</ele>
        <time>2025-11-19T12:43:55.627Z</time>
      </trkpt>
      <trkpt lat="43.72825" lon="6.08994">
        <ele>441.4</ele>
        <time>2025-11-19T12:43:59.626Z</time>
      </trkpt>
      <trkpt lat="43.72823" lon="6.08997">
        <ele>440.8</ele>
        <time>2025-11-19T12:44:07.627Z</time>
      </trkpt>
      <trkpt lat="43.7282" lon="6.08999">
        <ele>440.2</ele>
        <time>2025-11-19T12:44:14.627Z</time>
      </trkpt>
      <trkpt lat="43.72817" lon="6.09001">
        <ele>439.6</ele>
        <time>2025-11-19T12:44:22.627Z</time>
      </trkpt>
      <trkpt lat="43.72818" lon="6.09005">
        <ele>438.9</ele>
        <time>2025-11-19T12:44:30.627Z</time>
      </trkpt>
      <trkpt lat="43.72821" lon="6.09007">
        <ele>438.6</ele>
        <time>2025-11-19T12:44:37.627Z</time>
      </trkpt>
      <trkpt lat="43.7282" lon="6.0901">
        <ele>437.8</ele>
        <time>2025-11-19T12:44:43.626Z</time>
      </trkpt>
      <trkpt lat="43.72818" lon="6.09012">
        <ele>437.4</ele>
        <time>2025-11-19T12:44:47.626Z</time>
      </trkpt>
      <trkpt lat="43.72816" lon="6.09014">
        <ele>436.9</ele>
        <time>2025-11-19T12:44:52.626Z</time>
      </trkpt>
      <trkpt lat="43.72813" lon="6.09015">
        <ele>436.9</ele>
        <time>2025-11-19T12:44:57.626Z</time>
      </trkpt>
      <trkpt lat="43.72811" lon="6.09016">
        <ele>436.6</ele>
        <time>2025-11-19T12:45:07.626Z</time>
      </trkpt>
      <trkpt lat="43.72808" lon="6.09018">
        <ele>436.4</ele>
        <time>2025-11-19T12:45:11.627Z</time>
      </trkpt>
      <trkpt lat="43.72809" lon="6.09021">
        <ele>435.8</ele>
        <time>2025-11-19T12:45:18.626Z</time>
      </trkpt>
      <trkpt lat="43.72808" lon="6.09026">
        <ele>435.1</ele>
        <time>2025-11-19T12:45:31.626Z</time>
      </trkpt>
      <trkpt lat="43.72807" lon="6.09029">
        <ele>434.5</ele>
        <time>2025-11-19T12:45:34.626Z</time>
      </trkpt>
      <trkpt lat="43.72805" lon="6.09032">
        <ele>434</ele>
        <time>2025-11-19T12:45:40.627Z</time>
      </trkpt>
      <trkpt lat="43.72805" lon="6.09036">
        <ele>433</ele>
        <time>2025-11-19T12:45:52.627Z</time>
      </trkpt>
      <trkpt lat="43.72804" lon="6.09039">
        <ele>432.2</ele>
        <time>2025-11-19T12:45:56.627Z</time>
      </trkpt>
      <trkpt lat="43.72803" lon="6.09042">
        <ele>431.5</ele>
        <time>2025-11-19T12:45:59.627Z</time>
      </trkpt>
      <trkpt lat="43.72799" lon="6.09042">
        <ele>431.6</ele>
        <time>2025-11-19T12:46:06.627Z</time>
      </trkpt>
      <trkpt lat="43.72797" lon="6.09043">
        <ele>431.5</ele>
        <time>2025-11-19T12:46:08.627Z</time>
      </trkpt>
      <trkpt lat="43.72794" lon="6.09044">
        <ele>431.5</ele>
        <time>2025-11-19T12:46:11.627Z</time>
      </trkpt>
      <trkpt lat="43.72791" lon="6.09045">
        <ele>431.5</ele>
        <time>2025-11-19T12:46:14.626Z</time>
      </trkpt>
      <trkpt lat="43.72789" lon="6.09046">
        <ele>431.4</ele>
        <time>2025-11-19T12:46:17.627Z</time>
      </trkpt>
      <trkpt lat="43.72787" lon="6.09047">
        <ele>431.4</ele>
        <time>2025-11-19T12:46:20.627Z</time>
      </trkpt>
      <trkpt lat="43.72784" lon="6.09048">
        <ele>431.4</ele>
        <time>2025-11-19T12:46:23.627Z</time>
      </trkpt>
      <trkpt lat="43.72782" lon="6.0905">
        <ele>431.3</ele>
        <time>2025-11-19T12:46:26.626Z</time>
      </trkpt>
      <trkpt lat="43.7278" lon="6.09054">
        <ele>431</ele>
        <time>2025-11-19T12:46:30.627Z</time>
      </trkpt>
      <trkpt lat="43.72779" lon="6.09057">
        <ele>430.6</ele>
        <time>2025-11-19T12:46:34.626Z</time>
      </trkpt>
      <trkpt lat="43.72779" lon="6.0906">
        <ele>430.1</ele>
        <time>2025-11-19T12:46:36.627Z</time>
      </trkpt>
      <trkpt lat="43.72778" lon="6.09063">
        <ele>429.6</ele>
        <time>2025-11-19T12:46:39.627Z</time>
      </trkpt>
      <trkpt lat="43.72776" lon="6.09066">
        <ele>429.2</ele>
        <time>2025-11-19T12:46:42.626Z</time>
      </trkpt>
      <trkpt lat="43.72774" lon="6.09069">
        <ele>428.9</ele>
        <time>2025-11-19T12:46:45.626Z</time>
      </trkpt>
      <trkpt lat="43.72772" lon="6.09071">
        <ele>428.7</ele>
        <time>2025-11-19T12:46:47.627Z</time>
      </trkpt>
      <trkpt lat="43.7277" lon="6.09074">
        <ele>428.3</ele>
        <time>2025-11-19T12:46:49.627Z</time>
      </trkpt>
      <trkpt lat="43.72769" lon="6.09077">
        <ele>427.9</ele>
        <time>2025-11-19T12:46:51.627Z</time>
      </trkpt>
      <trkpt lat="43.72769" lon="6.0908">
        <ele>427.5</ele>
        <time>2025-11-19T12:46:54.626Z</time>
      </trkpt>
      <trkpt lat="43.72768" lon="6.09084">
        <ele>426.8</ele>
        <time>2025-11-19T12:46:57.627Z</time>
      </trkpt>
      <trkpt lat="43.72769" lon="6.09088">
        <ele>425.8</ele>
        <time>2025-11-19T12:47:01.627Z</time>
      </trkpt>
      <trkpt lat="43.72768" lon="6.09093">
        <ele>425</ele>
        <time>2025-11-19T12:47:04.627Z</time>
      </trkpt>
      <trkpt lat="43.72766" lon="6.09095">
        <ele>424.6</ele>
        <time>2025-11-19T12:47:06.627Z</time>
      </trkpt>
      <trkpt lat="43.72764" lon="6.09097">
        <ele>424.5</ele>
        <time>2025-11-19T12:47:08.627Z</time>
      </trkpt>
      <trkpt lat="43.72762" lon="6.09097">
        <ele>424.8</ele>
        <time>2025-11-19T12:47:10.626Z</time>
      </trkpt>
      <trkpt lat="43.72759" lon="6.09096">
        <ele>425.5</ele>
        <time>2025-11-19T12:47:13.627Z</time>
      </trkpt>
      <trkpt lat="43.72757" lon="6.09096">
        <ele>425.8</ele>
        <time>2025-11-19T12:47:15.627Z</time>
      </trkpt>
      <trkpt lat="43.72754" lon="6.09096">
        <ele>426.1</ele>
        <time>2025-11-19T12:47:18.627Z</time>
      </trkpt>
      <trkpt lat="43.72751" lon="6.09097">
        <ele>426.3</ele>
        <time>2025-11-19T12:47:22.627Z</time>
      </trkpt>
      <trkpt lat="43.72749" lon="6.09098">
        <ele>426.4</ele>
        <time>2025-11-19T12:47:25.627Z</time>
      </trkpt>
      <trkpt lat="43.72745" lon="6.091">
        <ele>426.4</ele>
        <time>2025-11-19T12:47:29.627Z</time>
      </trkpt>
      <trkpt lat="43.72743" lon="6.09101">
        <ele>426.4</ele>
        <time>2025-11-19T12:47:31.627Z</time>
      </trkpt>
      <trkpt lat="43.7274" lon="6.09103">
        <ele>426.3</ele>
        <time>2025-11-19T12:47:34.626Z</time>
      </trkpt>
      <trkpt lat="43.72738" lon="6.09105">
        <ele>426.1</ele>
        <time>2025-11-19T12:47:36.627Z</time>
      </trkpt>
      <trkpt lat="43.72736" lon="6.09106">
        <ele>426.2</ele>
        <time>2025-11-19T12:47:38.627Z</time>
      </trkpt>
      <trkpt lat="43.72734" lon="6.09107">
        <ele>426.3</ele>
        <time>2025-11-19T12:47:41.627Z</time>
      </trkpt>
      <trkpt lat="43.72733" lon="6.09111">
        <ele>425.9</ele>
        <time>2025-11-19T12:47:44.627Z</time>
      </trkpt>
      <trkpt lat="43.72731" lon="6.09114">
        <ele>424.8</ele>
        <time>2025-11-19T12:47:48.627Z</time>
      </trkpt>
      <trkpt lat="43.72729" lon="6.09116">
        <ele>424.1</ele>
        <time>2025-11-19T12:47:51.627Z</time>
      </trkpt>
      <trkpt lat="43.72726" lon="6.09118">
        <ele>423.7</ele>
        <time>2025-11-19T12:47:54.627Z</time>
      </trkpt>
      <trkpt lat="43.72724" lon="6.09119">
        <ele>423.8</ele>
        <time>2025-11-19T12:47:57.627Z</time>
      </trkpt>
      <trkpt lat="43.7272" lon="6.09119">
        <ele>424</ele>
        <time>2025-11-19T12:48:00.627Z</time>
      </trkpt>
      <trkpt lat="43.72717" lon="6.09119">
        <ele>424.3</ele>
        <time>2025-11-19T12:48:03.627Z</time>
      </trkpt>
      <trkpt lat="43.72715" lon="6.0912">
        <ele>424</ele>
        <time>2025-11-19T12:48:06.627Z</time>
      </trkpt>
      <trkpt lat="43.72712" lon="6.09122">
        <ele>423.6</ele>
        <time>2025-11-19T12:48:09.627Z</time>
      </trkpt>
      <trkpt lat="43.7271" lon="6.09121">
        <ele>424.1</ele>
        <time>2025-11-19T12:48:19.627Z</time>
      </trkpt>
      <trkpt lat="43.72707" lon="6.09121">
        <ele>424.4</ele>
        <time>2025-11-19T12:48:25.627Z</time>
      </trkpt>
      <trkpt lat="43.72704" lon="6.0912">
        <ele>425</ele>
        <time>2025-11-19T12:48:29.627Z</time>
      </trkpt>
      <trkpt lat="43.72702" lon="6.09119">
        <ele>425.4</ele>
        <time>2025-11-19T12:48:32.627Z</time>
      </trkpt>
      <trkpt lat="43.72699" lon="6.0912">
        <ele>425.4</ele>
        <time>2025-11-19T12:48:35.627Z</time>
      </trkpt>
      <trkpt lat="43.72696" lon="6.09122">
        <ele>425.2</ele>
        <time>2025-11-19T12:48:38.627Z</time>
      </trkpt>
      <trkpt lat="43.72693" lon="6.09122">
        <ele>425.1</ele>
        <time>2025-11-19T12:48:41.627Z</time>
      </trkpt>
      <trkpt lat="43.7269" lon="6.09122">
        <ele>424.9</ele>
        <time>2025-11-19T12:48:44.627Z</time>
      </trkpt>
      <trkpt lat="43.72687" lon="6.09122">
        <ele>424.8</ele>
        <time>2025-11-19T12:48:47.627Z</time>
      </trkpt>
      <trkpt lat="43.72684" lon="6.09122">
        <ele>424.6</ele>
        <time>2025-11-19T12:48:49.627Z</time>
      </trkpt>
      <trkpt lat="43.72681" lon="6.09123">
        <ele>424.3</ele>
        <time>2025-11-19T12:48:52.627Z</time>
      </trkpt>
      <trkpt lat="43.72678" lon="6.09123">
        <ele>424.2</ele>
        <time>2025-11-19T12:48:55.627Z</time>
      </trkpt>
      <trkpt lat="43.72676" lon="6.09122">
        <ele>424.1</ele>
        <time>2025-11-19T12:48:57.627Z</time>
      </trkpt>
      <trkpt lat="43.72673" lon="6.09122">
        <ele>424</ele>
        <time>2025-11-19T12:49:00.627Z</time>
      </trkpt>
      <trkpt lat="43.7267" lon="6.09121">
        <ele>424.1</ele>
        <time>2025-11-19T12:49:03.627Z</time>
      </trkpt>
      <trkpt lat="43.72668" lon="6.09121">
        <ele>424.1</ele>
        <time>2025-11-19T12:49:05.627Z</time>
      </trkpt>
      <trkpt lat="43.72664" lon="6.09121">
        <ele>424.2</ele>
        <time>2025-11-19T12:49:08.627Z</time>
      </trkpt>
      <trkpt lat="43.72661" lon="6.0912">
        <ele>424.4</ele>
        <time>2025-11-19T12:49:11.627Z</time>
      </trkpt>
      <trkpt lat="43.72658" lon="6.09121">
        <ele>424.3</ele>
        <time>2025-11-19T12:49:14.627Z</time>
      </trkpt>
      <trkpt lat="43.72656" lon="6.09121">
        <ele>424.2</ele>
        <time>2025-11-19T12:49:17.627Z</time>
      </trkpt>
      <trkpt lat="43.72653" lon="6.09121">
        <ele>424.3</ele>
        <time>2025-11-19T12:49:20.627Z</time>
      </trkpt>
      <trkpt lat="43.7265" lon="6.09122">
        <ele>423.9</ele>
        <time>2025-11-19T12:49:23.627Z</time>
      </trkpt>
      <trkpt lat="43.72647" lon="6.09122">
        <ele>423.9</ele>
        <time>2025-11-19T12:49:26.627Z</time>
      </trkpt>
      <trkpt lat="43.72644" lon="6.09122">
        <ele>424</ele>
        <time>2025-11-19T12:49:29.627Z</time>
      </trkpt>
      <trkpt lat="43.72642" lon="6.09122">
        <ele>424.1</ele>
        <time>2025-11-19T12:49:31.628Z</time>
      </trkpt>
      <trkpt lat="43.72639" lon="6.09122">
        <ele>424.3</ele>
        <time>2025-11-19T12:49:34.627Z</time>
      </trkpt>
      <trkpt lat="43.72636" lon="6.09121">
        <ele>424.4</ele>
        <time>2025-11-19T12:49:37.627Z</time>
      </trkpt>
      <trkpt lat="43.72633" lon="6.0912">
        <ele>424.5</ele>
        <time>2025-11-19T12:49:39.627Z</time>
      </trkpt>
      <trkpt lat="43.72631" lon="6.09119">
        <ele>424.8</ele>
        <time>2025-11-19T12:49:41.627Z</time>
      </trkpt>
      <trkpt lat="43.72628" lon="6.09117">
        <ele>425.3</ele>
        <time>2025-11-19T12:49:44.627Z</time>
      </trkpt>
      <trkpt lat="43.72625" lon="6.09116">
        <ele>425.6</ele>
        <time>2025-11-19T12:49:47.627Z</time>
      </trkpt>
      <trkpt lat="43.72623" lon="6.09115">
        <ele>425.8</ele>
        <time>2025-11-19T12:49:50.627Z</time>
      </trkpt>
      <trkpt lat="43.72621" lon="6.09115">
        <ele>425.9</ele>
        <time>2025-11-19T12:49:53.627Z</time>
      </trkpt>
      <trkpt lat="43.72617" lon="6.09114">
        <ele>426</ele>
        <time>2025-11-19T12:49:56.627Z</time>
      </trkpt>
      <trkpt lat="43.72615" lon="6.09113">
        <ele>426.3</ele>
        <time>2025-11-19T12:49:59.627Z</time>
      </trkpt>
      <trkpt lat="43.72612" lon="6.09114">
        <ele>426</ele>
        <time>2025-11-19T12:50:01.627Z</time>
      </trkpt>
      <trkpt lat="43.7261" lon="6.09113">
        <ele>426</ele>
        <time>2025-11-19T12:50:04.627Z</time>
      </trkpt>
      <trkpt lat="43.72607" lon="6.09114">
        <ele>425.5</ele>
        <time>2025-11-19T12:50:07.627Z</time>
      </trkpt>
      <trkpt lat="43.72605" lon="6.09115">
        <ele>425.2</ele>
        <time>2025-11-19T12:50:10.627Z</time>
      </trkpt>
      <trkpt lat="43.72602" lon="6.09115">
        <ele>425.1</ele>
        <time>2025-11-19T12:50:13.627Z</time>
      </trkpt>
      <trkpt lat="43.726" lon="6.09114">
        <ele>425.1</ele>
        <time>2025-11-19T12:50:15.627Z</time>
      </trkpt>
      <trkpt lat="43.72597" lon="6.09113">
        <ele>425.6</ele>
        <time>2025-11-19T12:50:18.627Z</time>
      </trkpt>
      <trkpt lat="43.72594" lon="6.09113">
        <ele>425.6</ele>
        <time>2025-11-19T12:50:21.627Z</time>
      </trkpt>
      <trkpt lat="43.72592" lon="6.09112">
        <ele>425.6</ele>
        <time>2025-11-19T12:50:24.628Z</time>
      </trkpt>
      <trkpt lat="43.72588" lon="6.09112">
        <ele>425.8</ele>
        <time>2025-11-19T12:50:27.627Z</time>
      </trkpt>
      <trkpt lat="43.72585" lon="6.0911">
        <ele>426.1</ele>
        <time>2025-11-19T12:50:30.627Z</time>
      </trkpt>
      <trkpt lat="43.72583" lon="6.09109">
        <ele>426.1</ele>
        <time>2025-11-19T12:50:32.627Z</time>
      </trkpt>
      <trkpt lat="43.7258" lon="6.09108">
        <ele>425.6</ele>
        <time>2025-11-19T12:50:35.627Z</time>
      </trkpt>
      <trkpt lat="43.72577" lon="6.09107">
        <ele>425.3</ele>
        <time>2025-11-19T12:50:37.627Z</time>
      </trkpt>
      <trkpt lat="43.72575" lon="6.09105">
        <ele>425.1</ele>
        <time>2025-11-19T12:50:40.627Z</time>
      </trkpt>
      <trkpt lat="43.72572" lon="6.09105">
        <ele>424.7</ele>
        <time>2025-11-19T12:50:42.627Z</time>
      </trkpt>
      <trkpt lat="43.72569" lon="6.09103">
        <ele>424.4</ele>
        <time>2025-11-19T12:50:45.627Z</time>
      </trkpt>
      <trkpt lat="43.72567" lon="6.09102">
        <ele>424.3</ele>
        <time>2025-11-19T12:50:48.627Z</time>
      </trkpt>
      <trkpt lat="43.72563" lon="6.09101">
        <ele>423.9</ele>
        <time>2025-11-19T12:50:51.627Z</time>
      </trkpt>
      <trkpt lat="43.72561" lon="6.09099">
        <ele>423.9</ele>
        <time>2025-11-19T12:50:54.627Z</time>
      </trkpt>
      <trkpt lat="43.72558" lon="6.09097">
        <ele>424</ele>
        <time>2025-11-19T12:50:57.627Z</time>
      </trkpt>
      <trkpt lat="43.72556" lon="6.09096">
        <ele>423.8</ele>
        <time>2025-11-19T12:50:59.627Z</time>
      </trkpt>
      <trkpt lat="43.72553" lon="6.09095">
        <ele>423.6</ele>
        <time>2025-11-19T12:51:01.628Z</time>
      </trkpt>
      <trkpt lat="43.72551" lon="6.09093">
        <ele>423.3</ele>
        <time>2025-11-19T12:51:04.627Z</time>
      </trkpt>
      <trkpt lat="43.72548" lon="6.09092">
        <ele>423.1</ele>
        <time>2025-11-19T12:51:06.627Z</time>
      </trkpt>
      <trkpt lat="43.72545" lon="6.09091">
        <ele>423.1</ele>
        <time>2025-11-19T12:51:09.627Z</time>
      </trkpt>
      <trkpt lat="43.72543" lon="6.0909">
        <ele>422.7</ele>
        <time>2025-11-19T12:51:12.627Z</time>
      </trkpt>
      <trkpt lat="43.7254" lon="6.09089">
        <ele>422.8</ele>
        <time>2025-11-19T12:51:14.627Z</time>
      </trkpt>
      <trkpt lat="43.72538" lon="6.09087">
        <ele>423.1</ele>
        <time>2025-11-19T12:51:17.627Z</time>
      </trkpt>
      <trkpt lat="43.72535" lon="6.09086">
        <ele>423.4</ele>
        <time>2025-11-19T12:51:20.627Z</time>
      </trkpt>
      <trkpt lat="43.72532" lon="6.09085">
        <ele>423.5</ele>
        <time>2025-11-19T12:51:23.627Z</time>
      </trkpt>
      <trkpt lat="43.72529" lon="6.09083">
        <ele>424.1</ele>
        <time>2025-11-19T12:51:26.627Z</time>
      </trkpt>
      <trkpt lat="43.72528" lon="6.0908">
        <ele>424.3</ele>
        <time>2025-11-19T12:51:28.627Z</time>
      </trkpt>
      <trkpt lat="43.72526" lon="6.09077">
        <ele>424.3</ele>
        <time>2025-11-19T12:51:31.627Z</time>
      </trkpt>
      <trkpt lat="43.72523" lon="6.09076">
        <ele>424.2</ele>
        <time>2025-11-19T12:51:33.627Z</time>
      </trkpt>
      <trkpt lat="43.7252" lon="6.09076">
        <ele>423.8</ele>
        <time>2025-11-19T12:51:36.627Z</time>
      </trkpt>
      <trkpt lat="43.72517" lon="6.09076">
        <ele>423.4</ele>
        <time>2025-11-19T12:51:39.627Z</time>
      </trkpt>
      <trkpt lat="43.72514" lon="6.09075">
        <ele>423.1</ele>
        <time>2025-11-19T12:51:41.628Z</time>
      </trkpt>
      <trkpt lat="43.72511" lon="6.09074">
        <ele>422.8</ele>
        <time>2025-11-19T12:51:44.628Z</time>
      </trkpt>
      <trkpt lat="43.72509" lon="6.09073">
        <ele>422.6</ele>
        <time>2025-11-19T12:51:47.627Z</time>
      </trkpt>
      <trkpt lat="43.72507" lon="6.09072">
        <ele>422.5</ele>
        <time>2025-11-19T12:51:49.627Z</time>
      </trkpt>
      <trkpt lat="43.72504" lon="6.09071">
        <ele>422.3</ele>
        <time>2025-11-19T12:51:52.627Z</time>
      </trkpt>
      <trkpt lat="43.72501" lon="6.09069">
        <ele>422.2</ele>
        <time>2025-11-19T12:51:55.627Z</time>
      </trkpt>
      <trkpt lat="43.72498" lon="6.09068">
        <ele>421.6</ele>
        <time>2025-11-19T12:51:58.627Z</time>
      </trkpt>
      <trkpt lat="43.72496" lon="6.09066">
        <ele>421.4</ele>
        <time>2025-11-19T12:52:01.627Z</time>
      </trkpt>
      <trkpt lat="43.72493" lon="6.09065">
        <ele>421</ele>
        <time>2025-11-19T12:52:04.627Z</time>
      </trkpt>
      <trkpt lat="43.72491" lon="6.09064">
        <ele>420.5</ele>
        <time>2025-11-19T12:52:08.627Z</time>
      </trkpt>
      <trkpt lat="43.72488" lon="6.09063">
        <ele>420.1</ele>
        <time>2025-11-19T12:52:11.628Z</time>
      </trkpt>
      <trkpt lat="43.72486" lon="6.09063">
        <ele>419.5</ele>
        <time>2025-11-19T12:52:14.627Z</time>
      </trkpt>
      <trkpt lat="43.72483" lon="6.09062">
        <ele>419.5</ele>
        <time>2025-11-19T12:52:19.627Z</time>
      </trkpt>
      <trkpt lat="43.72481" lon="6.0906">
        <ele>419.7</ele>
        <time>2025-11-19T12:52:22.628Z</time>
      </trkpt>
      <trkpt lat="43.72479" lon="6.09057">
        <ele>420.6</ele>
        <time>2025-11-19T12:52:26.628Z</time>
      </trkpt>
      <trkpt lat="43.72478" lon="6.09054">
        <ele>420.9</ele>
        <time>2025-11-19T12:52:30.627Z</time>
      </trkpt>
      <trkpt lat="43.72476" lon="6.09052">
        <ele>420.7</ele>
        <time>2025-11-19T12:52:34.627Z</time>
      </trkpt>
      <trkpt lat="43.72474" lon="6.0905">
        <ele>420.4</ele>
        <time>2025-11-19T12:52:37.627Z</time>
      </trkpt>
      <trkpt lat="43.72471" lon="6.09047">
        <ele>420.1</ele>
        <time>2025-11-19T12:52:40.628Z</time>
      </trkpt>
      <trkpt lat="43.72469" lon="6.09045">
        <ele>419.9</ele>
        <time>2025-11-19T12:52:43.627Z</time>
      </trkpt>
      <trkpt lat="43.72466" lon="6.09042">
        <ele>419.7</ele>
        <time>2025-11-19T12:52:47.627Z</time>
      </trkpt>
      <trkpt lat="43.72465" lon="6.0904">
        <ele>419.5</ele>
        <time>2025-11-19T12:52:50.627Z</time>
      </trkpt>
      <trkpt lat="43.72462" lon="6.09039">
        <ele>419.1</ele>
        <time>2025-11-19T12:52:54.627Z</time>
      </trkpt>
      <trkpt lat="43.72459" lon="6.09039">
        <ele>418.7</ele>
        <time>2025-11-19T12:52:57.627Z</time>
      </trkpt>
      <trkpt lat="43.72456" lon="6.09038">
        <ele>418.3</ele>
        <time>2025-11-19T12:53:01.627Z</time>
      </trkpt>
      <trkpt lat="43.72453" lon="6.09039">
        <ele>417.8</ele>
        <time>2025-11-19T12:53:06.627Z</time>
      </trkpt>
      <trkpt lat="43.72449" lon="6.09038">
        <ele>417.3</ele>
        <time>2025-11-19T12:53:12.627Z</time>
      </trkpt>
      <trkpt lat="43.72447" lon="6.09035">
        <ele>417</ele>
        <time>2025-11-19T12:53:15.627Z</time>
      </trkpt>
      <trkpt lat="43.72445" lon="6.09033">
        <ele>416.9</ele>
        <time>2025-11-19T12:53:19.628Z</time>
      </trkpt>
      <trkpt lat="43.72444" lon="6.0903">
        <ele>416.8</ele>
        <time>2025-11-19T12:53:23.627Z</time>
      </trkpt>
      <trkpt lat="43.72442" lon="6.09028">
        <ele>416.6</ele>
        <time>2025-11-19T12:53:26.627Z</time>
      </trkpt>
      <trkpt lat="43.72441" lon="6.09025">
        <ele>416.4</ele>
        <time>2025-11-19T12:53:29.627Z</time>
      </trkpt>
      <trkpt lat="43.7244" lon="6.09021">
        <ele>416.1</ele>
        <time>2025-11-19T12:53:33.628Z</time>
      </trkpt>
      <trkpt lat="43.72438" lon="6.09018">
        <ele>415.8</ele>
        <time>2025-11-19T12:53:36.627Z</time>
      </trkpt>
      <trkpt lat="43.72438" lon="6.09014">
        <ele>415.6</ele>
        <time>2025-11-19T12:53:41.627Z</time>
      </trkpt>
      <trkpt lat="43.72436" lon="6.0901">
        <ele>415.3</ele>
        <time>2025-11-19T12:53:45.627Z</time>
      </trkpt>
      <trkpt lat="43.72436" lon="6.09007">
        <ele>415.2</ele>
        <time>2025-11-19T12:53:47.627Z</time>
      </trkpt>
      <trkpt lat="43.72435" lon="6.09002">
        <ele>415</ele>
        <time>2025-11-19T12:53:50.627Z</time>
      </trkpt>
      <trkpt lat="43.72433" lon="6.08999">
        <ele>414.7</ele>
        <time>2025-11-19T12:53:52.627Z</time>
      </trkpt>
      <trkpt lat="43.72433" lon="6.08996">
        <ele>414.5</ele>
        <time>2025-11-19T12:53:55.628Z</time>
      </trkpt>
      <trkpt lat="43.72434" lon="6.08993">
        <ele>414.3</ele>
        <time>2025-11-19T12:53:58.628Z</time>
      </trkpt>
      <trkpt lat="43.72434" lon="6.0899">
        <ele>414.1</ele>
        <time>2025-11-19T12:54:00.628Z</time>
      </trkpt>
      <trkpt lat="43.72434" lon="6.08986">
        <ele>413.8</ele>
        <time>2025-11-19T12:54:02.627Z</time>
      </trkpt>
      <trkpt lat="43.72434" lon="6.08983">
        <ele>413.6</ele>
        <time>2025-11-19T12:54:05.627Z</time>
      </trkpt>
      <trkpt lat="43.72433" lon="6.0898">
        <ele>413.3</ele>
        <time>2025-11-19T12:54:08.627Z</time>
      </trkpt>
      <trkpt lat="43.7243" lon="6.0898">
        <ele>413</ele>
        <time>2025-11-19T12:54:13.627Z</time>
      </trkpt>
      <trkpt lat="43.72428" lon="6.08978">
        <ele>412.7</ele>
        <time>2025-11-19T12:54:16.627Z</time>
      </trkpt>
      <trkpt lat="43.72425" lon="6.08977">
        <ele>412.3</ele>
        <time>2025-11-19T12:54:20.628Z</time>
      </trkpt>
      <trkpt lat="43.72423" lon="6.08978">
        <ele>412.1</ele>
        <time>2025-11-19T12:54:23.627Z</time>
      </trkpt>
      <trkpt lat="43.7242" lon="6.08978">
        <ele>411.8</ele>
        <time>2025-11-19T12:54:27.628Z</time>
      </trkpt>
      <trkpt lat="43.72417" lon="6.08979">
        <ele>411.6</ele>
        <time>2025-11-19T12:54:30.627Z</time>
      </trkpt>
      <trkpt lat="43.72415" lon="6.08981">
        <ele>411.3</ele>
        <time>2025-11-19T12:54:35.627Z</time>
      </trkpt>
      <trkpt lat="43.72412" lon="6.08982">
        <ele>411.1</ele>
        <time>2025-11-19T12:54:38.627Z</time>
      </trkpt>
      <trkpt lat="43.7241" lon="6.08983">
        <ele>410.8</ele>
        <time>2025-11-19T12:54:42.628Z</time>
      </trkpt>
      <trkpt lat="43.72407" lon="6.08984">
        <ele>410.5</ele>
        <time>2025-11-19T12:54:45.628Z</time>
      </trkpt>
      <trkpt lat="43.72405" lon="6.08986">
        <ele>410.3</ele>
        <time>2025-11-19T12:54:49.627Z</time>
      </trkpt>
      <trkpt lat="43.72402" lon="6.08985">
        <ele>409.9</ele>
        <time>2025-11-19T12:54:53.627Z</time>
      </trkpt>
      <trkpt lat="43.724" lon="6.08984">
        <ele>409.5</ele>
        <time>2025-11-19T12:54:56.628Z</time>
      </trkpt>
      <trkpt lat="43.72398" lon="6.08982">
        <ele>409</ele>
        <time>2025-11-19T12:55:00.628Z</time>
      </trkpt>
      <trkpt lat="43.72396" lon="6.0898">
        <ele>408.6</ele>
        <time>2025-11-19T12:55:04.627Z</time>
      </trkpt>
      <trkpt lat="43.72393" lon="6.08981">
        <ele>408.2</ele>
        <time>2025-11-19T12:55:10.627Z</time>
      </trkpt>
      <trkpt lat="43.7239" lon="6.08982">
        <ele>407.8</ele>
        <time>2025-11-19T12:55:13.627Z</time>
      </trkpt>
      <trkpt lat="43.72387" lon="6.08982">
        <ele>407.4</ele>
        <time>2025-11-19T12:55:17.627Z</time>
      </trkpt>
      <trkpt lat="43.72385" lon="6.08979">
        <ele>407.1</ele>
        <time>2025-11-19T12:55:20.628Z</time>
      </trkpt>
      <trkpt lat="43.72383" lon="6.08977">
        <ele>406.8</ele>
        <time>2025-11-19T12:55:24.627Z</time>
      </trkpt>
      <trkpt lat="43.72381" lon="6.08974">
        <ele>406.5</ele>
        <time>2025-11-19T12:55:28.627Z</time>
      </trkpt>
      <trkpt lat="43.72379" lon="6.08972">
        <ele>406.3</ele>
        <time>2025-11-19T12:55:31.628Z</time>
      </trkpt>
      <trkpt lat="43.72377" lon="6.08969">
        <ele>406.1</ele>
        <time>2025-11-19T12:55:34.628Z</time>
      </trkpt>
      <trkpt lat="43.72377" lon="6.08965">
        <ele>406</ele>
        <time>2025-11-19T12:55:37.627Z</time>
      </trkpt>
      <trkpt lat="43.72375" lon="6.08962">
        <ele>405.8</ele>
        <time>2025-11-19T12:55:41.628Z</time>
      </trkpt>
      <trkpt lat="43.72374" lon="6.08958">
        <ele>405.7</ele>
        <time>2025-11-19T12:55:44.628Z</time>
      </trkpt>
      <trkpt lat="43.72373" lon="6.08954">
        <ele>405.5</ele>
        <time>2025-11-19T12:55:47.627Z</time>
      </trkpt>
      <trkpt lat="43.72372" lon="6.08951">
        <ele>405.3</ele>
        <time>2025-11-19T12:55:50.627Z</time>
      </trkpt>
      <trkpt lat="43.72371" lon="6.08947">
        <ele>405.2</ele>
        <time>2025-11-19T12:55:54.627Z</time>
      </trkpt>
      <trkpt lat="43.72372" lon="6.08943">
        <ele>405.1</ele>
        <time>2025-11-19T12:55:57.627Z</time>
      </trkpt>
      <trkpt lat="43.72371" lon="6.08939">
        <ele>405</ele>
        <time>2025-11-19T12:56:00.627Z</time>
      </trkpt>
      <trkpt lat="43.7237" lon="6.08935">
        <ele>404.9</ele>
        <time>2025-11-19T12:56:03.627Z</time>
      </trkpt>
      <trkpt lat="43.7237" lon="6.08932">
        <ele>405</ele>
        <time>2025-11-19T12:56:05.627Z</time>
      </trkpt>
      <trkpt lat="43.72371" lon="6.08928">
        <ele>405.1</ele>
        <time>2025-11-19T12:56:08.628Z</time>
      </trkpt>
      <trkpt lat="43.72372" lon="6.08924">
        <ele>405.2</ele>
        <time>2025-11-19T12:56:11.628Z</time>
      </trkpt>
      <trkpt lat="43.72373" lon="6.08921">
        <ele>405.3</ele>
        <time>2025-11-19T12:56:13.627Z</time>
      </trkpt>
      <trkpt lat="43.72375" lon="6.08917">
        <ele>405.4</ele>
        <time>2025-11-19T12:56:16.628Z</time>
      </trkpt>
      <trkpt lat="43.72375" lon="6.08914">
        <ele>405.5</ele>
        <time>2025-11-19T12:56:18.628Z</time>
      </trkpt>
      <trkpt lat="43.72377" lon="6.08911">
        <ele>405.7</ele>
        <time>2025-11-19T12:56:20.628Z</time>
      </trkpt>
      <trkpt lat="43.72378" lon="6.08908">
        <ele>405.8</ele>
        <time>2025-11-19T12:56:22.628Z</time>
      </trkpt>
      <trkpt lat="43.7238" lon="6.08904">
        <ele>406</ele>
        <time>2025-11-19T12:56:25.628Z</time>
      </trkpt>
      <trkpt lat="43.72381" lon="6.08902">
        <ele>406.1</ele>
        <time>2025-11-19T12:56:27.627Z</time>
      </trkpt>
      <trkpt lat="43.72382" lon="6.08899">
        <ele>406.3</ele>
        <time>2025-11-19T12:56:31.628Z</time>
      </trkpt>
      <trkpt lat="43.72384" lon="6.08896">
        <ele>406.5</ele>
        <time>2025-11-19T12:56:34.628Z</time>
      </trkpt>
      <trkpt lat="43.72386" lon="6.08892">
        <ele>406.6</ele>
        <time>2025-11-19T12:56:37.628Z</time>
      </trkpt>
      <trkpt lat="43.72387" lon="6.08888">
        <ele>406.7</ele>
        <time>2025-11-19T12:56:40.627Z</time>
      </trkpt>
      <trkpt lat="43.72388" lon="6.08885">
        <ele>406.6</ele>
        <time>2025-11-19T12:56:44.628Z</time>
      </trkpt>
      <trkpt lat="43.72388" lon="6.08882">
        <ele>406.4</ele>
        <time>2025-11-19T12:56:47.627Z</time>
      </trkpt>
      <trkpt lat="43.72389" lon="6.08878">
        <ele>406.2</ele>
        <time>2025-11-19T12:56:50.628Z</time>
      </trkpt>
      <trkpt lat="43.7239" lon="6.08875">
        <ele>406.1</ele>
        <time>2025-11-19T12:56:53.628Z</time>
      </trkpt>
      <trkpt lat="43.7239" lon="6.08871">
        <ele>405.9</ele>
        <time>2025-11-19T12:56:55.627Z</time>
      </trkpt>
      <trkpt lat="43.7239" lon="6.08868">
        <ele>405.7</ele>
        <time>2025-11-19T12:56:58.627Z</time>
      </trkpt>
      <trkpt lat="43.7239" lon="6.08863">
        <ele>405.4</ele>
        <time>2025-11-19T12:57:01.627Z</time>
      </trkpt>
      <trkpt lat="43.7239" lon="6.08859">
        <ele>405.2</ele>
        <time>2025-11-19T12:57:04.628Z</time>
      </trkpt>
      <trkpt lat="43.7239" lon="6.08856">
        <ele>405.2</ele>
        <time>2025-11-19T12:57:06.628Z</time>
      </trkpt>
      <trkpt lat="43.72391" lon="6.08853">
        <ele>405.3</ele>
        <time>2025-11-19T12:57:08.628Z</time>
      </trkpt>
      <trkpt lat="43.7239" lon="6.08847">
        <ele>405.2</ele>
        <time>2025-11-19T12:57:11.628Z</time>
      </trkpt>
      <trkpt lat="43.7239" lon="6.08844">
        <ele>405.1</ele>
        <time>2025-11-19T12:57:13.628Z</time>
      </trkpt>
      <trkpt lat="43.72389" lon="6.08839">
        <ele>405</ele>
        <time>2025-11-19T12:57:15.628Z</time>
      </trkpt>
      <trkpt lat="43.72389" lon="6.08835">
        <ele>405.1</ele>
        <time>2025-11-19T12:57:18.628Z</time>
      </trkpt>
      <trkpt lat="43.72391" lon="6.08831">
        <ele>405.2</ele>
        <time>2025-11-19T12:57:21.628Z</time>
      </trkpt>
      <trkpt lat="43.72392" lon="6.08828">
        <ele>405.2</ele>
        <time>2025-11-19T12:57:23.628Z</time>
      </trkpt>
      <trkpt lat="43.72393" lon="6.08824">
        <ele>405.1</ele>
        <time>2025-11-19T12:57:26.628Z</time>
      </trkpt>
      <trkpt lat="43.72393" lon="6.08821">
        <ele>405.1</ele>
        <time>2025-11-19T12:57:28.628Z</time>
      </trkpt>
      <trkpt lat="43.72394" lon="6.08818">
        <ele>405.1</ele>
        <time>2025-11-19T12:57:30.628Z</time>
      </trkpt>
      <trkpt lat="43.72395" lon="6.08814">
        <ele>405.1</ele>
        <time>2025-11-19T12:57:32.627Z</time>
      </trkpt>
      <trkpt lat="43.72397" lon="6.0881">
        <ele>405.1</ele>
        <time>2025-11-19T12:57:35.628Z</time>
      </trkpt>
      <trkpt lat="43.72398" lon="6.08807">
        <ele>405.1</ele>
        <time>2025-11-19T12:57:38.628Z</time>
      </trkpt>
      <trkpt lat="43.724" lon="6.08803">
        <ele>405.1</ele>
        <time>2025-11-19T12:57:41.628Z</time>
      </trkpt>
      <trkpt lat="43.72401" lon="6.088">
        <ele>405.2</ele>
        <time>2025-11-19T12:57:44.628Z</time>
      </trkpt>
      <trkpt lat="43.72403" lon="6.08797">
        <ele>405.4</ele>
        <time>2025-11-19T12:57:47.628Z</time>
      </trkpt>
      <trkpt lat="43.72405" lon="6.08793">
        <ele>405.4</ele>
        <time>2025-11-19T12:57:50.627Z</time>
      </trkpt>
      <trkpt lat="43.72406" lon="6.0879">
        <ele>405.5</ele>
        <time>2025-11-19T12:57:52.628Z</time>
      </trkpt>
      <trkpt lat="43.72407" lon="6.08786">
        <ele>405.5</ele>
        <time>2025-11-19T12:57:54.628Z</time>
      </trkpt>
      <trkpt lat="43.72409" lon="6.08784">
        <ele>405.6</ele>
        <time>2025-11-19T12:57:56.628Z</time>
      </trkpt>
      <trkpt lat="43.7241" lon="6.08781">
        <ele>405.6</ele>
        <time>2025-11-19T12:57:58.628Z</time>
      </trkpt>
      <trkpt lat="43.72411" lon="6.08777">
        <ele>405.6</ele>
        <time>2025-11-19T12:58:01.628Z</time>
      </trkpt>
      <trkpt lat="43.72412" lon="6.08774">
        <ele>405.4</ele>
        <time>2025-11-19T12:58:04.628Z</time>
      </trkpt>
      <trkpt lat="43.72414" lon="6.08771">
        <ele>405.3</ele>
        <time>2025-11-19T12:58:07.628Z</time>
      </trkpt>
      <trkpt lat="43.72415" lon="6.08768">
        <ele>405.2</ele>
        <time>2025-11-19T12:58:09.628Z</time>
      </trkpt>
      <trkpt lat="43.72417" lon="6.08766">
        <ele>405.2</ele>
        <time>2025-11-19T12:58:11.628Z</time>
      </trkpt>
      <trkpt lat="43.72418" lon="6.08762">
        <ele>405</ele>
        <time>2025-11-19T12:58:14.628Z</time>
      </trkpt>
      <trkpt lat="43.7242" lon="6.08759">
        <ele>404.9</ele>
        <time>2025-11-19T12:58:16.628Z</time>
      </trkpt>
      <trkpt lat="43.72421" lon="6.08755">
        <ele>404.7</ele>
        <time>2025-11-19T12:58:19.628Z</time>
      </trkpt>
      <trkpt lat="43.72423" lon="6.08753">
        <ele>404.7</ele>
        <time>2025-11-19T12:58:21.628Z</time>
      </trkpt>
      <trkpt lat="43.72425" lon="6.0875">
        <ele>404.6</ele>
        <time>2025-11-19T12:58:24.628Z</time>
      </trkpt>
      <trkpt lat="43.72427" lon="6.08747">
        <ele>404.6</ele>
        <time>2025-11-19T12:58:27.628Z</time>
      </trkpt>
      <trkpt lat="43.72428" lon="6.08745">
        <ele>404.6</ele>
        <time>2025-11-19T12:58:29.628Z</time>
      </trkpt>
      <trkpt lat="43.72431" lon="6.08742">
        <ele>404.6</ele>
        <time>2025-11-19T12:58:31.628Z</time>
      </trkpt>
      <trkpt lat="43.72432" lon="6.0874">
        <ele>404.5</ele>
        <time>2025-11-19T12:58:33.628Z</time>
      </trkpt>
      <trkpt lat="43.72434" lon="6.08737">
        <ele>404.5</ele>
        <time>2025-11-19T12:58:36.628Z</time>
      </trkpt>
      <trkpt lat="43.72437" lon="6.08734">
        <ele>404.4</ele>
        <time>2025-11-19T12:58:39.627Z</time>
      </trkpt>
      <trkpt lat="43.72439" lon="6.08732">
        <ele>404.4</ele>
        <time>2025-11-19T12:58:41.628Z</time>
      </trkpt>
      <trkpt lat="43.72442" lon="6.0873">
        <ele>404.4</ele>
        <time>2025-11-19T12:58:44.628Z</time>
      </trkpt>
      <trkpt lat="43.72443" lon="6.08728">
        <ele>404.4</ele>
        <time>2025-11-19T12:58:46.628Z</time>
      </trkpt>
      <trkpt lat="43.72445" lon="6.08726">
        <ele>404.4</ele>
        <time>2025-11-19T12:58:50.628Z</time>
      </trkpt>
      <trkpt lat="43.72446" lon="6.08723">
        <ele>404.2</ele>
        <time>2025-11-19T12:59:17.627Z</time>
      </trkpt>
      <trkpt lat="43.72448" lon="6.08722">
        <ele>404.4</ele>
        <time>2025-11-19T12:59:32.628Z</time>
      </trkpt>
      <trkpt lat="43.7245" lon="6.08718">
        <ele>404.5</ele>
        <time>2025-11-19T12:59:35.628Z</time>
      </trkpt>
      <trkpt lat="43.72453" lon="6.08715">
        <ele>404.8</ele>
        <time>2025-11-19T12:59:44.628Z</time>
      </trkpt>
      <trkpt lat="43.72456" lon="6.08713">
        <ele>404.9</ele>
        <time>2025-11-19T12:59:48.628Z</time>
      </trkpt>
      <trkpt lat="43.72457" lon="6.0871">
        <ele>405</ele>
        <time>2025-11-19T12:59:51.627Z</time>
      </trkpt>
      <trkpt lat="43.72459" lon="6.08706">
        <ele>405</ele>
        <time>2025-11-19T12:59:54.628Z</time>
      </trkpt>
      <trkpt lat="43.72461" lon="6.08703">
        <ele>405</ele>
        <time>2025-11-19T12:59:57.628Z</time>
      </trkpt>
      <trkpt lat="43.72463" lon="6.087">
        <ele>404.9</ele>
        <time>2025-11-19T13:00:00.628Z</time>
      </trkpt>
      <trkpt lat="43.72466" lon="6.08697">
        <ele>404.9</ele>
        <time>2025-11-19T13:00:04.628Z</time>
      </trkpt>
      <trkpt lat="43.72466" lon="6.08694">
        <ele>404.8</ele>
        <time>2025-11-19T13:00:07.628Z</time>
      </trkpt>
      <trkpt lat="43.72467" lon="6.0869">
        <ele>404.8</ele>
        <time>2025-11-19T13:00:10.628Z</time>
      </trkpt>
      <trkpt lat="43.72468" lon="6.08687">
        <ele>404.8</ele>
        <time>2025-11-19T13:00:13.628Z</time>
      </trkpt>
      <trkpt lat="43.72468" lon="6.08683">
        <ele>404.9</ele>
        <time>2025-11-19T13:00:16.628Z</time>
      </trkpt>
      <trkpt lat="43.72469" lon="6.0868">
        <ele>404.9</ele>
        <time>2025-11-19T13:00:18.628Z</time>
      </trkpt>
      <trkpt lat="43.72469" lon="6.08677">
        <ele>404.9</ele>
        <time>2025-11-19T13:00:21.628Z</time>
      </trkpt>
      <trkpt lat="43.7247" lon="6.08673">
        <ele>404.9</ele>
        <time>2025-11-19T13:00:24.628Z</time>
      </trkpt>
      <trkpt lat="43.72469" lon="6.08668">
        <ele>404.9</ele>
        <time>2025-11-19T13:00:27.628Z</time>
      </trkpt>
      <trkpt lat="43.72469" lon="6.08664">
        <ele>404.9</ele>
        <time>2025-11-19T13:00:30.628Z</time>
      </trkpt>
      <trkpt lat="43.72468" lon="6.0866">
        <ele>404.8</ele>
        <time>2025-11-19T13:00:33.628Z</time>
      </trkpt>
      <trkpt lat="43.72466" lon="6.08656">
        <ele>404.8</ele>
        <time>2025-11-19T13:00:36.628Z</time>
      </trkpt>
      <trkpt lat="43.72465" lon="6.08653">
        <ele>404.7</ele>
        <time>2025-11-19T13:00:38.628Z</time>
      </trkpt>
      <trkpt lat="43.72464" lon="6.08649">
        <ele>404.7</ele>
        <time>2025-11-19T13:00:41.628Z</time>
      </trkpt>
      <trkpt lat="43.72463" lon="6.08645">
        <ele>404.7</ele>
        <time>2025-11-19T13:00:44.628Z</time>
      </trkpt>
      <trkpt lat="43.72462" lon="6.08641">
        <ele>404.6</ele>
        <time>2025-11-19T13:00:47.628Z</time>
      </trkpt>
      <trkpt lat="43.72461" lon="6.08637">
        <ele>404.6</ele>
        <time>2025-11-19T13:00:50.628Z</time>
      </trkpt>
      <trkpt lat="43.7246" lon="6.08635">
        <ele>404.6</ele>
        <time>2025-11-19T13:00:52.628Z</time>
      </trkpt>
      <trkpt lat="43.7246" lon="6.0863">
        <ele>404.5</ele>
        <time>2025-11-19T13:00:55.628Z</time>
      </trkpt>
      <trkpt lat="43.7246" lon="6.08626">
        <ele>404.5</ele>
        <time>2025-11-19T13:00:58.628Z</time>
      </trkpt>
      <trkpt lat="43.7246" lon="6.08623">
        <ele>404.6</ele>
        <time>2025-11-19T13:01:01.628Z</time>
      </trkpt>
      <trkpt lat="43.7246" lon="6.08619">
        <ele>404.6</ele>
        <time>2025-11-19T13:01:03.628Z</time>
      </trkpt>
      <trkpt lat="43.7246" lon="6.08616">
        <ele>404.6</ele>
        <time>2025-11-19T13:01:05.628Z</time>
      </trkpt>
      <trkpt lat="43.7246" lon="6.08612">
        <ele>404.6</ele>
        <time>2025-11-19T13:01:08.628Z</time>
      </trkpt>
      <trkpt lat="43.7246" lon="6.08609">
        <ele>404.6</ele>
        <time>2025-11-19T13:01:10.628Z</time>
      </trkpt>
      <trkpt lat="43.72461" lon="6.08605">
        <ele>404.6</ele>
        <time>2025-11-19T13:01:12.628Z</time>
      </trkpt>
      <trkpt lat="43.72462" lon="6.08602">
        <ele>404.6</ele>
        <time>2025-11-19T13:01:15.628Z</time>
      </trkpt>
      <trkpt lat="43.72464" lon="6.08598">
        <ele>404.7</ele>
        <time>2025-11-19T13:01:18.628Z</time>
      </trkpt>
      <trkpt lat="43.72466" lon="6.08593">
        <ele>404.8</ele>
        <time>2025-11-19T13:01:21.628Z</time>
      </trkpt>
      <trkpt lat="43.72467" lon="6.0859">
        <ele>404.8</ele>
        <time>2025-11-19T13:01:24.628Z</time>
      </trkpt>
      <trkpt lat="43.72468" lon="6.08586">
        <ele>404.9</ele>
        <time>2025-11-19T13:01:27.628Z</time>
      </trkpt>
      <trkpt lat="43.72469" lon="6.08583">
        <ele>404.9</ele>
        <time>2025-11-19T13:01:30.628Z</time>
      </trkpt>
      <trkpt lat="43.72471" lon="6.0858">
        <ele>404.8</ele>
        <time>2025-11-19T13:01:33.628Z</time>
      </trkpt>
      <trkpt lat="43.72472" lon="6.08576">
        <ele>404.8</ele>
        <time>2025-11-19T13:01:36.628Z</time>
      </trkpt>
      <trkpt lat="43.72474" lon="6.08573">
        <ele>404.8</ele>
        <time>2025-11-19T13:01:39.628Z</time>
      </trkpt>
      <trkpt lat="43.72476" lon="6.0857">
        <ele>404.8</ele>
        <time>2025-11-19T13:01:42.628Z</time>
      </trkpt>
      <trkpt lat="43.72477" lon="6.08567">
        <ele>404.8</ele>
        <time>2025-11-19T13:01:45.628Z</time>
      </trkpt>
      <trkpt lat="43.72479" lon="6.08562">
        <ele>404.9</ele>
        <time>2025-11-19T13:01:48.628Z</time>
      </trkpt>
      <trkpt lat="43.7248" lon="6.08559">
        <ele>405</ele>
        <time>2025-11-19T13:01:51.628Z</time>
      </trkpt>
      <trkpt lat="43.72482" lon="6.08557">
        <ele>405</ele>
        <time>2025-11-19T13:01:54.628Z</time>
      </trkpt>
      <trkpt lat="43.72483" lon="6.08553">
        <ele>405.1</ele>
        <time>2025-11-19T13:01:58.628Z</time>
      </trkpt>
      <trkpt lat="43.72485" lon="6.0855">
        <ele>405.3</ele>
        <time>2025-11-19T13:02:01.628Z</time>
      </trkpt>
      <trkpt lat="43.72487" lon="6.08547">
        <ele>405.4</ele>
        <time>2025-11-19T13:02:04.628Z</time>
      </trkpt>
      <trkpt lat="43.72488" lon="6.08543">
        <ele>405.4</ele>
        <time>2025-11-19T13:02:06.628Z</time>
      </trkpt>
      <trkpt lat="43.72489" lon="6.0854">
        <ele>405.5</ele>
        <time>2025-11-19T13:02:09.629Z</time>
      </trkpt>
      <trkpt lat="43.7249" lon="6.08536">
        <ele>405.5</ele>
        <time>2025-11-19T13:02:11.628Z</time>
      </trkpt>
      <trkpt lat="43.72492" lon="6.08533">
        <ele>405.5</ele>
        <time>2025-11-19T13:02:13.628Z</time>
      </trkpt>
      <trkpt lat="43.72493" lon="6.08531">
        <ele>405.6</ele>
        <time>2025-11-19T13:02:15.628Z</time>
      </trkpt>
      <trkpt lat="43.72494" lon="6.08528">
        <ele>405.6</ele>
        <time>2025-11-19T13:02:17.628Z</time>
      </trkpt>
      <trkpt lat="43.72496" lon="6.08525">
        <ele>405.5</ele>
        <time>2025-11-19T13:02:19.628Z</time>
      </trkpt>
      <trkpt lat="43.72497" lon="6.08522">
        <ele>405.4</ele>
        <time>2025-11-19T13:02:22.628Z</time>
      </trkpt>
      <trkpt lat="43.72499" lon="6.08518">
        <ele>405.3</ele>
        <time>2025-11-19T13:02:25.629Z</time>
      </trkpt>
      <trkpt lat="43.72502" lon="6.08515">
        <ele>405.2</ele>
        <time>2025-11-19T13:02:28.628Z</time>
      </trkpt>
      <trkpt lat="43.72504" lon="6.08513">
        <ele>405.2</ele>
        <time>2025-11-19T13:02:30.628Z</time>
      </trkpt>
      <trkpt lat="43.72506" lon="6.08511">
        <ele>405.2</ele>
        <time>2025-11-19T13:02:32.628Z</time>
      </trkpt>
      <trkpt lat="43.72509" lon="6.08508">
        <ele>405.2</ele>
        <time>2025-11-19T13:02:35.628Z</time>
      </trkpt>
      <trkpt lat="43.72511" lon="6.08506">
        <ele>405.2</ele>
        <time>2025-11-19T13:02:37.629Z</time>
      </trkpt>
      <trkpt lat="43.72513" lon="6.08504">
        <ele>405.2</ele>
        <time>2025-11-19T13:02:39.629Z</time>
      </trkpt>
      <trkpt lat="43.72516" lon="6.08501">
        <ele>405.2</ele>
        <time>2025-11-19T13:02:42.628Z</time>
      </trkpt>
      <trkpt lat="43.72517" lon="6.08499">
        <ele>405.2</ele>
        <time>2025-11-19T13:02:44.629Z</time>
      </trkpt>
      <trkpt lat="43.7252" lon="6.08497">
        <ele>405.4</ele>
        <time>2025-11-19T13:02:47.628Z</time>
      </trkpt>
      <trkpt lat="43.72523" lon="6.08494">
        <ele>405.5</ele>
        <time>2025-11-19T13:02:50.629Z</time>
      </trkpt>
      <trkpt lat="43.72524" lon="6.08492">
        <ele>405.5</ele>
        <time>2025-11-19T13:02:52.628Z</time>
      </trkpt>
      <trkpt lat="43.72527" lon="6.08489">
        <ele>405.5</ele>
        <time>2025-11-19T13:02:55.628Z</time>
      </trkpt>
      <trkpt lat="43.72528" lon="6.08485">
        <ele>405.5</ele>
        <time>2025-11-19T13:02:58.628Z</time>
      </trkpt>
      <trkpt lat="43.72531" lon="6.08482">
        <ele>405.4</ele>
        <time>2025-11-19T13:03:01.628Z</time>
      </trkpt>
      <trkpt lat="43.72532" lon="6.0848">
        <ele>405.3</ele>
        <time>2025-11-19T13:03:03.628Z</time>
      </trkpt>
      <trkpt lat="43.72535" lon="6.08477">
        <ele>405.2</ele>
        <time>2025-11-19T13:03:06.628Z</time>
      </trkpt>
      <trkpt lat="43.72537" lon="6.08474">
        <ele>405.1</ele>
        <time>2025-11-19T13:03:09.629Z</time>
      </trkpt>
      <trkpt lat="43.72538" lon="6.08471">
        <ele>405</ele>
        <time>2025-11-19T13:03:11.628Z</time>
      </trkpt>
      <trkpt lat="43.72539" lon="6.08467">
        <ele>404.9</ele>
        <time>2025-11-19T13:03:14.628Z</time>
      </trkpt>
      <trkpt lat="43.7254" lon="6.08463">
        <ele>404.8</ele>
        <time>2025-11-19T13:03:17.628Z</time>
      </trkpt>
      <trkpt lat="43.72541" lon="6.08459">
        <ele>404.8</ele>
        <time>2025-11-19T13:03:20.628Z</time>
      </trkpt>
      <trkpt lat="43.72543" lon="6.08456">
        <ele>404.7</ele>
        <time>2025-11-19T13:03:23.628Z</time>
      </trkpt>
      <trkpt lat="43.72542" lon="6.08453">
        <ele>404.7</ele>
        <time>2025-11-19T13:03:26.628Z</time>
      </trkpt>
      <trkpt lat="43.72544" lon="6.08449">
        <ele>404.6</ele>
        <time>2025-11-19T13:03:29.628Z</time>
      </trkpt>
      <trkpt lat="43.72544" lon="6.08444">
        <ele>404.6</ele>
        <time>2025-11-19T13:03:32.628Z</time>
      </trkpt>
      <trkpt lat="43.72544" lon="6.0844">
        <ele>404.6</ele>
        <time>2025-11-19T13:03:35.628Z</time>
      </trkpt>
      <trkpt lat="43.72544" lon="6.08437">
        <ele>404.6</ele>
        <time>2025-11-19T13:03:37.628Z</time>
      </trkpt>
      <trkpt lat="43.72545" lon="6.08432">
        <ele>404.6</ele>
        <time>2025-11-19T13:03:40.628Z</time>
      </trkpt>
      <trkpt lat="43.72546" lon="6.08429">
        <ele>404.6</ele>
        <time>2025-11-19T13:03:43.629Z</time>
      </trkpt>
      <trkpt lat="43.72546" lon="6.08424">
        <ele>404.6</ele>
        <time>2025-11-19T13:03:46.628Z</time>
      </trkpt>
      <trkpt lat="43.72546" lon="6.08421">
        <ele>404.7</ele>
        <time>2025-11-19T13:03:49.628Z</time>
      </trkpt>
      <trkpt lat="43.72545" lon="6.08417">
        <ele>404.6</ele>
        <time>2025-11-19T13:03:52.629Z</time>
      </trkpt>
      <trkpt lat="43.72546" lon="6.08413">
        <ele>404.7</ele>
        <time>2025-11-19T13:03:55.628Z</time>
      </trkpt>
      <trkpt lat="43.72547" lon="6.08409">
        <ele>404.7</ele>
        <time>2025-11-19T13:03:57.629Z</time>
      </trkpt>
      <trkpt lat="43.72548" lon="6.08406">
        <ele>404.7</ele>
        <time>2025-11-19T13:04:00.628Z</time>
      </trkpt>
      <trkpt lat="43.72548" lon="6.08403">
        <ele>404.7</ele>
        <time>2025-11-19T13:04:02.628Z</time>
      </trkpt>
      <trkpt lat="43.72548" lon="6.08399">
        <ele>404.7</ele>
        <time>2025-11-19T13:04:05.629Z</time>
      </trkpt>
      <trkpt lat="43.72549" lon="6.08394">
        <ele>404.8</ele>
        <time>2025-11-19T13:04:08.628Z</time>
      </trkpt>
      <trkpt lat="43.7255" lon="6.0839">
        <ele>404.8</ele>
        <time>2025-11-19T13:04:12.629Z</time>
      </trkpt>
      <trkpt lat="43.7255" lon="6.08386">
        <ele>404.8</ele>
        <time>2025-11-19T13:04:15.628Z</time>
      </trkpt>
      <trkpt lat="43.72549" lon="6.08382">
        <ele>404.8</ele>
        <time>2025-11-19T13:04:18.629Z</time>
      </trkpt>
      <trkpt lat="43.72548" lon="6.08378">
        <ele>404.7</ele>
        <time>2025-11-19T13:04:21.628Z</time>
      </trkpt>
      <trkpt lat="43.72548" lon="6.08375">
        <ele>404.7</ele>
        <time>2025-11-19T13:04:23.628Z</time>
      </trkpt>
      <trkpt lat="43.72547" lon="6.08371">
        <ele>404.7</ele>
        <time>2025-11-19T13:04:25.628Z</time>
      </trkpt>
      <trkpt lat="43.72547" lon="6.08368">
        <ele>404.7</ele>
        <time>2025-11-19T13:04:27.628Z</time>
      </trkpt>
      <trkpt lat="43.72546" lon="6.08365">
        <ele>404.6</ele>
        <time>2025-11-19T13:04:30.628Z</time>
      </trkpt>
      <trkpt lat="43.72544" lon="6.08361">
        <ele>404.6</ele>
        <time>2025-11-19T13:04:33.628Z</time>
      </trkpt>
      <trkpt lat="43.72544" lon="6.08357">
        <ele>404.6</ele>
        <time>2025-11-19T13:04:35.628Z</time>
      </trkpt>
      <trkpt lat="43.72543" lon="6.08354">
        <ele>404.7</ele>
        <time>2025-11-19T13:04:37.628Z</time>
      </trkpt>
      <trkpt lat="43.72543" lon="6.08351">
        <ele>404.7</ele>
        <time>2025-11-19T13:04:39.628Z</time>
      </trkpt>
      <trkpt lat="43.72542" lon="6.08348">
        <ele>404.8</ele>
        <time>2025-11-19T13:04:41.628Z</time>
      </trkpt>
      <trkpt lat="43.72541" lon="6.08344">
        <ele>404.8</ele>
        <time>2025-11-19T13:04:43.628Z</time>
      </trkpt>
      <trkpt lat="43.72541" lon="6.08341">
        <ele>404.8</ele>
        <time>2025-11-19T13:04:45.629Z</time>
      </trkpt>
      <trkpt lat="43.7254" lon="6.08338">
        <ele>404.8</ele>
        <time>2025-11-19T13:04:47.629Z</time>
      </trkpt>
      <trkpt lat="43.72539" lon="6.08333">
        <ele>404.8</ele>
        <time>2025-11-19T13:04:50.628Z</time>
      </trkpt>
      <trkpt lat="43.72538" lon="6.0833">
        <ele>404.9</ele>
        <time>2025-11-19T13:04:52.628Z</time>
      </trkpt>
      <trkpt lat="43.72538" lon="6.08327">
        <ele>405</ele>
        <time>2025-11-19T13:04:54.629Z</time>
      </trkpt>
      <trkpt lat="43.72538" lon="6.08323">
        <ele>405.1</ele>
        <time>2025-11-19T13:04:56.629Z</time>
      </trkpt>
      <trkpt lat="43.72537" lon="6.0832">
        <ele>405.2</ele>
        <time>2025-11-19T13:04:58.629Z</time>
      </trkpt>
      <trkpt lat="43.72537" lon="6.08317">
        <ele>405.3</ele>
        <time>2025-11-19T13:05:00.629Z</time>
      </trkpt>
      <trkpt lat="43.72537" lon="6.08313">
        <ele>405.4</ele>
        <time>2025-11-19T13:05:03.629Z</time>
      </trkpt>
      <trkpt lat="43.72536" lon="6.08309">
        <ele>405.5</ele>
        <time>2025-11-19T13:05:06.628Z</time>
      </trkpt>
      <trkpt lat="43.72536" lon="6.08305">
        <ele>405.6</ele>
        <time>2025-11-19T13:05:09.629Z</time>
      </trkpt>
      <trkpt lat="43.72535" lon="6.08302">
        <ele>405.7</ele>
        <time>2025-11-19T13:05:12.628Z</time>
      </trkpt>
      <trkpt lat="43.72535" lon="6.08298">
        <ele>405.8</ele>
        <time>2025-11-19T13:05:15.629Z</time>
      </trkpt>
      <trkpt lat="43.72534" lon="6.08294">
        <ele>405.9</ele>
        <time>2025-11-19T13:05:19.628Z</time>
      </trkpt>
      <trkpt lat="43.72533" lon="6.08289">
        <ele>406</ele>
        <time>2025-11-19T13:06:03.629Z</time>
      </trkpt>
      <trkpt lat="43.72535" lon="6.08286">
        <ele>406.2</ele>
        <time>2025-11-19T13:06:11.628Z</time>
      </trkpt>
      <trkpt lat="43.72538" lon="6.0829">
        <ele>406.3</ele>
        <time>2025-11-19T13:06:23.629Z</time>
      </trkpt>
      <trkpt lat="43.7254" lon="6.08287">
        <ele>406.6</ele>
        <time>2025-11-19T13:06:30.628Z</time>
      </trkpt>
      <trkpt lat="43.72538" lon="6.08289">
        <ele>406.3</ele>
        <time>2025-11-19T13:07:43.628Z</time>
      </trkpt>
      <trkpt lat="43.72536" lon="6.08288">
        <ele>406.2</ele>
        <time>2025-11-19T13:07:45.629Z</time>
      </trkpt>
      <trkpt lat="43.72533" lon="6.08288">
        <ele>406</ele>
        <time>2025-11-19T13:07:56.628Z</time>
      </trkpt>
      <trkpt lat="43.72531" lon="6.08288">
        <ele>405.8</ele>
        <time>2025-11-19T13:08:08.629Z</time>
      </trkpt>
      <trkpt lat="43.72528" lon="6.08288">
        <ele>405.6</ele>
        <time>2025-11-19T13:08:11.628Z</time>
      </trkpt>
      <trkpt lat="43.72525" lon="6.08289">
        <ele>405.6</ele>
        <time>2025-11-19T13:08:14.628Z</time>
      </trkpt>
      <trkpt lat="43.72523" lon="6.08289">
        <ele>405.5</ele>
        <time>2025-11-19T13:08:17.628Z</time>
      </trkpt>
      <trkpt lat="43.7252" lon="6.08289">
        <ele>405.5</ele>
        <time>2025-11-19T13:08:21.629Z</time>
      </trkpt>
      <trkpt lat="43.72518" lon="6.08288">
        <ele>405.5</ele>
        <time>2025-11-19T13:08:26.629Z</time>
      </trkpt>
      <trkpt lat="43.72515" lon="6.08288">
        <ele>405.5</ele>
        <time>2025-11-19T13:08:29.628Z</time>
      </trkpt>
      <trkpt lat="43.72513" lon="6.08288">
        <ele>405.4</ele>
        <time>2025-11-19T13:08:32.629Z</time>
      </trkpt>
      <trkpt lat="43.7251" lon="6.08289">
        <ele>405.4</ele>
        <time>2025-11-19T13:08:35.629Z</time>
      </trkpt>
      <trkpt lat="43.72507" lon="6.0829">
        <ele>405.2</ele>
        <time>2025-11-19T13:08:37.629Z</time>
      </trkpt>
      <trkpt lat="43.72505" lon="6.08291">
        <ele>405.1</ele>
        <time>2025-11-19T13:08:40.629Z</time>
      </trkpt>
      <trkpt lat="43.72502" lon="6.08293">
        <ele>405</ele>
        <time>2025-11-19T13:08:43.628Z</time>
      </trkpt>
      <trkpt lat="43.725" lon="6.08294">
        <ele>404.8</ele>
        <time>2025-11-19T13:08:46.629Z</time>
      </trkpt>
      <trkpt lat="43.72498" lon="6.08296">
        <ele>404.9</ele>
        <time>2025-11-19T13:08:49.629Z</time>
      </trkpt>
      <trkpt lat="43.72495" lon="6.08299">
        <ele>405</ele>
        <time>2025-11-19T13:08:52.628Z</time>
      </trkpt>
      <trkpt lat="43.72493" lon="6.08301">
        <ele>405.1</ele>
        <time>2025-11-19T13:08:54.628Z</time>
      </trkpt>
      <trkpt lat="43.72491" lon="6.08303">
        <ele>405.1</ele>
        <time>2025-11-19T13:08:57.628Z</time>
      </trkpt>
      <trkpt lat="43.72488" lon="6.08305">
        <ele>405.3</ele>
        <time>2025-11-19T13:09:00.628Z</time>
      </trkpt>
      <trkpt lat="43.72486" lon="6.08307">
        <ele>405.5</ele>
        <time>2025-11-19T13:09:03.628Z</time>
      </trkpt>
      <trkpt lat="43.72483" lon="6.08309">
        <ele>405.6</ele>
        <time>2025-11-19T13:09:06.628Z</time>
      </trkpt>
      <trkpt lat="43.7248" lon="6.08311">
        <ele>405.8</ele>
        <time>2025-11-19T13:09:09.628Z</time>
      </trkpt>
      <trkpt lat="43.72477" lon="6.08311">
        <ele>406</ele>
        <time>2025-11-19T13:09:12.629Z</time>
      </trkpt>
      <trkpt lat="43.72474" lon="6.08312">
        <ele>406.1</ele>
        <time>2025-11-19T13:09:15.628Z</time>
      </trkpt>
      <trkpt lat="43.72472" lon="6.08313">
        <ele>406.2</ele>
        <time>2025-11-19T13:09:17.629Z</time>
      </trkpt>
      <trkpt lat="43.72469" lon="6.08313">
        <ele>406.1</ele>
        <time>2025-11-19T13:09:20.628Z</time>
      </trkpt>
      <trkpt lat="43.72466" lon="6.08314">
        <ele>406</ele>
        <time>2025-11-19T13:09:23.629Z</time>
      </trkpt>
      <trkpt lat="43.72464" lon="6.08313">
        <ele>406</ele>
        <time>2025-11-19T13:09:26.629Z</time>
      </trkpt>
      <trkpt lat="43.72461" lon="6.08313">
        <ele>406</ele>
        <time>2025-11-19T13:09:29.628Z</time>
      </trkpt>
      <trkpt lat="43.72458" lon="6.08312">
        <ele>406</ele>
        <time>2025-11-19T13:09:31.628Z</time>
      </trkpt>
      <trkpt lat="43.72456" lon="6.08311">
        <ele>406</ele>
        <time>2025-11-19T13:09:33.629Z</time>
      </trkpt>
      <trkpt lat="43.72454" lon="6.0831">
        <ele>406.1</ele>
        <time>2025-11-19T13:09:36.629Z</time>
      </trkpt>
      <trkpt lat="43.72451" lon="6.08308">
        <ele>406.1</ele>
        <time>2025-11-19T13:09:39.628Z</time>
      </trkpt>
      <trkpt lat="43.72449" lon="6.08306">
        <ele>406.1</ele>
        <time>2025-11-19T13:09:41.629Z</time>
      </trkpt>
      <trkpt lat="43.72447" lon="6.08305">
        <ele>406.1</ele>
        <time>2025-11-19T13:09:43.629Z</time>
      </trkpt>
      <trkpt lat="43.72445" lon="6.08303">
        <ele>406.2</ele>
        <time>2025-11-19T13:09:45.629Z</time>
      </trkpt>
      <trkpt lat="43.72442" lon="6.08303">
        <ele>406.1</ele>
        <time>2025-11-19T13:09:47.628Z</time>
      </trkpt>
      <trkpt lat="43.72439" lon="6.083">
        <ele>406</ele>
        <time>2025-11-19T13:09:50.629Z</time>
      </trkpt>
      <trkpt lat="43.72437" lon="6.08298">
        <ele>406.1</ele>
        <time>2025-11-19T13:09:52.628Z</time>
      </trkpt>
      <trkpt lat="43.72435" lon="6.08296">
        <ele>406.2</ele>
        <time>2025-11-19T13:09:54.629Z</time>
      </trkpt>
      <trkpt lat="43.72433" lon="6.08293">
        <ele>406.3</ele>
        <time>2025-11-19T13:09:57.629Z</time>
      </trkpt>
      <trkpt lat="43.72431" lon="6.08292">
        <ele>406.3</ele>
        <time>2025-11-19T13:10:00.628Z</time>
      </trkpt>
      <trkpt lat="43.72429" lon="6.08289">
        <ele>406.4</ele>
        <time>2025-11-19T13:10:03.629Z</time>
      </trkpt>
      <trkpt lat="43.72427" lon="6.08288">
        <ele>406.4</ele>
        <time>2025-11-19T13:10:05.629Z</time>
      </trkpt>
      <trkpt lat="43.72423" lon="6.08286">
        <ele>406.5</ele>
        <time>2025-11-19T13:10:08.628Z</time>
      </trkpt>
      <trkpt lat="43.72421" lon="6.08284">
        <ele>406.5</ele>
        <time>2025-11-19T13:10:11.628Z</time>
      </trkpt>
      <trkpt lat="43.72418" lon="6.08282">
        <ele>406.7</ele>
        <time>2025-11-19T13:10:14.629Z</time>
      </trkpt>
      <trkpt lat="43.72416" lon="6.08281">
        <ele>406.6</ele>
        <time>2025-11-19T13:10:17.629Z</time>
      </trkpt>
      <trkpt lat="43.72413" lon="6.0828">
        <ele>406.6</ele>
        <time>2025-11-19T13:10:21.629Z</time>
      </trkpt>
      <trkpt lat="43.7241" lon="6.0828">
        <ele>406.6</ele>
        <time>2025-11-19T13:10:24.628Z</time>
      </trkpt>
      <trkpt lat="43.72408" lon="6.08279">
        <ele>406.6</ele>
        <time>2025-11-19T13:10:26.629Z</time>
      </trkpt>
      <trkpt lat="43.72405" lon="6.08278">
        <ele>406.6</ele>
        <time>2025-11-19T13:10:29.629Z</time>
      </trkpt>
      <trkpt lat="43.72402" lon="6.08276">
        <ele>406.8</ele>
        <time>2025-11-19T13:10:32.629Z</time>
      </trkpt>
      <trkpt lat="43.724" lon="6.08275">
        <ele>406.8</ele>
        <time>2025-11-19T13:10:34.629Z</time>
      </trkpt>
      <trkpt lat="43.72397" lon="6.08273">
        <ele>407</ele>
        <time>2025-11-19T13:10:38.629Z</time>
      </trkpt>
      <trkpt lat="43.72394" lon="6.08272">
        <ele>407</ele>
        <time>2025-11-19T13:10:42.629Z</time>
      </trkpt>
      <trkpt lat="43.72391" lon="6.08271">
        <ele>407</ele>
        <time>2025-11-19T13:10:45.629Z</time>
      </trkpt>
      <trkpt lat="43.72388" lon="6.08271">
        <ele>406.9</ele>
        <time>2025-11-19T13:10:47.629Z</time>
      </trkpt>
      <trkpt lat="43.72385" lon="6.0827">
        <ele>406.9</ele>
        <time>2025-11-19T13:10:50.629Z</time>
      </trkpt>
      <trkpt lat="43.72383" lon="6.08269">
        <ele>407</ele>
        <time>2025-11-19T13:10:53.629Z</time>
      </trkpt>
      <trkpt lat="43.7238" lon="6.08268">
        <ele>406.9</ele>
        <time>2025-11-19T13:10:55.629Z</time>
      </trkpt>
      <trkpt lat="43.72377" lon="6.08267">
        <ele>406.9</ele>
        <time>2025-11-19T13:10:57.629Z</time>
      </trkpt>
      <trkpt lat="43.72374" lon="6.08267">
        <ele>406.8</ele>
        <time>2025-11-19T13:10:59.629Z</time>
      </trkpt>
      <trkpt lat="43.72372" lon="6.08266">
        <ele>406.8</ele>
        <time>2025-11-19T13:11:01.629Z</time>
      </trkpt>
      <trkpt lat="43.72369" lon="6.08265">
        <ele>406.8</ele>
        <time>2025-11-19T13:11:04.629Z</time>
      </trkpt>
      <trkpt lat="43.72367" lon="6.08264">
        <ele>406.8</ele>
        <time>2025-11-19T13:11:08.629Z</time>
      </trkpt>
      <trkpt lat="43.72364" lon="6.08263">
        <ele>406.8</ele>
        <time>2025-11-19T13:11:11.629Z</time>
      </trkpt>
      <trkpt lat="43.72362" lon="6.08261">
        <ele>406.9</ele>
        <time>2025-11-19T13:11:13.628Z</time>
      </trkpt>
      <trkpt lat="43.72359" lon="6.08259">
        <ele>406.9</ele>
        <time>2025-11-19T13:11:17.629Z</time>
      </trkpt>
      <trkpt lat="43.72356" lon="6.08257">
        <ele>406.8</ele>
        <time>2025-11-19T13:11:20.629Z</time>
      </trkpt>
      <trkpt lat="43.72354" lon="6.08253">
        <ele>407</ele>
        <time>2025-11-19T13:11:23.629Z</time>
      </trkpt>
      <trkpt lat="43.72352" lon="6.08251">
        <ele>407</ele>
        <time>2025-11-19T13:11:25.629Z</time>
      </trkpt>
      <trkpt lat="43.72351" lon="6.08249">
        <ele>406.9</ele>
        <time>2025-11-19T13:11:27.629Z</time>
      </trkpt>
      <trkpt lat="43.72348" lon="6.08247">
        <ele>406.7</ele>
        <time>2025-11-19T13:11:30.629Z</time>
      </trkpt>
      <trkpt lat="43.72346" lon="6.08244">
        <ele>406.6</ele>
        <time>2025-11-19T13:11:32.629Z</time>
      </trkpt>
      <trkpt lat="43.72344" lon="6.08241">
        <ele>406.4</ele>
        <time>2025-11-19T13:11:35.629Z</time>
      </trkpt>
      <trkpt lat="43.72341" lon="6.08238">
        <ele>406.3</ele>
        <time>2025-11-19T13:11:38.629Z</time>
      </trkpt>
      <trkpt lat="43.72339" lon="6.08236">
        <ele>406.1</ele>
        <time>2025-11-19T13:11:40.629Z</time>
      </trkpt>
      <trkpt lat="43.72337" lon="6.08234">
        <ele>406</ele>
        <time>2025-11-19T13:11:42.629Z</time>
      </trkpt>
      <trkpt lat="43.72336" lon="6.08232">
        <ele>405.9</ele>
        <time>2025-11-19T13:11:45.629Z</time>
      </trkpt>
      <trkpt lat="43.72334" lon="6.08229">
        <ele>405.8</ele>
        <time>2025-11-19T13:11:47.629Z</time>
      </trkpt>
      <trkpt lat="43.72332" lon="6.08226">
        <ele>405.8</ele>
        <time>2025-11-19T13:11:50.629Z</time>
      </trkpt>
      <trkpt lat="43.7233" lon="6.08224">
        <ele>405.8</ele>
        <time>2025-11-19T13:11:54.628Z</time>
      </trkpt>
      <trkpt lat="43.72328" lon="6.08222">
        <ele>405.8</ele>
        <time>2025-11-19T13:11:56.629Z</time>
      </trkpt>
      <trkpt lat="43.72326" lon="6.08219">
        <ele>405.9</ele>
        <time>2025-11-19T13:11:59.629Z</time>
      </trkpt>
      <trkpt lat="43.72324" lon="6.08218">
        <ele>405.9</ele>
        <time>2025-11-19T13:12:01.629Z</time>
      </trkpt>
      <trkpt lat="43.72321" lon="6.08214">
        <ele>406</ele>
        <time>2025-11-19T13:12:04.629Z</time>
      </trkpt>
      <trkpt lat="43.72319" lon="6.08213">
        <ele>406</ele>
        <time>2025-11-19T13:12:06.629Z</time>
      </trkpt>
      <trkpt lat="43.72318" lon="6.0821">
        <ele>406</ele>
        <time>2025-11-19T13:12:08.629Z</time>
      </trkpt>
      <trkpt lat="43.72315" lon="6.08207">
        <ele>406.1</ele>
        <time>2025-11-19T13:12:11.629Z</time>
      </trkpt>
      <trkpt lat="43.72313" lon="6.08206">
        <ele>406</ele>
        <time>2025-11-19T13:12:13.629Z</time>
      </trkpt>
      <trkpt lat="43.72311" lon="6.08203">
        <ele>406</ele>
        <time>2025-11-19T13:12:15.629Z</time>
      </trkpt>
      <trkpt lat="43.7231" lon="6.08201">
        <ele>406</ele>
        <time>2025-11-19T13:12:17.629Z</time>
      </trkpt>
      <trkpt lat="43.72307" lon="6.082">
        <ele>405.9</ele>
        <time>2025-11-19T13:12:19.629Z</time>
      </trkpt>
      <trkpt lat="43.72305" lon="6.08199">
        <ele>405.8</ele>
        <time>2025-11-19T13:12:21.628Z</time>
      </trkpt>
      <trkpt lat="43.72303" lon="6.08197">
        <ele>405.9</ele>
        <time>2025-11-19T13:12:23.629Z</time>
      </trkpt>
      <trkpt lat="43.72301" lon="6.08196">
        <ele>405.9</ele>
        <time>2025-11-19T13:12:26.629Z</time>
      </trkpt>
      <trkpt lat="43.72299" lon="6.08195">
        <ele>406</ele>
        <time>2025-11-19T13:12:28.629Z</time>
      </trkpt>
      <trkpt lat="43.72296" lon="6.08195">
        <ele>406</ele>
        <time>2025-11-19T13:12:30.629Z</time>
      </trkpt>
      <trkpt lat="43.72293" lon="6.08196">
        <ele>405.9</ele>
        <time>2025-11-19T13:12:33.629Z</time>
      </trkpt>
      <trkpt lat="43.7229" lon="6.08196">
        <ele>405.9</ele>
        <time>2025-11-19T13:12:36.629Z</time>
      </trkpt>
      <trkpt lat="43.72287" lon="6.08194">
        <ele>406</ele>
        <time>2025-11-19T13:12:39.629Z</time>
      </trkpt>
      <trkpt lat="43.72284" lon="6.08194">
        <ele>406</ele>
        <time>2025-11-19T13:12:41.629Z</time>
      </trkpt>
      <trkpt lat="43.72281" lon="6.08196">
        <ele>405.9</ele>
        <time>2025-11-19T13:12:47.629Z</time>
      </trkpt>
      <trkpt lat="43.72278" lon="6.08197">
        <ele>405.8</ele>
        <time>2025-11-19T13:12:49.629Z</time>
      </trkpt>
      <trkpt lat="43.72275" lon="6.08199">
        <ele>406.1</ele>
        <time>2025-11-19T13:12:52.628Z</time>
      </trkpt>
      <trkpt lat="43.72273" lon="6.08201">
        <ele>406.4</ele>
        <time>2025-11-19T13:12:55.629Z</time>
      </trkpt>
      <trkpt lat="43.72271" lon="6.08203">
        <ele>406.6</ele>
        <time>2025-11-19T13:12:57.629Z</time>
      </trkpt>
      <trkpt lat="43.72269" lon="6.08205">
        <ele>406.7</ele>
        <time>2025-11-19T13:12:59.629Z</time>
      </trkpt>
      <trkpt lat="43.72267" lon="6.08208">
        <ele>406.6</ele>
        <time>2025-11-19T13:13:01.629Z</time>
      </trkpt>
      <trkpt lat="43.72265" lon="6.08212">
        <ele>406.5</ele>
        <time>2025-11-19T13:13:03.629Z</time>
      </trkpt>
      <trkpt lat="43.72264" lon="6.08216">
        <ele>406.2</ele>
        <time>2025-11-19T13:13:06.629Z</time>
      </trkpt>
      <trkpt lat="43.72262" lon="6.08218">
        <ele>406.1</ele>
        <time>2025-11-19T13:13:08.629Z</time>
      </trkpt>
      <trkpt lat="43.72261" lon="6.08221">
        <ele>405.9</ele>
        <time>2025-11-19T13:13:10.628Z</time>
      </trkpt>
      <trkpt lat="43.72259" lon="6.08225">
        <ele>406</ele>
        <time>2025-11-19T13:13:13.629Z</time>
      </trkpt>
      <trkpt lat="43.72256" lon="6.08227">
        <ele>406.1</ele>
        <time>2025-11-19T13:13:15.629Z</time>
      </trkpt>
      <trkpt lat="43.72254" lon="6.0823">
        <ele>406.1</ele>
        <time>2025-11-19T13:13:17.629Z</time>
      </trkpt>
      <trkpt lat="43.72252" lon="6.08231">
        <ele>406.2</ele>
        <time>2025-11-19T13:13:19.629Z</time>
      </trkpt>
      <trkpt lat="43.72248" lon="6.08232">
        <ele>406.3</ele>
        <time>2025-11-19T13:13:22.628Z</time>
      </trkpt>
      <trkpt lat="43.72246" lon="6.08232">
        <ele>406.4</ele>
        <time>2025-11-19T13:13:24.629Z</time>
      </trkpt>
      <trkpt lat="43.72244" lon="6.08233">
        <ele>406.4</ele>
        <time>2025-11-19T13:13:27.629Z</time>
      </trkpt>
      <trkpt lat="43.72242" lon="6.08235">
        <ele>406.3</ele>
        <time>2025-11-19T13:13:30.629Z</time>
      </trkpt>
      <trkpt lat="43.72239" lon="6.08235">
        <ele>406.3</ele>
        <time>2025-11-19T13:13:34.629Z</time>
      </trkpt>
      <trkpt lat="43.72236" lon="6.08236">
        <ele>406.3</ele>
        <time>2025-11-19T13:13:37.629Z</time>
      </trkpt>
      <trkpt lat="43.72233" lon="6.08237">
        <ele>406.3</ele>
        <time>2025-11-19T13:13:40.629Z</time>
      </trkpt>
      <trkpt lat="43.7223" lon="6.08237">
        <ele>406.3</ele>
        <time>2025-11-19T13:13:44.629Z</time>
      </trkpt>
      <trkpt lat="43.72227" lon="6.08237">
        <ele>406.4</ele>
        <time>2025-11-19T13:13:47.629Z</time>
      </trkpt>
      <trkpt lat="43.72224" lon="6.08238">
        <ele>406.3</ele>
        <time>2025-11-19T13:13:50.629Z</time>
      </trkpt>
      <trkpt lat="43.72221" lon="6.08239">
        <ele>406.2</ele>
        <time>2025-11-19T13:13:53.629Z</time>
      </trkpt>
      <trkpt lat="43.72219" lon="6.08241">
        <ele>406.1</ele>
        <time>2025-11-19T13:13:55.629Z</time>
      </trkpt>
      <trkpt lat="43.72217" lon="6.08242">
        <ele>406</ele>
        <time>2025-11-19T13:13:57.629Z</time>
      </trkpt>
      <trkpt lat="43.72214" lon="6.08243">
        <ele>406.1</ele>
        <time>2025-11-19T13:14:00.629Z</time>
      </trkpt>
      <trkpt lat="43.72211" lon="6.08244">
        <ele>406.1</ele>
        <time>2025-11-19T13:14:03.629Z</time>
      </trkpt>
      <trkpt lat="43.72208" lon="6.08243">
        <ele>406.3</ele>
        <time>2025-11-19T13:14:06.629Z</time>
      </trkpt>
      <trkpt lat="43.72206" lon="6.08244">
        <ele>406.3</ele>
        <time>2025-11-19T13:14:08.629Z</time>
      </trkpt>
      <trkpt lat="43.72203" lon="6.08244">
        <ele>406.3</ele>
        <time>2025-11-19T13:14:10.629Z</time>
      </trkpt>
      <trkpt lat="43.722" lon="6.08244">
        <ele>406.4</ele>
        <time>2025-11-19T13:14:13.629Z</time>
      </trkpt>
      <trkpt lat="43.72198" lon="6.08245">
        <ele>406.4</ele>
        <time>2025-11-19T13:14:15.629Z</time>
      </trkpt>
      <trkpt lat="43.72195" lon="6.08247">
        <ele>406.4</ele>
        <time>2025-11-19T13:14:18.629Z</time>
      </trkpt>
      <trkpt lat="43.72192" lon="6.08247">
        <ele>406.4</ele>
        <time>2025-11-19T13:14:20.629Z</time>
      </trkpt>
      <trkpt lat="43.72189" lon="6.08248">
        <ele>406.5</ele>
        <time>2025-11-19T13:14:23.629Z</time>
      </trkpt>
      <trkpt lat="43.72187" lon="6.08249">
        <ele>406.4</ele>
        <time>2025-11-19T13:14:25.629Z</time>
      </trkpt>
      <trkpt lat="43.72184" lon="6.08251">
        <ele>406.3</ele>
        <time>2025-11-19T13:14:28.629Z</time>
      </trkpt>
      <trkpt lat="43.72182" lon="6.08252">
        <ele>406.3</ele>
        <time>2025-11-19T13:14:31.629Z</time>
      </trkpt>
      <trkpt lat="43.72179" lon="6.08253">
        <ele>406.3</ele>
        <time>2025-11-19T13:14:34.629Z</time>
      </trkpt>
      <trkpt lat="43.72176" lon="6.08254">
        <ele>406.3</ele>
        <time>2025-11-19T13:14:37.629Z</time>
      </trkpt>
      <trkpt lat="43.72172" lon="6.08254">
        <ele>406.4</ele>
        <time>2025-11-19T13:14:40.629Z</time>
      </trkpt>
      <trkpt lat="43.72169" lon="6.08255">
        <ele>406.4</ele>
        <time>2025-11-19T13:14:42.629Z</time>
      </trkpt>
      <trkpt lat="43.72168" lon="6.08258">
        <ele>406.1</ele>
        <time>2025-11-19T13:15:30.629Z</time>
      </trkpt>
      <trkpt lat="43.72166" lon="6.08261">
        <ele>405.8</ele>
        <time>2025-11-19T13:15:35.629Z</time>
      </trkpt>
      <trkpt lat="43.72163" lon="6.08262">
        <ele>405.8</ele>
        <time>2025-11-19T13:15:41.629Z</time>
      </trkpt>
      <trkpt lat="43.7216" lon="6.08263">
        <ele>405.7</ele>
        <time>2025-11-19T13:15:44.629Z</time>
      </trkpt>
      <trkpt lat="43.72158" lon="6.08264">
        <ele>405.7</ele>
        <time>2025-11-19T13:15:46.629Z</time>
      </trkpt>
      <trkpt lat="43.72155" lon="6.08264">
        <ele>405.7</ele>
        <time>2025-11-19T13:15:49.629Z</time>
      </trkpt>
      <trkpt lat="43.72152" lon="6.08263">
        <ele>405.9</ele>
        <time>2025-11-19T13:15:52.629Z</time>
      </trkpt>
      <trkpt lat="43.72149" lon="6.08264">
        <ele>405.9</ele>
        <time>2025-11-19T13:15:54.629Z</time>
      </trkpt>
      <trkpt lat="43.72146" lon="6.08264">
        <ele>405.8</ele>
        <time>2025-11-19T13:15:57.629Z</time>
      </trkpt>
      <trkpt lat="43.72142" lon="6.08264">
        <ele>405.9</ele>
        <time>2025-11-19T13:16:03.630Z</time>
      </trkpt>
      <trkpt lat="43.72139" lon="6.08263">
        <ele>406.1</ele>
        <time>2025-11-19T13:16:06.629Z</time>
      </trkpt>
      <trkpt lat="43.72136" lon="6.08263">
        <ele>406.1</ele>
        <time>2025-11-19T13:16:08.629Z</time>
      </trkpt>
      <trkpt lat="43.72134" lon="6.08265">
        <ele>405.9</ele>
        <time>2025-11-19T13:16:11.629Z</time>
      </trkpt>
      <trkpt lat="43.72131" lon="6.08265">
        <ele>405.8</ele>
        <time>2025-11-19T13:16:14.630Z</time>
      </trkpt>
      <trkpt lat="43.72129" lon="6.08266">
        <ele>405.8</ele>
        <time>2025-11-19T13:16:16.629Z</time>
      </trkpt>
      <trkpt lat="43.72126" lon="6.08266">
        <ele>405.7</ele>
        <time>2025-11-19T13:16:18.630Z</time>
      </trkpt>
      <trkpt lat="43.72123" lon="6.08266">
        <ele>405.7</ele>
        <time>2025-11-19T13:16:21.629Z</time>
      </trkpt>
      <trkpt lat="43.7212" lon="6.08267">
        <ele>405.6</ele>
        <time>2025-11-19T13:16:24.629Z</time>
      </trkpt>
      <trkpt lat="43.72117" lon="6.08267">
        <ele>405.6</ele>
        <time>2025-11-19T13:16:26.630Z</time>
      </trkpt>
      <trkpt lat="43.72114" lon="6.08267">
        <ele>405.6</ele>
        <time>2025-11-19T13:16:30.629Z</time>
      </trkpt>
      <trkpt lat="43.72112" lon="6.08266">
        <ele>405.7</ele>
        <time>2025-11-19T13:16:32.629Z</time>
      </trkpt>
      <trkpt lat="43.72108" lon="6.08267">
        <ele>405.5</ele>
        <time>2025-11-19T13:16:35.629Z</time>
      </trkpt>
      <trkpt lat="43.72105" lon="6.08266">
        <ele>405.5</ele>
        <time>2025-11-19T13:16:38.630Z</time>
      </trkpt>
      <trkpt lat="43.72102" lon="6.08267">
        <ele>405.3</ele>
        <time>2025-11-19T13:16:41.629Z</time>
      </trkpt>
      <trkpt lat="43.721" lon="6.08267">
        <ele>405.3</ele>
        <time>2025-11-19T13:16:43.629Z</time>
      </trkpt>
      <trkpt lat="43.72097" lon="6.08267">
        <ele>405.2</ele>
        <time>2025-11-19T13:16:46.629Z</time>
      </trkpt>
      <trkpt lat="43.72095" lon="6.08266">
        <ele>405.2</ele>
        <time>2025-11-19T13:16:49.629Z</time>
      </trkpt>
      <trkpt lat="43.72092" lon="6.08265">
        <ele>405.2</ele>
        <time>2025-11-19T13:16:52.629Z</time>
      </trkpt>
      <trkpt lat="43.72089" lon="6.08265">
        <ele>405.1</ele>
        <time>2025-11-19T13:16:55.629Z</time>
      </trkpt>
      <trkpt lat="43.72087" lon="6.08265">
        <ele>405</ele>
        <time>2025-11-19T13:16:57.630Z</time>
      </trkpt>
      <trkpt lat="43.72084" lon="6.08266">
        <ele>404.9</ele>
        <time>2025-11-19T13:17:00.629Z</time>
      </trkpt>
      <trkpt lat="43.72082" lon="6.08266">
        <ele>404.8</ele>
        <time>2025-11-19T13:17:03.629Z</time>
      </trkpt>
      <trkpt lat="43.72079" lon="6.08267">
        <ele>404.8</ele>
        <time>2025-11-19T13:17:05.629Z</time>
      </trkpt>
      <trkpt lat="43.72076" lon="6.08268">
        <ele>404.8</ele>
        <time>2025-11-19T13:17:08.629Z</time>
      </trkpt>
      <trkpt lat="43.72074" lon="6.08267">
        <ele>404.9</ele>
        <time>2025-11-19T13:17:10.629Z</time>
      </trkpt>
      <trkpt lat="43.72071" lon="6.08267">
        <ele>405</ele>
        <time>2025-11-19T13:17:13.629Z</time>
      </trkpt>
      <trkpt lat="43.72068" lon="6.08267">
        <ele>405</ele>
        <time>2025-11-19T13:17:16.629Z</time>
      </trkpt>
      <trkpt lat="43.72066" lon="6.08267">
        <ele>405</ele>
        <time>2025-11-19T13:17:18.629Z</time>
      </trkpt>
      <trkpt lat="43.72063" lon="6.08267">
        <ele>405.1</ele>
        <time>2025-11-19T13:17:20.629Z</time>
      </trkpt>
      <trkpt lat="43.72061" lon="6.08266">
        <ele>405.2</ele>
        <time>2025-11-19T13:17:22.630Z</time>
      </trkpt>
      <trkpt lat="43.72059" lon="6.08267">
        <ele>405.1</ele>
        <time>2025-11-19T13:17:24.629Z</time>
      </trkpt>
      <trkpt lat="43.72056" lon="6.08266">
        <ele>405.3</ele>
        <time>2025-11-19T13:17:27.629Z</time>
      </trkpt>
      <trkpt lat="43.72053" lon="6.08265">
        <ele>405.5</ele>
        <time>2025-11-19T13:17:30.629Z</time>
      </trkpt>
      <trkpt lat="43.7205" lon="6.08265">
        <ele>405.6</ele>
        <time>2025-11-19T13:17:33.630Z</time>
      </trkpt>
      <trkpt lat="43.72047" lon="6.08264">
        <ele>405.8</ele>
        <time>2025-11-19T13:17:36.629Z</time>
      </trkpt>
      <trkpt lat="43.72044" lon="6.08265">
        <ele>405.9</ele>
        <time>2025-11-19T13:17:39.630Z</time>
      </trkpt>
      <trkpt lat="43.72041" lon="6.08265">
        <ele>405.9</ele>
        <time>2025-11-19T13:17:42.629Z</time>
      </trkpt>
      <trkpt lat="43.72038" lon="6.08267">
        <ele>405.8</ele>
        <time>2025-11-19T13:17:45.629Z</time>
      </trkpt>
      <trkpt lat="43.72036" lon="6.0827">
        <ele>405.5</ele>
        <time>2025-11-19T13:17:47.629Z</time>
      </trkpt>
      <trkpt lat="43.72035" lon="6.08273">
        <ele>405.3</ele>
        <time>2025-11-19T13:17:49.630Z</time>
      </trkpt>
      <trkpt lat="43.72033" lon="6.08276">
        <ele>405</ele>
        <time>2025-11-19T13:17:52.629Z</time>
      </trkpt>
      <trkpt lat="43.7203" lon="6.08279">
        <ele>404.8</ele>
        <time>2025-11-19T13:17:56.630Z</time>
      </trkpt>
      <trkpt lat="43.72028" lon="6.08281">
        <ele>404.7</ele>
        <time>2025-11-19T13:17:58.629Z</time>
      </trkpt>
      <trkpt lat="43.72025" lon="6.08283">
        <ele>404.8</ele>
        <time>2025-11-19T13:18:01.630Z</time>
      </trkpt>
      <trkpt lat="43.72023" lon="6.08286">
        <ele>404.8</ele>
        <time>2025-11-19T13:18:04.629Z</time>
      </trkpt>
      <trkpt lat="43.72022" lon="6.08287">
        <ele>404.8</ele>
        <time>2025-11-19T13:18:07.630Z</time>
      </trkpt>
      <trkpt lat="43.7202" lon="6.0829">
        <ele>404.7</ele>
        <time>2025-11-19T13:18:09.629Z</time>
      </trkpt>
      <trkpt lat="43.72018" lon="6.08293">
        <ele>404.7</ele>
        <time>2025-11-19T13:18:12.629Z</time>
      </trkpt>
      <trkpt lat="43.72015" lon="6.08293">
        <ele>404.8</ele>
        <time>2025-11-19T13:18:15.629Z</time>
      </trkpt>
      <trkpt lat="43.72012" lon="6.08295">
        <ele>404.9</ele>
        <time>2025-11-19T13:18:18.629Z</time>
      </trkpt>
      <trkpt lat="43.7201" lon="6.08296">
        <ele>404.9</ele>
        <time>2025-11-19T13:18:22.629Z</time>
      </trkpt>
      <trkpt lat="43.72009" lon="6.08299">
        <ele>404.8</ele>
        <time>2025-11-19T13:18:25.630Z</time>
      </trkpt>
      <trkpt lat="43.72008" lon="6.08302">
        <ele>404.7</ele>
        <time>2025-11-19T13:18:27.630Z</time>
      </trkpt>
      <trkpt lat="43.72006" lon="6.08305">
        <ele>404.6</ele>
        <time>2025-11-19T13:18:29.629Z</time>
      </trkpt>
      <trkpt lat="43.72005" lon="6.08307">
        <ele>404.6</ele>
        <time>2025-11-19T13:18:34.629Z</time>
      </trkpt>
      <trkpt lat="43.72003" lon="6.08309">
        <ele>404.7</ele>
        <time>2025-11-19T13:18:40.629Z</time>
      </trkpt>
      <trkpt lat="43.72002" lon="6.08312">
        <ele>404.7</ele>
        <time>2025-11-19T13:18:49.629Z</time>
      </trkpt>
      <trkpt lat="43.72" lon="6.08316">
        <ele>404.6</ele>
        <time>2025-11-19T13:18:53.630Z</time>
      </trkpt>
      <trkpt lat="43.71999" lon="6.0832">
        <ele>404.7</ele>
        <time>2025-11-19T13:19:19.629Z</time>
      </trkpt>
      <trkpt lat="43.71997" lon="6.08321">
        <ele>405.1</ele>
        <time>2025-11-19T13:19:27.629Z</time>
      </trkpt>
      <trkpt lat="43.71995" lon="6.08319">
        <ele>405.5</ele>
        <time>2025-11-19T13:19:30.629Z</time>
      </trkpt>
      <trkpt lat="43.71993" lon="6.08316">
        <ele>405.8</ele>
        <time>2025-11-19T13:19:34.630Z</time>
      </trkpt>
      <trkpt lat="43.71991" lon="6.08314">
        <ele>406.2</ele>
        <time>2025-11-19T13:19:38.629Z</time>
      </trkpt>
      <trkpt lat="43.71989" lon="6.08314">
        <ele>406.6</ele>
        <time>2025-11-19T13:19:43.630Z</time>
      </trkpt>
      <trkpt lat="43.71987" lon="6.08317">
        <ele>406.9</ele>
        <time>2025-11-19T13:19:48.630Z</time>
      </trkpt>
      <trkpt lat="43.71985" lon="6.08319">
        <ele>407.3</ele>
        <time>2025-11-19T13:19:51.630Z</time>
      </trkpt>
      <trkpt lat="43.71982" lon="6.0832">
        <ele>407.7</ele>
        <time>2025-11-19T13:19:55.630Z</time>
      </trkpt>
      <trkpt lat="43.7198" lon="6.08322">
        <ele>408.2</ele>
        <time>2025-11-19T13:20:00.630Z</time>
      </trkpt>
      <trkpt lat="43.71978" lon="6.08325">
        <ele>408.6</ele>
        <time>2025-11-19T13:20:04.630Z</time>
      </trkpt>
      <trkpt lat="43.71976" lon="6.08326">
        <ele>409.1</ele>
        <time>2025-11-19T13:20:10.630Z</time>
      </trkpt>
      <trkpt lat="43.71974" lon="6.08329">
        <ele>409.6</ele>
        <time>2025-11-19T13:20:15.629Z</time>
      </trkpt>
      <trkpt lat="43.71971" lon="6.08331">
        <ele>410.2</ele>
        <time>2025-11-19T13:20:22.629Z</time>
      </trkpt>
      <trkpt lat="43.71969" lon="6.08333">
        <ele>410.8</ele>
        <time>2025-11-19T13:20:25.630Z</time>
      </trkpt>
      <trkpt lat="43.71968" lon="6.08336">
        <ele>411</ele>
        <time>2025-11-19T13:20:29.630Z</time>
      </trkpt>
      <trkpt lat="43.71965" lon="6.08337">
        <ele>411.6</ele>
        <time>2025-11-19T13:20:35.630Z</time>
      </trkpt>
      <trkpt lat="43.71961" lon="6.08339">
        <ele>412.4</ele>
        <time>2025-11-19T13:20:42.629Z</time>
      </trkpt>
      <trkpt lat="43.7196" lon="6.08342">
        <ele>412.8</ele>
        <time>2025-11-19T13:20:46.629Z</time>
      </trkpt>
      <trkpt lat="43.7196" lon="6.08345">
        <ele>412.9</ele>
        <time>2025-11-19T13:20:49.630Z</time>
      </trkpt>
      <trkpt lat="43.71958" lon="6.08348">
        <ele>413.2</ele>
        <time>2025-11-19T13:20:53.630Z</time>
      </trkpt>
      <trkpt lat="43.71958" lon="6.08351">
        <ele>413.5</ele>
        <time>2025-11-19T13:21:19.629Z</time>
      </trkpt>
      <trkpt lat="43.71957" lon="6.08354">
        <ele>413.6</ele>
        <time>2025-11-19T13:21:21.630Z</time>
      </trkpt>
      <trkpt lat="43.71956" lon="6.08357">
        <ele>413.9</ele>
        <time>2025-11-19T13:21:24.630Z</time>
      </trkpt>
      <trkpt lat="43.71955" lon="6.08361">
        <ele>414.3</ele>
        <time>2025-11-19T13:21:28.629Z</time>
      </trkpt>
      <trkpt lat="43.71954" lon="6.08364">
        <ele>414.6</ele>
        <time>2025-11-19T13:21:31.630Z</time>
      </trkpt>
      <trkpt lat="43.71953" lon="6.08367">
        <ele>414.8</ele>
        <time>2025-11-19T13:21:35.629Z</time>
      </trkpt>
      <trkpt lat="43.71951" lon="6.0837">
        <ele>415.2</ele>
        <time>2025-11-19T13:21:40.630Z</time>
      </trkpt>
      <trkpt lat="43.7195" lon="6.08372">
        <ele>415.6</ele>
        <time>2025-11-19T13:21:43.629Z</time>
      </trkpt>
      <trkpt lat="43.71948" lon="6.08375">
        <ele>416</ele>
        <time>2025-11-19T13:21:45.630Z</time>
      </trkpt>
      <trkpt lat="43.71947" lon="6.08378">
        <ele>416.4</ele>
        <time>2025-11-19T13:21:49.629Z</time>
      </trkpt>
      <trkpt lat="43.71946" lon="6.08382">
        <ele>416.7</ele>
        <time>2025-11-19T13:21:52.629Z</time>
      </trkpt>
      <trkpt lat="43.71944" lon="6.08385">
        <ele>417</ele>
        <time>2025-11-19T13:21:56.630Z</time>
      </trkpt>
      <trkpt lat="43.71942" lon="6.08388">
        <ele>417.3</ele>
        <time>2025-11-19T13:21:59.630Z</time>
      </trkpt>
      <trkpt lat="43.71941" lon="6.08391">
        <ele>417.6</ele>
        <time>2025-11-19T13:22:03.630Z</time>
      </trkpt>
      <trkpt lat="43.71939" lon="6.08394">
        <ele>417.8</ele>
        <time>2025-11-19T13:22:07.630Z</time>
      </trkpt>
      <trkpt lat="43.71937" lon="6.08397">
        <ele>418</ele>
        <time>2025-11-19T13:22:11.629Z</time>
      </trkpt>
      <trkpt lat="43.71937" lon="6.08401">
        <ele>418.1</ele>
        <time>2025-11-19T13:22:14.630Z</time>
      </trkpt>
      <trkpt lat="43.71936" lon="6.08404">
        <ele>418.2</ele>
        <time>2025-11-19T13:22:17.630Z</time>
      </trkpt>
      <trkpt lat="43.71936" lon="6.08408">
        <ele>418.2</ele>
        <time>2025-11-19T13:22:20.629Z</time>
      </trkpt>
      <trkpt lat="43.71935" lon="6.08411">
        <ele>418.4</ele>
        <time>2025-11-19T13:22:23.630Z</time>
      </trkpt>
      <trkpt lat="43.71933" lon="6.08415">
        <ele>418.7</ele>
        <time>2025-11-19T13:22:26.630Z</time>
      </trkpt>
      <trkpt lat="43.71931" lon="6.08417">
        <ele>418.9</ele>
        <time>2025-11-19T13:22:30.629Z</time>
      </trkpt>
      <trkpt lat="43.7193" lon="6.0842">
        <ele>419.3</ele>
        <time>2025-11-19T13:22:43.629Z</time>
      </trkpt>
      <trkpt lat="43.71929" lon="6.08424">
        <ele>419.5</ele>
        <time>2025-11-19T13:22:46.629Z</time>
      </trkpt>
      <trkpt lat="43.71929" lon="6.08428">
        <ele>419.7</ele>
        <time>2025-11-19T13:22:49.630Z</time>
      </trkpt>
      <trkpt lat="43.71928" lon="6.08431">
        <ele>419.9</ele>
        <time>2025-11-19T13:22:52.630Z</time>
      </trkpt>
      <trkpt lat="43.71927" lon="6.08435">
        <ele>420.2</ele>
        <time>2025-11-19T13:22:55.630Z</time>
      </trkpt>
      <trkpt lat="43.71925" lon="6.08437">
        <ele>420.5</ele>
        <time>2025-11-19T13:22:58.630Z</time>
      </trkpt>
      <trkpt lat="43.71924" lon="6.0844">
        <ele>420.8</ele>
        <time>2025-11-19T13:23:01.630Z</time>
      </trkpt>
      <trkpt lat="43.71923" lon="6.08443">
        <ele>421.1</ele>
        <time>2025-11-19T13:23:05.630Z</time>
      </trkpt>
      <trkpt lat="43.71921" lon="6.08446">
        <ele>421.5</ele>
        <time>2025-11-19T13:23:09.630Z</time>
      </trkpt>
      <trkpt lat="43.71919" lon="6.08449">
        <ele>421.9</ele>
        <time>2025-11-19T13:23:12.630Z</time>
      </trkpt>
      <trkpt lat="43.71916" lon="6.0845">
        <ele>422.2</ele>
        <time>2025-11-19T13:23:15.630Z</time>
      </trkpt>
      <trkpt lat="43.71914" lon="6.08452">
        <ele>422.5</ele>
        <time>2025-11-19T13:23:19.630Z</time>
      </trkpt>
      <trkpt lat="43.71912" lon="6.08454">
        <ele>422.7</ele>
        <time>2025-11-19T13:23:22.630Z</time>
      </trkpt>
      <trkpt lat="43.71909" lon="6.08457">
        <ele>423</ele>
        <time>2025-11-19T13:23:25.630Z</time>
      </trkpt>
      <trkpt lat="43.71908" lon="6.0846">
        <ele>423.2</ele>
        <time>2025-11-19T13:23:28.630Z</time>
      </trkpt>
      <trkpt lat="43.71906" lon="6.08462">
        <ele>423.4</ele>
        <time>2025-11-19T13:23:31.629Z</time>
      </trkpt>
      <trkpt lat="43.71904" lon="6.08465">
        <ele>423.6</ele>
        <time>2025-11-19T13:23:34.630Z</time>
      </trkpt>
      <trkpt lat="43.71902" lon="6.08468">
        <ele>423.9</ele>
        <time>2025-11-19T13:23:37.630Z</time>
      </trkpt>
      <trkpt lat="43.719" lon="6.08471">
        <ele>424.1</ele>
        <time>2025-11-19T13:23:40.630Z</time>
      </trkpt>
      <trkpt lat="43.71899" lon="6.08474">
        <ele>424.2</ele>
        <time>2025-11-19T13:23:44.630Z</time>
      </trkpt>
      <trkpt lat="43.71899" lon="6.08477">
        <ele>424.3</ele>
        <time>2025-11-19T13:23:47.629Z</time>
      </trkpt>
      <trkpt lat="43.71899" lon="6.08481">
        <ele>424.3</ele>
        <time>2025-11-19T13:23:50.629Z</time>
      </trkpt>
      <trkpt lat="43.71898" lon="6.08484">
        <ele>424.4</ele>
        <time>2025-11-19T13:23:53.630Z</time>
      </trkpt>
      <trkpt lat="43.71895" lon="6.08487">
        <ele>424.5</ele>
        <time>2025-11-19T13:23:56.630Z</time>
      </trkpt>
      <trkpt lat="43.71895" lon="6.0849">
        <ele>424.6</ele>
        <time>2025-11-19T13:23:59.629Z</time>
      </trkpt>
      <trkpt lat="43.71894" lon="6.08494">
        <ele>424.6</ele>
        <time>2025-11-19T13:24:01.630Z</time>
      </trkpt>
      <trkpt lat="43.71892" lon="6.08496">
        <ele>424.8</ele>
        <time>2025-11-19T13:24:04.630Z</time>
      </trkpt>
      <trkpt lat="43.7189" lon="6.08499">
        <ele>424.9</ele>
        <time>2025-11-19T13:24:07.629Z</time>
      </trkpt>
      <trkpt lat="43.71888" lon="6.08501">
        <ele>425.1</ele>
        <time>2025-11-19T13:24:10.630Z</time>
      </trkpt>
      <trkpt lat="43.71887" lon="6.08505">
        <ele>425.2</ele>
        <time>2025-11-19T13:24:13.630Z</time>
      </trkpt>
      <trkpt lat="43.71887" lon="6.08508">
        <ele>425.4</ele>
        <time>2025-11-19T13:24:15.630Z</time>
      </trkpt>
      <trkpt lat="43.71886" lon="6.08511">
        <ele>425.5</ele>
        <time>2025-11-19T13:24:17.630Z</time>
      </trkpt>
      <trkpt lat="43.71885" lon="6.08515">
        <ele>425.6</ele>
        <time>2025-11-19T13:24:20.629Z</time>
      </trkpt>
      <trkpt lat="43.71884" lon="6.08518">
        <ele>425.7</ele>
        <time>2025-11-19T13:24:22.629Z</time>
      </trkpt>
      <trkpt lat="43.71883" lon="6.08522">
        <ele>425.8</ele>
        <time>2025-11-19T13:24:25.630Z</time>
      </trkpt>
      <trkpt lat="43.71882" lon="6.08524">
        <ele>425.9</ele>
        <time>2025-11-19T13:24:27.630Z</time>
      </trkpt>
      <trkpt lat="43.7188" lon="6.08526">
        <ele>426</ele>
        <time>2025-11-19T13:24:29.629Z</time>
      </trkpt>
      <trkpt lat="43.71877" lon="6.08528">
        <ele>426</ele>
        <time>2025-11-19T13:24:32.630Z</time>
      </trkpt>
      <trkpt lat="43.71875" lon="6.08531">
        <ele>426</ele>
        <time>2025-11-19T13:24:35.629Z</time>
      </trkpt>
      <trkpt lat="43.71873" lon="6.08533">
        <ele>426</ele>
        <time>2025-11-19T13:24:37.630Z</time>
      </trkpt>
      <trkpt lat="43.71871" lon="6.08536">
        <ele>426</ele>
        <time>2025-11-19T13:24:40.630Z</time>
      </trkpt>
      <trkpt lat="43.71869" lon="6.08539">
        <ele>426</ele>
        <time>2025-11-19T13:24:43.630Z</time>
      </trkpt>
      <trkpt lat="43.71867" lon="6.0854">
        <ele>426</ele>
        <time>2025-11-19T13:24:46.630Z</time>
      </trkpt>
      <trkpt lat="43.71864" lon="6.08543">
        <ele>426</ele>
        <time>2025-11-19T13:24:49.630Z</time>
      </trkpt>
      <trkpt lat="43.71863" lon="6.08546">
        <ele>426</ele>
        <time>2025-11-19T13:24:52.629Z</time>
      </trkpt>
      <trkpt lat="43.71861" lon="6.08548">
        <ele>426</ele>
        <time>2025-11-19T13:24:54.630Z</time>
      </trkpt>
      <trkpt lat="43.71861" lon="6.08552">
        <ele>426</ele>
        <time>2025-11-19T13:24:57.629Z</time>
      </trkpt>
      <trkpt lat="43.71862" lon="6.08557">
        <ele>426</ele>
        <time>2025-11-19T13:25:00.630Z</time>
      </trkpt>
      <trkpt lat="43.71862" lon="6.0856">
        <ele>426.1</ele>
        <time>2025-11-19T13:25:03.629Z</time>
      </trkpt>
      <trkpt lat="43.71861" lon="6.08563">
        <ele>426.3</ele>
        <time>2025-11-19T13:25:05.630Z</time>
      </trkpt>
      <trkpt lat="43.71862" lon="6.08567">
        <ele>426.4</ele>
        <time>2025-11-19T13:25:08.629Z</time>
      </trkpt>
      <trkpt lat="43.71862" lon="6.08572">
        <ele>426.5</ele>
        <time>2025-11-19T13:25:11.629Z</time>
      </trkpt>
      <trkpt lat="43.71862" lon="6.08576">
        <ele>426.7</ele>
        <time>2025-11-19T13:25:14.630Z</time>
      </trkpt>
      <trkpt lat="43.71862" lon="6.0858">
        <ele>426.8</ele>
        <time>2025-11-19T13:25:17.630Z</time>
      </trkpt>
      <trkpt lat="43.71862" lon="6.08583">
        <ele>426.9</ele>
        <time>2025-11-19T13:25:19.629Z</time>
      </trkpt>
      <trkpt lat="43.71861" lon="6.08586">
        <ele>426.9</ele>
        <time>2025-11-19T13:25:21.630Z</time>
      </trkpt>
      <trkpt lat="43.71862" lon="6.08591">
        <ele>426.7</ele>
        <time>2025-11-19T13:25:25.630Z</time>
      </trkpt>
      <trkpt lat="43.71862" lon="6.08595">
        <ele>426.5</ele>
        <time>2025-11-19T13:25:28.630Z</time>
      </trkpt>
      <trkpt lat="43.71861" lon="6.08599">
        <ele>426.4</ele>
        <time>2025-11-19T13:25:31.630Z</time>
      </trkpt>
      <trkpt lat="43.71862" lon="6.08602">
        <ele>426.3</ele>
        <time>2025-11-19T13:25:34.630Z</time>
      </trkpt>
      <trkpt lat="43.71862" lon="6.08606">
        <ele>426.1</ele>
        <time>2025-11-19T13:25:38.630Z</time>
      </trkpt>
      <trkpt lat="43.71863" lon="6.0861">
        <ele>425.9</ele>
        <time>2025-11-19T13:25:41.630Z</time>
      </trkpt>
      <trkpt lat="43.71864" lon="6.08613">
        <ele>425.7</ele>
        <time>2025-11-19T13:25:44.630Z</time>
      </trkpt>
      <trkpt lat="43.71864" lon="6.08617">
        <ele>425.3</ele>
        <time>2025-11-19T13:25:48.630Z</time>
      </trkpt>
      <trkpt lat="43.71865" lon="6.0862">
        <ele>425.1</ele>
        <time>2025-11-19T13:25:51.630Z</time>
      </trkpt>
      <trkpt lat="43.71864" lon="6.08624">
        <ele>424.9</ele>
        <time>2025-11-19T13:25:56.630Z</time>
      </trkpt>
      <trkpt lat="43.71864" lon="6.08627">
        <ele>424.7</ele>
        <time>2025-11-19T13:26:00.630Z</time>
      </trkpt>
      <trkpt lat="43.71864" lon="6.08631">
        <ele>424.4</ele>
        <time>2025-11-19T13:26:05.630Z</time>
      </trkpt>
      <trkpt lat="43.71864" lon="6.08634">
        <ele>424.2</ele>
        <time>2025-11-19T13:26:09.630Z</time>
      </trkpt>
      <trkpt lat="43.71863" lon="6.08638">
        <ele>424</ele>
        <time>2025-11-19T13:26:14.630Z</time>
      </trkpt>
      <trkpt lat="43.71861" lon="6.0864">
        <ele>423.9</ele>
        <time>2025-11-19T13:26:16.629Z</time>
      </trkpt>
      <trkpt lat="43.71858" lon="6.08643">
        <ele>423.7</ele>
        <time>2025-11-19T13:26:19.630Z</time>
      </trkpt>
      <trkpt lat="43.71856" lon="6.08643">
        <ele>423.7</ele>
        <time>2025-11-19T13:26:22.630Z</time>
      </trkpt>
      <trkpt lat="43.71853" lon="6.08644">
        <ele>423.7</ele>
        <time>2025-11-19T13:26:25.630Z</time>
      </trkpt>
      <trkpt lat="43.7185" lon="6.08644">
        <ele>423.7</ele>
        <time>2025-11-19T13:26:28.630Z</time>
      </trkpt>
      <trkpt lat="43.71847" lon="6.08643">
        <ele>423.8</ele>
        <time>2025-11-19T13:26:31.630Z</time>
      </trkpt>
      <trkpt lat="43.71844" lon="6.08642">
        <ele>423.8</ele>
        <time>2025-11-19T13:26:34.630Z</time>
      </trkpt>
      <trkpt lat="43.71841" lon="6.08642">
        <ele>423.9</ele>
        <time>2025-11-19T13:26:37.630Z</time>
      </trkpt>
      <trkpt lat="43.71838" lon="6.08641">
        <ele>423.9</ele>
        <time>2025-11-19T13:26:41.630Z</time>
      </trkpt>
      <trkpt lat="43.71835" lon="6.08641">
        <ele>423.9</ele>
        <time>2025-11-19T13:26:44.630Z</time>
      </trkpt>
      <trkpt lat="43.71832" lon="6.08642">
        <ele>423.7</ele>
        <time>2025-11-19T13:26:47.630Z</time>
      </trkpt>
      <trkpt lat="43.7183" lon="6.08643">
        <ele>423.5</ele>
        <time>2025-11-19T13:26:50.630Z</time>
      </trkpt>
      <trkpt lat="43.71827" lon="6.08644">
        <ele>423.1</ele>
        <time>2025-11-19T13:26:53.630Z</time>
      </trkpt>
      <trkpt lat="43.71824" lon="6.08645">
        <ele>422.8</ele>
        <time>2025-11-19T13:26:56.630Z</time>
      </trkpt>
      <trkpt lat="43.71821" lon="6.08646">
        <ele>422.4</ele>
        <time>2025-11-19T13:26:59.630Z</time>
      </trkpt>
      <trkpt lat="43.71818" lon="6.08646">
        <ele>422.1</ele>
        <time>2025-11-19T13:27:02.630Z</time>
      </trkpt>
      <trkpt lat="43.71815" lon="6.08647">
        <ele>421.8</ele>
        <time>2025-11-19T13:27:05.630Z</time>
      </trkpt>
      <trkpt lat="43.71814" lon="6.08649">
        <ele>421.5</ele>
        <time>2025-11-19T13:27:09.630Z</time>
      </trkpt>
      <trkpt lat="43.71811" lon="6.0865">
        <ele>421.2</ele>
        <time>2025-11-19T13:27:19.630Z</time>
      </trkpt>
      <trkpt lat="43.71808" lon="6.08651">
        <ele>420.9</ele>
        <time>2025-11-19T13:27:28.630Z</time>
      </trkpt>
      <trkpt lat="43.71806" lon="6.08649">
        <ele>420.6</ele>
        <time>2025-11-19T13:27:38.630Z</time>
      </trkpt>
      <trkpt lat="43.71803" lon="6.08648">
        <ele>420.3</ele>
        <time>2025-11-19T13:27:41.630Z</time>
      </trkpt>
      <trkpt lat="43.71801" lon="6.08646">
        <ele>420</ele>
        <time>2025-11-19T13:27:55.630Z</time>
      </trkpt>
      <trkpt lat="43.71798" lon="6.08645">
        <ele>419.8</ele>
        <time>2025-11-19T13:27:58.630Z</time>
      </trkpt>
      <trkpt lat="43.71796" lon="6.08643">
        <ele>419.8</ele>
        <time>2025-11-19T13:28:00.630Z</time>
      </trkpt>
      <trkpt lat="43.71794" lon="6.0864">
        <ele>420.4</ele>
        <time>2025-11-19T13:28:05.631Z</time>
      </trkpt>
      <trkpt lat="43.71792" lon="6.08638">
        <ele>420.6</ele>
        <time>2025-11-19T13:28:07.630Z</time>
      </trkpt>
      <trkpt lat="43.7179" lon="6.08635">
        <ele>420.6</ele>
        <time>2025-11-19T13:28:10.630Z</time>
      </trkpt>
      <trkpt lat="43.71787" lon="6.08632">
        <ele>420.7</ele>
        <time>2025-11-19T13:28:13.630Z</time>
      </trkpt>
      <trkpt lat="43.71786" lon="6.08628">
        <ele>420.8</ele>
        <time>2025-11-19T13:28:16.630Z</time>
      </trkpt>
      <trkpt lat="43.71786" lon="6.08624">
        <ele>421</ele>
        <time>2025-11-19T13:28:20.630Z</time>
      </trkpt>
      <trkpt lat="43.71786" lon="6.08621">
        <ele>421.1</ele>
        <time>2025-11-19T13:28:23.630Z</time>
      </trkpt>
      <trkpt lat="43.71784" lon="6.08617">
        <ele>421.2</ele>
        <time>2025-11-19T13:28:26.630Z</time>
      </trkpt>
      <trkpt lat="43.71784" lon="6.08614">
        <ele>421.3</ele>
        <time>2025-11-19T13:28:29.630Z</time>
      </trkpt>
      <trkpt lat="43.71782" lon="6.08612">
        <ele>421.2</ele>
        <time>2025-11-19T13:28:33.630Z</time>
      </trkpt>
      <trkpt lat="43.71779" lon="6.08611">
        <ele>421.1</ele>
        <time>2025-11-19T13:28:38.630Z</time>
      </trkpt>
      <trkpt lat="43.71777" lon="6.08608">
        <ele>421.1</ele>
        <time>2025-11-19T13:28:45.630Z</time>
      </trkpt>
      <trkpt lat="43.71775" lon="6.08606">
        <ele>421</ele>
        <time>2025-11-19T13:28:48.630Z</time>
      </trkpt>
      <trkpt lat="43.71773" lon="6.08604">
        <ele>420.9</ele>
        <time>2025-11-19T13:28:52.630Z</time>
      </trkpt>
      <trkpt lat="43.71771" lon="6.08602">
        <ele>420.8</ele>
        <time>2025-11-19T13:28:56.630Z</time>
      </trkpt>
      <trkpt lat="43.71768" lon="6.08599">
        <ele>420.7</ele>
        <time>2025-11-19T13:28:59.630Z</time>
      </trkpt>
      <trkpt lat="43.71766" lon="6.08598">
        <ele>420.6</ele>
        <time>2025-11-19T13:29:02.630Z</time>
      </trkpt>
      <trkpt lat="43.71764" lon="6.08596">
        <ele>420.6</ele>
        <time>2025-11-19T13:29:05.630Z</time>
      </trkpt>
      <trkpt lat="43.71762" lon="6.08593">
        <ele>420.5</ele>
        <time>2025-11-19T13:29:09.630Z</time>
      </trkpt>
      <trkpt lat="43.7176" lon="6.08591">
        <ele>420.5</ele>
        <time>2025-11-19T13:29:12.631Z</time>
      </trkpt>
      <trkpt lat="43.71759" lon="6.08588">
        <ele>420.5</ele>
        <time>2025-11-19T13:29:15.630Z</time>
      </trkpt>
      <trkpt lat="43.71756" lon="6.08586">
        <ele>420.4</ele>
        <time>2025-11-19T13:29:19.631Z</time>
      </trkpt>
      <trkpt lat="43.71754" lon="6.08585">
        <ele>420.2</ele>
        <time>2025-11-19T13:29:25.630Z</time>
      </trkpt>
      <trkpt lat="43.71751" lon="6.08582">
        <ele>420.1</ele>
        <time>2025-11-19T13:29:28.630Z</time>
      </trkpt>
      <trkpt lat="43.71749" lon="6.0858">
        <ele>419.8</ele>
        <time>2025-11-19T13:29:31.630Z</time>
      </trkpt>
      <trkpt lat="43.71747" lon="6.08576">
        <ele>419.6</ele>
        <time>2025-11-19T13:29:35.630Z</time>
      </trkpt>
      <trkpt lat="43.71747" lon="6.08573">
        <ele>419.8</ele>
        <time>2025-11-19T13:29:38.630Z</time>
      </trkpt>
      <trkpt lat="43.71746" lon="6.08569">
        <ele>419.9</ele>
        <time>2025-11-19T13:29:41.630Z</time>
      </trkpt>
      <trkpt lat="43.71745" lon="6.08566">
        <ele>419.9</ele>
        <time>2025-11-19T13:29:44.630Z</time>
      </trkpt>
      <trkpt lat="43.71743" lon="6.08564">
        <ele>419.7</ele>
        <time>2025-11-19T13:29:48.631Z</time>
      </trkpt>
      <trkpt lat="43.71741" lon="6.08563">
        <ele>419.7</ele>
        <time>2025-11-19T13:29:52.631Z</time>
      </trkpt>
      <trkpt lat="43.71738" lon="6.08561">
        <ele>419.5</ele>
        <time>2025-11-19T13:29:56.630Z</time>
      </trkpt>
      <trkpt lat="43.71736" lon="6.08559">
        <ele>419.5</ele>
        <time>2025-11-19T13:29:59.631Z</time>
      </trkpt>
      <trkpt lat="43.71734" lon="6.08558">
        <ele>419.6</ele>
        <time>2025-11-19T13:30:02.630Z</time>
      </trkpt>
      <trkpt lat="43.71732" lon="6.08556">
        <ele>419.7</ele>
        <time>2025-11-19T13:30:05.630Z</time>
      </trkpt>
      <trkpt lat="43.71728" lon="6.08555">
        <ele>419.4</ele>
        <time>2025-11-19T13:30:12.630Z</time>
      </trkpt>
      <trkpt lat="43.71725" lon="6.08556">
        <ele>419.2</ele>
        <time>2025-11-19T13:30:15.631Z</time>
      </trkpt>
      <trkpt lat="43.71723" lon="6.08555">
        <ele>419</ele>
        <time>2025-11-19T13:30:18.630Z</time>
      </trkpt>
      <trkpt lat="43.7172" lon="6.08554">
        <ele>418.3</ele>
        <time>2025-11-19T13:30:22.630Z</time>
      </trkpt>
      <trkpt lat="43.71719" lon="6.08552">
        <ele>417.9</ele>
        <time>2025-11-19T13:30:25.630Z</time>
      </trkpt>
      <trkpt lat="43.71718" lon="6.08548">
        <ele>417.8</ele>
        <time>2025-11-19T13:30:29.630Z</time>
      </trkpt>
      <trkpt lat="43.71717" lon="6.08545">
        <ele>417.8</ele>
        <time>2025-11-19T13:30:32.631Z</time>
      </trkpt>
      <trkpt lat="43.71714" lon="6.08543">
        <ele>417.4</ele>
        <time>2025-11-19T13:30:36.631Z</time>
      </trkpt>
      <trkpt lat="43.71712" lon="6.0854">
        <ele>417.1</ele>
        <time>2025-11-19T13:30:39.630Z</time>
      </trkpt>
      <trkpt lat="43.7171" lon="6.08539">
        <ele>416.8</ele>
        <time>2025-11-19T13:30:42.630Z</time>
      </trkpt>
      <trkpt lat="43.71708" lon="6.08535">
        <ele>417.2</ele>
        <time>2025-11-19T13:30:46.630Z</time>
      </trkpt>
      <trkpt lat="43.71707" lon="6.08532">
        <ele>417.5</ele>
        <time>2025-11-19T13:30:50.631Z</time>
      </trkpt>
      <trkpt lat="43.71707" lon="6.08529">
        <ele>418.2</ele>
        <time>2025-11-19T13:30:53.630Z</time>
      </trkpt>
      <trkpt lat="43.71707" lon="6.08525">
        <ele>418.5</ele>
        <time>2025-11-19T13:30:57.630Z</time>
      </trkpt>
      <trkpt lat="43.71706" lon="6.08521">
        <ele>418.6</ele>
        <time>2025-11-19T13:31:00.630Z</time>
      </trkpt>
      <trkpt lat="43.71705" lon="6.08517">
        <ele>418.7</ele>
        <time>2025-11-19T13:31:03.630Z</time>
      </trkpt>
      <trkpt lat="43.71704" lon="6.08513">
        <ele>418.9</ele>
        <time>2025-11-19T13:31:06.630Z</time>
      </trkpt>
      <trkpt lat="43.71703" lon="6.0851">
        <ele>419</ele>
        <time>2025-11-19T13:31:09.630Z</time>
      </trkpt>
      <trkpt lat="43.71702" lon="6.08507">
        <ele>419.1</ele>
        <time>2025-11-19T13:31:14.631Z</time>
      </trkpt>
      <trkpt lat="43.71701" lon="6.08504">
        <ele>419.2</ele>
        <time>2025-11-19T13:31:17.630Z</time>
      </trkpt>
      <trkpt lat="43.71698" lon="6.08503">
        <ele>419.1</ele>
        <time>2025-11-19T13:31:21.631Z</time>
      </trkpt>
      <trkpt lat="43.71697" lon="6.085">
        <ele>419.2</ele>
        <time>2025-11-19T13:31:24.630Z</time>
      </trkpt>
      <trkpt lat="43.71697" lon="6.08497">
        <ele>419.3</ele>
        <time>2025-11-19T13:31:28.630Z</time>
      </trkpt>
      <trkpt lat="43.71696" lon="6.08493">
        <ele>419.4</ele>
        <time>2025-11-19T13:31:31.631Z</time>
      </trkpt>
      <trkpt lat="43.71696" lon="6.08489">
        <ele>419.5</ele>
        <time>2025-11-19T13:31:35.631Z</time>
      </trkpt>
      <trkpt lat="43.71695" lon="6.08485">
        <ele>419.5</ele>
        <time>2025-11-19T13:31:39.630Z</time>
      </trkpt>
      <trkpt lat="43.71694" lon="6.08482">
        <ele>419.6</ele>
        <time>2025-11-19T13:31:44.630Z</time>
      </trkpt>
      <trkpt lat="43.71694" lon="6.08478">
        <ele>419.6</ele>
        <time>2025-11-19T13:31:47.630Z</time>
      </trkpt>
      <trkpt lat="43.71692" lon="6.08475">
        <ele>419.3</ele>
        <time>2025-11-19T13:31:50.630Z</time>
      </trkpt>
      <trkpt lat="43.71691" lon="6.08472">
        <ele>419.2</ele>
        <time>2025-11-19T13:31:53.630Z</time>
      </trkpt>
      <trkpt lat="43.7169" lon="6.08468">
        <ele>419.3</ele>
        <time>2025-11-19T13:31:56.631Z</time>
      </trkpt>
      <trkpt lat="43.7169" lon="6.08465">
        <ele>419.5</ele>
        <time>2025-11-19T13:31:59.630Z</time>
      </trkpt>
      <trkpt lat="43.71688" lon="6.08461">
        <ele>419.4</ele>
        <time>2025-11-19T13:32:02.630Z</time>
      </trkpt>
      <trkpt lat="43.71687" lon="6.08458">
        <ele>419.6</ele>
        <time>2025-11-19T13:32:05.630Z</time>
      </trkpt>
      <trkpt lat="43.71685" lon="6.08455">
        <ele>419.6</ele>
        <time>2025-11-19T13:32:07.630Z</time>
      </trkpt>
      <trkpt lat="43.71684" lon="6.08453">
        <ele>419.7</ele>
        <time>2025-11-19T13:32:10.630Z</time>
      </trkpt>
      <trkpt lat="43.71682" lon="6.08451">
        <ele>419.8</ele>
        <time>2025-11-19T13:32:13.630Z</time>
      </trkpt>
      <trkpt lat="43.71679" lon="6.08449">
        <ele>419.8</ele>
        <time>2025-11-19T13:32:16.630Z</time>
      </trkpt>
      <trkpt lat="43.71677" lon="6.08447">
        <ele>420</ele>
        <time>2025-11-19T13:32:19.631Z</time>
      </trkpt>
      <trkpt lat="43.71675" lon="6.08445">
        <ele>420.2</ele>
        <time>2025-11-19T13:32:22.630Z</time>
      </trkpt>
      <trkpt lat="43.71673" lon="6.08445">
        <ele>420.2</ele>
        <time>2025-11-19T13:32:26.631Z</time>
      </trkpt>
      <trkpt lat="43.7167" lon="6.08443">
        <ele>420.2</ele>
        <time>2025-11-19T13:32:29.631Z</time>
      </trkpt>
      <trkpt lat="43.71668" lon="6.08441">
        <ele>420.2</ele>
        <time>2025-11-19T13:32:32.630Z</time>
      </trkpt>
      <trkpt lat="43.71665" lon="6.0844">
        <ele>420.1</ele>
        <time>2025-11-19T13:32:35.630Z</time>
      </trkpt>
      <trkpt lat="43.71663" lon="6.08439">
        <ele>420</ele>
        <time>2025-11-19T13:32:38.631Z</time>
      </trkpt>
      <trkpt lat="43.71661" lon="6.08438">
        <ele>419.8</ele>
        <time>2025-11-19T13:32:41.631Z</time>
      </trkpt>
      <trkpt lat="43.71659" lon="6.08435">
        <ele>419.8</ele>
        <time>2025-11-19T13:32:44.631Z</time>
      </trkpt>
      <trkpt lat="43.71657" lon="6.08433">
        <ele>419.7</ele>
        <time>2025-11-19T13:32:48.630Z</time>
      </trkpt>
      <trkpt lat="43.71655" lon="6.0843">
        <ele>419.7</ele>
        <time>2025-11-19T13:32:51.631Z</time>
      </trkpt>
      <trkpt lat="43.71653" lon="6.08428">
        <ele>419.6</ele>
        <time>2025-11-19T13:32:54.631Z</time>
      </trkpt>
      <trkpt lat="43.7165" lon="6.08426">
        <ele>419.5</ele>
        <time>2025-11-19T13:32:57.630Z</time>
      </trkpt>
      <trkpt lat="43.71648" lon="6.08424">
        <ele>419.4</ele>
        <time>2025-11-19T13:33:01.630Z</time>
      </trkpt>
      <trkpt lat="43.71645" lon="6.08422">
        <ele>419.3</ele>
        <time>2025-11-19T13:33:04.630Z</time>
      </trkpt>
      <trkpt lat="43.71643" lon="6.08421">
        <ele>419.1</ele>
        <time>2025-11-19T13:33:07.631Z</time>
      </trkpt>
      <trkpt lat="43.71641" lon="6.08419">
        <ele>419.1</ele>
        <time>2025-11-19T13:33:10.630Z</time>
      </trkpt>
      <trkpt lat="43.71639" lon="6.08417">
        <ele>418.9</ele>
        <time>2025-11-19T13:33:14.630Z</time>
      </trkpt>
      <trkpt lat="43.71636" lon="6.08416">
        <ele>418.1</ele>
        <time>2025-11-19T13:33:17.630Z</time>
      </trkpt>
      <trkpt lat="43.71634" lon="6.08414">
        <ele>417.4</ele>
        <time>2025-11-19T13:33:20.630Z</time>
      </trkpt>
      <trkpt lat="43.71632" lon="6.08413">
        <ele>416.9</ele>
        <time>2025-11-19T13:33:23.631Z</time>
      </trkpt>
      <trkpt lat="43.7163" lon="6.08411">
        <ele>416.2</ele>
        <time>2025-11-19T13:33:27.631Z</time>
      </trkpt>
      <trkpt lat="43.71627" lon="6.08411">
        <ele>415.4</ele>
        <time>2025-11-19T13:33:30.630Z</time>
      </trkpt>
      <trkpt lat="43.71625" lon="6.0841">
        <ele>414.9</ele>
        <time>2025-11-19T13:33:33.631Z</time>
      </trkpt>
      <trkpt lat="43.71621" lon="6.0841">
        <ele>413.8</ele>
        <time>2025-11-19T13:33:37.630Z</time>
      </trkpt>
      <trkpt lat="43.7162" lon="6.08407">
        <ele>414.3</ele>
        <time>2025-11-19T13:33:40.630Z</time>
      </trkpt>
      <trkpt lat="43.71618" lon="6.08402">
        <ele>415.1</ele>
        <time>2025-11-19T13:33:47.631Z</time>
      </trkpt>
      <trkpt lat="43.71616" lon="6.08401">
        <ele>415.2</ele>
        <time>2025-11-19T13:33:49.630Z</time>
      </trkpt>
      <trkpt lat="43.71614" lon="6.08398">
        <ele>415.8</ele>
        <time>2025-11-19T13:33:52.630Z</time>
      </trkpt>
      <trkpt lat="43.71612" lon="6.08395">
        <ele>416.9</ele>
        <time>2025-11-19T13:33:55.630Z</time>
      </trkpt>
      <trkpt lat="43.7161" lon="6.08392">
        <ele>417.4</ele>
        <time>2025-11-19T13:33:58.631Z</time>
      </trkpt>
      <trkpt lat="43.71608" lon="6.08389">
        <ele>417.5</ele>
        <time>2025-11-19T13:34:01.630Z</time>
      </trkpt>
      <trkpt lat="43.71606" lon="6.08386">
        <ele>416.9</ele>
        <time>2025-11-19T13:34:04.631Z</time>
      </trkpt>
      <trkpt lat="43.71606" lon="6.08381">
        <ele>417</ele>
        <time>2025-11-19T13:34:08.631Z</time>
      </trkpt>
      <trkpt lat="43.71605" lon="6.08378">
        <ele>416.9</ele>
        <time>2025-11-19T13:34:11.630Z</time>
      </trkpt>
      <trkpt lat="43.71605" lon="6.08374">
        <ele>417</ele>
        <time>2025-11-19T13:34:14.631Z</time>
      </trkpt>
      <trkpt lat="43.71605" lon="6.0837">
        <ele>417.2</ele>
        <time>2025-11-19T13:34:17.631Z</time>
      </trkpt>
      <trkpt lat="43.71604" lon="6.08367">
        <ele>417.4</ele>
        <time>2025-11-19T13:34:20.631Z</time>
      </trkpt>
      <trkpt lat="43.71603" lon="6.08364">
        <ele>417.3</ele>
        <time>2025-11-19T13:34:23.631Z</time>
      </trkpt>
      <trkpt lat="43.71601" lon="6.08361">
        <ele>416.8</ele>
        <time>2025-11-19T13:34:26.630Z</time>
      </trkpt>
      <trkpt lat="43.71599" lon="6.08358">
        <ele>416.4</ele>
        <time>2025-11-19T13:34:30.631Z</time>
      </trkpt>
      <trkpt lat="43.71597" lon="6.08356">
        <ele>416</ele>
        <time>2025-11-19T13:34:35.630Z</time>
      </trkpt>
      <trkpt lat="43.71596" lon="6.08352">
        <ele>416</ele>
        <time>2025-11-19T13:34:39.631Z</time>
      </trkpt>
      <trkpt lat="43.71594" lon="6.08349">
        <ele>415.9</ele>
        <time>2025-11-19T13:34:42.631Z</time>
      </trkpt>
      <trkpt lat="43.71593" lon="6.08345">
        <ele>416</ele>
        <time>2025-11-19T13:34:46.630Z</time>
      </trkpt>
      <trkpt lat="43.71591" lon="6.08343">
        <ele>415.8</ele>
        <time>2025-11-19T13:34:50.630Z</time>
      </trkpt>
      <trkpt lat="43.71588" lon="6.08339">
        <ele>415.8</ele>
        <time>2025-11-19T13:34:53.631Z</time>
      </trkpt>
      <trkpt lat="43.71586" lon="6.08336">
        <ele>416</ele>
        <time>2025-11-19T13:34:56.630Z</time>
      </trkpt>
      <trkpt lat="43.71584" lon="6.08333">
        <ele>416.1</ele>
        <time>2025-11-19T13:34:59.631Z</time>
      </trkpt>
      <trkpt lat="43.71582" lon="6.0833">
        <ele>415.5</ele>
        <time>2025-11-19T13:35:02.631Z</time>
      </trkpt>
      <trkpt lat="43.7158" lon="6.08326">
        <ele>415.2</ele>
        <time>2025-11-19T13:35:05.631Z</time>
      </trkpt>
      <trkpt lat="43.71579" lon="6.08322">
        <ele>415.2</ele>
        <time>2025-11-19T13:35:09.630Z</time>
      </trkpt>
      <trkpt lat="43.71578" lon="6.08319">
        <ele>415</ele>
        <time>2025-11-19T13:35:13.631Z</time>
      </trkpt>
      <trkpt lat="43.71575" lon="6.08316">
        <ele>414.7</ele>
        <time>2025-11-19T13:35:16.630Z</time>
      </trkpt>
      <trkpt lat="43.71575" lon="6.08313">
        <ele>415</ele>
        <time>2025-11-19T13:35:18.631Z</time>
      </trkpt>
      <trkpt lat="43.71574" lon="6.08309">
        <ele>415.2</ele>
        <time>2025-11-19T13:35:21.630Z</time>
      </trkpt>
      <trkpt lat="43.71572" lon="6.08305">
        <ele>415.4</ele>
        <time>2025-11-19T13:35:24.631Z</time>
      </trkpt>
      <trkpt lat="43.7157" lon="6.08303">
        <ele>415.1</ele>
        <time>2025-11-19T13:35:26.631Z</time>
      </trkpt>
      <trkpt lat="43.71569" lon="6.083">
        <ele>414.9</ele>
        <time>2025-11-19T13:35:29.631Z</time>
      </trkpt>
      <trkpt lat="43.71568" lon="6.08296">
        <ele>414.7</ele>
        <time>2025-11-19T13:35:32.631Z</time>
      </trkpt>
      <trkpt lat="43.71567" lon="6.08293">
        <ele>414.4</ele>
        <time>2025-11-19T13:35:35.631Z</time>
      </trkpt>
      <trkpt lat="43.71566" lon="6.08289">
        <ele>414.3</ele>
        <time>2025-11-19T13:35:38.631Z</time>
      </trkpt>
      <trkpt lat="43.71565" lon="6.08286">
        <ele>414.1</ele>
        <time>2025-11-19T13:35:42.631Z</time>
      </trkpt>
      <trkpt lat="43.71563" lon="6.08283">
        <ele>413.9</ele>
        <time>2025-11-19T13:35:45.630Z</time>
      </trkpt>
      <trkpt lat="43.71562" lon="6.0828">
        <ele>413.8</ele>
        <time>2025-11-19T13:35:49.630Z</time>
      </trkpt>
      <trkpt lat="43.71561" lon="6.08278">
        <ele>413.5</ele>
        <time>2025-11-19T13:35:53.631Z</time>
      </trkpt>
      <trkpt lat="43.71558" lon="6.08277">
        <ele>413.3</ele>
        <time>2025-11-19T13:35:59.631Z</time>
      </trkpt>
      <trkpt lat="43.71557" lon="6.08274">
        <ele>413.1</ele>
        <time>2025-11-19T13:36:02.630Z</time>
      </trkpt>
      <trkpt lat="43.71556" lon="6.08271">
        <ele>413</ele>
        <time>2025-11-19T13:36:05.631Z</time>
      </trkpt>
      <trkpt lat="43.71555" lon="6.08267">
        <ele>412.9</ele>
        <time>2025-11-19T13:36:09.631Z</time>
      </trkpt>
      <trkpt lat="43.71555" lon="6.08264">
        <ele>412.9</ele>
        <time>2025-11-19T13:36:11.630Z</time>
      </trkpt>
      <trkpt lat="43.71553" lon="6.08261">
        <ele>412.8</ele>
        <time>2025-11-19T13:36:14.631Z</time>
      </trkpt>
      <trkpt lat="43.71551" lon="6.08257">
        <ele>412.7</ele>
        <time>2025-11-19T13:36:17.631Z</time>
      </trkpt>
      <trkpt lat="43.71551" lon="6.08253">
        <ele>412.8</ele>
        <time>2025-11-19T13:36:22.631Z</time>
      </trkpt>
      <trkpt lat="43.71549" lon="6.08252">
        <ele>412.7</ele>
        <time>2025-11-19T13:36:26.630Z</time>
      </trkpt>
      <trkpt lat="43.71546" lon="6.08253">
        <ele>412.5</ele>
        <time>2025-11-19T13:36:31.630Z</time>
      </trkpt>
      <trkpt lat="43.71543" lon="6.08251">
        <ele>412.5</ele>
        <time>2025-11-19T13:36:35.631Z</time>
      </trkpt>
      <trkpt lat="43.71541" lon="6.08251">
        <ele>412.4</ele>
        <time>2025-11-19T13:36:37.631Z</time>
      </trkpt>
      <trkpt lat="43.71539" lon="6.08249">
        <ele>412.5</ele>
        <time>2025-11-19T13:36:40.631Z</time>
      </trkpt>
      <trkpt lat="43.71536" lon="6.08247">
        <ele>412.6</ele>
        <time>2025-11-19T13:36:44.631Z</time>
      </trkpt>
      <trkpt lat="43.71535" lon="6.08244">
        <ele>412.8</ele>
        <time>2025-11-19T13:36:47.631Z</time>
      </trkpt>
      <trkpt lat="43.71533" lon="6.08243">
        <ele>412.9</ele>
        <time>2025-11-19T13:36:50.631Z</time>
      </trkpt>
      <trkpt lat="43.7153" lon="6.08242">
        <ele>412.9</ele>
        <time>2025-11-19T13:36:52.631Z</time>
      </trkpt>
      <trkpt lat="43.71528" lon="6.08241">
        <ele>412.9</ele>
        <time>2025-11-19T13:36:54.631Z</time>
      </trkpt>
      <trkpt lat="43.71524" lon="6.0824">
        <ele>412.3</ele>
        <time>2025-11-19T13:36:57.631Z</time>
      </trkpt>
      <trkpt lat="43.71521" lon="6.08241">
        <ele>411.6</ele>
        <time>2025-11-19T13:37:00.631Z</time>
      </trkpt>
      <trkpt lat="43.71519" lon="6.0824">
        <ele>411.2</ele>
        <time>2025-11-19T13:37:03.631Z</time>
      </trkpt>
      <trkpt lat="43.71516" lon="6.0824">
        <ele>410.7</ele>
        <time>2025-11-19T13:37:06.631Z</time>
      </trkpt>
      <trkpt lat="43.71515" lon="6.08237">
        <ele>410.8</ele>
        <time>2025-11-19T13:37:10.630Z</time>
      </trkpt>
      <trkpt lat="43.71513" lon="6.08234">
        <ele>410.8</ele>
        <time>2025-11-19T13:37:13.630Z</time>
      </trkpt>
      <trkpt lat="43.7151" lon="6.08233">
        <ele>410.7</ele>
        <time>2025-11-19T13:37:17.630Z</time>
      </trkpt>
      <trkpt lat="43.71509" lon="6.08231">
        <ele>410.7</ele>
        <time>2025-11-19T13:37:20.631Z</time>
      </trkpt>
      <trkpt lat="43.71505" lon="6.08229">
        <ele>410.5</ele>
        <time>2025-11-19T13:37:24.631Z</time>
      </trkpt>
      <trkpt lat="43.71503" lon="6.08225">
        <ele>410.9</ele>
        <time>2025-11-19T13:37:27.631Z</time>
      </trkpt>
      <trkpt lat="43.71502" lon="6.08222">
        <ele>411.2</ele>
        <time>2025-11-19T13:37:30.630Z</time>
      </trkpt>
      <trkpt lat="43.71499" lon="6.08219">
        <ele>411.2</ele>
        <time>2025-11-19T13:37:33.631Z</time>
      </trkpt>
      <trkpt lat="43.71497" lon="6.08216">
        <ele>411.1</ele>
        <time>2025-11-19T13:37:36.631Z</time>
      </trkpt>
      <trkpt lat="43.71496" lon="6.08213">
        <ele>411.1</ele>
        <time>2025-11-19T13:37:38.631Z</time>
      </trkpt>
      <trkpt lat="43.71495" lon="6.0821">
        <ele>411.3</ele>
        <time>2025-11-19T13:37:41.631Z</time>
      </trkpt>
      <trkpt lat="43.71493" lon="6.08209">
        <ele>410.9</ele>
        <time>2025-11-19T13:37:44.631Z</time>
      </trkpt>
      <trkpt lat="43.71491" lon="6.08205">
        <ele>411.1</ele>
        <time>2025-11-19T13:37:47.631Z</time>
      </trkpt>
      <trkpt lat="43.71489" lon="6.08203">
        <ele>411</ele>
        <time>2025-11-19T13:37:50.630Z</time>
      </trkpt>
      <trkpt lat="43.71488" lon="6.082">
        <ele>411</ele>
        <time>2025-11-19T13:37:53.631Z</time>
      </trkpt>
      <trkpt lat="43.71486" lon="6.08197">
        <ele>411.2</ele>
        <time>2025-11-19T13:37:56.631Z</time>
      </trkpt>
      <trkpt lat="43.71486" lon="6.08194">
        <ele>411.5</ele>
        <time>2025-11-19T13:38:00.630Z</time>
      </trkpt>
      <trkpt lat="43.71484" lon="6.0819">
        <ele>411.6</ele>
        <time>2025-11-19T13:38:04.631Z</time>
      </trkpt>
      <trkpt lat="43.71484" lon="6.08186">
        <ele>411.9</ele>
        <time>2025-11-19T13:38:08.631Z</time>
      </trkpt>
      <trkpt lat="43.71483" lon="6.08183">
        <ele>412.2</ele>
        <time>2025-11-19T13:38:11.631Z</time>
      </trkpt>
      <trkpt lat="43.71482" lon="6.0818">
        <ele>412.4</ele>
        <time>2025-11-19T13:38:13.631Z</time>
      </trkpt>
      <trkpt lat="43.7148" lon="6.08177">
        <ele>412.3</ele>
        <time>2025-11-19T13:38:16.631Z</time>
      </trkpt>
      <trkpt lat="43.71479" lon="6.08174">
        <ele>412.4</ele>
        <time>2025-11-19T13:38:19.631Z</time>
      </trkpt>
      <trkpt lat="43.71478" lon="6.08169">
        <ele>412.8</ele>
        <time>2025-11-19T13:38:22.631Z</time>
      </trkpt>
      <trkpt lat="43.71477" lon="6.08165">
        <ele>413.2</ele>
        <time>2025-11-19T13:38:25.631Z</time>
      </trkpt>
      <trkpt lat="43.71476" lon="6.08162">
        <ele>413.4</ele>
        <time>2025-11-19T13:38:28.631Z</time>
      </trkpt>
      <trkpt lat="43.71475" lon="6.08158">
        <ele>413.7</ele>
        <time>2025-11-19T13:38:31.631Z</time>
      </trkpt>
      <trkpt lat="43.71474" lon="6.08155">
        <ele>414</ele>
        <time>2025-11-19T13:38:34.631Z</time>
      </trkpt>
      <trkpt lat="43.71474" lon="6.08152">
        <ele>414.5</ele>
        <time>2025-11-19T13:38:38.631Z</time>
      </trkpt>
      <trkpt lat="43.71473" lon="6.08148">
        <ele>414.8</ele>
        <time>2025-11-19T13:38:43.631Z</time>
      </trkpt>
      <trkpt lat="43.71471" lon="6.08145">
        <ele>414.9</ele>
        <time>2025-11-19T13:38:47.631Z</time>
      </trkpt>
      <trkpt lat="43.71471" lon="6.08142">
        <ele>415.4</ele>
        <time>2025-11-19T13:38:50.631Z</time>
      </trkpt>
      <trkpt lat="43.7147" lon="6.08138">
        <ele>415.7</ele>
        <time>2025-11-19T13:38:53.631Z</time>
      </trkpt>
      <trkpt lat="43.7147" lon="6.08135">
        <ele>415.9</ele>
        <time>2025-11-19T13:38:56.631Z</time>
      </trkpt>
      <trkpt lat="43.71469" lon="6.08131">
        <ele>416</ele>
        <time>2025-11-19T13:39:01.631Z</time>
      </trkpt>
      <trkpt lat="43.71468" lon="6.08129">
        <ele>415.8</ele>
        <time>2025-11-19T13:39:05.631Z</time>
      </trkpt>
      <trkpt lat="43.71465" lon="6.08127">
        <ele>415.6</ele>
        <time>2025-11-19T13:39:10.631Z</time>
      </trkpt>
      <trkpt lat="43.71464" lon="6.08124">
        <ele>415.6</ele>
        <time>2025-11-19T13:39:16.631Z</time>
      </trkpt>
      <trkpt lat="43.71463" lon="6.0812">
        <ele>415.8</ele>
        <time>2025-11-19T13:41:15.631Z</time>
      </trkpt>
      <trkpt lat="43.71462" lon="6.08116">
        <ele>416.1</ele>
        <time>2025-11-19T13:41:21.631Z</time>
      </trkpt>
      <trkpt lat="43.71461" lon="6.08113">
        <ele>416.1</ele>
        <time>2025-11-19T13:41:24.631Z</time>
      </trkpt>
      <trkpt lat="43.71459" lon="6.0811">
        <ele>416.2</ele>
        <time>2025-11-19T13:41:28.631Z</time>
      </trkpt>
      <trkpt lat="43.71458" lon="6.08107">
        <ele>416.2</ele>
        <time>2025-11-19T13:41:32.631Z</time>
      </trkpt>
      <trkpt lat="43.71456" lon="6.08104">
        <ele>416.2</ele>
        <time>2025-11-19T13:41:40.631Z</time>
      </trkpt>
      <trkpt lat="43.71454" lon="6.081">
        <ele>416.3</ele>
        <time>2025-11-19T13:41:44.631Z</time>
      </trkpt>
      <trkpt lat="43.71454" lon="6.08097">
        <ele>416.5</ele>
        <time>2025-11-19T13:41:48.631Z</time>
      </trkpt>
      <trkpt lat="43.71452" lon="6.08094">
        <ele>416.6</ele>
        <time>2025-11-19T13:41:55.632Z</time>
      </trkpt>
      <trkpt lat="43.71451" lon="6.08091">
        <ele>416.7</ele>
        <time>2025-11-19T13:42:01.631Z</time>
      </trkpt>
      <trkpt lat="43.71449" lon="6.08089">
        <ele>416.8</ele>
        <time>2025-11-19T13:42:08.631Z</time>
      </trkpt>
      <trkpt lat="43.71447" lon="6.08087">
        <ele>416.8</ele>
        <time>2025-11-19T13:42:13.631Z</time>
      </trkpt>
      <trkpt lat="43.71444" lon="6.08085">
        <ele>416.8</ele>
        <time>2025-11-19T13:42:16.631Z</time>
      </trkpt>
      <trkpt lat="43.71443" lon="6.08082">
        <ele>417</ele>
        <time>2025-11-19T13:42:21.631Z</time>
      </trkpt>
      <trkpt lat="43.71441" lon="6.08079">
        <ele>417</ele>
        <time>2025-11-19T13:42:25.631Z</time>
      </trkpt>
      <trkpt lat="43.71439" lon="6.08077">
        <ele>417.1</ele>
        <time>2025-11-19T13:42:29.631Z</time>
      </trkpt>
      <trkpt lat="43.71437" lon="6.08075">
        <ele>417.1</ele>
        <time>2025-11-19T13:42:32.631Z</time>
      </trkpt>
      <trkpt lat="43.71434" lon="6.08074">
        <ele>417.1</ele>
        <time>2025-11-19T13:42:35.631Z</time>
      </trkpt>
      <trkpt lat="43.71432" lon="6.08073">
        <ele>417.1</ele>
        <time>2025-11-19T13:42:38.631Z</time>
      </trkpt>
      <trkpt lat="43.71429" lon="6.08072">
        <ele>417.1</ele>
        <time>2025-11-19T13:42:42.631Z</time>
      </trkpt>
      <trkpt lat="43.71426" lon="6.08073">
        <ele>417</ele>
        <time>2025-11-19T13:42:45.631Z</time>
      </trkpt>
      <trkpt lat="43.71424" lon="6.08073">
        <ele>416.9</ele>
        <time>2025-11-19T13:42:48.631Z</time>
      </trkpt>
      <trkpt lat="43.71422" lon="6.08074">
        <ele>416.8</ele>
        <time>2025-11-19T13:42:51.631Z</time>
      </trkpt>
      <trkpt lat="43.71419" lon="6.08076">
        <ele>416.6</ele>
        <time>2025-11-19T13:42:55.632Z</time>
      </trkpt>
      <trkpt lat="43.71417" lon="6.08076">
        <ele>416.5</ele>
        <time>2025-11-19T13:42:57.631Z</time>
      </trkpt>
      <trkpt lat="43.71414" lon="6.08076">
        <ele>416.5</ele>
        <time>2025-11-19T13:43:00.631Z</time>
      </trkpt>
      <trkpt lat="43.71411" lon="6.08077">
        <ele>416.5</ele>
        <time>2025-11-19T13:43:03.631Z</time>
      </trkpt>
      <trkpt lat="43.71409" lon="6.08076">
        <ele>416.5</ele>
        <time>2025-11-19T13:43:06.631Z</time>
      </trkpt>
      <trkpt lat="43.71406" lon="6.08076">
        <ele>416.5</ele>
        <time>2025-11-19T13:43:09.631Z</time>
      </trkpt>
      <trkpt lat="43.71404" lon="6.08075">
        <ele>416.6</ele>
        <time>2025-11-19T13:43:11.631Z</time>
      </trkpt>
      <trkpt lat="43.71401" lon="6.08073">
        <ele>416.7</ele>
        <time>2025-11-19T13:43:14.631Z</time>
      </trkpt>
      <trkpt lat="43.71399" lon="6.08071">
        <ele>416.9</ele>
        <time>2025-11-19T13:43:17.632Z</time>
      </trkpt>
      <trkpt lat="43.71397" lon="6.08068">
        <ele>417.1</ele>
        <time>2025-11-19T13:43:20.631Z</time>
      </trkpt>
      <trkpt lat="43.71395" lon="6.08065">
        <ele>417.3</ele>
        <time>2025-11-19T13:43:23.631Z</time>
      </trkpt>
      <trkpt lat="43.71394" lon="6.08061">
        <ele>417.6</ele>
        <time>2025-11-19T13:43:26.631Z</time>
      </trkpt>
      <trkpt lat="43.71394" lon="6.08058">
        <ele>417.8</ele>
        <time>2025-11-19T13:43:29.632Z</time>
      </trkpt>
      <trkpt lat="43.71392" lon="6.08054">
        <ele>418</ele>
        <time>2025-11-19T13:43:32.632Z</time>
      </trkpt>
      <trkpt lat="43.7139" lon="6.08052">
        <ele>418</ele>
        <time>2025-11-19T13:43:35.632Z</time>
      </trkpt>
      <trkpt lat="43.71387" lon="6.08051">
        <ele>417.9</ele>
        <time>2025-11-19T13:43:39.631Z</time>
      </trkpt>
      <trkpt lat="43.71385" lon="6.0805">
        <ele>417.7</ele>
        <time>2025-11-19T13:43:42.631Z</time>
      </trkpt>
      <trkpt lat="43.71382" lon="6.08048">
        <ele>417.6</ele>
        <time>2025-11-19T13:43:45.631Z</time>
      </trkpt>
      <trkpt lat="43.7138" lon="6.08047">
        <ele>417.6</ele>
        <time>2025-11-19T13:43:48.631Z</time>
      </trkpt>
      <trkpt lat="43.71378" lon="6.08043">
        <ele>417.6</ele>
        <time>2025-11-19T13:43:51.632Z</time>
      </trkpt>
      <trkpt lat="43.71377" lon="6.0804">
        <ele>417.6</ele>
        <time>2025-11-19T13:43:54.631Z</time>
      </trkpt>
      <trkpt lat="43.71374" lon="6.08039">
        <ele>417.6</ele>
        <time>2025-11-19T13:43:57.632Z</time>
      </trkpt>
      <trkpt lat="43.71372" lon="6.0804">
        <ele>417.5</ele>
        <time>2025-11-19T13:44:00.631Z</time>
      </trkpt>
      <trkpt lat="43.7137" lon="6.08041">
        <ele>417.4</ele>
        <time>2025-11-19T13:44:04.631Z</time>
      </trkpt>
      <trkpt lat="43.71368" lon="6.08043">
        <ele>417.2</ele>
        <time>2025-11-19T13:44:07.631Z</time>
      </trkpt>
      <trkpt lat="43.71365" lon="6.08044">
        <ele>417</ele>
        <time>2025-11-19T13:44:10.631Z</time>
      </trkpt>
      <trkpt lat="43.71362" lon="6.08043">
        <ele>416.9</ele>
        <time>2025-11-19T13:44:13.631Z</time>
      </trkpt>
      <trkpt lat="43.71359" lon="6.08043">
        <ele>416.8</ele>
        <time>2025-11-19T13:44:16.631Z</time>
      </trkpt>
      <trkpt lat="43.71356" lon="6.08042">
        <ele>416.8</ele>
        <time>2025-11-19T13:44:18.632Z</time>
      </trkpt>
      <trkpt lat="43.71354" lon="6.08042">
        <ele>416.8</ele>
        <time>2025-11-19T13:44:20.631Z</time>
      </trkpt>
      <trkpt lat="43.71352" lon="6.0804">
        <ele>416.7</ele>
        <time>2025-11-19T13:44:23.632Z</time>
      </trkpt>
      <trkpt lat="43.71348" lon="6.08041">
        <ele>416.6</ele>
        <time>2025-11-19T13:44:26.632Z</time>
      </trkpt>
      <trkpt lat="43.71346" lon="6.08041">
        <ele>416.5</ele>
        <time>2025-11-19T13:44:29.631Z</time>
      </trkpt>
      <trkpt lat="43.71343" lon="6.08041">
        <ele>416.4</ele>
        <time>2025-11-19T13:44:32.631Z</time>
      </trkpt>
      <trkpt lat="43.71341" lon="6.0804">
        <ele>416.4</ele>
        <time>2025-11-19T13:44:35.631Z</time>
      </trkpt>
      <trkpt lat="43.71339" lon="6.08038">
        <ele>416.4</ele>
        <time>2025-11-19T13:44:38.631Z</time>
      </trkpt>
      <trkpt lat="43.71336" lon="6.08037">
        <ele>416.4</ele>
        <time>2025-11-19T13:44:41.631Z</time>
      </trkpt>
      <trkpt lat="43.71333" lon="6.08037">
        <ele>416.4</ele>
        <time>2025-11-19T13:44:44.631Z</time>
      </trkpt>
      <trkpt lat="43.71331" lon="6.08036">
        <ele>416</ele>
        <time>2025-11-19T13:44:46.632Z</time>
      </trkpt>
      <trkpt lat="43.71329" lon="6.08034">
        <ele>415.9</ele>
        <time>2025-11-19T13:44:49.631Z</time>
      </trkpt>
      <trkpt lat="43.71326" lon="6.08032">
        <ele>415.7</ele>
        <time>2025-11-19T13:44:52.632Z</time>
      </trkpt>
      <trkpt lat="43.71324" lon="6.08031">
        <ele>415.6</ele>
        <time>2025-11-19T13:44:54.631Z</time>
      </trkpt>
      <trkpt lat="43.71321" lon="6.0803">
        <ele>415.7</ele>
        <time>2025-11-19T13:44:57.631Z</time>
      </trkpt>
      <trkpt lat="43.71318" lon="6.08029">
        <ele>415.6</ele>
        <time>2025-11-19T13:45:00.632Z</time>
      </trkpt>
      <trkpt lat="43.71316" lon="6.08027">
        <ele>415.8</ele>
        <time>2025-11-19T13:45:03.631Z</time>
      </trkpt>
      <trkpt lat="43.71314" lon="6.08024">
        <ele>415.9</ele>
        <time>2025-11-19T13:45:06.631Z</time>
      </trkpt>
      <trkpt lat="43.71312" lon="6.08022">
        <ele>415.9</ele>
        <time>2025-11-19T13:45:08.632Z</time>
      </trkpt>
      <trkpt lat="43.7131" lon="6.0802">
        <ele>415.8</ele>
        <time>2025-11-19T13:45:11.631Z</time>
      </trkpt>
      <trkpt lat="43.71307" lon="6.08017">
        <ele>415.8</ele>
        <time>2025-11-19T13:45:14.632Z</time>
      </trkpt>
      <trkpt lat="43.71304" lon="6.08015">
        <ele>415.4</ele>
        <time>2025-11-19T13:45:17.631Z</time>
      </trkpt>
      <trkpt lat="43.71301" lon="6.08013">
        <ele>415</ele>
        <time>2025-11-19T13:45:20.631Z</time>
      </trkpt>
      <trkpt lat="43.71298" lon="6.08011">
        <ele>414.7</ele>
        <time>2025-11-19T13:45:24.631Z</time>
      </trkpt>
      <trkpt lat="43.71296" lon="6.08008">
        <ele>414.7</ele>
        <time>2025-11-19T13:45:27.631Z</time>
      </trkpt>
      <trkpt lat="43.71294" lon="6.08006">
        <ele>414.8</ele>
        <time>2025-11-19T13:45:30.632Z</time>
      </trkpt>
      <trkpt lat="43.71292" lon="6.08003">
        <ele>414.9</ele>
        <time>2025-11-19T13:45:33.631Z</time>
      </trkpt>
      <trkpt lat="43.71291" lon="6.08001">
        <ele>415.2</ele>
        <time>2025-11-19T13:45:35.631Z</time>
      </trkpt>
      <trkpt lat="43.71289" lon="6.07997">
        <ele>415.3</ele>
        <time>2025-11-19T13:45:38.631Z</time>
      </trkpt>
      <trkpt lat="43.71287" lon="6.07994">
        <ele>415.3</ele>
        <time>2025-11-19T13:45:41.631Z</time>
      </trkpt>
      <trkpt lat="43.71286" lon="6.07991">
        <ele>415.3</ele>
        <time>2025-11-19T13:45:44.632Z</time>
      </trkpt>
      <trkpt lat="43.71284" lon="6.07988">
        <ele>415.4</ele>
        <time>2025-11-19T13:45:46.631Z</time>
      </trkpt>
      <trkpt lat="43.71284" lon="6.07984">
        <ele>415.5</ele>
        <time>2025-11-19T13:45:49.632Z</time>
      </trkpt>
      <trkpt lat="43.71283" lon="6.07981">
        <ele>415.7</ele>
        <time>2025-11-19T13:45:51.631Z</time>
      </trkpt>
      <trkpt lat="43.71283" lon="6.07977">
        <ele>415.9</ele>
        <time>2025-11-19T13:45:54.631Z</time>
      </trkpt>
      <trkpt lat="43.71282" lon="6.07973">
        <ele>416.1</ele>
        <time>2025-11-19T13:45:57.631Z</time>
      </trkpt>
      <trkpt lat="43.71281" lon="6.0797">
        <ele>416.1</ele>
        <time>2025-11-19T13:46:00.632Z</time>
      </trkpt>
      <trkpt lat="43.7128" lon="6.07968">
        <ele>416.1</ele>
        <time>2025-11-19T13:46:03.632Z</time>
      </trkpt>
      <trkpt lat="43.7128" lon="6.07964">
        <ele>416.1</ele>
        <time>2025-11-19T13:46:13.631Z</time>
      </trkpt>
      <trkpt lat="43.71281" lon="6.07961">
        <ele>416.1</ele>
        <time>2025-11-19T13:46:16.631Z</time>
      </trkpt>
      <trkpt lat="43.71282" lon="6.07957">
        <ele>416.1</ele>
        <time>2025-11-19T13:46:19.631Z</time>
      </trkpt>
      <trkpt lat="43.71283" lon="6.07954">
        <ele>416.1</ele>
        <time>2025-11-19T13:46:22.631Z</time>
      </trkpt>
      <trkpt lat="43.71283" lon="6.0795">
        <ele>416</ele>
        <time>2025-11-19T13:46:25.631Z</time>
      </trkpt>
      <trkpt lat="43.71284" lon="6.07947">
        <ele>416</ele>
        <time>2025-11-19T13:46:28.631Z</time>
      </trkpt>
      <trkpt lat="43.71285" lon="6.07944">
        <ele>416</ele>
        <time>2025-11-19T13:46:31.632Z</time>
      </trkpt>
      <trkpt lat="43.71287" lon="6.07941">
        <ele>415.9</ele>
        <time>2025-11-19T13:46:34.631Z</time>
      </trkpt>
      <trkpt lat="43.71288" lon="6.07938">
        <ele>415.8</ele>
        <time>2025-11-19T13:46:37.632Z</time>
      </trkpt>
      <trkpt lat="43.71289" lon="6.07934">
        <ele>415.6</ele>
        <time>2025-11-19T13:46:40.631Z</time>
      </trkpt>
      <trkpt lat="43.7129" lon="6.0793">
        <ele>415.5</ele>
        <time>2025-11-19T13:46:43.632Z</time>
      </trkpt>
      <trkpt lat="43.71289" lon="6.07926">
        <ele>415.3</ele>
        <time>2025-11-19T13:46:47.632Z</time>
      </trkpt>
      <trkpt lat="43.71288" lon="6.07923">
        <ele>415.2</ele>
        <time>2025-11-19T13:46:50.632Z</time>
      </trkpt>
      <trkpt lat="43.71289" lon="6.07919">
        <ele>415.1</ele>
        <time>2025-11-19T13:46:53.632Z</time>
      </trkpt>
      <trkpt lat="43.71291" lon="6.07916">
        <ele>415</ele>
        <time>2025-11-19T13:46:56.632Z</time>
      </trkpt>
      <trkpt lat="43.71293" lon="6.07915">
        <ele>414.7</ele>
        <time>2025-11-19T13:46:58.631Z</time>
      </trkpt>
      <trkpt lat="43.71296" lon="6.07913">
        <ele>414.4</ele>
        <time>2025-11-19T13:47:01.631Z</time>
      </trkpt>
      <trkpt lat="43.71298" lon="6.07911">
        <ele>414.2</ele>
        <time>2025-11-19T13:47:04.631Z</time>
      </trkpt>
      <trkpt lat="43.713" lon="6.07909">
        <ele>414</ele>
        <time>2025-11-19T13:47:07.631Z</time>
      </trkpt>
      <trkpt lat="43.71302" lon="6.07907">
        <ele>414</ele>
        <time>2025-11-19T13:47:11.632Z</time>
      </trkpt>
      <trkpt lat="43.71304" lon="6.07904">
        <ele>413.9</ele>
        <time>2025-11-19T13:47:32.631Z</time>
      </trkpt>
      <trkpt lat="43.71305" lon="6.07901">
        <ele>413.8</ele>
        <time>2025-11-19T13:47:36.632Z</time>
      </trkpt>
      <trkpt lat="43.71307" lon="6.07899">
        <ele>413.7</ele>
        <time>2025-11-19T13:47:40.632Z</time>
      </trkpt>
      <trkpt lat="43.71308" lon="6.07895">
        <ele>413.4</ele>
        <time>2025-11-19T13:48:59.631Z</time>
      </trkpt>
      <trkpt lat="43.7131" lon="6.07892">
        <ele>413.2</ele>
        <time>2025-11-19T13:49:02.632Z</time>
      </trkpt>
      <trkpt lat="43.71311" lon="6.07889">
        <ele>413</ele>
        <time>2025-11-19T13:49:05.632Z</time>
      </trkpt>
      <trkpt lat="43.71313" lon="6.07886">
        <ele>412.7</ele>
        <time>2025-11-19T13:49:08.631Z</time>
      </trkpt>
      <trkpt lat="43.71314" lon="6.07883">
        <ele>412.3</ele>
        <time>2025-11-19T13:49:12.632Z</time>
      </trkpt>
      <trkpt lat="43.71317" lon="6.07882">
        <ele>412.2</ele>
        <time>2025-11-19T13:49:15.632Z</time>
      </trkpt>
      <trkpt lat="43.71319" lon="6.0788">
        <ele>412</ele>
        <time>2025-11-19T13:49:19.631Z</time>
      </trkpt>
      <trkpt lat="43.71321" lon="6.07878">
        <ele>411.8</ele>
        <time>2025-11-19T13:49:22.632Z</time>
      </trkpt>
      <trkpt lat="43.71323" lon="6.07875">
        <ele>411.6</ele>
        <time>2025-11-19T13:49:26.631Z</time>
      </trkpt>
      <trkpt lat="43.71325" lon="6.07872">
        <ele>411.4</ele>
        <time>2025-11-19T13:49:30.631Z</time>
      </trkpt>
      <trkpt lat="43.71326" lon="6.0787">
        <ele>411.2</ele>
        <time>2025-11-19T13:49:35.632Z</time>
      </trkpt>
      <trkpt lat="43.71328" lon="6.07867">
        <ele>411.1</ele>
        <time>2025-11-19T13:49:39.632Z</time>
      </trkpt>
      <trkpt lat="43.7133" lon="6.07864">
        <ele>411</ele>
        <time>2025-11-19T13:49:43.632Z</time>
      </trkpt>
      <trkpt lat="43.71332" lon="6.07861">
        <ele>410.9</ele>
        <time>2025-11-19T13:49:46.632Z</time>
      </trkpt>
      <trkpt lat="43.71334" lon="6.07858">
        <ele>411</ele>
        <time>2025-11-19T13:49:49.632Z</time>
      </trkpt>
      <trkpt lat="43.71334" lon="6.07855">
        <ele>411.1</ele>
        <time>2025-11-19T13:49:53.632Z</time>
      </trkpt>
      <trkpt lat="43.71333" lon="6.07852">
        <ele>411</ele>
        <time>2025-11-19T13:49:58.631Z</time>
      </trkpt>
      <trkpt lat="43.71331" lon="6.0785">
        <ele>411</ele>
        <time>2025-11-19T13:50:02.631Z</time>
      </trkpt>
      <trkpt lat="43.7133" lon="6.07847">
        <ele>411</ele>
        <time>2025-11-19T13:50:10.632Z</time>
      </trkpt>
      <trkpt lat="43.71328" lon="6.07844">
        <ele>411.1</ele>
        <time>2025-11-19T13:50:14.632Z</time>
      </trkpt>
      <trkpt lat="43.71326" lon="6.07841">
        <ele>411.3</ele>
        <time>2025-11-19T13:50:20.632Z</time>
      </trkpt>
      <trkpt lat="43.71324" lon="6.07839">
        <ele>411.4</ele>
        <time>2025-11-19T13:50:23.632Z</time>
      </trkpt>
      <trkpt lat="43.71321" lon="6.07838">
        <ele>411.6</ele>
        <time>2025-11-19T13:50:26.631Z</time>
      </trkpt>
      <trkpt lat="43.71319" lon="6.07838">
        <ele>411.7</ele>
        <time>2025-11-19T13:50:29.632Z</time>
      </trkpt>
      <trkpt lat="43.71316" lon="6.07838">
        <ele>411.9</ele>
        <time>2025-11-19T13:50:32.632Z</time>
      </trkpt>
      <trkpt lat="43.71313" lon="6.07836">
        <ele>412.1</ele>
        <time>2025-11-19T13:50:35.632Z</time>
      </trkpt>
      <trkpt lat="43.7131" lon="6.07836">
        <ele>412.3</ele>
        <time>2025-11-19T13:50:39.632Z</time>
      </trkpt>
      <trkpt lat="43.71308" lon="6.07835">
        <ele>412.6</ele>
        <time>2025-11-19T13:50:42.632Z</time>
      </trkpt>
      <trkpt lat="43.71305" lon="6.07834">
        <ele>412.9</ele>
        <time>2025-11-19T13:50:45.631Z</time>
      </trkpt>
      <trkpt lat="43.71303" lon="6.07833">
        <ele>413.1</ele>
        <time>2025-11-19T13:50:48.632Z</time>
      </trkpt>
      <trkpt lat="43.713" lon="6.07831">
        <ele>413.3</ele>
        <time>2025-11-19T13:50:51.631Z</time>
      </trkpt>
      <trkpt lat="43.71298" lon="6.07829">
        <ele>413.6</ele>
        <time>2025-11-19T13:50:55.632Z</time>
      </trkpt>
      <trkpt lat="43.71296" lon="6.07827">
        <ele>413.8</ele>
        <time>2025-11-19T13:50:58.632Z</time>
      </trkpt>
      <trkpt lat="43.71295" lon="6.07823">
        <ele>414.1</ele>
        <time>2025-11-19T13:51:01.632Z</time>
      </trkpt>
      <trkpt lat="43.71295" lon="6.07819">
        <ele>414.4</ele>
        <time>2025-11-19T13:51:04.632Z</time>
      </trkpt>
      <trkpt lat="43.71295" lon="6.07815">
        <ele>414.7</ele>
        <time>2025-11-19T13:51:07.632Z</time>
      </trkpt>
      <trkpt lat="43.71295" lon="6.07811">
        <ele>415</ele>
        <time>2025-11-19T13:51:10.632Z</time>
      </trkpt>
      <trkpt lat="43.71295" lon="6.07808">
        <ele>415.2</ele>
        <time>2025-11-19T13:51:13.632Z</time>
      </trkpt>
      <trkpt lat="43.71296" lon="6.07804">
        <ele>415.4</ele>
        <time>2025-11-19T13:51:16.632Z</time>
      </trkpt>
      <trkpt lat="43.71295" lon="6.07801">
        <ele>415.7</ele>
        <time>2025-11-19T13:51:19.632Z</time>
      </trkpt>
      <trkpt lat="43.71293" lon="6.07799">
        <ele>415.9</ele>
        <time>2025-11-19T13:51:21.632Z</time>
      </trkpt>
      <trkpt lat="43.71291" lon="6.07797">
        <ele>416.1</ele>
        <time>2025-11-19T13:51:24.632Z</time>
      </trkpt>
      <trkpt lat="43.7129" lon="6.07794">
        <ele>416.4</ele>
        <time>2025-11-19T13:51:27.631Z</time>
      </trkpt>
      <trkpt lat="43.7129" lon="6.0779">
        <ele>416.7</ele>
        <time>2025-11-19T13:51:32.632Z</time>
      </trkpt>
      <trkpt lat="43.71289" lon="6.07787">
        <ele>416.9</ele>
        <time>2025-11-19T13:51:36.632Z</time>
      </trkpt>
      <trkpt lat="43.71287" lon="6.07785">
        <ele>417.2</ele>
        <time>2025-11-19T13:51:39.632Z</time>
      </trkpt>
      <trkpt lat="43.71286" lon="6.07782">
        <ele>417.4</ele>
        <time>2025-11-19T13:51:43.631Z</time>
      </trkpt>
      <trkpt lat="43.71285" lon="6.07779">
        <ele>417.7</ele>
        <time>2025-11-19T13:51:46.632Z</time>
      </trkpt>
      <trkpt lat="43.71283" lon="6.07777">
        <ele>417.9</ele>
        <time>2025-11-19T13:51:50.632Z</time>
      </trkpt>
      <trkpt lat="43.71281" lon="6.07773">
        <ele>418.2</ele>
        <time>2025-11-19T13:51:53.631Z</time>
      </trkpt>
      <trkpt lat="43.7128" lon="6.07771">
        <ele>418.4</ele>
        <time>2025-11-19T13:51:56.632Z</time>
      </trkpt>
      <trkpt lat="43.71278" lon="6.07769">
        <ele>418.6</ele>
        <time>2025-11-19T13:51:59.631Z</time>
      </trkpt>
      <trkpt lat="43.71276" lon="6.07768">
        <ele>418.7</ele>
        <time>2025-11-19T13:52:10.632Z</time>
      </trkpt>
      <trkpt lat="43.71274" lon="6.07765">
        <ele>418.9</ele>
        <time>2025-11-19T13:52:13.631Z</time>
      </trkpt>
      <trkpt lat="43.71272" lon="6.07762">
        <ele>419.2</ele>
        <time>2025-11-19T13:52:16.632Z</time>
      </trkpt>
      <trkpt lat="43.7127" lon="6.07758">
        <ele>419.4</ele>
        <time>2025-11-19T13:52:20.632Z</time>
      </trkpt>
      <trkpt lat="43.71269" lon="6.07755">
        <ele>419.6</ele>
        <time>2025-11-19T13:52:23.632Z</time>
      </trkpt>
      <trkpt lat="43.71268" lon="6.07752">
        <ele>419.9</ele>
        <time>2025-11-19T13:52:28.632Z</time>
      </trkpt>
      <trkpt lat="43.71266" lon="6.07748">
        <ele>420.3</ele>
        <time>2025-11-19T13:52:31.632Z</time>
      </trkpt>
      <trkpt lat="43.71265" lon="6.07744">
        <ele>420.6</ele>
        <time>2025-11-19T13:52:34.632Z</time>
      </trkpt>
      <trkpt lat="43.71265" lon="6.07739">
        <ele>421.1</ele>
        <time>2025-11-19T13:52:39.632Z</time>
      </trkpt>
      <trkpt lat="43.71264" lon="6.07735">
        <ele>421.6</ele>
        <time>2025-11-19T13:52:42.632Z</time>
      </trkpt>
      <trkpt lat="43.71263" lon="6.07732">
        <ele>422</ele>
        <time>2025-11-19T13:52:45.632Z</time>
      </trkpt>
      <trkpt lat="43.71261" lon="6.07729">
        <ele>422.3</ele>
        <time>2025-11-19T13:52:49.632Z</time>
      </trkpt>
      <trkpt lat="43.7126" lon="6.07726">
        <ele>422.6</ele>
        <time>2025-11-19T13:52:53.632Z</time>
      </trkpt>
      <trkpt lat="43.71259" lon="6.07722">
        <ele>423</ele>
        <time>2025-11-19T13:52:57.631Z</time>
      </trkpt>
      <trkpt lat="43.71258" lon="6.07719">
        <ele>423.2</ele>
        <time>2025-11-19T13:53:00.632Z</time>
      </trkpt>
      <trkpt lat="43.71257" lon="6.07716">
        <ele>423.5</ele>
        <time>2025-11-19T13:53:03.632Z</time>
      </trkpt>
      <trkpt lat="43.71256" lon="6.07712">
        <ele>423.8</ele>
        <time>2025-11-19T13:53:06.632Z</time>
      </trkpt>
      <trkpt lat="43.71256" lon="6.07708">
        <ele>424.1</ele>
        <time>2025-11-19T13:53:10.632Z</time>
      </trkpt>
      <trkpt lat="43.71255" lon="6.07705">
        <ele>424.3</ele>
        <time>2025-11-19T13:53:13.631Z</time>
      </trkpt>
      <trkpt lat="43.71254" lon="6.07702">
        <ele>424.6</ele>
        <time>2025-11-19T13:53:17.631Z</time>
      </trkpt>
      <trkpt lat="43.71252" lon="6.077">
        <ele>424.7</ele>
        <time>2025-11-19T13:53:22.632Z</time>
      </trkpt>
      <trkpt lat="43.71251" lon="6.07697">
        <ele>424.8</ele>
        <time>2025-11-19T13:53:26.632Z</time>
      </trkpt>
      <trkpt lat="43.71249" lon="6.07693">
        <ele>425.2</ele>
        <time>2025-11-19T13:53:32.632Z</time>
      </trkpt>
      <trkpt lat="43.71248" lon="6.0769">
        <ele>425.7</ele>
        <time>2025-11-19T13:53:36.632Z</time>
      </trkpt>
      <trkpt lat="43.71246" lon="6.07687">
        <ele>426.1</ele>
        <time>2025-11-19T13:53:39.631Z</time>
      </trkpt>
      <trkpt lat="43.71244" lon="6.07684">
        <ele>426.6</ele>
        <time>2025-11-19T13:53:43.632Z</time>
      </trkpt>
      <trkpt lat="43.71244" lon="6.0768">
        <ele>427</ele>
        <time>2025-11-19T13:53:47.632Z</time>
      </trkpt>
      <trkpt lat="43.71242" lon="6.07678">
        <ele>427.4</ele>
        <time>2025-11-19T13:53:53.631Z</time>
      </trkpt>
      <trkpt lat="43.71241" lon="6.07675">
        <ele>427.9</ele>
        <time>2025-11-19T13:53:56.632Z</time>
      </trkpt>
      <trkpt lat="43.71239" lon="6.07671">
        <ele>428.4</ele>
        <time>2025-11-19T13:54:57.632Z</time>
      </trkpt>
      <trkpt lat="43.71238" lon="6.07668">
        <ele>428.8</ele>
        <time>2025-11-19T13:55:00.632Z</time>
      </trkpt>
      <trkpt lat="43.71237" lon="6.07665">
        <ele>429.3</ele>
        <time>2025-11-19T13:55:04.632Z</time>
      </trkpt>
      <trkpt lat="43.71236" lon="6.07662">
        <ele>429.9</ele>
        <time>2025-11-19T13:55:09.632Z</time>
      </trkpt>
      <trkpt lat="43.71235" lon="6.07659">
        <ele>430.5</ele>
        <time>2025-11-19T13:55:12.632Z</time>
      </trkpt>
      <trkpt lat="43.71233" lon="6.07655">
        <ele>431.2</ele>
        <time>2025-11-19T13:55:17.632Z</time>
      </trkpt>
      <trkpt lat="43.71232" lon="6.07651">
        <ele>431.8</ele>
        <time>2025-11-19T13:55:22.632Z</time>
      </trkpt>
      <trkpt lat="43.71231" lon="6.07648">
        <ele>432.4</ele>
        <time>2025-11-19T13:55:27.632Z</time>
      </trkpt>
      <trkpt lat="43.71229" lon="6.07644">
        <ele>433.2</ele>
        <time>2025-11-19T13:55:34.632Z</time>
      </trkpt>
      <trkpt lat="43.71228" lon="6.0764">
        <ele>433.7</ele>
        <time>2025-11-19T13:55:40.632Z</time>
      </trkpt>
      <trkpt lat="43.71226" lon="6.07637">
        <ele>434.4</ele>
        <time>2025-11-19T13:55:44.632Z</time>
      </trkpt>
      <trkpt lat="43.71223" lon="6.07634">
        <ele>435</ele>
        <time>2025-11-19T13:55:52.632Z</time>
      </trkpt>
      <trkpt lat="43.71222" lon="6.07632">
        <ele>435.5</ele>
        <time>2025-11-19T13:55:56.632Z</time>
      </trkpt>
      <trkpt lat="43.7122" lon="6.07629">
        <ele>436.2</ele>
        <time>2025-11-19T13:56:01.632Z</time>
      </trkpt>
      <trkpt lat="43.71218" lon="6.07625">
        <ele>436.8</ele>
        <time>2025-11-19T13:56:07.632Z</time>
      </trkpt>
      <trkpt lat="43.71216" lon="6.07623">
        <ele>437</ele>
        <time>2025-11-19T13:56:10.632Z</time>
      </trkpt>
      <trkpt lat="43.71215" lon="6.0762">
        <ele>437.5</ele>
        <time>2025-11-19T13:56:14.632Z</time>
      </trkpt>
      <trkpt lat="43.71213" lon="6.07618">
        <ele>438</ele>
        <time>2025-11-19T13:56:20.632Z</time>
      </trkpt>
      <trkpt lat="43.7121" lon="6.07616">
        <ele>438.1</ele>
        <time>2025-11-19T13:56:25.632Z</time>
      </trkpt>
      <trkpt lat="43.7121" lon="6.07613">
        <ele>438.8</ele>
        <time>2025-11-19T13:56:29.632Z</time>
      </trkpt>
      <trkpt lat="43.71208" lon="6.0761">
        <ele>439.1</ele>
        <time>2025-11-19T13:56:33.632Z</time>
      </trkpt>
      <trkpt lat="43.71206" lon="6.07607">
        <ele>439.5</ele>
        <time>2025-11-19T13:56:39.632Z</time>
      </trkpt>
      <trkpt lat="43.71204" lon="6.07604">
        <ele>439.8</ele>
        <time>2025-11-19T13:56:42.632Z</time>
      </trkpt>
      <trkpt lat="43.71203" lon="6.07601">
        <ele>440.2</ele>
        <time>2025-11-19T13:56:46.632Z</time>
      </trkpt>
      <trkpt lat="43.71202" lon="6.07598">
        <ele>440.7</ele>
        <time>2025-11-19T13:56:52.632Z</time>
      </trkpt>
      <trkpt lat="43.71201" lon="6.07594">
        <ele>441</ele>
        <time>2025-11-19T13:56:56.632Z</time>
      </trkpt>
      <trkpt lat="43.71199" lon="6.07592">
        <ele>441.3</ele>
        <time>2025-11-19T13:57:01.632Z</time>
      </trkpt>
      <trkpt lat="43.71199" lon="6.07588">
        <ele>441.8</ele>
        <time>2025-11-19T13:57:07.632Z</time>
      </trkpt>
      <trkpt lat="43.71197" lon="6.07586">
        <ele>441.9</ele>
        <time>2025-11-19T13:57:10.632Z</time>
      </trkpt>
      <trkpt lat="43.71196" lon="6.07582">
        <ele>442.4</ele>
        <time>2025-11-19T13:57:19.632Z</time>
      </trkpt>
      <trkpt lat="43.71195" lon="6.07579">
        <ele>443</ele>
        <time>2025-11-19T13:57:27.632Z</time>
      </trkpt>
      <trkpt lat="43.71194" lon="6.07576">
        <ele>443.6</ele>
        <time>2025-11-19T13:58:14.632Z</time>
      </trkpt>
      <trkpt lat="43.71191" lon="6.07574">
        <ele>443.9</ele>
        <time>2025-11-19T13:58:20.632Z</time>
      </trkpt>
      <trkpt lat="43.71189" lon="6.07571">
        <ele>444.4</ele>
        <time>2025-11-19T13:58:24.632Z</time>
      </trkpt>
      <trkpt lat="43.71187" lon="6.07569">
        <ele>444.6</ele>
        <time>2025-11-19T13:58:28.632Z</time>
      </trkpt>
      <trkpt lat="43.71185" lon="6.07567">
        <ele>445</ele>
        <time>2025-11-19T13:58:32.632Z</time>
      </trkpt>
      <trkpt lat="43.71184" lon="6.07563">
        <ele>445.7</ele>
        <time>2025-11-19T13:58:35.632Z</time>
      </trkpt>
      <trkpt lat="43.71185" lon="6.0756">
        <ele>446.4</ele>
        <time>2025-11-19T13:58:38.633Z</time>
      </trkpt>
      <trkpt lat="43.71184" lon="6.07556">
        <ele>447.1</ele>
        <time>2025-11-19T13:58:45.632Z</time>
      </trkpt>
      <trkpt lat="43.71183" lon="6.07553">
        <ele>447.7</ele>
        <time>2025-11-19T13:58:50.632Z</time>
      </trkpt>
      <trkpt lat="43.71182" lon="6.07548">
        <ele>448.4</ele>
        <time>2025-11-19T13:58:59.632Z</time>
      </trkpt>
      <trkpt lat="43.71182" lon="6.07545">
        <ele>449</ele>
        <time>2025-11-19T13:59:02.632Z</time>
      </trkpt>
      <trkpt lat="43.71181" lon="6.07541">
        <ele>449.6</ele>
        <time>2025-11-19T13:59:08.632Z</time>
      </trkpt>
      <trkpt lat="43.71178" lon="6.07539">
        <ele>449.8</ele>
        <time>2025-11-19T13:59:17.632Z</time>
      </trkpt>
      <trkpt lat="43.71175" lon="6.07539">
        <ele>449.6</ele>
        <time>2025-11-19T13:59:20.632Z</time>
      </trkpt>
      <trkpt lat="43.71172" lon="6.07538">
        <ele>449.6</ele>
        <time>2025-11-19T13:59:24.632Z</time>
      </trkpt>
      <trkpt lat="43.7117" lon="6.07536">
        <ele>449.8</ele>
        <time>2025-11-19T13:59:30.632Z</time>
      </trkpt>
      <trkpt lat="43.71168" lon="6.07533">
        <ele>450.1</ele>
        <time>2025-11-19T13:59:35.632Z</time>
      </trkpt>
      <trkpt lat="43.71165" lon="6.07534">
        <ele>449.8</ele>
        <time>2025-11-19T13:59:39.633Z</time>
      </trkpt>
      <trkpt lat="43.71163" lon="6.07533">
        <ele>450</ele>
        <time>2025-11-19T13:59:45.632Z</time>
      </trkpt>
      <trkpt lat="43.71161" lon="6.0753">
        <ele>450.4</ele>
        <time>2025-11-19T13:59:49.632Z</time>
      </trkpt>
      <trkpt lat="43.71159" lon="6.07531">
        <ele>450.2</ele>
        <time>2025-11-19T13:59:54.633Z</time>
      </trkpt>
      <trkpt lat="43.71156" lon="6.0753">
        <ele>450.2</ele>
        <time>2025-11-19T13:59:58.632Z</time>
      </trkpt>
      <trkpt lat="43.71155" lon="6.07526">
        <ele>450.9</ele>
        <time>2025-11-19T14:00:04.632Z</time>
      </trkpt>
      <trkpt lat="43.71151" lon="6.07524">
        <ele>451.2</ele>
        <time>2025-11-19T14:00:08.632Z</time>
      </trkpt>
      <trkpt lat="43.71151" lon="6.07521">
        <ele>451.8</ele>
        <time>2025-11-19T14:00:11.632Z</time>
      </trkpt>
      <trkpt lat="43.71151" lon="6.07517">
        <ele>452.6</ele>
        <time>2025-11-19T14:00:17.632Z</time>
      </trkpt>
      <trkpt lat="43.71152" lon="6.07514">
        <ele>453.2</ele>
        <time>2025-11-19T14:00:21.632Z</time>
      </trkpt>
      <trkpt lat="43.71153" lon="6.07511">
        <ele>453.8</ele>
        <time>2025-11-19T14:00:26.633Z</time>
      </trkpt>
      <trkpt lat="43.71154" lon="6.07506">
        <ele>454.8</ele>
        <time>2025-11-19T14:00:35.632Z</time>
      </trkpt>
      <trkpt lat="43.71154" lon="6.07502">
        <ele>455.6</ele>
        <time>2025-11-19T14:00:44.632Z</time>
      </trkpt>
      <trkpt lat="43.71155" lon="6.07499">
        <ele>456.4</ele>
        <time>2025-11-19T14:00:50.632Z</time>
      </trkpt>
      <trkpt lat="43.71156" lon="6.07495">
        <ele>457.2</ele>
        <time>2025-11-19T14:01:00.632Z</time>
      </trkpt>
      <trkpt lat="43.71157" lon="6.07492">
        <ele>458</ele>
        <time>2025-11-19T14:01:07.632Z</time>
      </trkpt>
      <trkpt lat="43.71157" lon="6.07488">
        <ele>458.7</ele>
        <time>2025-11-19T14:01:13.633Z</time>
      </trkpt>
      <trkpt lat="43.71156" lon="6.07484">
        <ele>459.5</ele>
        <time>2025-11-19T14:01:22.633Z</time>
      </trkpt>
      <trkpt lat="43.71153" lon="6.07481">
        <ele>459.8</ele>
        <time>2025-11-19T14:01:28.633Z</time>
      </trkpt>
      <trkpt lat="43.71151" lon="6.07479">
        <ele>460</ele>
        <time>2025-11-19T14:01:36.632Z</time>
      </trkpt>
      <trkpt lat="43.7115" lon="6.07474">
        <ele>460.9</ele>
        <time>2025-11-19T14:01:42.632Z</time>
      </trkpt>
      <trkpt lat="43.71149" lon="6.07469">
        <ele>461.6</ele>
        <time>2025-11-19T14:01:51.632Z</time>
      </trkpt>
      <trkpt lat="43.71147" lon="6.07467">
        <ele>461.8</ele>
        <time>2025-11-19T14:01:57.633Z</time>
      </trkpt>
      <trkpt lat="43.71145" lon="6.07466">
        <ele>461.7</ele>
        <time>2025-11-19T14:02:00.632Z</time>
      </trkpt>
      <trkpt lat="43.71142" lon="6.07465">
        <ele>461.6</ele>
        <time>2025-11-19T14:02:04.632Z</time>
      </trkpt>
      <trkpt lat="43.71141" lon="6.07463">
        <ele>461.9</ele>
        <time>2025-11-19T14:02:07.632Z</time>
      </trkpt>
      <trkpt lat="43.71141" lon="6.0746">
        <ele>462.5</ele>
        <time>2025-11-19T14:02:14.633Z</time>
      </trkpt>
      <trkpt lat="43.71141" lon="6.07456">
        <ele>463.1</ele>
        <time>2025-11-19T14:02:19.632Z</time>
      </trkpt>
      <trkpt lat="43.71141" lon="6.07453">
        <ele>463.7</ele>
        <time>2025-11-19T14:02:24.632Z</time>
      </trkpt>
      <trkpt lat="43.71143" lon="6.0745">
        <ele>464.3</ele>
        <time>2025-11-19T14:02:31.633Z</time>
      </trkpt>
      <trkpt lat="43.71142" lon="6.07448">
        <ele>464.7</ele>
        <time>2025-11-19T14:02:34.632Z</time>
      </trkpt>
      <trkpt lat="43.7114" lon="6.07445">
        <ele>465</ele>
        <time>2025-11-19T14:02:37.633Z</time>
      </trkpt>
      <trkpt lat="43.71139" lon="6.07441">
        <ele>465.3</ele>
        <time>2025-11-19T14:02:41.632Z</time>
      </trkpt>
      <trkpt lat="43.71138" lon="6.07438">
        <ele>465.5</ele>
        <time>2025-11-19T14:02:48.633Z</time>
      </trkpt>
      <trkpt lat="43.71136" lon="6.07436">
        <ele>465.5</ele>
        <time>2025-11-19T14:02:53.633Z</time>
      </trkpt>
      <trkpt lat="43.71133" lon="6.07433">
        <ele>465.4</ele>
        <time>2025-11-19T14:02:57.632Z</time>
      </trkpt>
      <trkpt lat="43.71132" lon="6.0743">
        <ele>465.7</ele>
        <time>2025-11-19T14:03:02.632Z</time>
      </trkpt>
      <trkpt lat="43.71131" lon="6.07427">
        <ele>465.8</ele>
        <time>2025-11-19T14:03:05.632Z</time>
      </trkpt>
      <trkpt lat="43.71129" lon="6.07424">
        <ele>465.9</ele>
        <time>2025-11-19T14:03:09.632Z</time>
      </trkpt>
      <trkpt lat="43.71128" lon="6.07421">
        <ele>466</ele>
        <time>2025-11-19T14:03:13.633Z</time>
      </trkpt>
      <trkpt lat="43.71127" lon="6.07418">
        <ele>466.1</ele>
        <time>2025-11-19T14:03:18.633Z</time>
      </trkpt>
      <trkpt lat="43.71125" lon="6.07414">
        <ele>466.2</ele>
        <time>2025-11-19T14:03:21.632Z</time>
      </trkpt>
      <trkpt lat="43.71124" lon="6.07411">
        <ele>466.3</ele>
        <time>2025-11-19T14:03:24.633Z</time>
      </trkpt>
      <trkpt lat="43.71124" lon="6.07407">
        <ele>466.5</ele>
        <time>2025-11-19T14:03:28.633Z</time>
      </trkpt>
      <trkpt lat="43.71125" lon="6.07404">
        <ele>466.9</ele>
        <time>2025-11-19T14:03:31.632Z</time>
      </trkpt>
      <trkpt lat="43.71124" lon="6.074">
        <ele>467.1</ele>
        <time>2025-11-19T14:03:37.632Z</time>
      </trkpt>
      <trkpt lat="43.71123" lon="6.07397">
        <ele>467.1</ele>
        <time>2025-11-19T14:03:41.632Z</time>
      </trkpt>
      <trkpt lat="43.71121" lon="6.07394">
        <ele>467.1</ele>
        <time>2025-11-19T14:03:45.633Z</time>
      </trkpt>
      <trkpt lat="43.71119" lon="6.07393">
        <ele>466.8</ele>
        <time>2025-11-19T14:03:50.632Z</time>
      </trkpt>
      <trkpt lat="43.71117" lon="6.0739">
        <ele>466.8</ele>
        <time>2025-11-19T14:03:55.632Z</time>
      </trkpt>
      <trkpt lat="43.71116" lon="6.07386">
        <ele>466.8</ele>
        <time>2025-11-19T14:03:57.632Z</time>
      </trkpt>
      <trkpt lat="43.71115" lon="6.07383">
        <ele>466.8</ele>
        <time>2025-11-19T14:04:00.632Z</time>
      </trkpt>
      <trkpt lat="43.71115" lon="6.07379">
        <ele>466.9</ele>
        <time>2025-11-19T14:04:03.632Z</time>
      </trkpt>
      <trkpt lat="43.71114" lon="6.07375">
        <ele>466.9</ele>
        <time>2025-11-19T14:04:06.633Z</time>
      </trkpt>
      <trkpt lat="43.71112" lon="6.07372">
        <ele>466.8</ele>
        <time>2025-11-19T14:04:11.632Z</time>
      </trkpt>
      <trkpt lat="43.7111" lon="6.0737">
        <ele>466.6</ele>
        <time>2025-11-19T14:04:17.632Z</time>
      </trkpt>
      <trkpt lat="43.7111" lon="6.07366">
        <ele>466.8</ele>
        <time>2025-11-19T14:04:23.632Z</time>
      </trkpt>
      <trkpt lat="43.71108" lon="6.07362">
        <ele>466.8</ele>
        <time>2025-11-19T14:04:33.633Z</time>
      </trkpt>
      <trkpt lat="43.71106" lon="6.0736">
        <ele>466.8</ele>
        <time>2025-11-19T14:04:37.632Z</time>
      </trkpt>
      <trkpt lat="43.71104" lon="6.07358">
        <ele>466.9</ele>
        <time>2025-11-19T14:04:41.632Z</time>
      </trkpt>
      <trkpt lat="43.71104" lon="6.07354">
        <ele>467</ele>
        <time>2025-11-19T14:04:45.632Z</time>
      </trkpt>
      <trkpt lat="43.71103" lon="6.0735">
        <ele>467.1</ele>
        <time>2025-11-19T14:04:49.633Z</time>
      </trkpt>
      <trkpt lat="43.71101" lon="6.07348">
        <ele>467.1</ele>
        <time>2025-11-19T14:04:52.633Z</time>
      </trkpt>
      <trkpt lat="43.71099" lon="6.07345">
        <ele>467.2</ele>
        <time>2025-11-19T14:04:56.632Z</time>
      </trkpt>
      <trkpt lat="43.71097" lon="6.07342">
        <ele>467.2</ele>
        <time>2025-11-19T14:05:00.632Z</time>
      </trkpt>
      <trkpt lat="43.71095" lon="6.07338">
        <ele>467.3</ele>
        <time>2025-11-19T14:05:03.632Z</time>
      </trkpt>
      <trkpt lat="43.71095" lon="6.07335">
        <ele>467.4</ele>
        <time>2025-11-19T14:05:06.633Z</time>
      </trkpt>
      <trkpt lat="43.71096" lon="6.07331">
        <ele>467.5</ele>
        <time>2025-11-19T14:05:10.633Z</time>
      </trkpt>
      <trkpt lat="43.71096" lon="6.07328">
        <ele>467.7</ele>
        <time>2025-11-19T14:05:13.633Z</time>
      </trkpt>
      <trkpt lat="43.71095" lon="6.07324">
        <ele>467.8</ele>
        <time>2025-11-19T14:05:16.633Z</time>
      </trkpt>
      <trkpt lat="43.71095" lon="6.07321">
        <ele>467.9</ele>
        <time>2025-11-19T14:05:19.633Z</time>
      </trkpt>
      <trkpt lat="43.71095" lon="6.07317">
        <ele>468</ele>
        <time>2025-11-19T14:05:23.632Z</time>
      </trkpt>
      <trkpt lat="43.71095" lon="6.07313">
        <ele>468.1</ele>
        <time>2025-11-19T14:05:28.633Z</time>
      </trkpt>
      <trkpt lat="43.71095" lon="6.0731">
        <ele>468.3</ele>
        <time>2025-11-19T14:05:31.632Z</time>
      </trkpt>
      <trkpt lat="43.71094" lon="6.07306">
        <ele>468.4</ele>
        <time>2025-11-19T14:06:44.633Z</time>
      </trkpt>
      <trkpt lat="43.71095" lon="6.07303">
        <ele>468.4</ele>
        <time>2025-11-19T14:06:52.633Z</time>
      </trkpt>
      <trkpt lat="43.71097" lon="6.073">
        <ele>468.5</ele>
        <time>2025-11-19T14:06:55.632Z</time>
      </trkpt>
      <trkpt lat="43.71098" lon="6.07297">
        <ele>468.5</ele>
        <time>2025-11-19T14:06:57.633Z</time>
      </trkpt>
      <trkpt lat="43.711" lon="6.07294">
        <ele>468.6</ele>
        <time>2025-11-19T14:07:00.632Z</time>
      </trkpt>
      <trkpt lat="43.71102" lon="6.07292">
        <ele>468.7</ele>
        <time>2025-11-19T14:07:04.632Z</time>
      </trkpt>
      <trkpt lat="43.71103" lon="6.07289">
        <ele>468.7</ele>
        <time>2025-11-19T14:07:07.633Z</time>
      </trkpt>
      <trkpt lat="43.71105" lon="6.07286">
        <ele>468.8</ele>
        <time>2025-11-19T14:08:01.633Z</time>
      </trkpt>
      <trkpt lat="43.71108" lon="6.07284">
        <ele>468.9</ele>
        <time>2025-11-19T14:08:06.633Z</time>
      </trkpt>
      <trkpt lat="43.7111" lon="6.07282">
        <ele>469</ele>
        <time>2025-11-19T14:08:09.633Z</time>
      </trkpt>
      <trkpt lat="43.71112" lon="6.0728">
        <ele>469</ele>
        <time>2025-11-19T14:08:12.632Z</time>
      </trkpt>
      <trkpt lat="43.71114" lon="6.07279">
        <ele>469.1</ele>
        <time>2025-11-19T14:08:16.633Z</time>
      </trkpt>
      <trkpt lat="43.71117" lon="6.07276">
        <ele>469.2</ele>
        <time>2025-11-19T14:08:22.633Z</time>
      </trkpt>
      <trkpt lat="43.71121" lon="6.07274">
        <ele>469.2</ele>
        <time>2025-11-19T14:08:28.633Z</time>
      </trkpt>
      <trkpt lat="43.71124" lon="6.07272">
        <ele>469.2</ele>
        <time>2025-11-19T14:08:31.632Z</time>
      </trkpt>
      <trkpt lat="43.71126" lon="6.07271">
        <ele>469.3</ele>
        <time>2025-11-19T14:08:34.633Z</time>
      </trkpt>
      <trkpt lat="43.71128" lon="6.0727">
        <ele>469.3</ele>
        <time>2025-11-19T14:08:37.633Z</time>
      </trkpt>
      <trkpt lat="43.7113" lon="6.07268">
        <ele>469.3</ele>
        <time>2025-11-19T14:08:40.633Z</time>
      </trkpt>
      <trkpt lat="43.71133" lon="6.07267">
        <ele>469.4</ele>
        <time>2025-11-19T14:08:43.633Z</time>
      </trkpt>
      <trkpt lat="43.71135" lon="6.07265">
        <ele>469.4</ele>
        <time>2025-11-19T14:08:45.633Z</time>
      </trkpt>
      <trkpt lat="43.71138" lon="6.07263">
        <ele>469.4</ele>
        <time>2025-11-19T14:08:48.633Z</time>
      </trkpt>
      <trkpt lat="43.7114" lon="6.07261">
        <ele>469.5</ele>
        <time>2025-11-19T14:08:51.632Z</time>
      </trkpt>
      <trkpt lat="43.71143" lon="6.07259">
        <ele>469.6</ele>
        <time>2025-11-19T14:08:53.633Z</time>
      </trkpt>
      <trkpt lat="43.71146" lon="6.07259">
        <ele>469.8</ele>
        <time>2025-11-19T14:08:57.633Z</time>
      </trkpt>
      <trkpt lat="43.71148" lon="6.07257">
        <ele>469.9</ele>
        <time>2025-11-19T14:08:59.633Z</time>
      </trkpt>
      <trkpt lat="43.71151" lon="6.07255">
        <ele>470</ele>
        <time>2025-11-19T14:09:03.633Z</time>
      </trkpt>
      <trkpt lat="43.71153" lon="6.07254">
        <ele>470.1</ele>
        <time>2025-11-19T14:09:05.633Z</time>
      </trkpt>
      <trkpt lat="43.71155" lon="6.07252">
        <ele>470.2</ele>
        <time>2025-11-19T14:09:08.633Z</time>
      </trkpt>
      <trkpt lat="43.71158" lon="6.0725">
        <ele>470.4</ele>
        <time>2025-11-19T14:09:10.632Z</time>
      </trkpt>
      <trkpt lat="43.71161" lon="6.0725">
        <ele>470.6</ele>
        <time>2025-11-19T14:09:13.633Z</time>
      </trkpt>
      <trkpt lat="43.71163" lon="6.07248">
        <ele>470.7</ele>
        <time>2025-11-19T14:09:16.633Z</time>
      </trkpt>
      <trkpt lat="43.71166" lon="6.07247">
        <ele>470.9</ele>
        <time>2025-11-19T14:09:18.633Z</time>
      </trkpt>
      <trkpt lat="43.71168" lon="6.07245">
        <ele>471.1</ele>
        <time>2025-11-19T14:09:21.633Z</time>
      </trkpt>
      <trkpt lat="43.71171" lon="6.07243">
        <ele>471.3</ele>
        <time>2025-11-19T14:09:24.633Z</time>
      </trkpt>
      <trkpt lat="43.71174" lon="6.07241">
        <ele>471.5</ele>
        <time>2025-11-19T14:09:29.633Z</time>
      </trkpt>
      <trkpt lat="43.71177" lon="6.07241">
        <ele>471.7</ele>
        <time>2025-11-19T14:09:32.633Z</time>
      </trkpt>
      <trkpt lat="43.71179" lon="6.07239">
        <ele>471.9</ele>
        <time>2025-11-19T14:09:35.633Z</time>
      </trkpt>
      <trkpt lat="43.71182" lon="6.0724">
        <ele>472.1</ele>
        <time>2025-11-19T14:09:38.633Z</time>
      </trkpt>
      <trkpt lat="43.71184" lon="6.0724">
        <ele>472.2</ele>
        <time>2025-11-19T14:09:41.633Z</time>
      </trkpt>
      <trkpt lat="43.71186" lon="6.0724">
        <ele>472.4</ele>
        <time>2025-11-19T14:09:44.633Z</time>
      </trkpt>
      <trkpt lat="43.7119" lon="6.07239">
        <ele>472.7</ele>
        <time>2025-11-19T14:09:47.633Z</time>
      </trkpt>
      <trkpt lat="43.71193" lon="6.07239">
        <ele>472.9</ele>
        <time>2025-11-19T14:09:50.633Z</time>
      </trkpt>
      <trkpt lat="43.71195" lon="6.07238">
        <ele>473</ele>
        <time>2025-11-19T14:09:53.633Z</time>
      </trkpt>
      <trkpt lat="43.71198" lon="6.07237">
        <ele>473.3</ele>
        <time>2025-11-19T14:09:56.633Z</time>
      </trkpt>
      <trkpt lat="43.71201" lon="6.07237">
        <ele>473.4</ele>
        <time>2025-11-19T14:09:58.633Z</time>
      </trkpt>
      <trkpt lat="43.71203" lon="6.07237">
        <ele>473.6</ele>
        <time>2025-11-19T14:10:01.633Z</time>
      </trkpt>
      <trkpt lat="43.71205" lon="6.07235">
        <ele>473.8</ele>
        <time>2025-11-19T14:10:04.633Z</time>
      </trkpt>
      <trkpt lat="43.71207" lon="6.07233">
        <ele>473.9</ele>
        <time>2025-11-19T14:10:06.633Z</time>
      </trkpt>
      <trkpt lat="43.71209" lon="6.0723">
        <ele>474.1</ele>
        <time>2025-11-19T14:10:09.633Z</time>
      </trkpt>
      <trkpt lat="43.71211" lon="6.07227">
        <ele>474.2</ele>
        <time>2025-11-19T14:10:12.633Z</time>
      </trkpt>
      <trkpt lat="43.71211" lon="6.07221">
        <ele>474.2</ele>
        <time>2025-11-19T14:10:18.633Z</time>
      </trkpt>
      <trkpt lat="43.7121" lon="6.07218">
        <ele>474</ele>
        <time>2025-11-19T14:10:22.633Z</time>
      </trkpt>
      <trkpt lat="43.71209" lon="6.07215">
        <ele>473.8</ele>
        <time>2025-11-19T14:10:25.633Z</time>
      </trkpt>
      <trkpt lat="43.71207" lon="6.07212">
        <ele>473.5</ele>
        <time>2025-11-19T14:10:29.632Z</time>
      </trkpt>
      <trkpt lat="43.71206" lon="6.07208">
        <ele>473.3</ele>
        <time>2025-11-19T14:10:32.633Z</time>
      </trkpt>
      <trkpt lat="43.71205" lon="6.07203">
        <ele>473.1</ele>
        <time>2025-11-19T14:10:38.633Z</time>
      </trkpt>
      <trkpt lat="43.71204" lon="6.07199">
        <ele>472.9</ele>
        <time>2025-11-19T14:10:40.633Z</time>
      </trkpt>
      <trkpt lat="43.71204" lon="6.07195">
        <ele>472.7</ele>
        <time>2025-11-19T14:10:42.633Z</time>
      </trkpt>
      <trkpt lat="43.71203" lon="6.07191">
        <ele>472.5</ele>
        <time>2025-11-19T14:10:44.633Z</time>
      </trkpt>
      <trkpt lat="43.71203" lon="6.07187">
        <ele>472.4</ele>
        <time>2025-11-19T14:10:48.633Z</time>
      </trkpt>
      <trkpt lat="43.71202" lon="6.07184">
        <ele>472.1</ele>
        <time>2025-11-19T14:10:51.633Z</time>
      </trkpt>
      <trkpt lat="43.71201" lon="6.0718">
        <ele>472</ele>
        <time>2025-11-19T14:10:53.633Z</time>
      </trkpt>
      <trkpt lat="43.712" lon="6.07176">
        <ele>471.8</ele>
        <time>2025-11-19T14:10:56.633Z</time>
      </trkpt>
      <trkpt lat="43.712" lon="6.07173">
        <ele>471.6</ele>
        <time>2025-11-19T14:10:58.633Z</time>
      </trkpt>
      <trkpt lat="43.71199" lon="6.0717">
        <ele>471.4</ele>
        <time>2025-11-19T14:11:01.633Z</time>
      </trkpt>
      <trkpt lat="43.71197" lon="6.07166">
        <ele>471.2</ele>
        <time>2025-11-19T14:11:06.633Z</time>
      </trkpt>
      <trkpt lat="43.71196" lon="6.07162">
        <ele>471</ele>
        <time>2025-11-19T14:11:09.633Z</time>
      </trkpt>
      <trkpt lat="43.71196" lon="6.07159">
        <ele>470.8</ele>
        <time>2025-11-19T14:11:12.633Z</time>
      </trkpt>
      <trkpt lat="43.71195" lon="6.07156">
        <ele>470.6</ele>
        <time>2025-11-19T14:11:15.633Z</time>
      </trkpt>
      <trkpt lat="43.71194" lon="6.07152">
        <ele>470.5</ele>
        <time>2025-11-19T14:11:18.633Z</time>
      </trkpt>
      <trkpt lat="43.71193" lon="6.07148">
        <ele>470.2</ele>
        <time>2025-11-19T14:11:21.633Z</time>
      </trkpt>
      <trkpt lat="43.71192" lon="6.07145">
        <ele>470</ele>
        <time>2025-11-19T14:11:23.633Z</time>
      </trkpt>
      <trkpt lat="43.71192" lon="6.07142">
        <ele>469.8</ele>
        <time>2025-11-19T14:11:25.633Z</time>
      </trkpt>
      <trkpt lat="43.71191" lon="6.07139">
        <ele>469.6</ele>
        <time>2025-11-19T14:11:27.633Z</time>
      </trkpt>
      <trkpt lat="43.71189" lon="6.07135">
        <ele>469.2</ele>
        <time>2025-11-19T14:11:31.633Z</time>
      </trkpt>
      <trkpt lat="43.71189" lon="6.07132">
        <ele>468.9</ele>
        <time>2025-11-19T14:11:35.633Z</time>
      </trkpt>
      <trkpt lat="43.71188" lon="6.07127">
        <ele>468.6</ele>
        <time>2025-11-19T14:11:38.633Z</time>
      </trkpt>
      <trkpt lat="43.71188" lon="6.07124">
        <ele>468.4</ele>
        <time>2025-11-19T14:11:41.633Z</time>
      </trkpt>
      <trkpt lat="43.71187" lon="6.0712">
        <ele>468</ele>
        <time>2025-11-19T14:11:45.633Z</time>
      </trkpt>
      <trkpt lat="43.71186" lon="6.07117">
        <ele>467.7</ele>
        <time>2025-11-19T14:11:49.633Z</time>
      </trkpt>
      <trkpt lat="43.71185" lon="6.07113">
        <ele>467.4</ele>
        <time>2025-11-19T14:11:52.633Z</time>
      </trkpt>
      <trkpt lat="43.71184" lon="6.07109">
        <ele>467.2</ele>
        <time>2025-11-19T14:11:56.633Z</time>
      </trkpt>
      <trkpt lat="43.71185" lon="6.07106">
        <ele>467.2</ele>
        <time>2025-11-19T14:11:59.633Z</time>
      </trkpt>
      <trkpt lat="43.71187" lon="6.07103">
        <ele>467.2</ele>
        <time>2025-11-19T14:12:02.633Z</time>
      </trkpt>
      <trkpt lat="43.7119" lon="6.071">
        <ele>467.3</ele>
        <time>2025-11-19T14:12:05.633Z</time>
      </trkpt>
      <trkpt lat="43.71192" lon="6.07098">
        <ele>467.3</ele>
        <time>2025-11-19T14:12:08.633Z</time>
      </trkpt>
      <trkpt lat="43.71194" lon="6.07095">
        <ele>467.4</ele>
        <time>2025-11-19T14:12:11.633Z</time>
      </trkpt>
      <trkpt lat="43.71196" lon="6.07093">
        <ele>467.5</ele>
        <time>2025-11-19T14:12:14.633Z</time>
      </trkpt>
      <trkpt lat="43.71199" lon="6.0709">
        <ele>467.6</ele>
        <time>2025-11-19T14:12:17.633Z</time>
      </trkpt>
      <trkpt lat="43.71201" lon="6.07088">
        <ele>467.6</ele>
        <time>2025-11-19T14:12:19.633Z</time>
      </trkpt>
      <trkpt lat="43.71203" lon="6.07085">
        <ele>467.6</ele>
        <time>2025-11-19T14:12:21.633Z</time>
      </trkpt>
      <trkpt lat="43.71205" lon="6.07083">
        <ele>467.7</ele>
        <time>2025-11-19T14:12:24.633Z</time>
      </trkpt>
      <trkpt lat="43.71207" lon="6.0708">
        <ele>467.8</ele>
        <time>2025-11-19T14:12:27.633Z</time>
      </trkpt>
      <trkpt lat="43.71209" lon="6.07078">
        <ele>468</ele>
        <time>2025-11-19T14:12:30.633Z</time>
      </trkpt>
      <trkpt lat="43.71211" lon="6.07075">
        <ele>468</ele>
        <time>2025-11-19T14:12:33.633Z</time>
      </trkpt>
      <trkpt lat="43.71213" lon="6.07073">
        <ele>468.1</ele>
        <time>2025-11-19T14:12:36.633Z</time>
      </trkpt>
      <trkpt lat="43.71215" lon="6.07071">
        <ele>468.2</ele>
        <time>2025-11-19T14:12:39.633Z</time>
      </trkpt>
      <trkpt lat="43.71217" lon="6.07068">
        <ele>468.2</ele>
        <time>2025-11-19T14:12:42.633Z</time>
      </trkpt>
      <trkpt lat="43.71219" lon="6.07065">
        <ele>468.2</ele>
        <time>2025-11-19T14:12:45.633Z</time>
      </trkpt>
      <trkpt lat="43.71221" lon="6.07062">
        <ele>468.2</ele>
        <time>2025-11-19T14:12:48.634Z</time>
      </trkpt>
      <trkpt lat="43.71223" lon="6.07058">
        <ele>468.2</ele>
        <time>2025-11-19T14:12:51.633Z</time>
      </trkpt>
      <trkpt lat="43.71225" lon="6.07056">
        <ele>468.4</ele>
        <time>2025-11-19T14:12:53.633Z</time>
      </trkpt>
      <trkpt lat="43.71228" lon="6.07054">
        <ele>468.6</ele>
        <time>2025-11-19T14:12:56.633Z</time>
      </trkpt>
      <trkpt lat="43.7123" lon="6.07051">
        <ele>468.9</ele>
        <time>2025-11-19T14:12:59.633Z</time>
      </trkpt>
      <trkpt lat="43.71232" lon="6.07048">
        <ele>469.2</ele>
        <time>2025-11-19T14:13:02.633Z</time>
      </trkpt>
      <trkpt lat="43.71234" lon="6.07046">
        <ele>469.5</ele>
        <time>2025-11-19T14:13:04.633Z</time>
      </trkpt>
      <trkpt lat="43.71236" lon="6.07043">
        <ele>469.7</ele>
        <time>2025-11-19T14:13:07.633Z</time>
      </trkpt>
      <trkpt lat="43.71238" lon="6.0704">
        <ele>469.9</ele>
        <time>2025-11-19T14:13:10.633Z</time>
      </trkpt>
      <trkpt lat="43.71239" lon="6.07038">
        <ele>470.1</ele>
        <time>2025-11-19T14:13:12.633Z</time>
      </trkpt>
      <trkpt lat="43.71241" lon="6.07035">
        <ele>470.3</ele>
        <time>2025-11-19T14:13:15.633Z</time>
      </trkpt>
      <trkpt lat="43.71242" lon="6.07031">
        <ele>470.4</ele>
        <time>2025-11-19T14:13:18.633Z</time>
      </trkpt>
      <trkpt lat="43.71244" lon="6.07028">
        <ele>470.6</ele>
        <time>2025-11-19T14:13:21.633Z</time>
      </trkpt>
      <trkpt lat="43.71246" lon="6.07025">
        <ele>470.8</ele>
        <time>2025-11-19T14:13:24.633Z</time>
      </trkpt>
      <trkpt lat="43.71247" lon="6.07022">
        <ele>471</ele>
        <time>2025-11-19T14:13:27.633Z</time>
      </trkpt>
      <trkpt lat="43.71249" lon="6.07019">
        <ele>471.2</ele>
        <time>2025-11-19T14:13:30.633Z</time>
      </trkpt>
      <trkpt lat="43.71251" lon="6.07015">
        <ele>471.5</ele>
        <time>2025-11-19T14:13:34.633Z</time>
      </trkpt>
      <trkpt lat="43.71252" lon="6.07012">
        <ele>471.7</ele>
        <time>2025-11-19T14:13:37.633Z</time>
      </trkpt>
      <trkpt lat="43.71253" lon="6.07009">
        <ele>471.9</ele>
        <time>2025-11-19T14:13:40.633Z</time>
      </trkpt>
      <trkpt lat="43.71255" lon="6.07006">
        <ele>472.1</ele>
        <time>2025-11-19T14:13:43.633Z</time>
      </trkpt>
      <trkpt lat="43.71256" lon="6.07003">
        <ele>472.3</ele>
        <time>2025-11-19T14:13:46.634Z</time>
      </trkpt>
      <trkpt lat="43.71258" lon="6.07">
        <ele>472.5</ele>
        <time>2025-11-19T14:13:49.633Z</time>
      </trkpt>
      <trkpt lat="43.71259" lon="6.06997">
        <ele>472.8</ele>
        <time>2025-11-19T14:13:52.633Z</time>
      </trkpt>
      <trkpt lat="43.7126" lon="6.06994">
        <ele>473</ele>
        <time>2025-11-19T14:13:55.633Z</time>
      </trkpt>
      <trkpt lat="43.71262" lon="6.06991">
        <ele>473.3</ele>
        <time>2025-11-19T14:13:58.633Z</time>
      </trkpt>
      <trkpt lat="43.71263" lon="6.06989">
        <ele>473.6</ele>
        <time>2025-11-19T14:14:01.633Z</time>
      </trkpt>
      <trkpt lat="43.71264" lon="6.06986">
        <ele>473.8</ele>
        <time>2025-11-19T14:14:05.633Z</time>
      </trkpt>
      <trkpt lat="43.71267" lon="6.06982">
        <ele>474.2</ele>
        <time>2025-11-19T14:14:11.633Z</time>
      </trkpt>
      <trkpt lat="43.71269" lon="6.06979">
        <ele>474.6</ele>
        <time>2025-11-19T14:14:15.633Z</time>
      </trkpt>
      <trkpt lat="43.7127" lon="6.06975">
        <ele>474.9</ele>
        <time>2025-11-19T14:14:19.633Z</time>
      </trkpt>
      <trkpt lat="43.71271" lon="6.06972">
        <ele>475.3</ele>
        <time>2025-11-19T14:14:24.633Z</time>
      </trkpt>
      <trkpt lat="43.71273" lon="6.06969">
        <ele>475.6</ele>
        <time>2025-11-19T14:14:28.633Z</time>
      </trkpt>
      <trkpt lat="43.71274" lon="6.06966">
        <ele>475.9</ele>
        <time>2025-11-19T14:14:32.633Z</time>
      </trkpt>
      <trkpt lat="43.71276" lon="6.06964">
        <ele>476.3</ele>
        <time>2025-11-19T14:14:37.633Z</time>
      </trkpt>
      <trkpt lat="43.71276" lon="6.0696">
        <ele>476.7</ele>
        <time>2025-11-19T14:14:40.633Z</time>
      </trkpt>
      <trkpt lat="43.71278" lon="6.06958">
        <ele>477</ele>
        <time>2025-11-19T14:14:44.633Z</time>
      </trkpt>
      <trkpt lat="43.71279" lon="6.06954">
        <ele>477.4</ele>
        <time>2025-11-19T14:14:49.634Z</time>
      </trkpt>
      <trkpt lat="43.7128" lon="6.06949">
        <ele>477.9</ele>
        <time>2025-11-19T14:14:55.634Z</time>
      </trkpt>
      <trkpt lat="43.71281" lon="6.06944">
        <ele>478.4</ele>
        <time>2025-11-19T14:15:01.633Z</time>
      </trkpt>
      <trkpt lat="43.71282" lon="6.06939">
        <ele>478.6</ele>
        <time>2025-11-19T14:15:07.633Z</time>
      </trkpt>
      <trkpt lat="43.71283" lon="6.06936">
        <ele>478.9</ele>
        <time>2025-11-19T14:15:12.633Z</time>
      </trkpt>
      <trkpt lat="43.71284" lon="6.06932">
        <ele>479.2</ele>
        <time>2025-11-19T14:15:17.634Z</time>
      </trkpt>
      <trkpt lat="43.71284" lon="6.06928">
        <ele>479.4</ele>
        <time>2025-11-19T14:15:20.634Z</time>
      </trkpt>
      <trkpt lat="43.71285" lon="6.06923">
        <ele>479.7</ele>
        <time>2025-11-19T14:15:26.633Z</time>
      </trkpt>
      <trkpt lat="43.71287" lon="6.0692">
        <ele>480.1</ele>
        <time>2025-11-19T14:15:34.633Z</time>
      </trkpt>
      <trkpt lat="43.71288" lon="6.06917">
        <ele>480.4</ele>
        <time>2025-11-19T14:15:37.633Z</time>
      </trkpt>
      <trkpt lat="43.7129" lon="6.06914">
        <ele>480.7</ele>
        <time>2025-11-19T14:15:41.633Z</time>
      </trkpt>
      <trkpt lat="43.71291" lon="6.06911">
        <ele>480.9</ele>
        <time>2025-11-19T14:15:46.633Z</time>
      </trkpt>
      <trkpt lat="43.71293" lon="6.06909">
        <ele>481.1</ele>
        <time>2025-11-19T14:15:49.633Z</time>
      </trkpt>
      <trkpt lat="43.71295" lon="6.06905">
        <ele>481.3</ele>
        <time>2025-11-19T14:15:54.633Z</time>
      </trkpt>
      <trkpt lat="43.71296" lon="6.06902">
        <ele>481.5</ele>
        <time>2025-11-19T14:15:57.634Z</time>
      </trkpt>
      <trkpt lat="43.71299" lon="6.06904">
        <ele>481.9</ele>
        <time>2025-11-19T14:16:05.633Z</time>
      </trkpt>
      <trkpt lat="43.713" lon="6.06907">
        <ele>482.1</ele>
        <time>2025-11-19T14:16:08.634Z</time>
      </trkpt>
      <trkpt lat="43.71303" lon="6.06907">
        <ele>482.6</ele>
        <time>2025-11-19T14:18:13.634Z</time>
      </trkpt>
      <trkpt lat="43.71302" lon="6.06904">
        <ele>482.5</ele>
        <time>2025-11-19T14:19:02.633Z</time>
      </trkpt>
      <trkpt lat="43.71303" lon="6.069">
        <ele>482.6</ele>
        <time>2025-11-19T14:19:07.634Z</time>
      </trkpt>
      <trkpt lat="43.71304" lon="6.06897">
        <ele>482.8</ele>
        <time>2025-11-19T14:19:12.633Z</time>
      </trkpt>
      <trkpt lat="43.71306" lon="6.06894">
        <ele>483</ele>
        <time>2025-11-19T14:19:16.633Z</time>
      </trkpt>
      <trkpt lat="43.71308" lon="6.06891">
        <ele>482.7</ele>
        <time>2025-11-19T14:19:19.633Z</time>
      </trkpt>
      <trkpt lat="43.71309" lon="6.06889">
        <ele>482.4</ele>
        <time>2025-11-19T14:19:22.634Z</time>
      </trkpt>
      <trkpt lat="43.71311" lon="6.06886">
        <ele>482</ele>
        <time>2025-11-19T14:19:25.633Z</time>
      </trkpt>
      <trkpt lat="43.71312" lon="6.06882">
        <ele>481.6</ele>
        <time>2025-11-19T14:19:29.633Z</time>
      </trkpt>
      <trkpt lat="43.71313" lon="6.06878">
        <ele>481.2</ele>
        <time>2025-11-19T14:19:34.633Z</time>
      </trkpt>
      <trkpt lat="43.71314" lon="6.06875">
        <ele>480.9</ele>
        <time>2025-11-19T14:19:37.634Z</time>
      </trkpt>
      <trkpt lat="43.71316" lon="6.06872">
        <ele>480.6</ele>
        <time>2025-11-19T14:19:42.634Z</time>
      </trkpt>
      <trkpt lat="43.71316" lon="6.06869">
        <ele>480.3</ele>
        <time>2025-11-19T14:19:45.633Z</time>
      </trkpt>
      <trkpt lat="43.71317" lon="6.06866">
        <ele>480</ele>
        <time>2025-11-19T14:19:48.634Z</time>
      </trkpt>
      <trkpt lat="43.71318" lon="6.06863">
        <ele>479.7</ele>
        <time>2025-11-19T14:19:51.633Z</time>
      </trkpt>
      <trkpt lat="43.7132" lon="6.06859">
        <ele>479.3</ele>
        <time>2025-11-19T14:19:54.634Z</time>
      </trkpt>
      <trkpt lat="43.7132" lon="6.06855">
        <ele>478.8</ele>
        <time>2025-11-19T14:19:58.633Z</time>
      </trkpt>
      <trkpt lat="43.71321" lon="6.06852">
        <ele>478.4</ele>
        <time>2025-11-19T14:20:01.634Z</time>
      </trkpt>
      <trkpt lat="43.71322" lon="6.06849">
        <ele>478.1</ele>
        <time>2025-11-19T14:20:04.633Z</time>
      </trkpt>
      <trkpt lat="43.71323" lon="6.06846">
        <ele>477.8</ele>
        <time>2025-11-19T14:20:09.633Z</time>
      </trkpt>
      <trkpt lat="43.71323" lon="6.06843">
        <ele>477.5</ele>
        <time>2025-11-19T14:20:12.634Z</time>
      </trkpt>
      <trkpt lat="43.71325" lon="6.06841">
        <ele>477.3</ele>
        <time>2025-11-19T14:20:15.634Z</time>
      </trkpt>
      <trkpt lat="43.71326" lon="6.06837">
        <ele>477</ele>
        <time>2025-11-19T14:20:18.633Z</time>
      </trkpt>
      <trkpt lat="43.71328" lon="6.06834">
        <ele>476.8</ele>
        <time>2025-11-19T14:20:21.633Z</time>
      </trkpt>
      <trkpt lat="43.71329" lon="6.0683">
        <ele>476.5</ele>
        <time>2025-11-19T14:20:25.634Z</time>
      </trkpt>
      <trkpt lat="43.7133" lon="6.06827">
        <ele>476.2</ele>
        <time>2025-11-19T14:20:29.634Z</time>
      </trkpt>
      <trkpt lat="43.71332" lon="6.06825">
        <ele>476</ele>
        <time>2025-11-19T14:20:33.633Z</time>
      </trkpt>
      <trkpt lat="43.71333" lon="6.06821">
        <ele>475.7</ele>
        <time>2025-11-19T14:20:36.634Z</time>
      </trkpt>
      <trkpt lat="43.71335" lon="6.06819">
        <ele>475.2</ele>
        <time>2025-11-19T14:20:39.633Z</time>
      </trkpt>
      <trkpt lat="43.71336" lon="6.06816">
        <ele>474.8</ele>
        <time>2025-11-19T14:20:41.634Z</time>
      </trkpt>
      <trkpt lat="43.71338" lon="6.06813">
        <ele>474.3</ele>
        <time>2025-11-19T14:20:44.633Z</time>
      </trkpt>
      <trkpt lat="43.7134" lon="6.0681">
        <ele>473.9</ele>
        <time>2025-11-19T14:20:47.634Z</time>
      </trkpt>
      <trkpt lat="43.71342" lon="6.06807">
        <ele>473.5</ele>
        <time>2025-11-19T14:20:51.633Z</time>
      </trkpt>
      <trkpt lat="43.71343" lon="6.06805">
        <ele>473.2</ele>
        <time>2025-11-19T14:20:55.633Z</time>
      </trkpt>
      <trkpt lat="43.71344" lon="6.06801">
        <ele>473</ele>
        <time>2025-11-19T14:20:59.633Z</time>
      </trkpt>
      <trkpt lat="43.71345" lon="6.06798">
        <ele>472.8</ele>
        <time>2025-11-19T14:21:02.634Z</time>
      </trkpt>
      <trkpt lat="43.71347" lon="6.06795">
        <ele>472.6</ele>
        <time>2025-11-19T14:21:06.634Z</time>
      </trkpt>
      <trkpt lat="43.71348" lon="6.06792">
        <ele>472.5</ele>
        <time>2025-11-19T14:21:09.634Z</time>
      </trkpt>
      <trkpt lat="43.71349" lon="6.06789">
        <ele>472.3</ele>
        <time>2025-11-19T14:21:12.633Z</time>
      </trkpt>
      <trkpt lat="43.71351" lon="6.06785">
        <ele>472.2</ele>
        <time>2025-11-19T14:21:17.633Z</time>
      </trkpt>
      <trkpt lat="43.71352" lon="6.06781">
        <ele>472.1</ele>
        <time>2025-11-19T14:21:21.634Z</time>
      </trkpt>
      <trkpt lat="43.71354" lon="6.06779">
        <ele>472</ele>
        <time>2025-11-19T14:21:24.634Z</time>
      </trkpt>
      <trkpt lat="43.71356" lon="6.06775">
        <ele>472</ele>
        <time>2025-11-19T14:21:27.634Z</time>
      </trkpt>
      <trkpt lat="43.71357" lon="6.06772">
        <ele>471.9</ele>
        <time>2025-11-19T14:21:30.633Z</time>
      </trkpt>
      <trkpt lat="43.71358" lon="6.06769">
        <ele>471.9</ele>
        <time>2025-11-19T14:21:33.633Z</time>
      </trkpt>
      <trkpt lat="43.7136" lon="6.06766">
        <ele>472</ele>
        <time>2025-11-19T14:21:36.634Z</time>
      </trkpt>
      <trkpt lat="43.71362" lon="6.06763">
        <ele>472</ele>
        <time>2025-11-19T14:21:39.633Z</time>
      </trkpt>
      <trkpt lat="43.71363" lon="6.06761">
        <ele>471.9</ele>
        <time>2025-11-19T14:21:42.634Z</time>
      </trkpt>
      <trkpt lat="43.71365" lon="6.06757">
        <ele>471.8</ele>
        <time>2025-11-19T14:21:45.634Z</time>
      </trkpt>
      <trkpt lat="43.71367" lon="6.06755">
        <ele>471.7</ele>
        <time>2025-11-19T14:21:48.633Z</time>
      </trkpt>
      <trkpt lat="43.71369" lon="6.06752">
        <ele>471.7</ele>
        <time>2025-11-19T14:21:51.634Z</time>
      </trkpt>
      <trkpt lat="43.7137" lon="6.06749">
        <ele>471.7</ele>
        <time>2025-11-19T14:21:54.633Z</time>
      </trkpt>
      <trkpt lat="43.7137" lon="6.06745">
        <ele>471.8</ele>
        <time>2025-11-19T14:21:58.634Z</time>
      </trkpt>
      <trkpt lat="43.71372" lon="6.06742">
        <ele>471.9</ele>
        <time>2025-11-19T14:22:01.634Z</time>
      </trkpt>
      <trkpt lat="43.71373" lon="6.06738">
        <ele>471.9</ele>
        <time>2025-11-19T14:22:04.634Z</time>
      </trkpt>
      <trkpt lat="43.71374" lon="6.06735">
        <ele>472.1</ele>
        <time>2025-11-19T14:22:07.633Z</time>
      </trkpt>
      <trkpt lat="43.71376" lon="6.06732">
        <ele>472.2</ele>
        <time>2025-11-19T14:22:10.633Z</time>
      </trkpt>
      <trkpt lat="43.71378" lon="6.0673">
        <ele>472.3</ele>
        <time>2025-11-19T14:22:13.633Z</time>
      </trkpt>
      <trkpt lat="43.71381" lon="6.06727">
        <ele>472.5</ele>
        <time>2025-11-19T14:22:16.634Z</time>
      </trkpt>
      <trkpt lat="43.71383" lon="6.06726">
        <ele>472.6</ele>
        <time>2025-11-19T14:22:19.634Z</time>
      </trkpt>
      <trkpt lat="43.71386" lon="6.06726">
        <ele>472.7</ele>
        <time>2025-11-19T14:22:22.634Z</time>
      </trkpt>
      <trkpt lat="43.71389" lon="6.06727">
        <ele>472.6</ele>
        <time>2025-11-19T14:22:26.634Z</time>
      </trkpt>
      <trkpt lat="43.71391" lon="6.06728">
        <ele>472.6</ele>
        <time>2025-11-19T14:22:30.633Z</time>
      </trkpt>
      <trkpt lat="43.71394" lon="6.06729">
        <ele>472.5</ele>
        <time>2025-11-19T14:22:33.633Z</time>
      </trkpt>
      <trkpt lat="43.71397" lon="6.06729">
        <ele>472.4</ele>
        <time>2025-11-19T14:22:37.634Z</time>
      </trkpt>
      <trkpt lat="43.714" lon="6.06729">
        <ele>472.5</ele>
        <time>2025-11-19T14:22:40.634Z</time>
      </trkpt>
      <trkpt lat="43.71403" lon="6.06729">
        <ele>472.4</ele>
        <time>2025-11-19T14:22:43.633Z</time>
      </trkpt>
      <trkpt lat="43.71405" lon="6.0673">
        <ele>472.3</ele>
        <time>2025-11-19T14:22:47.634Z</time>
      </trkpt>
      <trkpt lat="43.71409" lon="6.06729">
        <ele>472.3</ele>
        <time>2025-11-19T14:22:50.634Z</time>
      </trkpt>
      <trkpt lat="43.71411" lon="6.06729">
        <ele>472.3</ele>
        <time>2025-11-19T14:22:53.634Z</time>
      </trkpt>
      <trkpt lat="43.71414" lon="6.06729">
        <ele>472.3</ele>
        <time>2025-11-19T14:22:56.634Z</time>
      </trkpt>
      <trkpt lat="43.71417" lon="6.06728">
        <ele>472.4</ele>
        <time>2025-11-19T14:22:58.634Z</time>
      </trkpt>
      <trkpt lat="43.71419" lon="6.06728">
        <ele>472.4</ele>
        <time>2025-11-19T14:23:00.634Z</time>
      </trkpt>
      <trkpt lat="43.71421" lon="6.06728">
        <ele>472.3</ele>
        <time>2025-11-19T14:23:03.634Z</time>
      </trkpt>
      <trkpt lat="43.71424" lon="6.06729">
        <ele>472.3</ele>
        <time>2025-11-19T14:23:06.634Z</time>
      </trkpt>
      <trkpt lat="43.71427" lon="6.06729">
        <ele>472.2</ele>
        <time>2025-11-19T14:23:09.634Z</time>
      </trkpt>
      <trkpt lat="43.7143" lon="6.06729">
        <ele>472.1</ele>
        <time>2025-11-19T14:23:11.634Z</time>
      </trkpt>
      <trkpt lat="43.71432" lon="6.0673">
        <ele>472</ele>
        <time>2025-11-19T14:23:13.634Z</time>
      </trkpt>
      <trkpt lat="43.71435" lon="6.06732">
        <ele>471.8</ele>
        <time>2025-11-19T14:23:16.634Z</time>
      </trkpt>
      <trkpt lat="43.71437" lon="6.06732">
        <ele>471.7</ele>
        <time>2025-11-19T14:23:18.634Z</time>
      </trkpt>
      <trkpt lat="43.71439" lon="6.06733">
        <ele>471.6</ele>
        <time>2025-11-19T14:23:21.634Z</time>
      </trkpt>
      <trkpt lat="43.7144" lon="6.06736">
        <ele>471.1</ele>
        <time>2025-11-19T14:23:25.634Z</time>
      </trkpt>
      <trkpt lat="43.71443" lon="6.06739">
        <ele>470.7</ele>
        <time>2025-11-19T14:23:28.633Z</time>
      </trkpt>
      <trkpt lat="43.71445" lon="6.06741">
        <ele>470.3</ele>
        <time>2025-11-19T14:23:31.634Z</time>
      </trkpt>
      <trkpt lat="43.71447" lon="6.06744">
        <ele>470.1</ele>
        <time>2025-11-19T14:23:35.634Z</time>
      </trkpt>
      <trkpt lat="43.7145" lon="6.06746">
        <ele>470.1</ele>
        <time>2025-11-19T14:23:38.634Z</time>
      </trkpt>
      <trkpt lat="43.71452" lon="6.06749">
        <ele>469.9</ele>
        <time>2025-11-19T14:23:41.633Z</time>
      </trkpt>
      <trkpt lat="43.71455" lon="6.06751">
        <ele>470.1</ele>
        <time>2025-11-19T14:23:43.634Z</time>
      </trkpt>
      <trkpt lat="43.71457" lon="6.06752">
        <ele>470.2</ele>
        <time>2025-11-19T14:23:45.633Z</time>
      </trkpt>
      <trkpt lat="43.7146" lon="6.06754">
        <ele>470.2</ele>
        <time>2025-11-19T14:23:47.633Z</time>
      </trkpt>
      <trkpt lat="43.71462" lon="6.06755">
        <ele>470.2</ele>
        <time>2025-11-19T14:23:51.633Z</time>
      </trkpt>
      <trkpt lat="43.71465" lon="6.06757">
        <ele>470.3</ele>
        <time>2025-11-19T14:23:54.634Z</time>
      </trkpt>
      <trkpt lat="43.71467" lon="6.06758">
        <ele>470.5</ele>
        <time>2025-11-19T14:23:57.633Z</time>
      </trkpt>
      <trkpt lat="43.7147" lon="6.06758">
        <ele>470.6</ele>
        <time>2025-11-19T14:23:59.634Z</time>
      </trkpt>
      <trkpt lat="43.71473" lon="6.06759">
        <ele>470.7</ele>
        <time>2025-11-19T14:24:01.634Z</time>
      </trkpt>
      <trkpt lat="43.71475" lon="6.06761">
        <ele>470.6</ele>
        <time>2025-11-19T14:24:04.633Z</time>
      </trkpt>
      <trkpt lat="43.71477" lon="6.06763">
        <ele>470.4</ele>
        <time>2025-11-19T14:24:06.634Z</time>
      </trkpt>
      <trkpt lat="43.7148" lon="6.06763">
        <ele>470.5</ele>
        <time>2025-11-19T14:24:08.634Z</time>
      </trkpt>
      <trkpt lat="43.71483" lon="6.06764">
        <ele>470.6</ele>
        <time>2025-11-19T14:24:11.634Z</time>
      </trkpt>
      <trkpt lat="43.71485" lon="6.06764">
        <ele>470.7</ele>
        <time>2025-11-19T14:24:13.633Z</time>
      </trkpt>
      <trkpt lat="43.71488" lon="6.06765">
        <ele>470.7</ele>
        <time>2025-11-19T14:24:16.634Z</time>
      </trkpt>
      <trkpt lat="43.71491" lon="6.06766">
        <ele>470.8</ele>
        <time>2025-11-19T14:24:19.634Z</time>
      </trkpt>
      <trkpt lat="43.71494" lon="6.06767">
        <ele>470.9</ele>
        <time>2025-11-19T14:24:22.634Z</time>
      </trkpt>
      <trkpt lat="43.71496" lon="6.06768">
        <ele>470.9</ele>
        <time>2025-11-19T14:24:24.634Z</time>
      </trkpt>
      <trkpt lat="43.71499" lon="6.06768">
        <ele>470.9</ele>
        <time>2025-11-19T14:24:27.634Z</time>
      </trkpt>
      <trkpt lat="43.71501" lon="6.0677">
        <ele>470.8</ele>
        <time>2025-11-19T14:24:30.634Z</time>
      </trkpt>
      <trkpt lat="43.71504" lon="6.06772">
        <ele>470.9</ele>
        <time>2025-11-19T14:24:33.634Z</time>
      </trkpt>
      <trkpt lat="43.71506" lon="6.06773">
        <ele>470.9</ele>
        <time>2025-11-19T14:24:35.634Z</time>
      </trkpt>
      <trkpt lat="43.71508" lon="6.06774">
        <ele>471</ele>
        <time>2025-11-19T14:24:37.634Z</time>
      </trkpt>
      <trkpt lat="43.71511" lon="6.06776">
        <ele>471</ele>
        <time>2025-11-19T14:24:40.634Z</time>
      </trkpt>
      <trkpt lat="43.71513" lon="6.06778">
        <ele>470.9</ele>
        <time>2025-11-19T14:24:43.634Z</time>
      </trkpt>
      <trkpt lat="43.71515" lon="6.0678">
        <ele>470.8</ele>
        <time>2025-11-19T14:24:45.633Z</time>
      </trkpt>
      <trkpt lat="43.71518" lon="6.06781">
        <ele>470.9</ele>
        <time>2025-11-19T14:24:47.634Z</time>
      </trkpt>
      <trkpt lat="43.7152" lon="6.06783">
        <ele>470.9</ele>
        <time>2025-11-19T14:24:50.633Z</time>
      </trkpt>
      <trkpt lat="43.71523" lon="6.06783">
        <ele>471</ele>
        <time>2025-11-19T14:24:52.634Z</time>
      </trkpt>
      <trkpt lat="43.71526" lon="6.06784">
        <ele>471.2</ele>
        <time>2025-11-19T14:24:55.634Z</time>
      </trkpt>
      <trkpt lat="43.71529" lon="6.06785">
        <ele>471.2</ele>
        <time>2025-11-19T14:24:58.634Z</time>
      </trkpt>
      <trkpt lat="43.71532" lon="6.06786">
        <ele>471.2</ele>
        <time>2025-11-19T14:25:01.634Z</time>
      </trkpt>
      <trkpt lat="43.71534" lon="6.06787">
        <ele>471.2</ele>
        <time>2025-11-19T14:25:03.634Z</time>
      </trkpt>
      <trkpt lat="43.71537" lon="6.06787">
        <ele>471.2</ele>
        <time>2025-11-19T14:25:05.633Z</time>
      </trkpt>
      <trkpt lat="43.71539" lon="6.06788">
        <ele>471.1</ele>
        <time>2025-11-19T14:25:07.634Z</time>
      </trkpt>
      <trkpt lat="43.71542" lon="6.06791">
        <ele>470.9</ele>
        <time>2025-11-19T14:25:10.633Z</time>
      </trkpt>
      <trkpt lat="43.71544" lon="6.06793">
        <ele>470.7</ele>
        <time>2025-11-19T14:25:13.634Z</time>
      </trkpt>
      <trkpt lat="43.71547" lon="6.06794">
        <ele>470.6</ele>
        <time>2025-11-19T14:25:16.634Z</time>
      </trkpt>
      <trkpt lat="43.71548" lon="6.06796">
        <ele>470.3</ele>
        <time>2025-11-19T14:25:19.634Z</time>
      </trkpt>
      <trkpt lat="43.7155" lon="6.06798">
        <ele>470.1</ele>
        <time>2025-11-19T14:25:21.634Z</time>
      </trkpt>
      <trkpt lat="43.71553" lon="6.06799">
        <ele>469.9</ele>
        <time>2025-11-19T14:25:24.634Z</time>
      </trkpt>
      <trkpt lat="43.71556" lon="6.068">
        <ele>469.8</ele>
        <time>2025-11-19T14:25:26.634Z</time>
      </trkpt>
      <trkpt lat="43.71558" lon="6.068">
        <ele>469.8</ele>
        <time>2025-11-19T14:25:28.634Z</time>
      </trkpt>
      <trkpt lat="43.7156" lon="6.06802">
        <ele>469.7</ele>
        <time>2025-11-19T14:25:31.634Z</time>
      </trkpt>
      <trkpt lat="43.71564" lon="6.06803">
        <ele>469.6</ele>
        <time>2025-11-19T14:25:34.634Z</time>
      </trkpt>
      <trkpt lat="43.71566" lon="6.06803">
        <ele>469.7</ele>
        <time>2025-11-19T14:25:36.634Z</time>
      </trkpt>
      <trkpt lat="43.71569" lon="6.06805">
        <ele>469.6</ele>
        <time>2025-11-19T14:25:39.634Z</time>
      </trkpt>
      <trkpt lat="43.71572" lon="6.06807">
        <ele>469.5</ele>
        <time>2025-11-19T14:25:42.634Z</time>
      </trkpt>
      <trkpt lat="43.71575" lon="6.06808">
        <ele>469.4</ele>
        <time>2025-11-19T14:25:45.634Z</time>
      </trkpt>
      <trkpt lat="43.71577" lon="6.0681">
        <ele>469.3</ele>
        <time>2025-11-19T14:25:48.633Z</time>
      </trkpt>
      <trkpt lat="43.71579" lon="6.06812">
        <ele>469.1</ele>
        <time>2025-11-19T14:25:51.634Z</time>
      </trkpt>
      <trkpt lat="43.71581" lon="6.06814">
        <ele>469.1</ele>
        <time>2025-11-19T14:25:55.634Z</time>
      </trkpt>
      <trkpt lat="43.71584" lon="6.06815">
        <ele>469</ele>
        <time>2025-11-19T14:25:59.634Z</time>
      </trkpt>
      <trkpt lat="43.71586" lon="6.06816">
        <ele>468.9</ele>
        <time>2025-11-19T14:26:02.634Z</time>
      </trkpt>
      <trkpt lat="43.71588" lon="6.06817">
        <ele>468.7</ele>
        <time>2025-11-19T14:26:04.634Z</time>
      </trkpt>
      <trkpt lat="43.71591" lon="6.06818">
        <ele>468.7</ele>
        <time>2025-11-19T14:26:07.634Z</time>
      </trkpt>
      <trkpt lat="43.71593" lon="6.06819">
        <ele>468.5</ele>
        <time>2025-11-19T14:26:09.634Z</time>
      </trkpt>
      <trkpt lat="43.71596" lon="6.06819">
        <ele>468.5</ele>
        <time>2025-11-19T14:26:11.634Z</time>
      </trkpt>
      <trkpt lat="43.71599" lon="6.06819">
        <ele>468.5</ele>
        <time>2025-11-19T14:26:14.634Z</time>
      </trkpt>
      <trkpt lat="43.71602" lon="6.0682">
        <ele>468.5</ele>
        <time>2025-11-19T14:26:16.634Z</time>
      </trkpt>
      <trkpt lat="43.71605" lon="6.0682">
        <ele>468.4</ele>
        <time>2025-11-19T14:26:18.634Z</time>
      </trkpt>
      <trkpt lat="43.71607" lon="6.06821">
        <ele>468.4</ele>
        <time>2025-11-19T14:26:20.634Z</time>
      </trkpt>
      <trkpt lat="43.7161" lon="6.06822">
        <ele>468.3</ele>
        <time>2025-11-19T14:26:22.634Z</time>
      </trkpt>
      <trkpt lat="43.71613" lon="6.06823">
        <ele>468</ele>
        <time>2025-11-19T14:26:26.634Z</time>
      </trkpt>
      <trkpt lat="43.71616" lon="6.06824">
        <ele>467.8</ele>
        <time>2025-11-19T14:26:29.634Z</time>
      </trkpt>
      <trkpt lat="43.71619" lon="6.06825">
        <ele>467.5</ele>
        <time>2025-11-19T14:26:32.634Z</time>
      </trkpt>
      <trkpt lat="43.71621" lon="6.06827">
        <ele>467.2</ele>
        <time>2025-11-19T14:26:35.634Z</time>
      </trkpt>
      <trkpt lat="43.71624" lon="6.06829">
        <ele>467</ele>
        <time>2025-11-19T14:26:38.634Z</time>
      </trkpt>
      <trkpt lat="43.71626" lon="6.06829">
        <ele>466.8</ele>
        <time>2025-11-19T14:26:40.634Z</time>
      </trkpt>
      <trkpt lat="43.71629" lon="6.0683">
        <ele>466.6</ele>
        <time>2025-11-19T14:26:43.634Z</time>
      </trkpt>
      <trkpt lat="43.71631" lon="6.06831">
        <ele>466.4</ele>
        <time>2025-11-19T14:26:45.634Z</time>
      </trkpt>
      <trkpt lat="43.71634" lon="6.06832">
        <ele>466.3</ele>
        <time>2025-11-19T14:26:48.634Z</time>
      </trkpt>
      <trkpt lat="43.71637" lon="6.06832">
        <ele>466.2</ele>
        <time>2025-11-19T14:26:50.633Z</time>
      </trkpt>
      <trkpt lat="43.7164" lon="6.06832">
        <ele>466</ele>
        <time>2025-11-19T14:26:53.634Z</time>
      </trkpt>
      <trkpt lat="43.71642" lon="6.06832">
        <ele>465.8</ele>
        <time>2025-11-19T14:26:55.634Z</time>
      </trkpt>
      <trkpt lat="43.71645" lon="6.06832">
        <ele>465.7</ele>
        <time>2025-11-19T14:26:58.634Z</time>
      </trkpt>
      <trkpt lat="43.71648" lon="6.06832">
        <ele>465.5</ele>
        <time>2025-11-19T14:27:00.634Z</time>
      </trkpt>
      <trkpt lat="43.7165" lon="6.06832">
        <ele>465.3</ele>
        <time>2025-11-19T14:27:02.634Z</time>
      </trkpt>
      <trkpt lat="43.71653" lon="6.06831">
        <ele>465.1</ele>
        <time>2025-11-19T14:27:04.634Z</time>
      </trkpt>
      <trkpt lat="43.71656" lon="6.06832">
        <ele>464.9</ele>
        <time>2025-11-19T14:27:08.634Z</time>
      </trkpt>
      <trkpt lat="43.71658" lon="6.06832">
        <ele>464.7</ele>
        <time>2025-11-19T14:27:10.634Z</time>
      </trkpt>
      <trkpt lat="43.71661" lon="6.06832">
        <ele>464.5</ele>
        <time>2025-11-19T14:27:14.634Z</time>
      </trkpt>
      <trkpt lat="43.71663" lon="6.06831">
        <ele>464.3</ele>
        <time>2025-11-19T14:27:16.634Z</time>
      </trkpt>
      <trkpt lat="43.71666" lon="6.06832">
        <ele>464.1</ele>
        <time>2025-11-19T14:27:19.634Z</time>
      </trkpt>
      <trkpt lat="43.71669" lon="6.06832">
        <ele>463.9</ele>
        <time>2025-11-19T14:27:22.634Z</time>
      </trkpt>
      <trkpt lat="43.71673" lon="6.06832">
        <ele>463.6</ele>
        <time>2025-11-19T14:27:25.634Z</time>
      </trkpt>
      <trkpt lat="43.71675" lon="6.06832">
        <ele>463.4</ele>
        <time>2025-11-19T14:27:27.634Z</time>
      </trkpt>
      <trkpt lat="43.71678" lon="6.06834">
        <ele>463.2</ele>
        <time>2025-11-19T14:27:31.634Z</time>
      </trkpt>
      <trkpt lat="43.7168" lon="6.06835">
        <ele>463</ele>
        <time>2025-11-19T14:27:33.634Z</time>
      </trkpt>
      <trkpt lat="43.71683" lon="6.06836">
        <ele>462.7</ele>
        <time>2025-11-19T14:27:36.634Z</time>
      </trkpt>
      <trkpt lat="43.71686" lon="6.06835">
        <ele>462.5</ele>
        <time>2025-11-19T14:27:39.634Z</time>
      </trkpt>
      <trkpt lat="43.71689" lon="6.06836">
        <ele>462.3</ele>
        <time>2025-11-19T14:27:42.634Z</time>
      </trkpt>
      <trkpt lat="43.71692" lon="6.06836">
        <ele>462.1</ele>
        <time>2025-11-19T14:27:45.634Z</time>
      </trkpt>
      <trkpt lat="43.71694" lon="6.06837">
        <ele>461.9</ele>
        <time>2025-11-19T14:27:48.634Z</time>
      </trkpt>
      <trkpt lat="43.71697" lon="6.06839">
        <ele>461.4</ele>
        <time>2025-11-19T14:27:51.634Z</time>
      </trkpt>
      <trkpt lat="43.71699" lon="6.06841">
        <ele>461.1</ele>
        <time>2025-11-19T14:27:55.634Z</time>
      </trkpt>
      <trkpt lat="43.71702" lon="6.06842">
        <ele>460.7</ele>
        <time>2025-11-19T14:27:58.634Z</time>
      </trkpt>
      <trkpt lat="43.71704" lon="6.06843">
        <ele>460.3</ele>
        <time>2025-11-19T14:28:02.634Z</time>
      </trkpt>
      <trkpt lat="43.71707" lon="6.06844">
        <ele>460</ele>
        <time>2025-11-19T14:28:05.634Z</time>
      </trkpt>
      <trkpt lat="43.7171" lon="6.06845">
        <ele>459.6</ele>
        <time>2025-11-19T14:28:08.634Z</time>
      </trkpt>
      <trkpt lat="43.71712" lon="6.06846">
        <ele>459.3</ele>
        <time>2025-11-19T14:28:10.635Z</time>
      </trkpt>
      <trkpt lat="43.71715" lon="6.06845">
        <ele>459</ele>
        <time>2025-11-19T14:28:14.634Z</time>
      </trkpt>
      <trkpt lat="43.71717" lon="6.06845">
        <ele>458.6</ele>
        <time>2025-11-19T14:28:17.634Z</time>
      </trkpt>
      <trkpt lat="43.7172" lon="6.06845">
        <ele>458.3</ele>
        <time>2025-11-19T14:28:21.634Z</time>
      </trkpt>
      <trkpt lat="43.71722" lon="6.06844">
        <ele>458</ele>
        <time>2025-11-19T14:28:24.634Z</time>
      </trkpt>
      <trkpt lat="43.71725" lon="6.06844">
        <ele>457.9</ele>
        <time>2025-11-19T14:28:27.634Z</time>
      </trkpt>
      <trkpt lat="43.71727" lon="6.06845">
        <ele>457.7</ele>
        <time>2025-11-19T14:28:30.634Z</time>
      </trkpt>
      <trkpt lat="43.71729" lon="6.06845">
        <ele>457.5</ele>
        <time>2025-11-19T14:28:35.634Z</time>
      </trkpt>
      <trkpt lat="43.71732" lon="6.06845">
        <ele>457.4</ele>
        <time>2025-11-19T14:28:38.634Z</time>
      </trkpt>
      <trkpt lat="43.71735" lon="6.06845">
        <ele>457.2</ele>
        <time>2025-11-19T14:28:41.634Z</time>
      </trkpt>
      <trkpt lat="43.71737" lon="6.06844">
        <ele>457.1</ele>
        <time>2025-11-19T14:28:44.634Z</time>
      </trkpt>
      <trkpt lat="43.7174" lon="6.06843">
        <ele>456.9</ele>
        <time>2025-11-19T14:28:47.634Z</time>
      </trkpt>
      <trkpt lat="43.71743" lon="6.06842">
        <ele>456.8</ele>
        <time>2025-11-19T14:28:50.634Z</time>
      </trkpt>
      <trkpt lat="43.71746" lon="6.06841">
        <ele>456.7</ele>
        <time>2025-11-19T14:28:52.634Z</time>
      </trkpt>
      <trkpt lat="43.71748" lon="6.06842">
        <ele>456.5</ele>
        <time>2025-11-19T14:28:54.634Z</time>
      </trkpt>
      <trkpt lat="43.71751" lon="6.06842">
        <ele>456.4</ele>
        <time>2025-11-19T14:28:57.634Z</time>
      </trkpt>
      <trkpt lat="43.71753" lon="6.06843">
        <ele>456.3</ele>
        <time>2025-11-19T14:29:00.635Z</time>
      </trkpt>
      <trkpt lat="43.71756" lon="6.06845">
        <ele>456.2</ele>
        <time>2025-11-19T14:29:03.634Z</time>
      </trkpt>
      <trkpt lat="43.71759" lon="6.06846">
        <ele>456.1</ele>
        <time>2025-11-19T14:29:05.634Z</time>
      </trkpt>
      <trkpt lat="43.71762" lon="6.06848">
        <ele>455.9</ele>
        <time>2025-11-19T14:29:08.634Z</time>
      </trkpt>
      <trkpt lat="43.71764" lon="6.06849">
        <ele>455.8</ele>
        <time>2025-11-19T14:29:11.634Z</time>
      </trkpt>
      <trkpt lat="43.71768" lon="6.0685">
        <ele>455.7</ele>
        <time>2025-11-19T14:29:14.634Z</time>
      </trkpt>
      <trkpt lat="43.7177" lon="6.06851">
        <ele>455.5</ele>
        <time>2025-11-19T14:29:16.634Z</time>
      </trkpt>
      <trkpt lat="43.71773" lon="6.06852">
        <ele>455.4</ele>
        <time>2025-11-19T14:29:19.634Z</time>
      </trkpt>
      <trkpt lat="43.71776" lon="6.06852">
        <ele>455.3</ele>
        <time>2025-11-19T14:29:21.634Z</time>
      </trkpt>
      <trkpt lat="43.71778" lon="6.06852">
        <ele>455.3</ele>
        <time>2025-11-19T14:29:23.634Z</time>
      </trkpt>
      <trkpt lat="43.71781" lon="6.06851">
        <ele>455.4</ele>
        <time>2025-11-19T14:29:26.635Z</time>
      </trkpt>
      <trkpt lat="43.71784" lon="6.0685">
        <ele>455.5</ele>
        <time>2025-11-19T14:29:30.634Z</time>
      </trkpt>
      <trkpt lat="43.71788" lon="6.0685">
        <ele>455.5</ele>
        <time>2025-11-19T14:29:33.635Z</time>
      </trkpt>
      <trkpt lat="43.7179" lon="6.06849">
        <ele>455.6</ele>
        <time>2025-11-19T14:29:35.634Z</time>
      </trkpt>
      <trkpt lat="43.71793" lon="6.06849">
        <ele>455.5</ele>
        <time>2025-11-19T14:29:38.635Z</time>
      </trkpt>
      <trkpt lat="43.71796" lon="6.06848">
        <ele>455.6</ele>
        <time>2025-11-19T14:29:41.635Z</time>
      </trkpt>
      <trkpt lat="43.71799" lon="6.06846">
        <ele>455.8</ele>
        <time>2025-11-19T14:29:44.634Z</time>
      </trkpt>
      <trkpt lat="43.71802" lon="6.06845">
        <ele>455.8</ele>
        <time>2025-11-19T14:29:47.635Z</time>
      </trkpt>
      <trkpt lat="43.71805" lon="6.06844">
        <ele>455.8</ele>
        <time>2025-11-19T14:29:50.634Z</time>
      </trkpt>
      <trkpt lat="43.71808" lon="6.06843">
        <ele>455.8</ele>
        <time>2025-11-19T14:29:52.635Z</time>
      </trkpt>
      <trkpt lat="43.71811" lon="6.06843">
        <ele>455.7</ele>
        <time>2025-11-19T14:29:54.634Z</time>
      </trkpt>
      <trkpt lat="43.71813" lon="6.06842">
        <ele>455.7</ele>
        <time>2025-11-19T14:29:56.634Z</time>
      </trkpt>
      <trkpt lat="43.71815" lon="6.0684">
        <ele>455.7</ele>
        <time>2025-11-19T14:29:58.634Z</time>
      </trkpt>
      <trkpt lat="43.71818" lon="6.06839">
        <ele>455.7</ele>
        <time>2025-11-19T14:30:01.634Z</time>
      </trkpt>
      <trkpt lat="43.71821" lon="6.06838">
        <ele>455.6</ele>
        <time>2025-11-19T14:30:04.634Z</time>
      </trkpt>
      <trkpt lat="43.71824" lon="6.06837">
        <ele>455.5</ele>
        <time>2025-11-19T14:30:06.634Z</time>
      </trkpt>
      <trkpt lat="43.71827" lon="6.06836">
        <ele>455.3</ele>
        <time>2025-11-19T14:30:09.634Z</time>
      </trkpt>
      <trkpt lat="43.71829" lon="6.06835">
        <ele>455.2</ele>
        <time>2025-11-19T14:30:11.635Z</time>
      </trkpt>
      <trkpt lat="43.71831" lon="6.06834">
        <ele>455.1</ele>
        <time>2025-11-19T14:30:14.634Z</time>
      </trkpt>
      <trkpt lat="43.71834" lon="6.06834">
        <ele>455</ele>
        <time>2025-11-19T14:30:17.634Z</time>
      </trkpt>
      <trkpt lat="43.71837" lon="6.06833">
        <ele>455</ele>
        <time>2025-11-19T14:30:20.634Z</time>
      </trkpt>
      <trkpt lat="43.71839" lon="6.06831">
        <ele>455.1</ele>
        <time>2025-11-19T14:30:22.634Z</time>
      </trkpt>
      <trkpt lat="43.71842" lon="6.06829">
        <ele>455.2</ele>
        <time>2025-11-19T14:30:25.634Z</time>
      </trkpt>
      <trkpt lat="43.71845" lon="6.06828">
        <ele>455.2</ele>
        <time>2025-11-19T14:30:28.634Z</time>
      </trkpt>
      <trkpt lat="43.71848" lon="6.06827">
        <ele>455.3</ele>
        <time>2025-11-19T14:30:31.634Z</time>
      </trkpt>
      <trkpt lat="43.7185" lon="6.06826">
        <ele>455.3</ele>
        <time>2025-11-19T14:30:34.634Z</time>
      </trkpt>
      <trkpt lat="43.71853" lon="6.06826">
        <ele>455.2</ele>
        <time>2025-11-19T14:30:37.634Z</time>
      </trkpt>
      <trkpt lat="43.71856" lon="6.06824">
        <ele>455.2</ele>
        <time>2025-11-19T14:30:40.634Z</time>
      </trkpt>
      <trkpt lat="43.71858" lon="6.06824">
        <ele>455.2</ele>
        <time>2025-11-19T14:30:42.634Z</time>
      </trkpt>
      <trkpt lat="43.7186" lon="6.06823">
        <ele>455.2</ele>
        <time>2025-11-19T14:30:44.634Z</time>
      </trkpt>
      <trkpt lat="43.71862" lon="6.06822">
        <ele>455.2</ele>
        <time>2025-11-19T14:30:46.634Z</time>
      </trkpt>
      <trkpt lat="43.71865" lon="6.0682">
        <ele>455.2</ele>
        <time>2025-11-19T14:30:49.634Z</time>
      </trkpt>
      <trkpt lat="43.71867" lon="6.06819">
        <ele>455.2</ele>
        <time>2025-11-19T14:30:52.634Z</time>
      </trkpt>
      <trkpt lat="43.7187" lon="6.06818">
        <ele>455.1</ele>
        <time>2025-11-19T14:30:56.635Z</time>
      </trkpt>
      <trkpt lat="43.71872" lon="6.06818">
        <ele>455.1</ele>
        <time>2025-11-19T14:30:58.634Z</time>
      </trkpt>
      <trkpt lat="43.71875" lon="6.06817">
        <ele>455</ele>
        <time>2025-11-19T14:31:00.634Z</time>
      </trkpt>
      <trkpt lat="43.71877" lon="6.06816">
        <ele>455</ele>
        <time>2025-11-19T14:31:02.634Z</time>
      </trkpt>
      <trkpt lat="43.7188" lon="6.06815">
        <ele>454.8</ele>
        <time>2025-11-19T14:31:05.634Z</time>
      </trkpt>
      <trkpt lat="43.71883" lon="6.06814">
        <ele>454.8</ele>
        <time>2025-11-19T14:31:07.634Z</time>
      </trkpt>
      <trkpt lat="43.71886" lon="6.06812">
        <ele>454.7</ele>
        <time>2025-11-19T14:31:11.634Z</time>
      </trkpt>
      <trkpt lat="43.71888" lon="6.06811">
        <ele>454.7</ele>
        <time>2025-11-19T14:31:13.634Z</time>
      </trkpt>
      <trkpt lat="43.71891" lon="6.0681">
        <ele>454.7</ele>
        <time>2025-11-19T14:31:15.635Z</time>
      </trkpt>
      <trkpt lat="43.71893" lon="6.06809">
        <ele>454.7</ele>
        <time>2025-11-19T14:31:17.634Z</time>
      </trkpt>
      <trkpt lat="43.71896" lon="6.06809">
        <ele>454.8</ele>
        <time>2025-11-19T14:31:19.635Z</time>
      </trkpt>
      <trkpt lat="43.71898" lon="6.06807">
        <ele>454.9</ele>
        <time>2025-11-19T14:31:21.634Z</time>
      </trkpt>
      <trkpt lat="43.71901" lon="6.06806">
        <ele>455</ele>
        <time>2025-11-19T14:31:24.634Z</time>
      </trkpt>
      <trkpt lat="43.71904" lon="6.06806">
        <ele>455</ele>
        <time>2025-11-19T14:31:26.635Z</time>
      </trkpt>
      <trkpt lat="43.71906" lon="6.06806">
        <ele>455</ele>
        <time>2025-11-19T14:31:28.635Z</time>
      </trkpt>
      <trkpt lat="43.71909" lon="6.06805">
        <ele>455</ele>
        <time>2025-11-19T14:31:30.635Z</time>
      </trkpt>
      <trkpt lat="43.71911" lon="6.06804">
        <ele>455.1</ele>
        <time>2025-11-19T14:31:33.635Z</time>
      </trkpt>
      <trkpt lat="43.71915" lon="6.06803">
        <ele>455.2</ele>
        <time>2025-11-19T14:31:36.634Z</time>
      </trkpt>
      <trkpt lat="43.71918" lon="6.06802">
        <ele>455.2</ele>
        <time>2025-11-19T14:31:38.634Z</time>
      </trkpt>
      <trkpt lat="43.7192" lon="6.06801">
        <ele>455.1</ele>
        <time>2025-11-19T14:31:41.634Z</time>
      </trkpt>
      <trkpt lat="43.71923" lon="6.068">
        <ele>455</ele>
        <time>2025-11-19T14:31:44.635Z</time>
      </trkpt>
      <trkpt lat="43.71925" lon="6.06799">
        <ele>455</ele>
        <time>2025-11-19T14:31:46.634Z</time>
      </trkpt>
      <trkpt lat="43.71928" lon="6.06798">
        <ele>454.8</ele>
        <time>2025-11-19T14:31:49.635Z</time>
      </trkpt>
      <trkpt lat="43.7193" lon="6.06798">
        <ele>454.8</ele>
        <time>2025-11-19T14:31:51.634Z</time>
      </trkpt>
      <trkpt lat="43.71933" lon="6.06797">
        <ele>454.6</ele>
        <time>2025-11-19T14:31:54.634Z</time>
      </trkpt>
      <trkpt lat="43.71935" lon="6.06796">
        <ele>454.6</ele>
        <time>2025-11-19T14:31:56.634Z</time>
      </trkpt>
      <trkpt lat="43.71938" lon="6.06795">
        <ele>454.5</ele>
        <time>2025-11-19T14:31:58.635Z</time>
      </trkpt>
      <trkpt lat="43.71941" lon="6.06794">
        <ele>454.4</ele>
        <time>2025-11-19T14:32:01.634Z</time>
      </trkpt>
      <trkpt lat="43.71943" lon="6.06793">
        <ele>454.4</ele>
        <time>2025-11-19T14:32:03.635Z</time>
      </trkpt>
      <trkpt lat="43.71946" lon="6.06793">
        <ele>454.3</ele>
        <time>2025-11-19T14:32:06.634Z</time>
      </trkpt>
      <trkpt lat="43.7195" lon="6.06793">
        <ele>454.3</ele>
        <time>2025-11-19T14:32:09.635Z</time>
      </trkpt>
      <trkpt lat="43.71953" lon="6.06792">
        <ele>454.3</ele>
        <time>2025-11-19T14:32:12.634Z</time>
      </trkpt>
      <trkpt lat="43.71956" lon="6.06792">
        <ele>454.3</ele>
        <time>2025-11-19T14:32:15.635Z</time>
      </trkpt>
      <trkpt lat="43.71959" lon="6.06791">
        <ele>454.3</ele>
        <time>2025-11-19T14:32:17.635Z</time>
      </trkpt>
      <trkpt lat="43.71961" lon="6.06791">
        <ele>454.3</ele>
        <time>2025-11-19T14:32:19.634Z</time>
      </trkpt>
      <trkpt lat="43.71963" lon="6.0679">
        <ele>454.3</ele>
        <time>2025-11-19T14:32:21.634Z</time>
      </trkpt>
      <trkpt lat="43.71966" lon="6.06789">
        <ele>454.3</ele>
        <time>2025-11-19T14:32:23.634Z</time>
      </trkpt>
      <trkpt lat="43.71969" lon="6.06789">
        <ele>454.3</ele>
        <time>2025-11-19T14:32:26.634Z</time>
      </trkpt>
      <trkpt lat="43.71971" lon="6.06788">
        <ele>454.3</ele>
        <time>2025-11-19T14:32:28.634Z</time>
      </trkpt>
      <trkpt lat="43.71974" lon="6.06788">
        <ele>454.3</ele>
        <time>2025-11-19T14:32:30.635Z</time>
      </trkpt>
      <trkpt lat="43.71976" lon="6.06788">
        <ele>454.3</ele>
        <time>2025-11-19T14:32:32.634Z</time>
      </trkpt>
      <trkpt lat="43.7198" lon="6.06787">
        <ele>454.3</ele>
        <time>2025-11-19T14:32:35.634Z</time>
      </trkpt>
      <trkpt lat="43.71983" lon="6.06787">
        <ele>454.4</ele>
        <time>2025-11-19T14:32:37.634Z</time>
      </trkpt>
      <trkpt lat="43.71985" lon="6.06786">
        <ele>454.4</ele>
        <time>2025-11-19T14:32:39.634Z</time>
      </trkpt>
      <trkpt lat="43.71988" lon="6.06785">
        <ele>454.5</ele>
        <time>2025-11-19T14:32:42.634Z</time>
      </trkpt>
      <trkpt lat="43.7199" lon="6.06785">
        <ele>454.5</ele>
        <time>2025-11-19T14:32:45.635Z</time>
      </trkpt>
      <trkpt lat="43.71993" lon="6.06783">
        <ele>454.6</ele>
        <time>2025-11-19T14:32:48.635Z</time>
      </trkpt>
      <trkpt lat="43.71996" lon="6.06782">
        <ele>454.7</ele>
        <time>2025-11-19T14:32:51.635Z</time>
      </trkpt>
      <trkpt lat="43.71999" lon="6.06782">
        <ele>454.7</ele>
        <time>2025-11-19T14:32:54.634Z</time>
      </trkpt>
      <trkpt lat="43.72002" lon="6.06781">
        <ele>454.7</ele>
        <time>2025-11-19T14:32:57.634Z</time>
      </trkpt>
      <trkpt lat="43.72004" lon="6.0678">
        <ele>454.8</ele>
        <time>2025-11-19T14:33:01.635Z</time>
      </trkpt>
      <trkpt lat="43.72007" lon="6.06781">
        <ele>454.8</ele>
        <time>2025-11-19T14:33:04.635Z</time>
      </trkpt>
      <trkpt lat="43.7201" lon="6.0678">
        <ele>454.9</ele>
        <time>2025-11-19T14:33:07.635Z</time>
      </trkpt>
      <trkpt lat="43.72013" lon="6.06779">
        <ele>454.9</ele>
        <time>2025-11-19T14:33:09.634Z</time>
      </trkpt>
      <trkpt lat="43.72016" lon="6.06779">
        <ele>454.9</ele>
        <time>2025-11-19T14:33:12.634Z</time>
      </trkpt>
      <trkpt lat="43.72019" lon="6.06778">
        <ele>455</ele>
        <time>2025-11-19T14:33:15.634Z</time>
      </trkpt>
      <trkpt lat="43.72021" lon="6.06778">
        <ele>455</ele>
        <time>2025-11-19T14:33:18.634Z</time>
      </trkpt>
      <trkpt lat="43.72024" lon="6.06778">
        <ele>455</ele>
        <time>2025-11-19T14:33:21.634Z</time>
      </trkpt>
      <trkpt lat="43.72027" lon="6.06779">
        <ele>454.9</ele>
        <time>2025-11-19T14:33:24.634Z</time>
      </trkpt>
      <trkpt lat="43.7203" lon="6.06777">
        <ele>455</ele>
        <time>2025-11-19T14:33:26.635Z</time>
      </trkpt>
      <trkpt lat="43.72032" lon="6.06776">
        <ele>455.1</ele>
        <time>2025-11-19T14:33:28.634Z</time>
      </trkpt>
      <trkpt lat="43.72035" lon="6.06776">
        <ele>455.1</ele>
        <time>2025-11-19T14:33:30.634Z</time>
      </trkpt>
      <trkpt lat="43.72038" lon="6.06776">
        <ele>455.1</ele>
        <time>2025-11-19T14:33:32.634Z</time>
      </trkpt>
      <trkpt lat="43.7204" lon="6.06775">
        <ele>455.1</ele>
        <time>2025-11-19T14:33:34.634Z</time>
      </trkpt>
      <trkpt lat="43.72044" lon="6.06775">
        <ele>455.2</ele>
        <time>2025-11-19T14:33:37.634Z</time>
      </trkpt>
      <trkpt lat="43.72047" lon="6.06774">
        <ele>455.2</ele>
        <time>2025-11-19T14:33:40.635Z</time>
      </trkpt>
      <trkpt lat="43.7205" lon="6.06773">
        <ele>455.2</ele>
        <time>2025-11-19T14:33:42.635Z</time>
      </trkpt>
      <trkpt lat="43.72053" lon="6.06773">
        <ele>455.2</ele>
        <time>2025-11-19T14:33:45.634Z</time>
      </trkpt>
      <trkpt lat="43.72055" lon="6.06773">
        <ele>455.2</ele>
        <time>2025-11-19T14:33:47.635Z</time>
      </trkpt>
      <trkpt lat="43.72058" lon="6.06772">
        <ele>455.3</ele>
        <time>2025-11-19T14:33:49.634Z</time>
      </trkpt>
      <trkpt lat="43.72061" lon="6.06773">
        <ele>455.4</ele>
        <time>2025-11-19T14:33:52.634Z</time>
      </trkpt>
      <trkpt lat="43.72063" lon="6.06774">
        <ele>455.4</ele>
        <time>2025-11-19T14:33:54.634Z</time>
      </trkpt>
      <trkpt lat="43.72066" lon="6.06774">
        <ele>455.5</ele>
        <time>2025-11-19T14:33:56.634Z</time>
      </trkpt>
      <trkpt lat="43.72068" lon="6.06773">
        <ele>455.6</ele>
        <time>2025-11-19T14:33:58.634Z</time>
      </trkpt>
      <trkpt lat="43.72071" lon="6.06773">
        <ele>455.7</ele>
        <time>2025-11-19T14:34:01.634Z</time>
      </trkpt>
      <trkpt lat="43.72074" lon="6.06773">
        <ele>455.8</ele>
        <time>2025-11-19T14:34:04.635Z</time>
      </trkpt>
      <trkpt lat="43.72076" lon="6.06774">
        <ele>455.9</ele>
        <time>2025-11-19T14:34:07.634Z</time>
      </trkpt>
      <trkpt lat="43.72079" lon="6.06774">
        <ele>456</ele>
        <time>2025-11-19T14:34:10.634Z</time>
      </trkpt>
      <trkpt lat="43.72081" lon="6.06774">
        <ele>456.1</ele>
        <time>2025-11-19T14:34:12.634Z</time>
      </trkpt>
      <trkpt lat="43.72084" lon="6.06773">
        <ele>456.2</ele>
        <time>2025-11-19T14:34:15.634Z</time>
      </trkpt>
      <trkpt lat="43.72086" lon="6.06774">
        <ele>456.3</ele>
        <time>2025-11-19T14:34:18.635Z</time>
      </trkpt>
      <trkpt lat="43.72089" lon="6.06774">
        <ele>456.5</ele>
        <time>2025-11-19T14:34:21.634Z</time>
      </trkpt>
      <trkpt lat="43.72091" lon="6.06773">
        <ele>456.7</ele>
        <time>2025-11-19T14:34:26.635Z</time>
      </trkpt>
      <trkpt lat="43.72091" lon="6.0677">
        <ele>456.8</ele>
        <time>2025-11-19T14:35:22.634Z</time>
      </trkpt>
      <trkpt lat="43.72093" lon="6.06767">
        <ele>457</ele>
        <time>2025-11-19T14:35:27.635Z</time>
      </trkpt>
      <trkpt lat="43.72095" lon="6.06763">
        <ele>457.1</ele>
        <time>2025-11-19T14:35:31.634Z</time>
      </trkpt>
      <trkpt lat="43.72097" lon="6.06761">
        <ele>457.3</ele>
        <time>2025-11-19T14:35:34.634Z</time>
      </trkpt>
      <trkpt lat="43.72098" lon="6.06759">
        <ele>457.4</ele>
        <time>2025-11-19T14:35:37.634Z</time>
      </trkpt>
      <trkpt lat="43.721" lon="6.06756">
        <ele>457.5</ele>
        <time>2025-11-19T14:35:40.634Z</time>
      </trkpt>
      <trkpt lat="43.72101" lon="6.06754">
        <ele>457.6</ele>
        <time>2025-11-19T14:35:42.635Z</time>
      </trkpt>
      <trkpt lat="43.72103" lon="6.06751">
        <ele>457.7</ele>
        <time>2025-11-19T14:35:45.635Z</time>
      </trkpt>
      <trkpt lat="43.72105" lon="6.06748">
        <ele>457.8</ele>
        <time>2025-11-19T14:35:48.634Z</time>
      </trkpt>
      <trkpt lat="43.72108" lon="6.06745">
        <ele>457.9</ele>
        <time>2025-11-19T14:35:51.635Z</time>
      </trkpt>
      <trkpt lat="43.7211" lon="6.06743">
        <ele>458</ele>
        <time>2025-11-19T14:35:54.635Z</time>
      </trkpt>
      <trkpt lat="43.72113" lon="6.06741">
        <ele>458.3</ele>
        <time>2025-11-19T14:35:57.634Z</time>
      </trkpt>
      <trkpt lat="43.72116" lon="6.0674">
        <ele>458.7</ele>
        <time>2025-11-19T14:36:00.634Z</time>
      </trkpt>
      <trkpt lat="43.72118" lon="6.06737">
        <ele>459.1</ele>
        <time>2025-11-19T14:36:03.634Z</time>
      </trkpt>
      <trkpt lat="43.7212" lon="6.06735">
        <ele>459.4</ele>
        <time>2025-11-19T14:36:05.635Z</time>
      </trkpt>
      <trkpt lat="43.72122" lon="6.06733">
        <ele>459.8</ele>
        <time>2025-11-19T14:36:08.634Z</time>
      </trkpt>
      <trkpt lat="43.72125" lon="6.06731">
        <ele>460.2</ele>
        <time>2025-11-19T14:36:11.635Z</time>
      </trkpt>
      <trkpt lat="43.72128" lon="6.06729">
        <ele>460.5</ele>
        <time>2025-11-19T14:36:14.634Z</time>
      </trkpt>
      <trkpt lat="43.7213" lon="6.06727">
        <ele>460.8</ele>
        <time>2025-11-19T14:36:16.634Z</time>
      </trkpt>
      <trkpt lat="43.72133" lon="6.06726">
        <ele>461.2</ele>
        <time>2025-11-19T14:36:20.634Z</time>
      </trkpt>
      <trkpt lat="43.72135" lon="6.06725">
        <ele>461.5</ele>
        <time>2025-11-19T14:36:22.635Z</time>
      </trkpt>
      <trkpt lat="43.72137" lon="6.06724">
        <ele>461.7</ele>
        <time>2025-11-19T14:36:24.634Z</time>
      </trkpt>
      <trkpt lat="43.72139" lon="6.06722">
        <ele>462</ele>
        <time>2025-11-19T14:36:27.635Z</time>
      </trkpt>
      <trkpt lat="43.72142" lon="6.06721">
        <ele>462.3</ele>
        <time>2025-11-19T14:36:30.635Z</time>
      </trkpt>
      <trkpt lat="43.72144" lon="6.06719">
        <ele>462.6</ele>
        <time>2025-11-19T14:36:33.635Z</time>
      </trkpt>
      <trkpt lat="43.72146" lon="6.06716">
        <ele>462.9</ele>
        <time>2025-11-19T14:36:36.635Z</time>
      </trkpt>
      <trkpt lat="43.72149" lon="6.06716">
        <ele>463.2</ele>
        <time>2025-11-19T14:36:39.635Z</time>
      </trkpt>
      <trkpt lat="43.72151" lon="6.06714">
        <ele>463.5</ele>
        <time>2025-11-19T14:36:42.635Z</time>
      </trkpt>
      <trkpt lat="43.72153" lon="6.06713">
        <ele>463.7</ele>
        <time>2025-11-19T14:36:44.635Z</time>
      </trkpt>
      <trkpt lat="43.72156" lon="6.06712">
        <ele>464</ele>
        <time>2025-11-19T14:36:47.634Z</time>
      </trkpt>
      <trkpt lat="43.72158" lon="6.06711">
        <ele>464.4</ele>
        <time>2025-11-19T14:36:50.634Z</time>
      </trkpt>
      <trkpt lat="43.7216" lon="6.0671">
        <ele>464.6</ele>
        <time>2025-11-19T14:36:52.634Z</time>
      </trkpt>
      <trkpt lat="43.72163" lon="6.06709">
        <ele>464.9</ele>
        <time>2025-11-19T14:36:55.635Z</time>
      </trkpt>
      <trkpt lat="43.72165" lon="6.06707">
        <ele>465.2</ele>
        <time>2025-11-19T14:36:58.635Z</time>
      </trkpt>
      <trkpt lat="43.72168" lon="6.06705">
        <ele>465.4</ele>
        <time>2025-11-19T14:37:01.635Z</time>
      </trkpt>
      <trkpt lat="43.72171" lon="6.06704">
        <ele>465.6</ele>
        <time>2025-11-19T14:37:04.635Z</time>
      </trkpt>
      <trkpt lat="43.72173" lon="6.06703">
        <ele>465.7</ele>
        <time>2025-11-19T14:37:07.635Z</time>
      </trkpt>
      <trkpt lat="43.72176" lon="6.06701">
        <ele>465.8</ele>
        <time>2025-11-19T14:37:10.635Z</time>
      </trkpt>
      <trkpt lat="43.72179" lon="6.06701">
        <ele>466</ele>
        <time>2025-11-19T14:37:13.635Z</time>
      </trkpt>
      <trkpt lat="43.72182" lon="6.067">
        <ele>466.2</ele>
        <time>2025-11-19T14:37:16.634Z</time>
      </trkpt>
      <trkpt lat="43.72185" lon="6.06699">
        <ele>466.3</ele>
        <time>2025-11-19T14:37:19.634Z</time>
      </trkpt>
      <trkpt lat="43.72187" lon="6.06698">
        <ele>466.5</ele>
        <time>2025-11-19T14:37:22.635Z</time>
      </trkpt>
      <trkpt lat="43.7219" lon="6.06696">
        <ele>466.7</ele>
        <time>2025-11-19T14:37:25.634Z</time>
      </trkpt>
      <trkpt lat="43.72192" lon="6.06693">
        <ele>466.8</ele>
        <time>2025-11-19T14:37:29.635Z</time>
      </trkpt>
      <trkpt lat="43.72194" lon="6.06693">
        <ele>467</ele>
        <time>2025-11-19T14:37:32.635Z</time>
      </trkpt>
      <trkpt lat="43.72197" lon="6.06691">
        <ele>467.1</ele>
        <time>2025-11-19T14:37:36.635Z</time>
      </trkpt>
      <trkpt lat="43.722" lon="6.06691">
        <ele>467.2</ele>
        <time>2025-11-19T14:37:39.635Z</time>
      </trkpt>
      <trkpt lat="43.72202" lon="6.06688">
        <ele>467.3</ele>
        <time>2025-11-19T14:37:42.634Z</time>
      </trkpt>
      <trkpt lat="43.72205" lon="6.06687">
        <ele>467.5</ele>
        <time>2025-11-19T14:37:45.635Z</time>
      </trkpt>
      <trkpt lat="43.72207" lon="6.06686">
        <ele>467.6</ele>
        <time>2025-11-19T14:37:48.635Z</time>
      </trkpt>
      <trkpt lat="43.72209" lon="6.06685">
        <ele>467.7</ele>
        <time>2025-11-19T14:37:51.635Z</time>
      </trkpt>
      <trkpt lat="43.72212" lon="6.06684">
        <ele>467.9</ele>
        <time>2025-11-19T14:37:54.634Z</time>
      </trkpt>
      <trkpt lat="43.72215" lon="6.06682">
        <ele>468</ele>
        <time>2025-11-19T14:37:57.634Z</time>
      </trkpt>
      <trkpt lat="43.72217" lon="6.06681">
        <ele>468.2</ele>
        <time>2025-11-19T14:38:00.635Z</time>
      </trkpt>
      <trkpt lat="43.7222" lon="6.06679">
        <ele>468.4</ele>
        <time>2025-11-19T14:38:03.635Z</time>
      </trkpt>
      <trkpt lat="43.72222" lon="6.06678">
        <ele>468.6</ele>
        <time>2025-11-19T14:38:05.635Z</time>
      </trkpt>
      <trkpt lat="43.72224" lon="6.06676">
        <ele>468.7</ele>
        <time>2025-11-19T14:38:08.634Z</time>
      </trkpt>
      <trkpt lat="43.72226" lon="6.06673">
        <ele>468.9</ele>
        <time>2025-11-19T14:38:11.634Z</time>
      </trkpt>
      <trkpt lat="43.72229" lon="6.06673">
        <ele>469</ele>
        <time>2025-11-19T14:38:14.634Z</time>
      </trkpt>
      <trkpt lat="43.72233" lon="6.06672">
        <ele>469.1</ele>
        <time>2025-11-19T14:38:17.635Z</time>
      </trkpt>
      <trkpt lat="43.72236" lon="6.0667">
        <ele>469.3</ele>
        <time>2025-11-19T14:38:20.634Z</time>
      </trkpt>
      <trkpt lat="43.72239" lon="6.06668">
        <ele>469.5</ele>
        <time>2025-11-19T14:38:23.635Z</time>
      </trkpt>
      <trkpt lat="43.72241" lon="6.06667">
        <ele>469.7</ele>
        <time>2025-11-19T14:38:26.635Z</time>
      </trkpt>
      <trkpt lat="43.72244" lon="6.06665">
        <ele>469.8</ele>
        <time>2025-11-19T14:38:29.635Z</time>
      </trkpt>
      <trkpt lat="43.72247" lon="6.06664">
        <ele>470</ele>
        <time>2025-11-19T14:38:34.635Z</time>
      </trkpt>
      <trkpt lat="43.72249" lon="6.06662">
        <ele>470.1</ele>
        <time>2025-11-19T14:38:36.635Z</time>
      </trkpt>
      <trkpt lat="43.72252" lon="6.06661">
        <ele>470.2</ele>
        <time>2025-11-19T14:38:39.635Z</time>
      </trkpt>
      <trkpt lat="43.72254" lon="6.0666">
        <ele>470.3</ele>
        <time>2025-11-19T14:38:41.635Z</time>
      </trkpt>
      <trkpt lat="43.72257" lon="6.06659">
        <ele>470.3</ele>
        <time>2025-11-19T14:38:44.634Z</time>
      </trkpt>
      <trkpt lat="43.7226" lon="6.06657">
        <ele>470.4</ele>
        <time>2025-11-19T14:38:46.634Z</time>
      </trkpt>
      <trkpt lat="43.72262" lon="6.06655">
        <ele>470.6</ele>
        <time>2025-11-19T14:38:48.635Z</time>
      </trkpt>
      <trkpt lat="43.72264" lon="6.06653">
        <ele>470.7</ele>
        <time>2025-11-19T14:38:51.635Z</time>
      </trkpt>
      <trkpt lat="43.72266" lon="6.06652">
        <ele>470.8</ele>
        <time>2025-11-19T14:38:53.635Z</time>
      </trkpt>
      <trkpt lat="43.72268" lon="6.0665">
        <ele>471</ele>
        <time>2025-11-19T14:38:56.635Z</time>
      </trkpt>
      <trkpt lat="43.72271" lon="6.06648">
        <ele>471.2</ele>
        <time>2025-11-19T14:38:59.635Z</time>
      </trkpt>
      <trkpt lat="43.72274" lon="6.06647">
        <ele>471.3</ele>
        <time>2025-11-19T14:39:02.635Z</time>
      </trkpt>
      <trkpt lat="43.72276" lon="6.06647">
        <ele>471.4</ele>
        <time>2025-11-19T14:39:05.635Z</time>
      </trkpt>
      <trkpt lat="43.72279" lon="6.06648">
        <ele>471.4</ele>
        <time>2025-11-19T14:39:08.635Z</time>
      </trkpt>
      <trkpt lat="43.72281" lon="6.0665">
        <ele>471.5</ele>
        <time>2025-11-19T14:39:11.635Z</time>
      </trkpt>
      <trkpt lat="43.72284" lon="6.06651">
        <ele>471.6</ele>
        <time>2025-11-19T14:39:14.635Z</time>
      </trkpt>
      <trkpt lat="43.72287" lon="6.06653">
        <ele>471.6</ele>
        <time>2025-11-19T14:39:17.634Z</time>
      </trkpt>
      <trkpt lat="43.72289" lon="6.06656">
        <ele>471.6</ele>
        <time>2025-11-19T14:39:20.635Z</time>
      </trkpt>
      <trkpt lat="43.72291" lon="6.06659">
        <ele>471.5</ele>
        <time>2025-11-19T14:39:24.635Z</time>
      </trkpt>
      <trkpt lat="43.72293" lon="6.06661">
        <ele>471.5</ele>
        <time>2025-11-19T14:39:26.634Z</time>
      </trkpt>
      <trkpt lat="43.72295" lon="6.06663">
        <ele>471.5</ele>
        <time>2025-11-19T14:39:29.634Z</time>
      </trkpt>
      <trkpt lat="43.72296" lon="6.06667">
        <ele>471.3</ele>
        <time>2025-11-19T14:39:32.635Z</time>
      </trkpt>
      <trkpt lat="43.72298" lon="6.0667">
        <ele>471.2</ele>
        <time>2025-11-19T14:39:35.635Z</time>
      </trkpt>
      <trkpt lat="43.723" lon="6.06673">
        <ele>471.1</ele>
        <time>2025-11-19T14:39:38.635Z</time>
      </trkpt>
      <trkpt lat="43.72302" lon="6.06676">
        <ele>470.8</ele>
        <time>2025-11-19T14:39:41.635Z</time>
      </trkpt>
      <trkpt lat="43.72305" lon="6.06678">
        <ele>470.7</ele>
        <time>2025-11-19T14:39:44.635Z</time>
      </trkpt>
      <trkpt lat="43.72307" lon="6.06681">
        <ele>470.5</ele>
        <time>2025-11-19T14:39:47.635Z</time>
      </trkpt>
      <trkpt lat="43.72309" lon="6.06683">
        <ele>470.3</ele>
        <time>2025-11-19T14:39:50.635Z</time>
      </trkpt>
      <trkpt lat="43.72312" lon="6.06686">
        <ele>470.1</ele>
        <time>2025-11-19T14:39:53.635Z</time>
      </trkpt>
      <trkpt lat="43.72314" lon="6.06689">
        <ele>469.9</ele>
        <time>2025-11-19T14:39:56.635Z</time>
      </trkpt>
      <trkpt lat="43.72316" lon="6.06691">
        <ele>469.8</ele>
        <time>2025-11-19T14:39:59.635Z</time>
      </trkpt>
      <trkpt lat="43.72319" lon="6.06693">
        <ele>469.6</ele>
        <time>2025-11-19T14:40:02.635Z</time>
      </trkpt>
      <trkpt lat="43.72322" lon="6.06695">
        <ele>469.5</ele>
        <time>2025-11-19T14:40:05.635Z</time>
      </trkpt>
      <trkpt lat="43.72325" lon="6.06697">
        <ele>469.5</ele>
        <time>2025-11-19T14:40:08.635Z</time>
      </trkpt>
      <trkpt lat="43.72327" lon="6.067">
        <ele>469.4</ele>
        <time>2025-11-19T14:40:11.635Z</time>
      </trkpt>
      <trkpt lat="43.7233" lon="6.06702">
        <ele>469.3</ele>
        <time>2025-11-19T14:40:14.635Z</time>
      </trkpt>
      <trkpt lat="43.72333" lon="6.06704">
        <ele>469.3</ele>
        <time>2025-11-19T14:40:17.635Z</time>
      </trkpt>
      <trkpt lat="43.72336" lon="6.06706">
        <ele>469.3</ele>
        <time>2025-11-19T14:40:20.635Z</time>
      </trkpt>
      <trkpt lat="43.72338" lon="6.06708">
        <ele>469.3</ele>
        <time>2025-11-19T14:40:23.635Z</time>
      </trkpt>
      <trkpt lat="43.72341" lon="6.0671">
        <ele>469.3</ele>
        <time>2025-11-19T14:40:26.635Z</time>
      </trkpt>
      <trkpt lat="43.72343" lon="6.06712">
        <ele>469.2</ele>
        <time>2025-11-19T14:40:28.635Z</time>
      </trkpt>
      <trkpt lat="43.72345" lon="6.06713">
        <ele>469.2</ele>
        <time>2025-11-19T14:40:30.635Z</time>
      </trkpt>
      <trkpt lat="43.72348" lon="6.06714">
        <ele>469.2</ele>
        <time>2025-11-19T14:40:33.635Z</time>
      </trkpt>
      <trkpt lat="43.7235" lon="6.06717">
        <ele>469.1</ele>
        <time>2025-11-19T14:40:35.635Z</time>
      </trkpt>
      <trkpt lat="43.72353" lon="6.06719">
        <ele>469</ele>
        <time>2025-11-19T14:40:38.635Z</time>
      </trkpt>
      <trkpt lat="43.72355" lon="6.06721">
        <ele>468.9</ele>
        <time>2025-11-19T14:40:41.635Z</time>
      </trkpt>
      <trkpt lat="43.72358" lon="6.06723">
        <ele>468.9</ele>
        <time>2025-11-19T14:40:44.634Z</time>
      </trkpt>
      <trkpt lat="43.7236" lon="6.06726">
        <ele>468.8</ele>
        <time>2025-11-19T14:40:47.635Z</time>
      </trkpt>
      <trkpt lat="43.72363" lon="6.06727">
        <ele>468.9</ele>
        <time>2025-11-19T14:40:50.635Z</time>
      </trkpt>
      <trkpt lat="43.72366" lon="6.06729">
        <ele>469</ele>
        <time>2025-11-19T14:40:52.635Z</time>
      </trkpt>
      <trkpt lat="43.72368" lon="6.06731">
        <ele>469</ele>
        <time>2025-11-19T14:40:55.635Z</time>
      </trkpt>
      <trkpt lat="43.7237" lon="6.06733">
        <ele>469</ele>
        <time>2025-11-19T14:40:57.635Z</time>
      </trkpt>
      <trkpt lat="43.72373" lon="6.06734">
        <ele>469.1</ele>
        <time>2025-11-19T14:41:00.635Z</time>
      </trkpt>
      <trkpt lat="43.72376" lon="6.06736">
        <ele>469.1</ele>
        <time>2025-11-19T14:41:02.635Z</time>
      </trkpt>
      <trkpt lat="43.72378" lon="6.06737">
        <ele>469</ele>
        <time>2025-11-19T14:41:05.635Z</time>
      </trkpt>
      <trkpt lat="43.72381" lon="6.06739">
        <ele>468.9</ele>
        <time>2025-11-19T14:41:08.635Z</time>
      </trkpt>
      <trkpt lat="43.72383" lon="6.06741">
        <ele>468.8</ele>
        <time>2025-11-19T14:41:11.635Z</time>
      </trkpt>
      <trkpt lat="43.72387" lon="6.06743">
        <ele>468.7</ele>
        <time>2025-11-19T14:41:14.635Z</time>
      </trkpt>
      <trkpt lat="43.72389" lon="6.06745">
        <ele>468.5</ele>
        <time>2025-11-19T14:41:17.635Z</time>
      </trkpt>
      <trkpt lat="43.72392" lon="6.06748">
        <ele>468.4</ele>
        <time>2025-11-19T14:41:20.635Z</time>
      </trkpt>
      <trkpt lat="43.72394" lon="6.0675">
        <ele>468.4</ele>
        <time>2025-11-19T14:41:22.635Z</time>
      </trkpt>
      <trkpt lat="43.72397" lon="6.06752">
        <ele>468.5</ele>
        <time>2025-11-19T14:41:24.635Z</time>
      </trkpt>
      <trkpt lat="43.72399" lon="6.06755">
        <ele>468.4</ele>
        <time>2025-11-19T14:41:27.635Z</time>
      </trkpt>
      <trkpt lat="43.72401" lon="6.06758">
        <ele>468.3</ele>
        <time>2025-11-19T14:41:30.635Z</time>
      </trkpt>
      <trkpt lat="43.72402" lon="6.06761">
        <ele>468.2</ele>
        <time>2025-11-19T14:41:33.635Z</time>
      </trkpt>
      <trkpt lat="43.72404" lon="6.06763">
        <ele>468.1</ele>
        <time>2025-11-19T14:41:36.635Z</time>
      </trkpt>
      <trkpt lat="43.72406" lon="6.06766">
        <ele>468</ele>
        <time>2025-11-19T14:41:39.636Z</time>
      </trkpt>
      <trkpt lat="43.72407" lon="6.06768">
        <ele>467.8</ele>
        <time>2025-11-19T14:41:42.635Z</time>
      </trkpt>
      <trkpt lat="43.7241" lon="6.0677">
        <ele>467.7</ele>
        <time>2025-11-19T14:41:45.635Z</time>
      </trkpt>
      <trkpt lat="43.72412" lon="6.06773">
        <ele>467.5</ele>
        <time>2025-11-19T14:41:48.635Z</time>
      </trkpt>
      <trkpt lat="43.72414" lon="6.06776">
        <ele>467.2</ele>
        <time>2025-11-19T14:41:51.635Z</time>
      </trkpt>
      <trkpt lat="43.72415" lon="6.06779">
        <ele>466.9</ele>
        <time>2025-11-19T14:41:53.635Z</time>
      </trkpt>
      <trkpt lat="43.72417" lon="6.06781">
        <ele>466.8</ele>
        <time>2025-11-19T14:41:55.635Z</time>
      </trkpt>
      <trkpt lat="43.72419" lon="6.06785">
        <ele>466.6</ele>
        <time>2025-11-19T14:41:58.635Z</time>
      </trkpt>
      <trkpt lat="43.72421" lon="6.06787">
        <ele>466.5</ele>
        <time>2025-11-19T14:42:01.635Z</time>
      </trkpt>
      <trkpt lat="43.72424" lon="6.0679">
        <ele>466.4</ele>
        <time>2025-11-19T14:42:04.635Z</time>
      </trkpt>
      <trkpt lat="43.72426" lon="6.06792">
        <ele>466.3</ele>
        <time>2025-11-19T14:42:07.635Z</time>
      </trkpt>
      <trkpt lat="43.72428" lon="6.06795">
        <ele>466.2</ele>
        <time>2025-11-19T14:42:09.635Z</time>
      </trkpt>
      <trkpt lat="43.72431" lon="6.06797">
        <ele>466.1</ele>
        <time>2025-11-19T14:42:12.635Z</time>
      </trkpt>
      <trkpt lat="43.72434" lon="6.068">
        <ele>466</ele>
        <time>2025-11-19T14:42:15.635Z</time>
      </trkpt>
      <trkpt lat="43.72435" lon="6.06803">
        <ele>465.9</ele>
        <time>2025-11-19T14:42:17.635Z</time>
      </trkpt>
      <trkpt lat="43.72438" lon="6.06805">
        <ele>465.8</ele>
        <time>2025-11-19T14:42:20.635Z</time>
      </trkpt>
      <trkpt lat="43.72441" lon="6.06807">
        <ele>465.8</ele>
        <time>2025-11-19T14:42:23.635Z</time>
      </trkpt>
      <trkpt lat="43.72443" lon="6.06808">
        <ele>466</ele>
        <time>2025-11-19T14:42:26.635Z</time>
      </trkpt>
      <trkpt lat="43.72446" lon="6.0681">
        <ele>466.1</ele>
        <time>2025-11-19T14:42:29.635Z</time>
      </trkpt>
      <trkpt lat="43.72449" lon="6.06812">
        <ele>466.3</ele>
        <time>2025-11-19T14:42:32.635Z</time>
      </trkpt>
      <trkpt lat="43.72452" lon="6.06813">
        <ele>466.5</ele>
        <time>2025-11-19T14:42:35.636Z</time>
      </trkpt>
      <trkpt lat="43.72455" lon="6.06815">
        <ele>466.7</ele>
        <time>2025-11-19T14:42:38.635Z</time>
      </trkpt>
      <trkpt lat="43.72457" lon="6.06816">
        <ele>466.9</ele>
        <time>2025-11-19T14:42:40.635Z</time>
      </trkpt>
      <trkpt lat="43.7246" lon="6.06817">
        <ele>467.1</ele>
        <time>2025-11-19T14:42:42.635Z</time>
      </trkpt>
      <trkpt lat="43.72461" lon="6.0682">
        <ele>467.2</ele>
        <time>2025-11-19T14:42:45.635Z</time>
      </trkpt>
      <trkpt lat="43.72464" lon="6.06821">
        <ele>467.4</ele>
        <time>2025-11-19T14:42:48.635Z</time>
      </trkpt>
      <trkpt lat="43.72467" lon="6.06824">
        <ele>467.6</ele>
        <time>2025-11-19T14:42:51.635Z</time>
      </trkpt>
      <trkpt lat="43.72469" lon="6.06826">
        <ele>467.8</ele>
        <time>2025-11-19T14:42:53.635Z</time>
      </trkpt>
      <trkpt lat="43.72472" lon="6.06829">
        <ele>467.9</ele>
        <time>2025-11-19T14:42:56.635Z</time>
      </trkpt>
      <trkpt lat="43.72474" lon="6.06831">
        <ele>468.1</ele>
        <time>2025-11-19T14:42:59.635Z</time>
      </trkpt>
      <trkpt lat="43.72476" lon="6.06833">
        <ele>468.3</ele>
        <time>2025-11-19T14:43:02.635Z</time>
      </trkpt>
      <trkpt lat="43.7248" lon="6.06833">
        <ele>468.6</ele>
        <time>2025-11-19T14:43:08.635Z</time>
      </trkpt>
      <trkpt lat="43.72483" lon="6.06832">
        <ele>468.8</ele>
        <time>2025-11-19T14:43:14.635Z</time>
      </trkpt>
      <trkpt lat="43.72485" lon="6.0683">
        <ele>469</ele>
        <time>2025-11-19T14:43:22.635Z</time>
      </trkpt>
      <trkpt lat="43.72488" lon="6.06828">
        <ele>469.2</ele>
        <time>2025-11-19T14:43:25.635Z</time>
      </trkpt>
      <trkpt lat="43.7249" lon="6.06829">
        <ele>469.4</ele>
        <time>2025-11-19T14:43:29.635Z</time>
      </trkpt>
      <trkpt lat="43.72493" lon="6.0683">
        <ele>469.6</ele>
        <time>2025-11-19T14:43:32.635Z</time>
      </trkpt>
      <trkpt lat="43.72495" lon="6.0683">
        <ele>469.7</ele>
        <time>2025-11-19T14:43:35.635Z</time>
      </trkpt>
      <trkpt lat="43.72498" lon="6.0683">
        <ele>470</ele>
        <time>2025-11-19T14:43:38.635Z</time>
      </trkpt>
      <trkpt lat="43.72499" lon="6.06827">
        <ele>470.2</ele>
        <time>2025-11-19T14:43:40.636Z</time>
      </trkpt>
      <trkpt lat="43.72501" lon="6.06823">
        <ele>470.4</ele>
        <time>2025-11-19T14:43:47.635Z</time>
      </trkpt>
    </trkseg>
  </trk>
</gpx>